# Wetter Temperatur Luftdruck Luftfeuchtigkeit Sichtweite Windgeschwindigkeit Windrichtung Zeit
1 Clouds 4 1008 48 10000 1.5 250 21:39 02.04.2020
2 Clouds 4 1008 60 0 1.63 260 21:20 02.04.2020
3 Clouds 5 1008 49 10000 1.5 260 20:58 02.04.2020
4 Clouds 6 1008 49 10000 1.5 290 20:40 02.04.2020
5 Clouds 7 1007 49 10000 2.1 310 20:21 02.04.2020
6 Clouds 8 1007 39 10000 3.1 320 19:44 02.04.2020
7 Clouds 10 1007 37 10000 2.6 290 19:21 02.04.2020
8 Clouds 11 1007 37 10000 2.6 290 18:59 02.04.2020
9 Clouds 11 1008 37 10000 3.6 300 18:39 02.04.2020
10 Clouds 11 1008 37 10000 3.6 300 18:39 02.04.2020
11 Clouds 12 1008 37 10000 4.1 270 18:20 02.04.2020
12 Clouds 12 1008 37 10000 4.1 270 17:57 02.04.2020
13 Clouds 12 1008 37 10000 3.6 270 17:39 02.04.2020
14 Clouds 12 1009 34 10000 3.6 270 17:20 02.04.2020
15 Clouds 12 1009 34 10000 3.6 270 16:56 02.04.2020
16 Clouds 12 1009 37 10000 3.6 270 16:38 02.04.2020
17 Clouds 12 1009 37 10000 4.6 280 16:20 02.04.2020
18 Clouds 12 1009 37 10000 4.6 280 15:55 02.04.2020
19 Clouds 12 1010 37 10000 4.6 290 15:37 02.04.2020
20 Clouds 11 1010 40 10000 5.1 270 15:18 02.04.2020
21 Clouds 11 1011 39 10000 3.6 270 14:40 02.04.2020
22 Clouds 11 1011 39 10000 2.6 0 14:21 02.04.2020
23 Clouds 10 1011 39 10000 2.6 0 13:58 02.04.2020
24 Clouds 10 1012 42 10000 4.6 210 13:39 02.04.2020
25 Clouds 10 1012 42 10000 2.6 0 13:21 02.04.2020
26 Clouds 10 1012 42 10000 2.6 0 12:57 02.04.2020
27 Clouds 10 1012 42 10000 2.6 0 12:39 02.04.2020
28 Clouds 8 1013 45 10000 3.6 0 12:19 02.04.2020
29 Clouds 8 1013 45 10000 3.6 0 12:19 02.04.2020
30 Clouds 8 1013 45 10000 3.6 0 11:57 02.04.2020
31 Clouds 8 1013 45 10000 3.1 270 11:38 02.04.2020
32 Clouds 7 1013 52 10000 3.1 250 11:19 02.04.2020
33 Clouds 7 1013 52 10000 3.1 250 10:55 02.04.2020
34 Clouds 7 1013 56 10000 3.1 240 10:37 02.04.2020
35 Clouds 6 1014 56 10000 3.1 220 10:19 02.04.2020
36 Clouds 5 1014 56 10000 3.1 220 09:55 02.04.2020
37 Clouds 4 1014 59 10000 4.1 210 09:37 02.04.2020
38 Clear 2 1014 64 10000 3.1 200 09:18 02.04.2020
39 Clear 1 1014 74 10000 3.6 200 08:45 02.04.2020
40 Clear 0 1014 74 10000 3.6 200 08:26 02.04.2020
41 Clear -2 1014 74 10000 3.1 200 07:45 02.04.2020
42 -273 0 0 0 0 0 07:20 02.04.2020
43 Clear -3 1014 74 10000 3.1 200 06:58 02.04.2020
44 Clear -3 1014 74 10000 2.6 190 06:22 02.04.2020
45 Clear -3 1014 74 10000 2.6 200 05:45 02.04.2020
46 Clear -2 1014 74 10000 2.6 200 04:35 02.04.2020
47 Clear -2 1015 84 10000 2.1 210 01:52 02.04.2020
48 Clear -1 1016 74 0 1.91 230 00:50 02.04.2020
49 Clear -1 1016 74 0 1.91 230 00:50 02.04.2020
50 Clear -1 1015 59 10000 3.6 200 00:28 02.04.2020
51 Clear -1 1015 59 10000 3.6 190 23:57 01.04.2020
52 Clear 0 1016 55 10000 3.1 200 23:37 01.04.2020
53 Clear 0 1016 55 10000 3.1 200 23:37 01.04.2020
54 Clear -1 1017 68 0 2.17 201 23:18 01.04.2020
55 Clear 0 1017 65 0 2.17 201 22:41 01.04.2020
56 Clear 0 1017 63 0 2.17 201 22:22 01.04.2020
57 Clear 1 1017 57 0 2.17 201 21:57 01.04.2020
58 Clear 1 1017 56 0 2.17 201 21:39 01.04.2020
59 Clear 1 1017 59 0 1.43 257 21:19 01.04.2020
60 Clear 2 1017 58 0 1.43 257 20:55 01.04.2020
61 Clear 2 1017 58 0 1.43 257 20:55 01.04.2020
62 Clear 3 1016 41 10000 1 260 20:37 01.04.2020
63 Clear 4 1016 38 10000 1 0 20:18 01.04.2020
64 Clear 5 1016 36 10000 2.1 280 19:43 01.04.2020
65 Clear 7 1016 36 10000 2.1 280 19:22 01.04.2020
66 Clear 7 1016 36 10000 2.1 280 18:59 01.04.2020
67 Clear 8 1017 33 10000 2.6 280 18:41 01.04.2020
68 Clear 8 1017 33 10000 3.6 270 18:21 01.04.2020
69 Clear 8 1017 33 10000 3.6 270 17:56 01.04.2020
70 Clear 9 1017 33 10000 3.1 250 17:37 01.04.2020
71 Clear 9 1017 33 10000 3.6 250 17:18 01.04.2020
72 Clear 9 1017 33 10000 3.6 250 16:56 01.04.2020
73 Clear 9 1018 33 10000 4.6 260 16:38 01.04.2020
74 Clear 9 1018 33 10000 4.1 240 16:19 01.04.2020
75 Clear 8 1019 36 10000 2.6 0 15:42 01.04.2020
76 Clear 8 1019 36 10000 2.6 0 15:22 01.04.2020
77 Clear 8 1019 36 10000 2.1 0 14:59 01.04.2020
78 Clear 7 1019 38 10000 4.1 280 14:39 01.04.2020
79 Clear 7 1019 38 10000 4.1 280 14:21 01.04.2020
80 Clear 7 1020 38 10000 3.6 240 13:59 01.04.2020
81 Clear 6 1020 38 10000 4.1 240 13:39 01.04.2020
82 Clear 6 1021 38 10000 4.6 250 13:20 01.04.2020
83 Clear 6 1021 38 10000 4.6 250 12:57 01.04.2020
84 Clear 6 1021 38 10000 3.6 250 12:37 01.04.2020
85 Clear 4 1022 41 10000 3.6 240 12:19 01.04.2020
86 Clear 5 1022 41 10000 3.6 240 11:56 01.04.2020
87 Clear 4 1022 38 10000 3.6 270 11:37 01.04.2020
88 Clear 4 1022 40 10000 4.6 270 11:18 01.04.2020
89 Clear 3 1023 44 10000 4.1 230 10:39 01.04.2020
90 Clear 3 1023 47 10000 2.1 240 10:21 01.04.2020
91 Clear 3 1023 47 10000 2.1 240 09:59 01.04.2020
92 Clear 3 1023 47 10000 2.1 240 09:59 01.04.2020
93 Clear 1 1023 55 10000 3.6 210 09:40 01.04.2020
94 Clear 1 1023 55 10000 3.6 210 09:40 01.04.2020
95 Clear 0 1023 55 10000 3.6 210 09:20 01.04.2020
96 Clear -1 1023 63 10000 4.1 210 08:54 01.04.2020
97 Clear -2 1023 63 10000 4.1 200 08:36 01.04.2020
98 Clear -3 1023 68 10000 3.6 190 08:18 01.04.2020
99 Clear -5 1023 73 10000 3.1 200 07:40 01.04.2020
100 Clear -5 1023 79 10000 2.6 200 07:19 01.04.2020
101 Clear -5 1023 73 10000 2.6 200 06:43 01.04.2020
102 Clear -5 1024 79 10000 2.6 190 06:21 01.04.2020
103 Clear -5 1024 79 10000 3.1 190 05:41 01.04.2020
104 Clear -5 1024 73 10000 2.1 200 03:57 01.04.2020
105 Clear -5 1025 73 10000 2.1 190 03:20 01.04.2020
106 Clear -5 1025 73 10000 2.6 190 02:37 01.04.2020
107 Clear -4 1026 68 10000 2.6 190 01:53 01.04.2020
108 Clear -4 1026 68 10000 1.5 190 01:27 01.04.2020
109 Clear -4 1027 74 0 1.76 203 00:47 01.04.2020
110 Clear -4 1028 72 0 1.11 212 00:24 01.04.2020
111 Clear -4 1028 72 0 1.11 212 23:59 31.03.2020
112 Clear -4 1028 71 0 1.11 212 23:41 31.03.2020
113 Clear -4 1028 71 0 1.11 212 23:22 31.03.2020
114 Clear -3 1028 68 0 1.11 212 22:41 31.03.2020
115 Clear -3 1028 65 0 1.11 212 22:22 31.03.2020
116 Clear -2 1028 64 0 1.11 212 21:59 31.03.2020
117 Clear -2 1027 89 10000 0.5 340 21:40 31.03.2020
118 Clear -1 1027 89 10000 0.5 0 21:21 31.03.2020
119 Clouds -1 1027 88 10000 0.5 0 20:58 31.03.2020
120 Clouds 0 1027 47 10000 2.1 360 20:38 31.03.2020
121 Clouds 0 1027 47 10000 2.1 360 20:20 31.03.2020
122 Clouds 1 1027 47 10000 2.1 360 19:58 31.03.2020
123 Clouds 1 1027 43 10000 2.1 360 19:39 31.03.2020
124 Clouds 2 1027 40 10000 3.1 360 19:21 31.03.2020
125 Clouds 3 1027 37 10000 2.6 340 18:54 31.03.2020
126 Clouds 3 1027 37 10000 2.6 340 18:36 31.03.2020
127 Clouds 3 1027 37 10000 3.1 30 18:18 31.03.2020
128 Clouds 3 1027 32 10000 1 0 17:54 31.03.2020
129 Clouds 4 1027 32 10000 1 0 17:36 31.03.2020
130 Clouds 4 1027 32 10000 1 0 17:36 31.03.2020
131 Clouds 3 1027 37 10000 3.1 10 17:18 31.03.2020
132 Clouds 3 1028 37 10000 2.1 360 16:37 31.03.2020
133 Clouds 3 1028 37 10000 4.1 10 16:18 31.03.2020
134 Clouds 3 1028 37 10000 4.1 10 15:56 31.03.2020
135 Clouds 3 1028 40 10000 2.6 350 15:37 31.03.2020
136 Clouds 3 1028 38 10000 4.6 360 15:19 31.03.2020
137 Clouds 3 1028 38 10000 4.6 360 14:56 31.03.2020
138 Clouds 3 1028 44 10000 4.1 30 14:38 31.03.2020
139 Clouds 3 1028 47 10000 3.6 60 14:18 31.03.2020
140 Clouds 3 1029 51 10000 4.6 30 13:42 31.03.2020
141 Clouds 2 1029 55 10000 5.1 40 13:19 31.03.2020
142 Clouds 2 1029 55 10000 5.1 40 12:55 31.03.2020
143 Clouds 2 1029 51 10000 6.2 20 12:37 31.03.2020
144 Snow 1 1029 59 10000 4.6 50 12:18 31.03.2020
145 Snow 1 1029 59 10000 4.6 60 11:38 31.03.2020
146 Rain 1 1028 55 10000 5.1 30 11:19 31.03.2020
147 Rain 1 1028 55 10000 5.1 30 10:58 31.03.2020
148 Clouds 1 1028 59 10000 5.7 40 10:39 31.03.2020
149 Clouds 1 1028 64 10000 5.1 30 10:21 31.03.2020
150 Clouds 0 1028 64 10000 5.1 30 09:56 31.03.2020
151 Clouds 1 1028 69 10000 5.1 50 09:37 31.03.2020
152 Clouds 1 1028 69 10000 5.1 50 09:37 31.03.2020
153 Clouds 1 1028 69 10000 5.1 50 09:37 31.03.2020
154 Clouds -1 1028 95 10000 4.1 10 09:19 31.03.2020
155 Clouds 0 1028 94 10000 4.1 10 08:56 31.03.2020
156 Clouds -1 1028 94 10000 4.1 20 08:37 31.03.2020
157 Clouds -1 1027 94 10000 3.1 20 08:18 31.03.2020
158 Clouds -1 1027 94 10000 3.1 20 07:54 31.03.2020
159 Clouds -1 1027 86 10000 3.6 10 07:36 31.03.2020
160 Clouds -1 1027 86 10000 4.1 20 07:18 31.03.2020
161 Clouds 0 1026 94 10000 3.6 20 06:42 31.03.2020
162 Clouds 0 1026 96 10000 3.6 20 05:53 31.03.2020
163 Clouds 0 1026 96 10000 3.6 20 05:26 31.03.2020
164 Snow 0 1025 96 8000 2.1 350 03:27 31.03.2020
165 Snow 1 1025 86 10000 2.1 350 01:52 31.03.2020
166 Snow 1 1025 86 10000 2.1 340 01:33 31.03.2020
167 Snow 1 1025 86 10000 1.5 320 00:46 31.03.2020
168 Clouds 1 1025 86 10000 2.6 340 00:24 31.03.2020
169 Clouds 1 1025 86 10000 2.6 330 23:41 30.03.2020
170 Clouds 1 1025 86 10000 2.6 320 23:20 30.03.2020
171 Clouds 1 1025 86 10000 2.6 320 23:20 30.03.2020
172 Clouds 1 1025 86 10000 2.6 320 22:58 30.03.2020
173 Clouds 1 1025 86 10000 2.6 320 22:58 30.03.2020
174 Clouds 1 1025 80 10000 2.1 320 22:39 30.03.2020
175 Clouds 1 1024 80 10000 1.5 310 22:20 30.03.2020
176 Clouds 1 1024 80 10000 1.5 310 21:58 30.03.2020
177 Clouds 1 1024 80 10000 1.5 330 21:39 30.03.2020
178 Clouds 1 1024 80 10000 1.5 330 21:20 30.03.2020
179 Clouds 1 1024 74 10000 2.1 320 20:59 30.03.2020
180 Rain 2 1024 69 10000 2.1 330 20:39 30.03.2020
181 Rain 2 1024 69 10000 2.1 330 20:39 30.03.2020
182 Rain 2 1024 59 10000 2.1 320 20:20 30.03.2020
183 Rain 2 1024 59 10000 2.1 320 19:57 30.03.2020
184 Rain 3 1024 51 10000 3.1 300 19:39 30.03.2020
185 -273 0 0 0 0 0 19:20 30.03.2020
186 Clouds 3 1024 44 10000 3.6 310 18:44 30.03.2020
187 Clouds 4 1024 44 10000 3.6 310 18:26 30.03.2020
188 Clouds 4 1023 41 10000 5.1 310 17:58 30.03.2020
189 Clouds 4 1023 38 10000 4.6 310 17:40 30.03.2020
190 Clouds 5 1023 38 10000 4.1 270 17:22 30.03.2020
191 Clouds 5 1023 38 10000 4.1 270 16:59 30.03.2020
192 Clouds 5 1024 41 10000 4.6 290 16:40 30.03.2020
193 Clouds 5 1024 38 10000 4.1 300 16:21 30.03.2020
194 Clouds 5 1024 41 10000 4.6 290 16:21 30.03.2020
195 Clouds 5 1024 38 10000 4.1 300 15:56 30.03.2020
196 Clouds 5 1024 38 10000 4.6 270 15:38 30.03.2020
197 Clear 5 1025 35 10000 5.1 300 15:20 30.03.2020
198 Clear 4 1025 35 10000 5.1 300 14:58 30.03.2020
199 Clear 4 1025 37 10000 5.1 270 14:38 30.03.2020
200 Clear 4 1025 38 10000 4.1 260 14:19 30.03.2020
201 Clear 4 1025 38 10000 4.1 260 13:58 30.03.2020
202 Clear 4 1026 37 10000 3.6 300 13:39 30.03.2020
203 Clear 3 1026 44 10000 4.6 260 13:20 30.03.2020
204 Clouds 3 1026 47 10000 3.1 270 12:45 30.03.2020
205 Clouds 2 1027 43 10000 3.6 330 12:22 30.03.2020
206 Clouds 1 1027 43 10000 3.6 330 11:59 30.03.2020
207 Clouds 1 1027 43 10000 3.6 330 11:59 30.03.2020
208 Clouds 1 1027 51 10000 3.6 300 11:41 30.03.2020
209 Snow 1 1027 51 10000 3.1 320 11:22 30.03.2020
210 Clouds 1 1027 51 10000 3.1 320 10:57 30.03.2020
211 Clear 0 1027 73 10000 2.6 300 10:37 30.03.2020
212 Clear 0 1027 73 10000 2.6 260 10:19 30.03.2020
213 Clear -1 1027 58 10000 2.1 240 09:41 30.03.2020
214 Clear -1 1027 58 10000 2.1 240 09:41 30.03.2020
215 Clear -3 1027 63 10000 2.1 240 09:20 30.03.2020
216 Clear -3 1027 63 10000 2.1 240 08:58 30.03.2020
217 Clear -4 1027 68 10000 2.1 230 08:38 30.03.2020
218 Clear -5 1027 68 10000 2.1 240 08:20 30.03.2020
219 Clear -5 1027 73 10000 1.5 260 07:44 30.03.2020
220 Clear -6 1027 73 10000 1 0 07:23 30.03.2020
221 Clear -6 1027 73 10000 1.5 310 06:47 30.03.2020
222 Clear -6 1027 73 10000 1.5 310 06:27 30.03.2020
223 Clear -6 1027 79 10000 2.1 310 05:44 30.03.2020
224 Clear -5 1027 73 10000 1 330 04:40 30.03.2020
225 Clear -4 1027 79 10000 2.1 330 04:20 30.03.2020
226 Snow -3 1028 73 10000 2.6 340 02:52 30.03.2020
227 Snow -2 1027 74 10000 2.6 350 01:58 30.03.2020
228 Snow -2 1027 74 10000 3.1 350 01:24 30.03.2020
229 Clouds -1 1027 74 10000 4.1 360 00:30 30.03.2020
230 Clouds -1 1027 80 10000 3.6 360 23:59 29.03.2020
231 Clouds 0 1027 93 10000 5.1 10 23:40 29.03.2020
232 Clouds 0 1026 93 10000 5.1 10 23:21 29.03.2020
233 Clouds 0 1026 93 10000 5.1 10 22:56 29.03.2020
234 Clouds 0 1026 93 10000 5.7 10 22:37 29.03.2020
235 Snow 0 1026 93 6000 5.1 10 22:18 29.03.2020
236 Snow 1 1026 93 5000 5.7 20 21:40 29.03.2020
237 Rain 0 1026 93 5000 5.7 20 21:21 29.03.2020
238 Rain 0 1024 88 4000 7.2 10 20:56 29.03.2020
239 Rain 0 1024 88 4000 7.2 10 20:56 29.03.2020
240 Snow 1 1024 88 4000 7.2 10 20:38 29.03.2020
241 Snow 1 1024 88 10000 4.1 10 20:19 29.03.2020
242 Snow 1 1024 88 10000 4.1 10 19:59 29.03.2020
243 Snow 1 1024 88 10000 4.1 10 19:59 29.03.2020
244 Rain 1 1023 88 9000 5.1 10 19:41 29.03.2020
245 Rain 1 1023 88 4000 6.7 10 19:23 29.03.2020
246 Rain 1 1022 88 4500 6.7 10 18:57 29.03.2020
247 Rain 1 1022 88 4500 6.7 10 18:39 29.03.2020
248 Rain 1 1021 100 4500 5.7 10 18:20 29.03.2020
249 Rain 2 1021 93 10000 7.2 10 17:57 29.03.2020
250 Rain 2 1021 93 10000 7.2 10 17:39 29.03.2020
251 Rain 2 1021 93 10000 6.7 10 17:20 29.03.2020
252 Rain 2 1021 93 10000 6.7 10 16:57 29.03.2020
253 Rain 3 1020 93 10000 6.2 10 16:39 29.03.2020
254 Rain 3 1020 93 10000 6.2 10 16:39 29.03.2020
255 Rain 3 1020 93 4500 4.6 350 16:20 29.03.2020
256 Rain 3 1020 93 4500 3.6 320 15:43 29.03.2020
257 Rain 3 1020 93 4500 3.6 320 15:25 29.03.2020
258 Rain 3 1020 93 10000 3.6 330 14:59 29.03.2020
259 Clouds 4 1019 86 10000 5.1 330 14:40 29.03.2020
260 Rain 4 1019 86 9000 4.6 330 14:21 29.03.2020
261 Rain 4 1019 86 9000 4.6 330 13:59 29.03.2020
262 Rain 4 1019 86 10000 5.7 320 13:41 29.03.2020
263 Clouds 5 1019 79 10000 5.7 320 13:21 29.03.2020
264 Clouds 5 1019 79 10000 5.7 320 13:21 29.03.2020
265 Rain 5 1019 80 10000 6.2 340 12:58 29.03.2020
266 Rain 5 1019 80 10000 6.2 340 12:39 29.03.2020
267 Clouds 5 1018 71 10000 5.7 320 12:19 29.03.2020
268 Clouds 5 1018 71 10000 5.7 320 11:58 29.03.2020
269 Clouds 5 1018 71 10000 4.6 300 11:37 29.03.2020
270 Clouds 4 1018 71 10000 4.1 300 11:19 29.03.2020
271 Clouds 4 1018 71 10000 4.6 330 10:39 29.03.2020
272 Clouds 5 1018 71 10000 5.1 320 10:20 29.03.2020
273 Clouds 5 1018 71 10000 5.1 320 09:56 29.03.2020
274 Clouds 4 1018 71 10000 5.1 310 09:38 29.03.2020
275 Clouds 3 1018 74 10000 4.1 310 09:18 29.03.2020
276 Clouds 3 1018 80 10000 3.1 290 08:43 29.03.2020
277 Clouds 2 1018 86 10000 3.1 290 08:25 29.03.2020
278 Clouds 1 1018 86 10000 3.1 280 07:47 29.03.2020
279 Clouds 1 1018 86 10000 3.1 280 07:47 29.03.2020
280 Clouds 1 1018 86 10000 3.6 290 07:23 29.03.2020
281 Clouds 1 1017 80 10000 3.1 280 06:40 29.03.2020
282 Clouds 2 1017 74 10000 3.1 310 04:56 29.03.2020
283 Clouds 3 1017 81 10000 2.6 290 03:41 29.03.2020
284 Clouds 3 1017 81 10000 2.6 290 03:22 29.03.2020
285 Clouds 3 1017 84 10000 2.6 300 01:44 29.03.2020
286 Clouds 3 1017 84 10000 2.6 300 01:23 29.03.2020
287 Clouds 3 1017 69 10000 2.6 320 00:46 29.03.2020
288 Clouds 3 1017 69 10000 2.6 320 00:28 29.03.2020
289 Clouds 4 1017 65 10000 3.1 330 23:41 28.03.2020
290 Clouds 4 1017 65 10000 3.1 320 23:23 28.03.2020
291 Clouds 4 1017 65 10000 3.1 320 23:23 28.03.2020
292 Clouds 5 1017 60 10000 3.1 320 22:56 28.03.2020
293 Clouds 5 1017 60 10000 3.1 320 22:37 28.03.2020
294 Clouds 6 1017 52 10000 3.6 320 22:18 28.03.2020
295 Clouds 7 1017 52 10000 3.6 310 21:41 28.03.2020
296 Clouds 6 1017 52 10000 3.6 310 21:23 28.03.2020
297 Clouds 7 1017 56 10000 3.1 310 20:58 28.03.2020
298 Clouds 7 1017 52 10000 3.1 320 20:39 28.03.2020
299 Clouds 7 1017 74 10000 2.6 310 20:21 28.03.2020
300 Clear 7 1017 70 10000 2.6 310 19:56 28.03.2020
301 Clear 8 1016 70 10000 2.6 320 19:37 28.03.2020
302 Clear 8 1016 70 10000 2.6 320 19:37 28.03.2020
303 Clear 9 1016 70 10000 3.1 310 19:18 28.03.2020
304 Clear 9 1016 70 10000 3.1 330 18:55 28.03.2020
305 Clear 10 1016 70 10000 3.1 330 18:36 28.03.2020
306 Clear 11 1016 43 10000 4.1 320 18:18 28.03.2020
307 Clear 12 1016 40 10000 4.6 320 17:38 28.03.2020
308 Clear 13 1016 52 10000 5.1 320 17:19 28.03.2020
309 Clear 13 1016 52 10000 5.1 320 16:42 28.03.2020
310 Clear 13 1016 52 10000 5.7 310 16:20 28.03.2020
311 Clear 13 1016 52 10000 5.7 310 15:56 28.03.2020
312 Clear 14 1016 43 10000 4.6 320 15:38 28.03.2020
313 Clear 14 1016 43 10000 5.1 340 15:19 28.03.2020
314 Clear 14 1017 43 10000 5.1 330 14:43 28.03.2020
315 Clear 14 1017 53 10000 4.1 320 14:23 28.03.2020
316 Clear 14 1017 53 10000 4.1 320 13:59 28.03.2020
317 Clear 14 1017 46 10000 4.6 320 13:38 28.03.2020
318 Clear 13 1018 46 10000 4.1 310 13:19 28.03.2020
319 Clear 13 1018 55 10000 4.1 340 12:39 28.03.2020
320 Clear 12 1018 53 10000 4.1 330 12:21 28.03.2020
321 Clear 12 1018 50 10000 3.1 330 11:42 28.03.2020
322 Clear 11 1018 53 10000 2.6 340 11:21 28.03.2020
323 Clouds 10 1019 61 10000 2.6 290 10:56 28.03.2020
324 Clouds 10 1019 61 10000 2.6 290 10:38 28.03.2020
325 Clouds 10 1019 61 10000 2.1 310 10:18 28.03.2020
326 Clouds 8 1019 65 10000 1.5 300 09:41 28.03.2020
327 Clouds 8 1019 65 10000 1.5 300 09:23 28.03.2020
328 Clouds 6 1019 75 10000 1 0 08:46 28.03.2020
329 Clouds 6 1019 75 10000 1 0 08:28 28.03.2020
330 Clear 4 1019 83 8000 1.5 300 07:59 28.03.2020
331 Clear 3 1019 83 8000 2.1 300 07:41 28.03.2020
332 Clear 2 1018 83 7000 1 0 06:58 28.03.2020
333 Clear 2 1018 83 7000 1 280 06:34 28.03.2020
334 Clear 2 1018 83 10000 1.57 316 05:42 28.03.2020
335 Clear 3 1018 93 10000 0.5 0 05:21 28.03.2020
336 Clear 2 1018 82 10000 0.5 0 04:40 28.03.2020
337 Clear 2 1018 82 10000 1 0 03:34 28.03.2020
338 Clear 3 1019 77 10000 0.5 0 01:57 28.03.2020
339 Clear 4 1019 76 10000 0.5 0 01:26 28.03.2020
340 Clear 4 1019 76 10000 1 40 00:57 28.03.2020
341 Clear 5 1019 70 10000 1 0 00:36 28.03.2020
342 Clear 6 1019 65 10000 1 330 23:56 27.03.2020
343 Clear 6 1019 65 10000 1 330 23:38 27.03.2020
344 Clear 6 1019 61 10000 1.5 300 23:19 27.03.2020
345 Clear 6 1019 61 10000 1.5 320 22:56 27.03.2020
346 Clear 6 1019 61 10000 1.5 320 22:37 27.03.2020
347 Clear 7 1019 61 10000 1 0 22:19 27.03.2020
348 Clear 7 1019 61 10000 3.6 60 21:43 27.03.2020
349 Clear 8 1019 57 10000 4.1 50 21:24 27.03.2020
350 Clear 8 1019 57 10000 4.1 50 20:59 27.03.2020
351 Clear 9 1019 57 10000 3.6 50 20:41 27.03.2020
352 Clouds 9 1019 53 10000 3.6 60 20:20 27.03.2020
353 Clouds 9 1019 53 10000 3.6 60 20:20 27.03.2020
354 Clouds 10 1019 53 10000 3.6 60 19:57 27.03.2020
355 Clouds 10 1019 50 10000 3.6 50 19:39 27.03.2020
356 Clouds 10 1019 50 10000 3.6 50 19:39 27.03.2020
357 Clouds 10 1019 50 10000 3.6 60 19:20 27.03.2020
358 Clouds 12 1019 43 10000 4.6 60 18:44 27.03.2020
359 Clouds 13 1019 43 10000 4.6 60 18:25 27.03.2020
360 Clouds 14 1019 41 10000 4.1 70 17:59 27.03.2020
361 Clouds 15 1019 38 10000 5.1 70 17:39 27.03.2020
362 Clouds 16 1019 36 10000 5.7 80 17:20 27.03.2020
363 Clouds 16 1019 36 10000 5.1 70 16:44 27.03.2020
364 Clouds 16 1019 36 10000 5.1 70 16:25 27.03.2020
365 Clouds 16 1019 36 10000 5.1 60 15:56 27.03.2020
366 Clouds 16 1019 36 10000 5.1 60 15:38 27.03.2020
367 Clouds 17 1019 36 10000 5.1 60 15:20 27.03.2020
368 Clouds 16 1019 36 10000 6.2 70 14:45 27.03.2020
369 Clouds 17 1019 36 10000 6.2 70 14:24 27.03.2020
370 Clouds 16 1020 36 10000 5.7 60 13:56 27.03.2020
371 Clouds 16 1020 36 10000 5.1 60 13:37 27.03.2020
372 Clouds 16 1020 49 10000 4.6 80 13:18 27.03.2020
373 Clouds 15 1021 33 10000 4.6 130 12:45 27.03.2020
374 Clouds 16 1021 33 10000 5.1 110 12:20 27.03.2020
375 Clouds 16 1021 33 10000 5.7 140 11:59 27.03.2020
376 Clouds 16 1021 33 10000 5.1 110 11:59 27.03.2020
377 Clouds 16 1021 33 10000 5.7 140 11:59 27.03.2020
378 Clouds 16 1021 33 10000 5.1 110 11:59 27.03.2020
379 Clouds 16 1021 33 10000 5.7 140 11:40 27.03.2020
380 Clouds 15 1021 33 10000 4.6 130 11:22 27.03.2020
381 Clouds 14 1021 35 10000 5.7 130 10:54 27.03.2020
382 Clouds 14 1021 35 10000 5.7 130 10:36 27.03.2020
383 Clouds 13 1021 37 10000 4.1 120 10:18 27.03.2020
384 Clouds 13 1021 37 10000 4.1 120 09:55 27.03.2020
385 Clouds 12 1021 54 10000 2.6 10 09:36 27.03.2020
386 Clouds 9 1021 54 10000 1.5 330 09:18 27.03.2020
387 Clouds 8 1021 54 10000 1.5 330 08:54 27.03.2020
388 Clouds 6 1021 65 10000 1.5 360 08:36 27.03.2020
389 Clear 4 1021 56 10000 1 0 08:18 27.03.2020
390 Clear 3 1021 64 10000 1.5 40 07:43 27.03.2020
391 Clear 3 1021 55 10000 1.5 120 07:21 27.03.2020
392 Clear 3 1021 64 10000 1 0 06:41 27.03.2020
393 Clear 4 1021 55 10000 1.5 60 06:18 27.03.2020
394 Clear 1 1022 64 10000 2.6 150 03:42 27.03.2020
395 Clear 1 1022 55 10000 2.1 140 02:25 27.03.2020
396 Clouds 2 1022 55 10000 2.6 130 01:21 27.03.2020
397 Clouds 2 1023 55 10000 2.6 120 00:45 27.03.2020
398 Clouds 2 1023 59 10000 2.6 120 00:23 27.03.2020
399 Clouds 2 1023 55 10000 2.6 110 23:42 26.03.2020
400 Clouds 3 1023 55 10000 2.6 80 23:19 26.03.2020
401 Clouds 3 1023 51 10000 2.6 70 22:58 26.03.2020
402 Clouds 3 1023 51 10000 2.6 70 22:58 26.03.2020
403 Clouds 3 1023 51 10000 2.6 70 22:37 26.03.2020
404 Clouds 3 1024 51 10000 3.6 80 22:19 26.03.2020
405 Clouds 3 1024 51 10000 3.6 80 21:55 26.03.2020
406 Clouds 4 1024 48 10000 4.1 70 21:36 26.03.2020
407 Clouds 4 1023 48 10000 4.1 80 21:18 26.03.2020
408 Clouds 4 1024 45 10000 4.6 80 20:41 26.03.2020
409 Clouds 5 1024 45 10000 4.6 80 20:23 26.03.2020
410 Clouds 5 1024 45 10000 4.6 80 20:23 26.03.2020
411 Clouds 5 1024 45 10000 4.6 80 20:23 26.03.2020
412 Clouds 5 1024 45 10000 5.7 90 19:58 26.03.2020
413 Clouds 6 1023 42 10000 5.7 80 19:40 26.03.2020
414 Clouds 6 1023 42 10000 5.7 80 19:40 26.03.2020
415 Clouds 6 1024 42 10000 5.7 90 19:22 26.03.2020
416 Clouds 7 1024 42 10000 5.7 90 18:59 26.03.2020
417 Clouds 7 1024 42 10000 6.2 90 18:41 26.03.2020
418 Clouds 7 1024 42 10000 7.2 80 18:23 26.03.2020
419 Clouds 7 1024 42 10000 5.7 80 17:55 26.03.2020
420 Clouds 7 1024 42 10000 5.7 80 17:37 26.03.2020
421 Clouds 7 1024 42 10000 7.2 80 17:18 26.03.2020
422 Clouds 8 1024 39 10000 7.2 70 16:40 26.03.2020
423 Clouds 8 1024 39 10000 8.7 70 16:21 26.03.2020
424 Clouds 9 1024 39 10000 8.7 70 15:57 26.03.2020
425 Clouds 9 1024 39 10000 7.2 80 15:39 26.03.2020
426 Clouds 9 1024 39 10000 7.7 80 15:20 26.03.2020
427 Clouds 10 1024 39 10000 7.7 80 14:57 26.03.2020
428 Clouds 10 1024 39 10000 7.7 80 14:37 26.03.2020
429 Clouds 10 1024 39 10000 8.7 90 14:18 26.03.2020
430 Clouds 10 1024 37 10000 7.2 70 13:41 26.03.2020
431 Clouds 11 1024 37 10000 7.2 70 13:22 26.03.2020
432 Clouds 10 1025 42 10000 6.7 70 12:56 26.03.2020
433 Clouds 10 1025 42 10000 7.2 70 12:37 26.03.2020
434 Clouds 10 1025 42 10000 6.2 60 12:18 26.03.2020
435 Clouds 9 1026 42 10000 5.7 70 11:44 26.03.2020
436 Clouds 8 1026 39 10000 5.7 90 11:20 26.03.2020
437 Clouds 8 1026 39 10000 5.7 90 10:55 26.03.2020
438 Clouds 7 1026 39 10000 6.2 110 10:36 26.03.2020
439 Clouds 7 1026 41 10000 6.2 100 10:18 26.03.2020
440 Clouds 6 1026 44 10000 5.7 120 09:42 26.03.2020
441 Clouds 5 1026 41 10000 4.6 100 09:19 26.03.2020
442 Clouds 4 1026 44 10000 5.7 110 08:46 26.03.2020
443 Clouds 3 1026 44 10000 5.7 110 08:27 26.03.2020
444 Clear 1 1026 47 10000 5.1 120 07:58 26.03.2020
445 Clear 0 1026 55 10000 4.1 100 07:40 26.03.2020
446 Clear -1 1026 83 10000 3.1 120 07:20 26.03.2020
447 Clear -1 1026 83 10000 3.1 120 07:20 26.03.2020
448 Clear -2 1026 58 10000 1.5 100 06:46 26.03.2020
449 Clear -3 1026 54 10000 2.6 100 05:52 26.03.2020
450 Clear -2 1026 50 10000 2.6 110 03:58 26.03.2020
451 Clear -2 1026 50 10000 1.5 100 03:35 26.03.2020
452 Clear -2 1026 50 10000 2.1 80 02:53 26.03.2020
453 Clear -2 1026 87 10000 1.5 90 01:50 26.03.2020
454 Clear -1 1026 86 10000 3.1 90 00:45 26.03.2020
455 Clear -1 1027 43 10000 3.1 100 23:47 25.03.2020
456 Clear -1 1027 43 10000 4.1 100 23:28 25.03.2020
457 Clear 0 1027 40 10000 3.6 100 22:58 25.03.2020
458 Clear 0 1027 40 10000 3.6 100 22:38 25.03.2020
459 Clear 0 1027 40 10000 3.1 100 22:20 25.03.2020
460 Clear 0 1027 40 10000 3.1 100 21:55 25.03.2020
461 Clear 0 1027 40 10000 3.6 100 21:37 25.03.2020
462 Clear 1 1027 37 10000 4.1 100 21:19 25.03.2020
463 Clear 1 1027 37 10000 4.1 100 21:19 25.03.2020
464 Clear 2 1027 35 10000 4.6 100 20:54 25.03.2020
465 Clear 2 1027 35 10000 4.6 100 20:36 25.03.2020
466 Clear 3 1027 32 10000 5.1 90 20:18 25.03.2020
467 Clear 4 1027 32 10000 5.7 100 19:42 25.03.2020
468 Clear 4 1027 30 10000 7.2 90 19:22 25.03.2020
469 Clear 4 1027 30 10000 7.2 90 18:57 25.03.2020
470 Clear 5 1027 32 10000 6.7 90 18:38 25.03.2020
471 Clear 5 1027 28 10000 8.7 80 18:20 25.03.2020
472 Clear 6 1027 28 10000 8.2 80 17:55 25.03.2020
473 Clear 7 1027 28 10000 8.2 80 17:36 25.03.2020
474 Clear 7 1027 28 10000 8.2 80 17:18 25.03.2020
475 Clear 8 1027 28 10000 8.7 80 16:43 25.03.2020
476 Clear 8 1027 28 10000 8.7 80 16:43 25.03.2020
477 Clear 8 1027 28 10000 8.7 80 16:23 25.03.2020
478 Clear 8 1027 28 10000 8.7 80 15:57 25.03.2020
479 Clear 8 1028 30 10000 9.3 70 15:38 25.03.2020
480 Clear 8 1028 28 10000 8.7 80 15:19 25.03.2020
481 Clear 9 1028 28 10000 8.2 70 14:42 25.03.2020
482 Clear 8 1029 26 10000 7.7 90 14:22 25.03.2020
483 Clear 9 1029 26 10000 7.7 90 13:56 25.03.2020
484 Clear 9 1029 28 10000 7.7 70 13:38 25.03.2020
485 Clear 8 1029 28 10000 6.2 70 13:19 25.03.2020
486 Clear 8 1030 26 10000 5.1 90 12:37 25.03.2020
487 Clear 7 1030 26 10000 3.6 80 12:19 25.03.2020
488 Clear 7 1030 30 10000 4.1 70 11:55 25.03.2020
489 Clear 7 1030 30 10000 4.1 70 11:36 25.03.2020
490 Clear 5 1031 35 10000 4.1 80 11:18 25.03.2020
491 Clear 4 1031 40 10000 4.1 80 10:56 25.03.2020
492 Clear 4 1031 40 10000 4.1 80 10:37 25.03.2020
493 Clear 4 1031 40 10000 4.6 90 10:18 25.03.2020
494 Clear 3 1031 40 10000 4.6 80 09:42 25.03.2020
495 Clear 2 1031 47 10000 4.1 100 09:23 25.03.2020
496 Clear 1 1031 47 10000 4.1 100 08:56 25.03.2020
497 Clear 0 1031 58 10000 3.1 80 08:38 25.03.2020
498 Clear -1 1031 54 10000 1.5 60 08:19 25.03.2020
499 Clear -2 1031 63 10000 1 0 07:41 25.03.2020
500 Clear -4 1031 58 10000 1 0 07:22 25.03.2020
501 Clear -5 1031 62 10000 2.6 90 06:50 25.03.2020
502 Clear -5 1031 62 10000 2.6 90 06:28 25.03.2020
503 Clear -5 1031 62 10000 2.1 100 05:56 25.03.2020
504 Clear -5 1031 58 10000 1 120 05:30 25.03.2020
505 Clear -4 1031 58 10000 1.5 110 04:39 25.03.2020
506 Clear -4 1032 54 10000 1 100 03:49 25.03.2020
507 Clear -4 1032 54 10000 1 100 03:28 25.03.2020
508 Clear -3 1032 46 10000 0.5 0 01:25 25.03.2020
509 Clear -2 1032 50 10000 1.5 110 00:49 25.03.2020
510 Clear -3 1033 54 10000 2.6 90 00:25 25.03.2020
511 Clear -2 1033 50 10000 2.1 90 23:46 24.03.2020
512 Clear -2 1033 85 10000 0.5 0 23:28 24.03.2020
513 Clear -2 1033 85 10000 0.5 0 22:57 24.03.2020
514 Clear -1 1033 85 10000 2.1 60 22:38 24.03.2020
515 Clear -1 1033 40 10000 2.6 90 22:19 24.03.2020
516 Clear -1 1033 40 10000 2.6 90 22:19 24.03.2020
517 Clear -1 1033 40 10000 2.6 90 21:57 24.03.2020
518 Clear -1 1033 40 10000 2.1 100 21:38 24.03.2020
519 Clear 0 1033 40 10000 4.1 80 21:18 24.03.2020
520 Clear 0 1033 40 10000 4.1 80 20:57 24.03.2020
521 Clear 0 1033 40 10000 5.1 70 20:39 24.03.2020
522 Clear 1 1033 37 10000 4.6 60 20:21 24.03.2020
523 Clear 2 1033 32 10000 6.2 80 19:45 24.03.2020
524 Clear 2 1033 34 10000 4.6 80 19:20 24.03.2020
525 Clear 3 1033 37 10000 6.2 70 18:56 24.03.2020
526 Clear 3 1033 37 10000 6.2 70 18:37 24.03.2020
527 Clear 4 1033 32 10000 6.2 80 18:19 24.03.2020
528 Clear 5 1033 27 10000 6.7 70 17:56 24.03.2020
529 Clear 5 1033 27 10000 6.7 70 17:37 24.03.2020
530 Clear 6 1033 30 10000 6.7 70 17:19 24.03.2020
531 Clear 6 1033 30 10000 6.7 70 16:56 24.03.2020
532 Clear 7 1033 30 10000 6.7 70 16:37 24.03.2020
533 Clear 7 1033 30 10000 6.7 70 16:19 24.03.2020
534 Clear 7 1034 30 10000 6.2 80 15:42 24.03.2020
535 Clear 7 1034 30 10000 7.2 80 15:23 24.03.2020
536 Clear 7 1034 30 10000 6.2 80 14:44 24.03.2020
537 Clear 7 1034 30 10000 6.2 80 14:23 24.03.2020
538 Clear 7 1034 30 10000 6.2 70 13:59 24.03.2020
539 Clear 7 1035 35 10000 5.7 80 13:41 24.03.2020
540 Clear 6 1035 35 10000 4.6 80 13:22 24.03.2020
541 Clear 6 1035 32 10000 5.1 0 12:43 24.03.2020
542 Clear 6 1035 35 10000 6.2 90 12:25 24.03.2020
543 Clear 5 1036 40 10000 6.7 90 11:56 24.03.2020
544 Clear 4 1036 40 10000 6.7 90 11:37 24.03.2020
545 Clear 4 1036 40 10000 7.2 80 11:18 24.03.2020
546 Clear 3 1036 37 10000 7.2 90 10:41 24.03.2020
547 Clear 3 1036 37 10000 6.7 70 10:19 24.03.2020
548 Clear 3 1036 37 10000 6.7 70 10:19 24.03.2020
549 Clear 2 1036 40 10000 4.6 80 09:48 24.03.2020
550 Clear 1 1036 40 10000 4.6 80 09:27 24.03.2020
551 Clear 1 1036 30 10000 3.1 40 08:58 24.03.2020
552 Clear 0 1036 54 10000 2.1 50 08:38 24.03.2020
553 Clear -2 1036 58 10000 1 0 08:20 24.03.2020
554 Clear -3 1036 54 10000 0.5 0 07:45 24.03.2020
555 Clear -5 1036 58 10000 1.48 76 07:23 24.03.2020
556 Clear -6 1036 62 10000 1 0 06:42 24.03.2020
557 Clear -6 1036 58 10000 1 10 06:24 24.03.2020
558 Clear -5 1035 58 10000 1.5 170 04:57 24.03.2020
559 Clear -5 1035 58 10000 1 140 03:48 24.03.2020
560 Clear -5 995 66 0 1.34 106 02:49 24.03.2020
561 Clear -5 1036 58 10000 1.5 90 01:42 24.03.2020
562 Clear -4 1036 58 10000 2.1 70 00:44 24.03.2020
563 Clear -4 1036 58 10000 2.1 70 00:23 24.03.2020
564 Clear -3 1036 54 10000 2.1 100 23:44 23.03.2020
565 Clear -3 1036 54 10000 1.5 100 23:26 23.03.2020
566 Clear -3 1036 54 10000 2.1 120 22:55 23.03.2020
567 Clear -3 1036 54 10000 2.1 120 22:55 23.03.2020
568 Clear -3 1036 54 10000 2.1 120 22:37 23.03.2020
569 Clear -3 996 58 0 3.24 111 22:19 23.03.2020
570 Clear -2 1036 46 10000 2.1 100 21:43 23.03.2020
571 Clear -2 996 59 0 3.24 111 21:20 23.03.2020
572 Clear -2 1036 53 10000 2.1 140 20:58 23.03.2020
573 Clear -1 1036 53 10000 3.1 60 20:39 23.03.2020
574 Clear -1 1036 51 10000 3.1 60 20:21 23.03.2020
575 Clear -1 1036 40 10000 2.6 70 19:46 23.03.2020
576 Clear 0 1036 40 10000 3.1 80 19:27 23.03.2020
577 Clear 1 1036 40 10000 3.1 80 18:59 23.03.2020
578 Clear 1 1035 37 10000 3.6 80 18:41 23.03.2020
579 Clear 2 1035 34 10000 4.1 70 18:22 23.03.2020
580 Clear 3 1035 32 10000 5.7 70 17:56 23.03.2020
581 Clear 3 1035 32 10000 5.7 70 17:38 23.03.2020
582 Clear 4 1035 29 10000 5.7 60 17:18 23.03.2020
583 Clear 4 1035 32 10000 5.7 60 16:43 23.03.2020
584 Clear 5 1035 32 10000 5.7 60 16:24 23.03.2020
585 Clear 5 1036 32 10000 4.6 50 15:43 23.03.2020
586 Clear 4 1036 32 10000 4.6 80 15:21 23.03.2020
587 Clear 5 1036 32 10000 4.6 80 14:57 23.03.2020
588 Clear 5 1036 32 10000 4.1 80 14:37 23.03.2020
589 Clear 5 1036 32 10000 4.6 60 14:18 23.03.2020
590 Clear 5 1037 34 10000 5.7 90 13:41 23.03.2020
591 Clear 4 1037 34 10000 5.7 90 13:22 23.03.2020
592 Clear 4 1037 34 10000 4.6 60 12:58 23.03.2020
593 Clear 4 1037 34 10000 6.2 80 12:40 23.03.2020
594 Clear 4 1038 34 10000 6.2 80 12:22 23.03.2020
595 Clear 4 1038 34 10000 7.2 60 11:42 23.03.2020
596 Clear 3 1038 34 10000 5.7 60 11:21 23.03.2020
597 Clear 3 1038 34 10000 6.7 80 10:58 23.03.2020
598 Clear 2 1038 34 10000 6.7 80 10:40 23.03.2020
599 Clear 2 1038 43 10000 4.6 80 10:21 23.03.2020
600 Clear 2 1038 43 10000 4.6 80 09:58 23.03.2020
601 Clear 2 1039 43 10000 2.1 70 09:40 23.03.2020
602 Clear 1 1039 33 10000 2.1 60 09:19 23.03.2020
603 Clear -2 1038 58 0 2.1 60 08:38 23.03.2020
604 Clear -2 1038 58 10000 1.5 80 08:19 23.03.2020
605 Clear -3 1038 63 0 1.5 50 07:51 23.03.2020
606 Clear -4 1038 63 0 1.5 50 07:32 23.03.2020
607 Clear -6 1038 67 10000 2.1 100 06:55 23.03.2020
608 Clear -6 1038 67 10000 2.1 100 06:32 23.03.2020
609 Clear -6 1037 62 10000 2.1 90 05:43 23.03.2020
610 Clear -5 1037 58 10000 1 60 03:54 23.03.2020
611 Clear -5 1037 58 10000 1.5 60 02:43 23.03.2020
612 Clear -5 1037 53 10000 1 50 01:42 23.03.2020
613 Clear -4 1037 53 10000 1 90 00:45 23.03.2020
614 Clear -4 1037 53 10000 1.5 60 00:26 23.03.2020
615 Clear -4 1037 46 10000 2.1 70 23:42 22.03.2020
616 Clear -3 1037 46 10000 1.5 90 23:24 22.03.2020
617 Clear -3 1037 46 10000 1.5 100 22:41 22.03.2020
618 Clear -3 1037 42 10000 1.5 100 22:20 22.03.2020
619 Clear -3 1037 42 10000 2.1 80 21:41 22.03.2020
620 Clear -2 1036 50 10000 2.1 80 21:23 22.03.2020
621 Clear -2 1036 50 10000 2.1 80 20:58 22.03.2020
622 Clear -2 1036 46 10000 1.5 60 20:40 22.03.2020
623 Clear -2 1036 46 10000 1.5 60 20:22 22.03.2020
624 Clear -1 1036 46 10000 2.1 60 19:56 22.03.2020
625 Clear -1 1035 46 10000 2.1 60 19:38 22.03.2020
626 Clear -1 1035 40 10000 2.6 80 19:19 22.03.2020
627 Clear 0 1035 40 10000 2.6 80 18:57 22.03.2020
628 Clear 1 1035 40 10000 3.1 80 18:39 22.03.2020
629 Clear 1 1034 37 10000 4.1 60 18:20 22.03.2020
630 Clear 2 1034 37 10000 4.1 60 17:57 22.03.2020
631 Clear 2 1034 40 10000 5.1 60 17:38 22.03.2020
632 Clear 3 1034 34 10000 5.7 60 17:20 22.03.2020
633 Clear 3 1034 34 10000 5.7 60 16:57 22.03.2020
634 Clear 3 1034 43 10000 5.7 70 16:39 22.03.2020
635 Clear 4 1034 40 10000 6.7 90 16:20 22.03.2020
636 Clouds 4 1034 43 10000 5.7 70 15:40 22.03.2020
637 Clouds 4 1034 44 10000 6.7 70 15:20 22.03.2020
638 Clouds 4 1034 47 10000 6.2 60 14:46 22.03.2020
639 Clouds 4 1034 47 10000 6.2 60 14:46 22.03.2020
640 Clouds 4 1034 47 10000 5.7 40 14:19 22.03.2020
641 Clouds 4 1034 47 10000 5.7 40 14:19 22.03.2020
642 Clouds 4 1034 44 10000 4.6 70 13:44 22.03.2020
643 Clouds 4 1034 44 10000 7.2 70 13:20 22.03.2020
644 Clouds 4 1034 44 10000 7.2 70 13:20 22.03.2020
645 Clouds 4 1034 44 10000 7.2 70 12:59 22.03.2020
646 Clouds 4 1034 44 10000 7.2 60 12:41 22.03.2020
647 Clouds 4 1034 47 10000 6.7 70 12:19 22.03.2020
648 Clouds 3 1034 51 10000 5.7 40 11:43 22.03.2020
649 Clouds 3 1034 55 10000 5.1 70 11:25 22.03.2020
650 Clouds 2 1034 55 10000 5.1 70 10:58 22.03.2020
651 Clouds 2 1033 51 10000 6.2 70 10:40 22.03.2020
652 Clouds 1 1033 59 10000 4.6 70 10:22 22.03.2020
653 Clouds 2 1033 51 10000 6.2 70 10:22 22.03.2020
654 Clouds 1 1033 45 10000 5.1 80 09:47 22.03.2020
655 Clouds 1 1033 45 10000 5.1 80 09:28 22.03.2020
656 Clouds 0 1033 74 10000 6.2 70 08:51 22.03.2020
657 Clouds -1 1033 74 10000 4.1 60 08:32 22.03.2020
658 Clear -2 1033 79 10000 2.1 60 07:56 22.03.2020
659 Clear -3 1033 79 10000 2.1 50 07:38 22.03.2020
660 Clouds -4 1032 79 10000 2.1 50 06:48 22.03.2020
661 Clear -4 1032 79 10000 2.1 50 05:52 22.03.2020
662 Clear -4 1031 73 10000 2.1 40 04:39 22.03.2020
663 Clear -3 1031 68 10000 3.1 40 01:49 22.03.2020
664 Clear -2 1031 63 10000 1 50 00:51 22.03.2020
665 Clear -2 1031 63 10000 1 50 00:32 22.03.2020
666 Clear -2 1030 62 10000 1 0 23:47 21.03.2020
667 Clear -2 1030 62 10000 0.5 0 23:23 21.03.2020
668 Clear -1 1030 64 10000 0.5 0 22:59 21.03.2020
669 Clear -1 1030 64 10000 0.5 0 22:38 21.03.2020
670 Clear -1 1030 64 10000 1 100 22:20 21.03.2020
671 Clear -1 1030 64 10000 1 100 21:59 21.03.2020
672 Clear -1 1030 64 10000 1.5 70 21:39 21.03.2020
673 Clear 0 1030 64 10000 1.5 60 21:21 21.03.2020
674 Clear 0 1030 59 10000 3.1 70 20:45 21.03.2020
675 Clear 0 1029 59 10000 3.6 60 20:23 21.03.2020
676 Clouds 0 1029 59 10000 3.6 60 19:57 21.03.2020
677 Clouds 1 1029 55 10000 2.6 60 19:38 21.03.2020
678 Clouds 2 1029 55 10000 3.1 50 19:19 21.03.2020
679 Clouds 2 1028 51 10000 3.1 50 18:54 21.03.2020
680 Clouds 3 1028 51 10000 3.1 50 18:36 21.03.2020
681 Clouds 3 1028 51 10000 3.6 50 18:18 21.03.2020
682 Clouds 4 1028 48 10000 3.6 50 17:42 21.03.2020
683 Clouds 4 1028 48 10000 4.6 60 17:23 21.03.2020
684 Clouds 4 1028 51 10000 5.1 60 16:56 21.03.2020
685 Clouds 4 1028 51 10000 5.1 60 16:38 21.03.2020
686 Clouds 4 1028 48 10000 6.2 70 16:18 21.03.2020
687 Clouds 4 1028 51 10000 6.2 40 15:41 21.03.2020
688 Clouds 4 1028 51 10000 6.2 40 15:23 21.03.2020
689 Clouds 4 1028 48 10000 7.2 50 14:58 21.03.2020
690 Clouds 4 1028 55 10000 5.1 50 14:40 21.03.2020
691 Clouds 4 1028 64 10000 7.2 60 14:20 21.03.2020
692 Clouds 4 1028 64 10000 7.2 60 13:59 21.03.2020
693 Clouds 4 1028 60 10000 6.7 70 13:40 21.03.2020
694 Clouds 4 1028 64 10000 7.2 50 13:22 21.03.2020
695 Clouds 4 1028 64 10000 7.2 50 12:59 21.03.2020
696 Clouds 4 1028 69 10000 6.7 60 12:38 21.03.2020
697 Clouds 4 1028 69 10000 7.2 70 12:19 21.03.2020
698 Clouds 4 1028 64 10000 6.7 50 11:56 21.03.2020
699 Clouds 4 1028 64 10000 6.7 50 11:38 21.03.2020
700 Clouds 4 1027 64 10000 7.7 60 11:19 21.03.2020
701 Clouds 4 1027 64 10000 8.2 50 10:57 21.03.2020
702 Clouds 4 1027 64 10000 8.2 50 10:38 21.03.2020
703 Clouds 4 1027 65 10000 7.7 40 10:19 21.03.2020
704 Clouds 4 1027 65 10000 7.7 40 09:56 21.03.2020
705 Clouds 4 1026 84 10000 7.2 50 09:37 21.03.2020
706 Clouds 3 1026 84 10000 6.7 50 09:19 21.03.2020
707 Clouds 3 1026 84 10000 6.2 40 08:44 21.03.2020
708 Clouds 3 1026 84 10000 6.2 40 08:44 21.03.2020
709 Clouds 3 1026 79 10000 6.2 40 08:25 21.03.2020
710 Clouds 3 1026 86 10000 6.7 50 07:47 21.03.2020
711 Clouds 3 1026 86 10000 6.7 50 07:28 21.03.2020
712 Clouds 3 1025 86 10000 5.7 40 06:48 21.03.2020
713 Clouds 3 1025 86 10000 5.7 40 06:29 21.03.2020
714 Clouds 3 1025 93 10000 5.1 40 05:48 21.03.2020
715 Clouds 3 1025 93 10000 5.7 30 05:18 21.03.2020
716 Clouds 3 1024 93 9000 3.6 20 03:32 21.03.2020
717 Rain 3 1025 93 10000 3.1 20 02:35 21.03.2020
718 Rain 3 1025 93 10000 3.1 20 01:40 21.03.2020
719 Rain 3 1025 93 10000 2.1 10 01:20 21.03.2020
720 Rain 3 1025 93 10000 3.1 30 00:38 21.03.2020
721 Rain 3 1025 93 10000 2.6 350 23:59 20.03.2020
722 Rain 3 1025 93 10000 2.6 10 23:41 20.03.2020
723 Drizzle 4 1025 93 10000 4.1 20 23:20 20.03.2020
724 Rain 4 1025 93 10000 4.1 20 22:43 20.03.2020
725 Rain 4 1025 93 10000 4.1 20 22:24 20.03.2020
726 Rain 4 1025 80 10000 4.1 350 21:58 20.03.2020
727 Rain 4 1024 80 10000 2.1 360 21:39 20.03.2020
728 Clouds 4 1024 83 10000 2.1 360 21:19 20.03.2020
729 Clouds 4 1024 83 10000 2.1 360 20:57 20.03.2020
730 Clouds 4 1024 83 10000 2.6 10 20:39 20.03.2020
731 Clouds 4 1024 86 10000 3.6 40 20:19 20.03.2020
732 Clouds 4 1024 86 10000 5.1 50 19:46 20.03.2020
733 Clouds 5 1024 75 10000 5.1 30 19:20 20.03.2020
734 Clouds 5 1024 75 10000 5.1 30 18:57 20.03.2020
735 Clouds 5 1024 75 10000 6.2 20 18:38 20.03.2020
736 Rain 5 1024 80 10000 5.7 10 18:19 20.03.2020
737 Rain 6 1023 86 10000 4.1 20 17:56 20.03.2020
738 Rain 6 1023 86 10000 4.1 20 17:37 20.03.2020
739 Rain 6 1023 81 10000 4.6 20 17:18 20.03.2020
740 Rain 6 1023 87 10000 4.6 10 16:41 20.03.2020
741 Rain 7 1023 93 10000 3.1 10 16:21 20.03.2020
742 Rain 7 1023 93 9000 3.1 30 15:45 20.03.2020
743 Rain 7 1023 93 9000 3.1 30 15:23 20.03.2020
744 Rain 8 1023 100 8000 4.1 20 14:59 20.03.2020
745 Rain 8 1023 100 8000 4.1 20 14:59 20.03.2020
746 Rain 7 1023 93 8000 4.1 30 14:41 20.03.2020
747 Clouds 8 1023 100 8000 3.1 30 14:21 20.03.2020
748 Clouds 8 1023 100 8000 3.1 30 14:20 20.03.2020
749 Clouds 8 1023 100 7000 2.1 50 13:48 20.03.2020
750 Clouds 8 1023 93 6000 3.1 40 13:24 20.03.2020
751 Clouds 8 1023 93 6000 3.1 40 13:24 20.03.2020
752 Clouds 8 1023 93 6000 3.1 40 12:58 20.03.2020
753 Rain 7 1023 100 3700 4.1 70 12:38 20.03.2020
754 Rain 8 1023 93 4000 4.1 20 12:20 20.03.2020
755 Rain 8 1023 93 4300 3.6 50 11:39 20.03.2020
756 Rain 8 1023 100 3500 4.1 40 11:21 20.03.2020
757 Rain 8 1023 93 4500 2.6 40 10:56 20.03.2020
758 Rain 8 1023 93 4500 2.6 40 10:38 20.03.2020
759 Rain 8 1023 93 4700 2.1 60 10:18 20.03.2020
760 Rain 8 1023 93 5000 3.6 70 09:46 20.03.2020
761 Clouds 8 1023 93 6000 3.6 50 09:21 20.03.2020
762 Clouds 8 1023 93 6000 3.6 50 08:58 20.03.2020
763 Rain 8 1023 93 6000 3.6 50 08:39 20.03.2020
764 Rain 8 1023 93 6000 3.1 60 08:19 20.03.2020
765 Clouds 8 1023 93 6000 2.1 70 07:43 20.03.2020
766 Clouds 8 1023 93 6000 2.1 70 07:25 20.03.2020
767 Rain 8 1023 93 7000 2.1 360 06:43 20.03.2020
768 Clouds 8 1023 93 10000 2.1 360 06:22 20.03.2020
769 Clouds 8 1023 93 10000 1 20 04:48 20.03.2020
770 Clouds 8 1023 87 10000 1 0 02:54 20.03.2020
771 Clouds 8 1024 93 10000 0.5 50 01:51 20.03.2020
772 Clouds 9 1024 87 0 1 0 00:46 20.03.2020
773 Clouds 9 1024 87 10000 3.1 80 00:24 20.03.2020
774 Clouds 9 1024 87 10000 3.1 70 23:42 19.03.2020
775 Clouds 9 1024 87 10000 3.1 80 23:23 19.03.2020
776 Rain 9 1024 81 10000 4.6 70 22:55 19.03.2020
777 Rain 9 1024 81 10000 4.6 70 22:37 19.03.2020
778 Rain 9 1024 81 10000 4.6 40 22:18 19.03.2020
779 Rain 10 1024 71 10000 1 0 21:40 19.03.2020
780 Rain 10 1024 62 10000 1.5 110 21:20 19.03.2020
781 Rain 10 1024 62 10000 1.5 110 20:56 19.03.2020
782 Rain 10 1024 66 10000 2.1 50 20:38 19.03.2020
783 Clouds 10 1024 62 10000 1 40 20:19 19.03.2020
784 Clouds 11 1024 62 10000 1 40 19:55 19.03.2020
785 Clouds 11 1024 58 10000 0.5 0 19:37 19.03.2020
786 Clouds 11 1024 58 10000 1 360 19:18 19.03.2020
787 Clouds 12 1024 58 10000 1.5 340 18:42 19.03.2020
788 Clouds 13 1024 58 10000 1.5 10 18:22 19.03.2020
789 Clouds 13 1024 54 10000 2.1 350 17:58 19.03.2020
790 Clouds 14 1024 54 10000 2.1 350 17:39 19.03.2020
791 Rain 15 1023 51 10000 2.6 360 17:19 19.03.2020
792 Rain 16 1024 51 10000 3.6 10 16:43 19.03.2020
793 Rain 16 1024 51 10000 3.6 10 16:23 19.03.2020
794 Rain 16 1024 54 10000 3.6 350 15:45 19.03.2020
795 Rain 16 1024 51 10000 3.1 20 15:26 19.03.2020
796 Rain 16 1024 51 10000 3.1 20 14:55 19.03.2020
797 Clouds 16 1024 47 10000 3.6 350 14:37 19.03.2020
798 Clouds 16 1024 51 10000 2.1 330 14:19 19.03.2020
799 Clouds 16 1024 51 10000 2.1 330 14:19 19.03.2020
800 Clouds 16 1024 54 10000 3.6 350 13:40 19.03.2020
801 Clouds 16 1025 58 10000 2.6 330 13:19 19.03.2020
802 Clouds 16 1025 54 10000 3.6 340 12:55 19.03.2020
803 Clouds 16 1025 54 10000 3.6 340 12:37 19.03.2020
804 Clouds 15 1025 51 10000 2.6 320 12:19 19.03.2020
805 Clouds 15 1025 51 10000 3.6 310 11:41 19.03.2020
806 Clouds 15 1025 58 10000 2.6 260 11:23 19.03.2020
807 Rain 14 1025 58 10000 2.6 260 11:23 19.03.2020
808 Rain 13 1025 66 10000 2.1 280 10:56 19.03.2020
809 Rain 14 1025 66 10000 2.1 280 10:36 19.03.2020
810 Rain 13 1025 66 10000 2.1 260 10:18 19.03.2020
811 Rain 13 1025 71 10000 1.5 200 09:44 19.03.2020
812 Rain 12 1025 71 10000 1.5 200 09:26 19.03.2020
813 Rain 10 1025 76 10000 2.1 210 08:57 19.03.2020
814 Rain 9 1025 81 10000 1.5 210 08:38 19.03.2020
815 Clouds 8 1025 87 10000 3.6 200 08:18 19.03.2020
816 Clouds 8 1025 81 10000 3.6 200 07:43 19.03.2020
817 Clouds 7 1024 87 10000 2.1 200 07:22 19.03.2020
818 Clouds 7 1024 87 10000 0.5 260 06:29 19.03.2020
819 Clouds 7 1024 87 10000 3.6 210 05:25 19.03.2020
820 Clouds 7 1024 87 10000 3.6 210 04:51 19.03.2020
821 Clouds 7 1024 87 10000 3.6 210 04:24 19.03.2020
822 Clouds 8 1024 81 10000 3.1 210 02:34 19.03.2020
823 Clouds 8 1025 76 10000 3.6 210 00:55 19.03.2020
824 Clouds 8 1025 76 10000 3.1 210 00:20 19.03.2020
825 Clouds 8 1025 76 10000 3.6 200 23:46 18.03.2020
826 Clouds 9 1025 76 10000 3.6 200 23:26 18.03.2020
827 Clouds 9 1025 76 10000 3.1 200 22:44 18.03.2020
828 Clouds 9 1025 76 10000 3.1 200 22:24 18.03.2020
829 Clouds 9 1025 76 10000 3.1 200 21:59 18.03.2020
830 Clouds 9 1025 71 10000 2.1 190 21:41 18.03.2020
831 Clouds 10 1025 66 10000 1.5 210 21:21 18.03.2020
832 Clouds 10 1025 78 0 3.51 229 20:57 18.03.2020
833 Clouds 10 1025 77 0 3.51 229 20:39 18.03.2020
834 Clouds 11 1025 66 10000 2.1 220 20:20 18.03.2020
835 Clouds 11 1025 66 10000 2.1 220 19:55 18.03.2020
836 Clouds 11 1025 62 10000 2.1 230 19:36 18.03.2020
837 Clouds 11 1025 62 10000 1.5 240 19:18 18.03.2020
838 Clouds 12 1025 58 10000 2.6 240 18:41 18.03.2020
839 Clouds 13 1024 58 10000 3.1 240 18:20 18.03.2020
840 Clouds 14 1024 55 10000 3.6 240 17:58 18.03.2020
841 Clouds 15 1024 55 10000 3.6 240 17:39 18.03.2020
842 Clouds 16 1025 55 10000 4.1 240 17:21 18.03.2020
843 Clouds 17 1025 51 10000 4.6 240 16:55 18.03.2020
844 Clouds 17 1025 51 10000 4.6 240 16:37 18.03.2020
845 Clouds 17 1025 48 10000 5.1 250 16:19 18.03.2020
846 Clouds 17 1025 48 10000 5.1 260 15:45 18.03.2020
847 Clouds 17 1026 48 10000 4.6 250 15:20 18.03.2020
848 Clouds 17 1026 48 10000 5.7 240 14:45 18.03.2020
849 Clouds 17 1026 51 10000 5.1 240 14:22 18.03.2020
850 Clear 17 1026 51 10000 5.1 240 13:59 18.03.2020
851 Clear 17 1026 44 10000 4.6 230 13:37 18.03.2020
852 Clear 17 1027 38 10000 4.1 260 13:19 18.03.2020
853 Clear 16 1027 41 10000 4.1 230 12:41 18.03.2020
854 Clear 16 1027 41 10000 4.6 240 12:20 18.03.2020
855 Clear 15 1028 41 10000 5.1 220 11:40 18.03.2020
856 Clear 15 1028 47 10000 4.6 220 11:21 18.03.2020
857 Clouds 14 1028 54 10000 4.1 230 10:58 18.03.2020
858 Clouds 14 1028 54 10000 4.1 230 10:39 18.03.2020
859 Clouds 13 1028 62 10000 4.1 220 10:20 18.03.2020
860 Clouds 13 1028 62 10000 4.1 220 09:56 18.03.2020
861 Clouds 12 1028 71 10000 3.1 210 09:38 18.03.2020
862 Clouds 11 1028 81 10000 3.6 210 09:20 18.03.2020
863 Clouds 8 1028 81 10000 4.1 200 08:39 18.03.2020
864 Clouds 7 1028 87 10000 4.1 200 08:21 18.03.2020
865 Clouds 5 1028 93 10000 4.1 190 07:49 18.03.2020
866 Clouds 5 1028 93 9000 4.6 190 07:31 18.03.2020
867 Clouds 5 1028 93 9000 4.1 180 06:50 18.03.2020
868 Clouds 5 1028 93 9000 4.1 180 06:31 18.03.2020
869 Clouds 5 1028 93 10000 3.6 180 05:36 18.03.2020
870 Clouds 5 1028 93 10000 4.6 190 04:29 18.03.2020
871 Clouds 5 1028 93 10000 3.6 200 03:20 18.03.2020
872 Clouds 5 1029 93 10000 3.6 200 02:32 18.03.2020
873 Clouds 5 1029 93 10000 4.1 180 01:31 18.03.2020
874 Clouds 5 1029 87 10000 2.6 190 00:42 18.03.2020
875 Clouds 6 1029 93 10000 3.1 200 00:21 18.03.2020
876 Clouds 6 1029 93 10000 3.1 200 23:40 17.03.2020
877 Clouds 6 1029 93 10000 3.1 200 23:19 17.03.2020
878 Clouds 6 1029 93 10000 3.1 200 22:42 17.03.2020
879 Clouds 6 1029 93 10000 2.6 190 22:24 17.03.2020
880 Clouds 6 1029 93 10000 3.1 200 21:43 17.03.2020
881 Clouds 7 1029 93 10000 3.1 200 21:23 17.03.2020
882 Clouds 7 1029 93 10000 3.1 210 20:57 17.03.2020
883 Clouds 6 1029 93 10000 3.1 210 20:37 17.03.2020
884 Rain 8 1029 87 10000 2.6 210 20:19 17.03.2020
885 Rain 7 1029 87 10000 1.5 220 19:41 17.03.2020
886 Rain 8 1028 87 10000 1.5 240 19:18 17.03.2020
887 Rain 9 1028 81 10000 1 0 18:57 17.03.2020
888 Rain 9 1028 81 10000 1 0 18:39 17.03.2020
889 -273 0 0 0 0 0 18:21 17.03.2020
890 Rain 11 1028 76 10000 3.1 300 17:56 17.03.2020
891 Rain 11 1028 76 10000 3.1 300 17:37 17.03.2020
892 Rain 12 1028 76 10000 3.6 300 17:18 17.03.2020
893 Rain 12 1028 76 10000 3.6 270 16:41 17.03.2020
894 Rain 12 1028 76 10000 3.6 290 16:19 17.03.2020
895 Rain 12 1028 71 10000 4.6 290 15:45 17.03.2020
896 Rain 12 1028 71 10000 4.6 290 15:22 17.03.2020
897 Rain 12 1028 62 10000 4.1 310 14:44 17.03.2020
898 Rain 12 1028 62 10000 4.1 310 14:26 17.03.2020
899 Rain 12 1028 66 10000 4.1 320 13:58 17.03.2020
900 Rain 12 1028 58 10000 2.6 330 13:40 17.03.2020
901 Rain 13 1028 62 10000 3.1 320 13:21 17.03.2020
902 Rain 13 1028 62 10000 4.6 290 12:44 17.03.2020
903 Rain 13 1028 58 10000 4.1 290 12:24 17.03.2020
904 Rain 13 1028 54 10000 2.1 260 11:56 17.03.2020
905 Rain 12 1028 54 10000 2.1 260 11:38 17.03.2020
906 Clouds 12 1028 54 10000 2.1 220 11:20 17.03.2020
907 Rain 12 1027 54 10000 2.1 200 10:54 17.03.2020
908 Clouds 12 1027 54 10000 2.1 200 10:36 17.03.2020
909 Clouds 11 1027 57 10000 1.5 160 10:18 17.03.2020
910 Rain 10 1027 61 10000 1 0 09:44 17.03.2020
911 Clouds 9 988 76 0 1.34 201 09:20 17.03.2020
912 Clouds 8 1027 65 10000 1 0 08:57 17.03.2020
913 Rain 8 1027 85 10000 1.5 140 08:39 17.03.2020
914 Clouds 6 1026 82 10000 1 150 08:18 17.03.2020
915 Clouds 4 1026 69 10000 1 180 07:47 17.03.2020
916 Clouds 5 1026 74 10000 1.5 150 07:20 17.03.2020
917 Clouds 4 1026 74 10000 1.5 160 06:45 17.03.2020
918 Clouds 4 1025 74 10000 2.1 170 06:24 17.03.2020
919 Clouds 4 1025 74 10000 3.1 160 05:18 17.03.2020
920 Clouds 4 1025 69 10000 2.6 180 03:27 17.03.2020
921 Clouds 5 1025 69 10000 1.5 170 01:50 17.03.2020
922 Clouds 5 1025 69 10000 1.5 170 01:30 17.03.2020
923 Clouds 5 1024 60 10000 2.6 150 00:51 17.03.2020
924 Clouds 6 1024 60 10000 1.5 150 23:52 16.03.2020
925 Clouds 6 1024 60 10000 1.5 150 23:34 16.03.2020
926 Clouds 7 1024 56 10000 2.6 160 22:55 16.03.2020
927 Clouds 7 1024 56 10000 2.6 160 22:37 16.03.2020
928 Clouds 7 1024 56 10000 2.1 160 22:19 16.03.2020
929 Clouds 7 1023 56 10000 2.6 160 21:44 16.03.2020
930 Clouds 7 1023 52 10000 3.6 160 21:25 16.03.2020
931 Clouds 8 1023 52 10000 2.6 150 20:58 16.03.2020
932 Clouds 8 1023 52 10000 2.6 150 20:38 16.03.2020
933 Clouds 8 1023 52 10000 2.6 150 20:38 16.03.2020
934 Clouds 8 1022 49 10000 1.5 120 20:20 16.03.2020
935 Clouds 8 1022 49 10000 5.1 150 19:44 16.03.2020
936 Clouds 9 1022 81 10000 3.6 140 19:23 16.03.2020
937 Clouds 9 1022 81 10000 3.6 140 18:57 16.03.2020
938 Clouds 10 1021 81 10000 4.1 140 18:39 16.03.2020
939 Clouds 11 1021 81 10000 3.6 140 18:19 16.03.2020
940 Clouds 12 1021 43 10000 3.1 130 17:46 16.03.2020
941 Clouds 13 1021 41 10000 3.1 130 17:25 16.03.2020
942 Clouds 15 1020 38 10000 1.5 220 16:56 16.03.2020
943 Clouds 15 1020 38 10000 1.5 220 16:37 16.03.2020
944 Clouds 15 1020 60 10000 2.6 200 16:19 16.03.2020
945 Clouds 16 1020 60 10000 3.1 170 15:42 16.03.2020
946 Clouds 16 1020 60 10000 3.1 170 15:23 16.03.2020
947 Clouds 16 1020 60 10000 3.1 150 14:45 16.03.2020
948 Clouds 16 1020 53 10000 2.6 160 14:20 16.03.2020
949 Clouds 14 1019 33 10000 2.6 160 13:47 16.03.2020
950 Clouds 15 1019 33 10000 2.6 160 13:27 16.03.2020
951 Clouds 15 1019 33 10000 3.6 150 12:57 16.03.2020
952 Clouds 14 1019 32 10000 4.6 160 12:38 16.03.2020
953 Clouds 14 1019 32 10000 5.1 140 12:20 16.03.2020
954 Clouds 13 1019 34 10000 5.7 150 11:43 16.03.2020
955 Clouds 13 1019 34 10000 4.6 150 11:23 16.03.2020
956 Clouds 9 1019 36 10000 5.7 150 10:44 16.03.2020
957 Clouds 11 1019 36 10000 5.7 150 10:24 16.03.2020
958 Clouds 8 1019 36 10000 5.1 150 09:49 16.03.2020
959 Clouds 8 1019 36 10000 5.1 150 09:30 16.03.2020
960 Clouds 7 1019 38 10000 7.2 150 08:59 16.03.2020
961 Clouds 6 1019 38 10000 7.7 150 08:40 16.03.2020
962 Clouds 4 1018 41 10000 8.2 160 08:21 16.03.2020
963 Clouds 4 1018 41 10000 7.2 150 07:42 16.03.2020
964 Clouds 3 1018 44 10000 8.2 160 07:19 16.03.2020
965 Clouds 2 1017 44 10000 7.2 160 06:29 16.03.2020
966 Clouds 2 1017 44 10000 7.7 160 05:59 16.03.2020
967 Clouds 2 1017 47 10000 8.2 150 04:26 16.03.2020
968 Clouds 3 1017 44 10000 8.7 150 01:46 16.03.2020
969 Clouds 4 1017 41 10000 8.2 150 00:45 16.03.2020
970 Clouds 4 1017 41 10000 8.2 160 00:27 16.03.2020
971 Clouds 4 1017 41 10000 8.7 160 23:40 15.03.2020
972 Clouds 4 1017 38 10000 8.7 150 23:19 15.03.2020
973 Clouds 5 1017 38 10000 7.7 160 22:42 15.03.2020
974 Clouds 5 1017 38 10000 6.2 160 22:21 15.03.2020
975 Clouds 5 1017 36 10000 6.7 170 21:39 15.03.2020
976 Clouds 6 1017 36 10000 6.7 170 21:21 15.03.2020
977 Clouds 6 1017 36 10000 6.7 170 20:58 15.03.2020
978 Clouds 6 1017 39 10000 6.7 170 20:40 15.03.2020
979 Clouds 6 1017 39 10000 6.7 170 20:19 15.03.2020
980 Clouds 6 1017 39 10000 6.7 170 19:55 15.03.2020
981 Clouds 6 1017 39 10000 7.7 160 19:37 15.03.2020
982 Clouds 6 1017 36 10000 6.7 160 19:18 15.03.2020
983 Clouds 7 1017 36 10000 6.7 150 18:42 15.03.2020
984 Clouds 7 1017 36 10000 6.7 150 18:24 15.03.2020
985 Clouds 8 1018 33 10000 5.7 150 17:59 15.03.2020
986 Clouds 9 1018 31 10000 6.7 160 17:39 15.03.2020
987 Clouds 9 1019 31 10000 5.7 150 17:20 15.03.2020
988 Clouds 9 1019 31 10000 6.2 160 16:56 15.03.2020
989 Clouds 10 1019 31 10000 6.2 160 16:37 15.03.2020
990 Clouds 10 1019 31 10000 7.2 160 16:18 15.03.2020
991 Clouds 10 1020 31 10000 6.7 160 15:43 15.03.2020
992 Clouds 10 1020 31 10000 8.2 160 15:25 15.03.2020
993 Clouds 10 1020 31 10000 8.2 160 14:55 15.03.2020
994 Clouds 10 1020 29 10000 7.2 170 14:37 15.03.2020
995 Clouds 10 1021 29 10000 7.7 160 14:18 15.03.2020
996 Clouds 10 1021 26 10000 6.7 160 13:40 15.03.2020
997 Clouds 10 1022 26 10000 8.7 160 13:21 15.03.2020
998 Clouds 10 1022 26 10000 8.7 160 12:59 15.03.2020
999 Clouds 9 1022 26 10000 9.3 160 12:39 15.03.2020
1000 Clouds 9 1022 26 10000 7.7 160 12:21 15.03.2020
1001 Clouds 9 1023 28 10000 8.7 170 11:43 15.03.2020
1002 Clouds 9 1023 33 10000 8.2 160 11:24 15.03.2020
1003 Clouds 7 1023 38 10000 8.7 160 10:57 15.03.2020
1004 Clouds 7 1023 38 10000 8.7 160 10:39 15.03.2020
1005 Clouds 7 1023 41 10000 8.7 160 10:20 15.03.2020
1006 Clouds 6 1023 44 10000 8.2 160 09:42 15.03.2020
1007 Clouds 5 1023 44 10000 8.2 160 09:23 15.03.2020
1008 Clouds 4 1023 44 10000 8.2 160 08:58 15.03.2020
1009 Clouds 3 1024 48 10000 7.2 170 08:40 15.03.2020
1010 Clear 3 1024 51 10000 6.7 170 08:18 15.03.2020
1011 Clear 2 1024 55 10000 6.2 170 07:44 15.03.2020
1012 Clear 0 1024 59 10000 6.2 170 06:59 15.03.2020
1013 Clear 0 1024 55 10000 6.7 170 06:36 15.03.2020
1014 Clear 0 1024 55 10000 6.2 160 05:46 15.03.2020
1015 Clear 0 1024 47 10000 6.2 150 04:50 15.03.2020
1016 Clear 1 1024 47 10000 6.2 150 04:32 15.03.2020
1017 Clear 0 1024 50 10000 5.7 160 03:59 15.03.2020
1018 Clear 0 1024 55 10000 5.7 160 02:48 15.03.2020
1019 Clouds 0 1024 51 10000 4.6 160 02:18 15.03.2020
1020 Clouds 0 1025 55 10000 4.6 150 00:57 15.03.2020
1021 Clouds -1 1025 55 10000 3.6 150 00:38 15.03.2020
1022 Clouds 0 1025 55 10000 4.1 150 00:18 15.03.2020
1023 Clouds 0 986 74 0 1.79 104 23:38 14.03.2020
1024 Clouds 0 1025 55 10000 4.1 150 23:19 14.03.2020
1025 Clouds 0 1025 51 10000 3.1 160 22:55 14.03.2020
1026 Clouds 0 985 80 0 1.79 119 22:37 14.03.2020
1027 Clouds 0 1025 51 10000 3.1 160 22:19 14.03.2020
1028 Clouds 0 1025 51 10000 3.1 160 21:54 14.03.2020
1029 Clouds 1 1025 51 10000 2.6 150 21:36 14.03.2020
1030 Clouds 1 1025 59 10000 2.6 150 21:18 14.03.2020
1031 Clouds 1 1025 55 10000 2.6 120 20:55 14.03.2020
1032 Clouds 1 1025 55 10000 2.6 120 20:36 14.03.2020
1033 Clouds 1 1025 55 10000 2.1 110 20:18 14.03.2020
1034 Clouds 2 1025 51 10000 2.1 110 19:40 14.03.2020
1035 Clouds 3 1024 48 10000 3.1 100 19:20 14.03.2020
1036 Clouds 4 1024 44 10000 2.6 100 18:39 14.03.2020
1037 Clouds 5 1024 44 10000 3.1 80 18:20 14.03.2020
1038 Clouds 6 1024 41 10000 4.1 90 17:42 14.03.2020
1039 Clouds 7 1024 45 10000 3.1 80 17:21 14.03.2020
1040 Clouds 7 1023 42 10000 3.1 80 16:58 14.03.2020
1041 Clouds 7 1023 42 10000 3.1 80 16:38 14.03.2020
1042 Clouds 8 1024 42 10000 3.1 70 16:19 14.03.2020
1043 Clouds 7 1024 39 10000 3.1 50 15:44 14.03.2020
1044 Clouds 8 1024 36 10000 3.1 60 15:22 14.03.2020
1045 Clouds 7 1024 36 10000 2.6 40 14:43 14.03.2020
1046 Clouds 7 1024 41 10000 2.1 80 14:21 14.03.2020
1047 Clouds 7 1024 41 10000 2.1 80 13:57 14.03.2020
1048 Clouds 7 1024 45 10000 2.6 30 13:38 14.03.2020
1049 Clouds 7 1024 41 10000 2.6 30 13:20 14.03.2020
1050 Clouds 6 1024 41 10000 2.1 0 12:44 14.03.2020
1051 Clouds 6 1024 44 10000 2.6 130 12:26 14.03.2020
1052 Clouds 6 1024 48 10000 2.1 0 11:47 14.03.2020
1053 Clouds 6 1024 48 10000 1.5 0 11:26 14.03.2020
1054 Clouds 5 1024 48 10000 2.1 50 10:59 14.03.2020
1055 Clouds 4 1024 48 10000 2.1 50 10:40 14.03.2020
1056 Clouds 4 1024 60 10000 2.1 60 10:22 14.03.2020
1057 Clouds 4 1024 64 10000 2.6 40 09:43 14.03.2020
1058 Clouds 3 1024 69 10000 1.5 40 09:24 14.03.2020
1059 Clouds 2 1023 74 10000 1 0 08:47 14.03.2020
1060 Clouds 2 1023 74 10000 1 0 08:29 14.03.2020
1061 Clouds 0 984 89 0 1.03 321 07:55 14.03.2020
1062 Clouds 0 1022 96 10000 0.5 0 07:37 14.03.2020
1063 Clouds 0 1022 96 10000 1 0 07:18 14.03.2020
1064 Clouds 0 1022 96 10000 2.1 340 06:40 14.03.2020
1065 Clouds 1 1021 80 10000 1 0 05:24 14.03.2020
1066 Clouds 3 1020 80 10000 3.6 310 03:46 14.03.2020
1067 Clouds 3 1020 93 10000 3.6 310 03:24 14.03.2020
1068 Clouds 4 1020 93 10000 3.6 300 02:22 14.03.2020
1069 Clouds 4 1019 86 10000 4.6 290 00:49 14.03.2020
1070 Clouds 4 1018 86 10000 4.6 280 23:50 13.03.2020
1071 Clouds 4 1018 86 10000 4.6 280 23:30 13.03.2020
1072 Rain 4 1018 80 10000 5.1 270 22:52 13.03.2020
1073 Rain 4 1018 80 10000 5.1 270 22:26 13.03.2020
1074 Rain 4 1017 80 10000 6.2 270 21:44 13.03.2020
1075 Clouds 5 1016 80 10000 6.2 270 21:22 13.03.2020
1076 Rain 5 1016 80 10000 6.2 270 20:59 13.03.2020
1077 Rain 5 1016 80 10000 7.7 270 20:41 13.03.2020
1078 Rain 5 1016 80 10000 6.2 280 20:21 13.03.2020
1079 Clouds 5 1015 80 10000 4.1 270 19:48 13.03.2020
1080 Clouds 5 1015 80 10000 4.1 270 19:30 13.03.2020
1081 Rain 5 1015 80 5000 5.1 300 18:49 13.03.2020
1082 Rain 6 1015 80 5000 5.1 300 18:31 13.03.2020
1083 Rain 7 1015 80 10000 8.7 300 17:59 13.03.2020
1084 Rain 8 1014 52 10000 8.2 280 17:41 13.03.2020
1085 Clouds 8 1013 52 10000 8.7 260 17:20 13.03.2020
1086 Clouds 8 1013 63 10000 9.3 260 16:42 13.03.2020
1087 Clouds 8 1013 63 10000 9.3 260 16:24 13.03.2020
1088 Clouds 8 1013 63 10000 11.3 260 15:59 13.03.2020
1089 Clouds 8 1013 63 10000 8.7 260 15:39 13.03.2020
1090 Clouds 8 1013 63 10000 8.2 250 15:20 13.03.2020
1091 Clouds 8 1013 52 10000 9.3 260 14:44 13.03.2020
1092 Clouds 8 1013 52 10000 9.3 260 14:23 13.03.2020
1093 Clouds 8 1013 49 10000 9.8 260 13:58 13.03.2020
1094 Rain 8 1013 52 10000 9.3 250 13:40 13.03.2020
1095 Clouds 8 1013 52 10000 8.2 260 13:20 13.03.2020
1096 Clouds 8 1013 52 10000 8.7 260 12:55 13.03.2020
1097 Clouds 8 1013 52 10000 8.7 260 12:55 13.03.2020
1098 Clouds 8 1013 52 10000 8.7 260 12:37 13.03.2020
1099 Clouds 8 1013 52 10000 7.7 250 12:19 13.03.2020
1100 Clouds 8 1012 52 10000 7.7 250 11:45 13.03.2020
1101 Clouds 7 1012 56 10000 7.7 240 11:26 13.03.2020
1102 Clouds 7 1013 56 10000 7.7 240 10:59 13.03.2020
1103 Clouds 7 1013 56 10000 7.7 240 10:41 13.03.2020
1104 Clouds 7 1013 56 10000 6.7 240 10:23 13.03.2020
1105 Rain 6 1013 56 10000 8.2 240 09:45 13.03.2020
1106 Rain 7 1013 56 10000 8.2 240 09:26 13.03.2020
1107 Clear 5 1012 65 10000 7.2 240 08:56 13.03.2020
1108 Clear 5 1012 65 10000 7.2 240 08:37 13.03.2020
1109 Clouds 5 1012 65 10000 4.6 240 08:18 13.03.2020
1110 Clouds 4 1012 69 10000 5.1 250 07:43 13.03.2020
1111 Clouds 4 1012 65 10000 6.2 250 07:22 13.03.2020
1112 Clouds 4 1011 69 10000 4.6 250 06:46 13.03.2020
1113 Clouds 4 1011 78 10000 5.7 260 06:21 13.03.2020
1114 Clouds 5 1011 78 10000 5.7 270 05:44 13.03.2020
1115 Clouds 5 1010 70 10000 4.1 250 04:39 13.03.2020
1116 Clouds 5 1010 80 10000 3.1 210 03:51 13.03.2020
1117 Clouds 5 1011 65 10000 2.6 260 02:29 13.03.2020
1118 Rain 5 1011 60 10000 3.1 280 01:37 13.03.2020
1119 Rain 6 1011 60 10000 4.6 280 01:18 13.03.2020
1120 Rain 6 1011 77 10000 6.7 290 00:39 13.03.2020
1121 Rain 7 1010 70 10000 4.1 240 00:19 13.03.2020
1122 Rain 6 1010 70 10000 3.6 230 23:38 12.03.2020
1123 Clouds 6 1010 78 10000 3.1 220 23:19 12.03.2020
1124 Clouds 6 1010 78 10000 4.1 210 22:46 12.03.2020
1125 Clouds 5 1010 78 10000 4.1 210 22:27 12.03.2020
1126 Clouds 5 1010 65 10000 4.1 180 21:56 12.03.2020
1127 Clouds 5 1010 60 10000 3.1 190 21:38 12.03.2020
1128 Clouds 5 1010 45 10000 3.1 210 21:20 12.03.2020
1129 Clouds 5 1010 41 10000 3.1 210 20:42 12.03.2020
1130 Rain 4 972 80 0 1.79 174 20:20 12.03.2020
1131 Rain 5 1010 69 0 3.51 271 19:56 12.03.2020
1132 Rain 5 1010 42 10000 2.6 250 19:37 12.03.2020
1133 Rain 5 972 80 0 1.34 200 19:18 12.03.2020
1134 Rain 7 1010 39 10000 4.6 280 18:41 12.03.2020
1135 Rain 8 1010 39 10000 5.7 280 18:22 12.03.2020
1136 Rain 9 1009 39 10000 6.2 280 17:56 12.03.2020
1137 Rain 9 1009 39 10000 6.2 280 17:37 12.03.2020
1138 Rain 9 1009 43 10000 6.7 290 17:18 12.03.2020
1139 Rain 9 1009 53 10000 7.2 280 16:41 12.03.2020
1140 Rain 9 1009 66 10000 6.7 270 16:22 12.03.2020
1141 Rain 9 1008 66 10000 6.2 270 15:49 12.03.2020
1142 Rain 9 1008 66 10000 6.2 270 15:28 12.03.2020
1143 Rain 9 1008 76 10000 7.2 280 14:58 12.03.2020
1144 Rain 9 1008 71 10000 7.7 280 14:38 12.03.2020
1145 Rain 10 1007 81 10000 7.2 270 14:19 12.03.2020
1146 Rain 11 1007 87 10000 7.2 270 13:40 12.03.2020
1147 Rain 11 1007 81 10000 10.3 290 13:21 12.03.2020
1148 Rain 11 1007 81 10000 10.3 290 13:21 12.03.2020
1149 Rain 12 1007 81 10000 10.3 290 12:55 12.03.2020
1150 Clouds 13 1006 54 10000 10.3 250 12:37 12.03.2020
1151 Clouds 14 1006 58 10000 8.7 250 12:18 12.03.2020
1152 Clouds 14 1006 58 10000 10.3 250 11:56 12.03.2020
1153 Clouds 14 1006 58 10000 10.3 250 11:37 12.03.2020
1154 Clouds 14 1006 62 10000 11.8 240 11:19 12.03.2020
1155 Clouds 14 1006 58 10000 9.8 230 10:55 12.03.2020
1156 Clouds 14 1006 58 10000 9.8 230 10:37 12.03.2020
1157 Clouds 14 1006 58 10000 8.7 240 10:18 12.03.2020
1158 Clouds 14 1006 58 10000 8.2 240 09:41 12.03.2020
1159 Clouds 13 1006 66 10000 8.2 230 09:23 12.03.2020
1160 Clouds 13 1006 66 10000 7.2 230 08:40 12.03.2020
1161 Clouds 12 1006 62 10000 7.7 230 08:19 12.03.2020
1162 Clouds 11 1006 66 10000 6.7 230 07:52 12.03.2020
1163 Clouds 11 1006 66 10000 7.2 220 07:23 12.03.2020
1164 Clouds 10 1007 76 10000 7.7 220 06:38 12.03.2020
1165 Clouds 11 1007 76 10000 7.7 220 05:40 12.03.2020
1166 Clouds 11 1008 76 10000 6.7 230 04:27 12.03.2020
1167 Clouds 11 1009 81 10000 7.2 220 02:34 12.03.2020
1168 Rain 10 1010 87 10000 6.2 220 01:30 12.03.2020
1169 Rain 10 1011 87 10000 3.6 230 00:42 12.03.2020
1170 Rain 10 1011 87 10000 4.1 230 00:24 12.03.2020
1171 Drizzle 10 1011 93 10000 3.1 220 23:42 11.03.2020
1172 Drizzle 10 1012 93 10000 3.1 200 23:23 11.03.2020
1173 Rain 10 1012 93 10000 3.1 220 22:45 11.03.2020
1174 Rain 10 1012 93 10000 3.1 220 22:27 11.03.2020
1175 Drizzle 10 1012 93 10000 5.1 220 21:59 11.03.2020
1176 Rain 10 1012 87 10000 4.1 200 21:41 11.03.2020
1177 Rain 10 1012 87 10000 5.1 200 21:22 11.03.2020
1178 Rain 10 1012 87 10000 5.1 200 21:22 11.03.2020
1179 Rain 10 1012 87 10000 5.1 200 20:58 11.03.2020
1180 Rain 9 1012 87 10000 4.6 200 20:39 11.03.2020
1181 Rain 9 1013 87 10000 4.6 210 20:19 11.03.2020
1182 Rain 9 1012 93 10000 3.6 210 19:44 11.03.2020
1183 Clouds 9 1012 87 10000 4.1 210 19:25 11.03.2020
1184 Clouds 10 1012 87 10000 4.1 210 18:59 11.03.2020
1185 Clouds 10 1012 81 10000 3.1 210 18:40 11.03.2020
1186 Clouds 10 1012 81 10000 3.1 210 18:40 11.03.2020
1187 Clouds 10 1012 87 10000 2.1 250 18:21 11.03.2020
1188 Clouds 10 1012 87 10000 2.1 250 17:58 11.03.2020
1189 Clouds 10 1012 76 10000 2.6 250 17:39 11.03.2020
1190 Rain 10 1012 81 10000 3.6 250 17:20 11.03.2020
1191 Clouds 10 1012 76 10000 3.6 260 16:46 11.03.2020
1192 Clouds 10 1012 76 10000 3.6 260 16:23 11.03.2020
1193 Clouds 11 1012 76 10000 4.1 270 15:57 11.03.2020
1194 Clouds 11 1012 81 10000 4.1 280 15:39 11.03.2020
1195 Rain 11 1011 81 10000 3.1 280 15:21 11.03.2020
1196 Clouds 11 1011 81 10000 3.6 250 14:42 11.03.2020
1197 Clouds 10 1011 76 10000 5.7 230 14:22 11.03.2020
1198 Rain 10 1011 76 10000 6.2 240 13:45 11.03.2020
1199 Clouds 10 1011 76 10000 6.2 240 13:27 11.03.2020
1200 Clouds 10 1011 76 10000 5.1 240 12:58 11.03.2020
1201 Clouds 10 1011 76 10000 5.1 230 12:40 11.03.2020
1202 Rain 9 1011 81 10000 4.6 240 12:20 11.03.2020
1203 Rain 9 1011 81 10000 5.1 240 11:55 11.03.2020
1204 Rain 9 1011 81 10000 5.1 240 11:37 11.03.2020
1205 Rain 9 1011 81 10000 5.7 240 11:18 11.03.2020
1206 Rain 8 1011 81 10000 4.6 250 10:42 11.03.2020
1207 Rain 8 1010 81 10000 4.6 250 10:18 11.03.2020
1208 Clouds 8 1010 87 10000 4.1 250 09:43 11.03.2020
1209 Clouds 8 1010 81 10000 3.6 250 09:25 11.03.2020
1210 Clouds 8 1010 81 10000 3.6 250 09:25 11.03.2020
1211 Clouds 8 1010 81 10000 3.6 250 08:58 11.03.2020
1212 Rain 8 1009 81 10000 3.6 250 08:40 11.03.2020
1213 Rain 7 1009 81 10000 4.1 250 08:19 11.03.2020
1214 Rain 7 1008 93 10000 3.6 250 07:43 11.03.2020
1215 Rain 7 1008 93 10000 3.1 250 07:19 11.03.2020
1216 Rain 7 1007 93 10000 3.6 260 06:44 11.03.2020
1217 Rain 7 1007 87 10000 4.6 290 05:41 11.03.2020
1218 Rain 9 1005 93 10000 8.2 330 04:50 11.03.2020
1219 Rain 11 1004 87 10000 8.2 240 02:30 11.03.2020
1220 Clouds 11 1003 76 10000 6.7 250 01:30 11.03.2020
1221 Clouds 11 1003 81 10000 7.7 250 00:47 11.03.2020
1222 Clouds 10 1003 76 10000 8.7 240 00:21 11.03.2020
1223 Clouds 10 1003 76 10000 6.7 240 23:42 10.03.2020
1224 Clouds 9 1004 81 10000 6.7 240 23:22 10.03.2020
1225 Rain 9 1004 81 10000 7.7 240 22:40 10.03.2020
1226 Rain 8 1004 87 10000 7.7 230 22:20 10.03.2020
1227 Clouds 8 1004 87 10000 7.7 230 21:57 10.03.2020
1228 Rain 8 1004 93 10000 6.2 230 21:39 10.03.2020
1229 Rain 8 1004 87 10000 6.7 220 21:20 10.03.2020
1230 Rain 8 1004 87 10000 6.7 220 21:20 10.03.2020
1231 Rain 7 1004 87 10000 6.7 220 20:59 10.03.2020
1232 Rain 7 1004 93 10000 6.2 220 20:41 10.03.2020
1233 Rain 7 1005 93 10000 6.2 220 20:19 10.03.2020
1234 Rain 7 1005 93 10000 6.2 220 19:57 10.03.2020
1235 Rain 7 1005 93 10000 6.2 220 19:39 10.03.2020
1236 Rain 7 1005 93 10000 5.1 220 19:21 10.03.2020
1237 Rain 7 1005 93 10000 5.1 220 19:21 10.03.2020
1238 Rain 6 1005 87 10000 6.2 220 18:54 10.03.2020
1239 Rain 6 1005 87 10000 6.2 220 18:36 10.03.2020
1240 Rain 7 1006 87 10000 5.1 220 18:18 10.03.2020
1241 Rain 7 1006 81 10000 4.6 230 17:40 10.03.2020
1242 Rain 7 1006 75 10000 6.7 230 17:22 10.03.2020
1243 Clouds 7 1005 70 10000 5.7 230 16:40 10.03.2020
1244 Clouds 7 1006 70 10000 5.7 230 16:20 10.03.2020
1245 Clouds 7 1006 70 10000 5.7 230 15:58 10.03.2020
1246 Clouds 7 1006 70 10000 5.7 230 15:58 10.03.2020
1247 Clouds 7 1006 75 10000 6.2 210 15:40 10.03.2020
1248 Clouds 7 1006 75 10000 6.2 210 15:19 10.03.2020
1249 Clouds 7 1006 75 10000 6.2 210 14:57 10.03.2020
1250 Rain 7 1006 75 10000 8.2 220 14:39 10.03.2020
1251 Clouds 7 1007 70 10000 8.7 220 14:18 10.03.2020
1252 Rain 7 1007 70 10000 8.7 210 13:43 10.03.2020
1253 Rain 7 1007 70 10000 8.7 210 13:25 10.03.2020
1254 Clouds 7 1007 70 10000 7.7 230 12:55 10.03.2020
1255 Rain 7 1008 70 10000 7.2 200 12:36 10.03.2020
1256 Rain 6 1008 75 10000 9.8 200 12:18 10.03.2020
1257 Rain 6 1008 75 10000 8.7 190 11:42 10.03.2020
1258 Rain 7 1009 70 10000 7.7 200 11:24 10.03.2020
1259 Rain 6 1010 70 10000 7.2 220 10:54 10.03.2020
1260 Rain 6 1010 70 10000 7.2 220 10:36 10.03.2020
1261 Clouds 6 1010 75 10000 6.2 180 10:18 10.03.2020
1262 Clouds 6 1010 70 10000 6.2 180 09:44 10.03.2020
1263 Clouds 6 1010 70 10000 6.7 190 09:20 10.03.2020
1264 Clouds 6 1010 70 10000 6.7 190 08:56 10.03.2020
1265 Clouds 5 1011 75 10000 6.2 190 08:36 10.03.2020
1266 Clouds 5 1011 80 10000 4.6 180 08:18 10.03.2020
1267 Clouds 3 1011 81 10000 5.7 180 07:40 10.03.2020
1268 Clouds 3 1012 81 10000 6.7 180 07:21 10.03.2020
1269 Clouds 3 1012 81 10000 5.7 180 06:38 10.03.2020
1270 Clouds 3 1013 81 10000 4.1 180 05:55 10.03.2020
1271 Clouds 3 1013 81 10000 4.1 180 05:35 10.03.2020
1272 Clouds 3 1013 86 10000 4.1 180 04:31 10.03.2020
1273 Clouds 3 1014 75 10000 3.6 220 02:58 10.03.2020
1274 Clouds 3 1014 86 10000 3.1 220 01:36 10.03.2020
1275 Clouds 4 1015 75 10000 3.1 240 00:51 10.03.2020
1276 Clouds 4 1015 75 10000 3.1 240 00:29 10.03.2020
1277 Clouds 4 1015 80 10000 2.1 220 23:55 09.03.2020
1278 Clouds 4 1015 80 10000 2.1 220 23:36 09.03.2020
1279 Clouds 4 1015 86 10000 2.6 210 23:18 09.03.2020
1280 Clouds 4 1015 86 10000 2.1 230 22:38 09.03.2020
1281 Clouds 4 1014 81 10000 2.1 230 22:20 09.03.2020
1282 Clouds 4 1014 81 10000 2.6 250 21:45 09.03.2020
1283 Clouds 4 1014 86 10000 3.1 220 21:22 09.03.2020
1284 Clouds 4 1014 86 10000 3.1 220 20:59 09.03.2020
1285 Clouds 5 1014 81 10000 2.1 220 20:41 09.03.2020
1286 Clouds 6 1014 81 10000 2.1 240 20:23 09.03.2020
1287 Clouds 5 1014 81 10000 2.1 240 19:59 09.03.2020
1288 Clouds 5 1014 75 10000 2.1 240 19:41 09.03.2020
1289 Clouds 5 1014 75 10000 1.5 260 19:20 09.03.2020
1290 Clouds 6 1014 75 10000 1.5 260 18:57 09.03.2020
1291 Clouds 6 1013 75 10000 1.5 260 18:38 09.03.2020
1292 Clouds 7 1013 75 10000 2.1 320 18:18 09.03.2020
1293 Clouds 8 1013 70 10000 3.1 280 17:56 09.03.2020
1294 Clouds 8 1013 70 10000 3.1 280 17:37 09.03.2020
1295 Clouds 9 1012 70 10000 3.1 270 17:19 09.03.2020
1296 Clouds 9 1012 70 10000 4.1 270 16:56 09.03.2020
1297 Clouds 9 1012 70 10000 4.1 270 16:38 09.03.2020
1298 Clouds 9 1012 76 10000 1.5 300 16:20 09.03.2020
1299 Clouds 9 1012 76 10000 1.5 300 15:56 09.03.2020
1300 Clouds 9 1012 76 10000 2.1 300 15:38 09.03.2020
1301 Clouds 9 1012 76 10000 2.1 300 15:18 09.03.2020
1302 Clouds 9 1012 81 10000 2.6 280 14:39 09.03.2020
1303 Clouds 8 1011 81 10000 3.1 270 14:21 09.03.2020
1304 Clouds 8 1011 87 10000 2.6 270 13:59 09.03.2020
1305 Clouds 8 1011 87 10000 2.6 270 13:39 09.03.2020
1306 Clouds 8 1011 87 10000 2.6 270 13:39 09.03.2020
1307 Rain 8 1011 87 10000 3.6 280 13:21 09.03.2020
1308 Drizzle 7 1011 93 5000 3.1 250 12:59 09.03.2020
1309 Drizzle 7 1011 93 5000 3.1 250 12:40 09.03.2020
1310 Drizzle 7 1011 93 5000 3.1 190 12:20 09.03.2020
1311 Rain 7 1011 87 5000 4.1 190 11:40 09.03.2020
1312 Rain 7 1011 87 5000 4.1 190 11:40 09.03.2020
1313 Rain 7 1011 87 5000 4.1 190 11:21 09.03.2020
1314 Rain 7 1010 75 10000 3.6 180 10:58 09.03.2020
1315 Rain 7 1010 75 10000 3.6 180 10:40 09.03.2020
1316 Rain 7 1010 75 10000 3.6 180 10:40 09.03.2020
1317 Rain 7 1010 75 10000 4.1 190 10:19 09.03.2020
1318 Rain 7 1010 75 10000 4.1 190 10:19 09.03.2020
1319 Rain 7 1010 65 10000 3.6 180 09:43 09.03.2020
1320 Clouds 6 1010 65 10000 3.6 170 09:24 09.03.2020
1321 Rain 6 1010 70 10000 3.6 160 08:59 09.03.2020
1322 Rain 6 1010 70 10000 3.6 160 08:39 09.03.2020
1323 Rain 6 1010 70 10000 4.1 150 08:21 09.03.2020
1324 Clouds 5 1010 70 10000 4.1 150 07:40 09.03.2020
1325 Clouds 5 1010 73 10000 3.6 150 07:21 09.03.2020
1326 Clouds 5 1009 70 10000 4.1 140 06:43 09.03.2020
1327 Rain 5 1010 70 10000 4.1 160 06:23 09.03.2020
1328 Rain 5 1010 75 10000 3.6 150 05:47 09.03.2020
1329 Clouds 5 1010 75 10000 2.6 160 05:20 09.03.2020
1330 Clouds 5 1010 75 10000 2.6 160 04:40 09.03.2020
1331 Clouds 5 1010 75 10000 3.1 160 04:21 09.03.2020
1332 Clouds 5 1010 75 10000 4.1 150 02:58 09.03.2020
1333 Clouds 5 1011 74 10000 3.1 150 01:26 09.03.2020
1334 Clouds 5 1012 70 10000 4.1 170 00:38 09.03.2020
1335 Clouds 4 1012 70 10000 4.1 170 00:20 09.03.2020
1336 Clouds 5 1012 75 10000 4.6 170 23:47 08.03.2020
1337 Clouds 5 1012 70 10000 4.6 170 23:21 08.03.2020
1338 Clouds 5 1013 75 10000 4.1 170 22:56 08.03.2020
1339 Clouds 5 1013 75 10000 4.1 170 22:38 08.03.2020
1340 Clouds 5 1013 70 10000 4.1 170 22:18 08.03.2020
1341 Clouds 5 1013 70 10000 3.6 170 21:54 08.03.2020
1342 Clouds 5 1013 70 10000 3.6 170 21:54 08.03.2020
1343 Clouds 5 1013 70 10000 3.1 170 21:36 08.03.2020
1344 Clouds 5 1013 70 10000 3.1 170 21:18 08.03.2020
1345 Clouds 5 1014 75 10000 4.6 180 20:39 08.03.2020
1346 Clouds 6 1014 75 10000 4.6 180 20:21 08.03.2020
1347 Clouds 6 1014 75 10000 4.6 180 20:21 08.03.2020
1348 Clouds 6 1013 75 10000 4.6 170 19:56 08.03.2020
1349 Clouds 6 1013 75 10000 4.6 170 19:37 08.03.2020
1350 Clouds 6 1014 70 10000 4.6 170 19:18 08.03.2020
1351 Clouds 6 1014 70 10000 4.6 170 18:41 08.03.2020
1352 Clouds 7 1014 65 10000 4.6 180 18:23 08.03.2020
1353 Clouds 7 1014 70 10000 4.1 180 17:56 08.03.2020
1354 Clouds 8 1014 66 10000 4.6 180 17:38 08.03.2020
1355 Clouds 8 1014 66 10000 4.6 180 17:19 08.03.2020
1356 Clouds 9 1014 66 10000 4.6 180 16:46 08.03.2020
1357 Clouds 9 1014 66 10000 4.6 180 16:27 08.03.2020
1358 Clouds 9 1015 66 10000 5.1 180 15:56 08.03.2020
1359 Clouds 9 1015 66 10000 5.1 200 15:38 08.03.2020
1360 Clouds 9 1015 66 10000 5.1 200 15:19 08.03.2020
1361 Clouds 9 1016 70 10000 4.1 230 14:41 08.03.2020
1362 Clouds 9 1016 70 10000 4.1 230 14:21 08.03.2020
1363 Clouds 8 1016 70 10000 4.1 230 13:58 08.03.2020
1364 Clouds 8 1017 65 10000 5.1 220 13:39 08.03.2020
1365 Clouds 8 1017 65 10000 5.7 220 13:19 08.03.2020
1366 Clouds 8 1017 65 10000 5.1 230 12:43 08.03.2020
1367 Clouds 8 1017 65 10000 5.1 230 12:43 08.03.2020
1368 Clouds 8 1018 61 10000 4.1 240 12:24 08.03.2020
1369 Clouds 8 1018 65 10000 4.6 240 11:57 08.03.2020
1370 Clouds 8 1018 57 10000 4.6 220 11:39 08.03.2020
1371 Clear 7 980 79 0 2.24 223 11:20 08.03.2020
1372 Clear 7 1018 65 10000 6.2 200 10:41 08.03.2020
1373 Clear 7 1018 65 10000 6.2 200 10:23 08.03.2020
1374 Clear 7 1018 65 10000 5.1 190 09:57 08.03.2020
1375 Clear 6 1019 65 10000 5.1 190 09:36 08.03.2020
1376 Clear 5 1019 65 10000 5.1 180 09:18 08.03.2020
1377 Clear 4 1019 69 10000 5.1 190 08:40 08.03.2020
1378 Clear 2 1019 74 10000 4.6 190 08:19 08.03.2020
1379 Clear 1 1019 74 10000 4.6 190 07:44 08.03.2020
1380 Clear 1 1019 74 10000 4.1 200 07:25 08.03.2020
1381 Clear 0 1020 80 0 4.43 218 06:42 08.03.2020
1382 Clear 0 1020 79 0 4.43 218 06:22 08.03.2020
1383 Clear 0 1019 74 10000 3.1 200 05:39 08.03.2020
1384 Clouds 1 1019 74 10000 3.1 200 03:52 08.03.2020
1385 Clouds 2 1020 74 10000 3.1 230 02:30 08.03.2020
1386 Clouds 2 1020 88 10000 2.6 240 01:34 08.03.2020
1387 Clouds 2 1020 89 10000 3.1 250 00:55 08.03.2020
1388 Clouds 2 1020 89 10000 3.1 240 00:28 08.03.2020
1389 Clouds 3 1020 89 10000 2.1 240 23:47 07.03.2020
1390 Clouds 3 1020 89 10000 2.1 270 23:24 07.03.2020
1391 Clouds 3 1020 85 10000 2.1 270 22:55 07.03.2020
1392 Clouds 3 1020 85 10000 3.1 260 22:36 07.03.2020
1393 Clouds 3 1020 85 10000 3.1 260 22:18 07.03.2020
1394 Clouds 2 1020 85 10000 3.1 260 21:43 07.03.2020
1395 Clouds 2 1019 85 10000 2.6 270 21:19 07.03.2020
1396 Clouds 3 1019 74 10000 2.6 270 20:40 07.03.2020
1397 Snow 3 1019 74 10000 2.6 270 20:20 07.03.2020
1398 Snow 3 1019 80 10000 3.1 280 19:41 07.03.2020
1399 Snow 3 1018 69 10000 3.6 290 19:22 07.03.2020
1400 Snow 4 1018 69 10000 4.6 300 18:59 07.03.2020
1401 Clouds 4 1017 80 10000 6.2 300 18:39 07.03.2020
1402 Clouds 4 1017 80 10000 6.2 300 18:20 07.03.2020
1403 Clouds 5 1016 65 10000 7.7 300 17:42 07.03.2020
1404 Clouds 5 1016 70 10000 7.2 300 17:20 07.03.2020
1405 Clouds 5 1015 70 10000 7.7 300 16:56 07.03.2020
1406 Clouds 5 1015 70 10000 7.7 300 16:38 07.03.2020
1407 Clouds 5 1015 75 10000 6.2 300 16:20 07.03.2020
1408 Rain 5 1015 70 10000 6.7 310 15:55 07.03.2020
1409 Clouds 5 1014 70 10000 7.2 310 15:36 07.03.2020
1410 Clouds 6 1014 70 10000 7.2 310 15:18 07.03.2020
1411 Clouds 5 1014 70 10000 7.2 310 14:42 07.03.2020
1412 Clouds 5 1013 70 10000 8.2 300 14:23 07.03.2020
1413 Clouds 6 1013 75 10000 5.1 290 13:55 07.03.2020
1414 Clouds 5 1013 80 10000 6.2 290 13:37 07.03.2020
1415 Clouds 5 1013 80 10000 6.2 290 13:18 07.03.2020
1416 Clouds 4 1013 86 10000 6.2 290 12:40 07.03.2020
1417 Rain 5 1012 86 10000 6.2 290 12:20 07.03.2020
1418 Rain 4 1012 93 10000 6.2 290 11:57 07.03.2020
1419 Rain 4 1012 93 10000 6.2 290 11:38 07.03.2020
1420 Clouds 4 1011 93 9000 6.2 300 11:19 07.03.2020
1421 Drizzle 3 1010 93 8000 5.7 290 10:40 07.03.2020
1422 Drizzle 3 1010 93 8000 5.7 290 10:20 07.03.2020
1423 Drizzle 3 1009 93 8000 6.2 290 09:56 07.03.2020
1424 Drizzle 3 1009 93 8000 5.7 290 09:37 07.03.2020
1425 Drizzle 3 1009 93 8000 5.7 290 09:18 07.03.2020
1426 Drizzle 3 1008 93 7000 5.1 290 08:43 07.03.2020
1427 Drizzle 3 1007 93 8000 5.7 280 08:21 07.03.2020
1428 Drizzle 3 1007 93 6000 4.6 280 07:51 07.03.2020
1429 Drizzle 3 1006 100 5000 4.6 280 07:23 07.03.2020
1430 Snow 3 1007 90 0 0.45 314 06:56 07.03.2020
1431 Snow 2 969 99 0 4.02 280 06:30 07.03.2020
1432 Rain 2 967 99 0 4.02 253 05:53 07.03.2020
1433 Drizzle 2 1004 93 8000 5.1 270 04:43 07.03.2020
1434 Clouds 3 1002 86 10000 5.1 260 02:57 07.03.2020
1435 Clouds 3 1002 86 10000 5.1 260 02:33 07.03.2020
1436 Rain 3 1001 93 10000 3.6 260 01:26 07.03.2020
1437 Rain 3 1001 93 10000 4.6 260 00:40 07.03.2020
1438 Rain 3 1000 93 10000 4.1 270 00:21 07.03.2020
1439 Rain 4 1000 93 10000 5.7 260 23:49 06.03.2020
1440 Rain 4 1000 80 10000 6.7 260 23:26 06.03.2020
1441 Rain 4 999 75 10000 4.6 250 22:58 06.03.2020
1442 Clouds 4 999 75 10000 5.1 260 22:40 06.03.2020
1443 Clouds 4 999 75 10000 5.1 260 22:18 06.03.2020
1444 Rain 5 998 75 10000 6.2 250 21:43 06.03.2020
1445 Rain 5 998 80 10000 5.1 260 21:19 06.03.2020
1446 Clouds 5 997 75 10000 5.1 260 20:39 06.03.2020
1447 Clouds 5 997 75 10000 5.1 260 20:21 06.03.2020
1448 Clouds 6 996 70 10000 5.1 240 19:52 06.03.2020
1449 Clouds 6 996 70 10000 5.7 240 19:33 06.03.2020
1450 Clouds 6 996 70 10000 5.7 240 18:59 06.03.2020
1451 Clouds 7 995 70 10000 6.2 230 18:40 06.03.2020
1452 Clouds 7 995 65 10000 5.1 230 18:19 06.03.2020
1453 Clouds 7 995 65 10000 5.1 230 18:19 06.03.2020
1454 Clouds 7 995 65 10000 5.1 230 18:19 06.03.2020
1455 Clouds 7 994 65 10000 5.1 220 17:55 06.03.2020
1456 Clouds 7 994 65 10000 5.1 220 17:36 06.03.2020
1457 Clouds 7 994 65 10000 6.7 220 17:18 06.03.2020
1458 Clouds 8 993 70 10000 6.2 210 16:42 06.03.2020
1459 Clouds 8 993 70 10000 6.2 210 16:20 06.03.2020
1460 Rain 8 993 70 10000 6.2 230 15:45 06.03.2020
1461 Clouds 8 993 66 10000 5.7 240 15:25 06.03.2020
1462 Clouds 8 992 61 10000 5.1 240 14:59 06.03.2020
1463 Clouds 8 992 61 10000 5.1 240 14:39 06.03.2020
1464 Clouds 8 992 61 10000 5.1 240 14:39 06.03.2020
1465 Clouds 9 992 70 10000 2.1 150 14:19 06.03.2020
1466 Rain 9 992 70 10000 3.1 160 13:43 06.03.2020
1467 Rain 9 992 70 10000 4.1 160 13:22 06.03.2020
1468 Clouds 9 991 76 10000 4.1 150 12:58 06.03.2020
1469 Clouds 9 991 76 10000 4.1 150 12:38 06.03.2020
1470 Clouds 9 991 76 10000 4.1 150 12:38 06.03.2020
1471 Clouds 9 991 81 10000 4.6 140 12:20 06.03.2020
1472 Clouds 9 991 87 10000 4.6 160 11:58 06.03.2020
1473 Clouds 8 991 87 10000 4.6 160 11:40 06.03.2020
1474 Clouds 8 991 87 10000 4.6 160 11:20 06.03.2020
1475 Clouds 8 991 93 10000 4.6 150 10:40 06.03.2020
1476 Rain 7 991 87 10000 5.1 160 10:21 06.03.2020
1477 Rain 7 991 93 10000 5.1 150 09:56 06.03.2020
1478 Rain 6 991 93 10000 5.7 150 09:37 06.03.2020
1479 Rain 6 991 93 10000 5.7 150 09:19 06.03.2020
1480 Rain 6 990 93 10000 6.7 150 08:46 06.03.2020
1481 Rain 5 990 93 10000 6.7 150 08:27 06.03.2020
1482 Rain 5 990 93 10000 6.7 160 07:59 06.03.2020
1483 Rain 5 990 93 10000 6.7 160 07:39 06.03.2020
1484 Rain 5 990 93 10000 7.2 150 07:20 06.03.2020
1485 Rain 5 990 93 10000 6.2 160 06:41 06.03.2020
1486 Rain 4 990 93 10000 6.2 160 05:50 06.03.2020
1487 Rain 4 990 93 10000 6.7 160 05:31 06.03.2020
1488 Rain 4 990 93 10000 6.7 160 04:59 06.03.2020
1489 Rain 4 990 93 10000 5.7 150 03:46 06.03.2020
1490 Rain 5 992 80 10000 5.7 140 01:42 06.03.2020
1491 Rain 5 992 80 10000 5.1 140 01:24 06.03.2020
1492 Rain 5 992 80 10000 6.2 140 00:48 06.03.2020
1493 Rain 5 993 70 10000 5.7 160 00:20 06.03.2020
1494 Rain 6 993 70 10000 4.6 150 23:43 05.03.2020
1495 Rain 6 993 56 10000 6.2 160 23:24 05.03.2020
1496 Clouds 6 994 52 10000 5.7 150 22:55 05.03.2020
1497 Clouds 6 994 52 10000 4.6 150 22:36 05.03.2020
1498 Clouds 6 994 52 10000 4.6 150 22:18 05.03.2020
1499 Clouds 6 994 52 10000 5.7 140 21:54 05.03.2020
1500 Clouds 7 994 52 10000 6.7 140 21:36 05.03.2020
1501 Clouds 7 994 52 10000 6.7 140 21:18 05.03.2020
1502 Clouds 7 995 52 10000 5.7 130 20:42 05.03.2020
1503 Clouds 7 995 52 10000 4.6 130 20:20 05.03.2020
1504 Clouds 7 995 52 10000 4.6 120 19:59 05.03.2020
1505 Clouds 7 995 52 10000 4.6 120 19:39 05.03.2020
1506 Clouds 7 996 52 10000 5.1 110 19:21 05.03.2020
1507 Clouds 7 997 52 10000 4.1 110 18:58 05.03.2020
1508 Clouds 7 997 52 10000 4.1 110 18:37 05.03.2020
1509 Clouds 7 997 49 10000 5.7 130 18:19 05.03.2020
1510 Clouds 8 998 52 10000 4.1 130 17:57 05.03.2020
1511 Clouds 8 998 52 10000 4.1 130 17:39 05.03.2020
1512 Clouds 8 998 52 10000 4.1 130 17:20 05.03.2020
1513 Clouds 9 999 49 10000 5.7 150 16:41 05.03.2020
1514 Clouds 9 999 45 10000 6.7 170 16:23 05.03.2020
1515 Clouds 9 999 45 10000 7.7 160 15:58 05.03.2020
1516 Clouds 9 999 45 10000 7.7 160 15:38 05.03.2020
1517 Clouds 9 1000 45 10000 6.2 160 15:20 05.03.2020
1518 Clouds 9 1000 45 10000 6.7 150 14:42 05.03.2020
1519 Clouds 9 1001 45 10000 7.2 150 14:23 05.03.2020
1520 Clouds 9 1002 49 10000 7.2 160 13:59 05.03.2020
1521 Clouds 9 1002 49 10000 7.2 160 13:40 05.03.2020
1522 Clouds 9 1003 52 10000 7.2 140 13:21 05.03.2020
1523 Clouds 9 1003 52 10000 6.2 150 12:56 05.03.2020
1524 Clouds 8 1004 56 10000 7.2 160 12:38 05.03.2020
1525 Clouds 8 1004 56 10000 7.2 160 12:18 05.03.2020
1526 Clouds 8 1004 57 10000 8.2 160 11:56 05.03.2020
1527 Clouds 8 1004 57 10000 8.2 160 11:37 05.03.2020
1528 Clouds 7 1005 64 10000 6.7 160 11:18 05.03.2020
1529 Clouds 7 1005 64 10000 6.7 160 11:18 05.03.2020
1530 Clouds 7 1005 64 10000 5.1 140 10:56 05.03.2020
1531 Clouds 7 1005 64 10000 5.1 140 10:38 05.03.2020
1532 Clouds 6 1006 64 10000 5.7 160 10:19 05.03.2020
1533 Clouds 5 1006 64 10000 5.1 160 09:44 05.03.2020
1534 Clouds 4 1006 64 10000 4.1 150 09:26 05.03.2020
1535 Clouds 2 1006 80 10000 4.1 150 08:44 05.03.2020
1536 Clear 1 1007 79 10000 4.1 150 08:25 05.03.2020
1537 Clear 0 1007 92 10000 4.6 150 07:47 05.03.2020
1538 Clear -1 1007 100 10000 4.1 160 07:22 05.03.2020
1539 Clear -1 1007 92 10000 2.1 160 06:49 05.03.2020
1540 Clear -1 1007 92 10000 2.1 160 06:22 05.03.2020
1541 Clear -1 1007 79 10000 1.5 140 05:57 05.03.2020
1542 Clear -1 1008 80 10000 1.5 160 05:31 05.03.2020
1543 Clear -1 1008 86 10000 3.1 190 04:23 05.03.2020
1544 Clear 0 1008 80 10000 3.1 210 03:58 05.03.2020
1545 Clear 0 1009 80 10000 3.1 220 02:21 05.03.2020
1546 Clear 1 1009 83 10000 3.6 210 01:24 05.03.2020
1547 Clear 2 1010 83 10000 3.1 220 00:29 05.03.2020
1548 Clear 2 1010 83 10000 3.6 220 23:56 04.03.2020
1549 Clear 2 1010 83 10000 3.1 220 23:38 04.03.2020
1550 Clouds 2 1010 86 10000 3.1 220 23:19 04.03.2020
1551 Clouds 2 1010 86 10000 3.1 220 22:40 04.03.2020
1552 Clouds 2 1010 86 10000 3.1 220 22:19 04.03.2020
1553 Clouds 3 1010 86 10000 3.1 220 21:59 04.03.2020
1554 Clouds 3 1010 86 10000 3.1 220 21:41 04.03.2020
1555 Clouds 3 1010 80 10000 3.1 220 21:20 04.03.2020
1556 Clouds 3 1010 80 10000 2.6 240 20:57 04.03.2020
1557 Clouds 3 1010 80 10000 2.6 240 20:39 04.03.2020
1558 Clouds 4 1010 75 10000 3.1 240 20:21 04.03.2020
1559 Rain 4 1010 75 10000 2.6 240 19:42 04.03.2020
1560 Clouds 4 1010 75 10000 3.1 240 19:24 04.03.2020
1561 Clouds 5 1010 85 10000 2.6 250 18:58 04.03.2020
1562 Clouds 4 1010 85 10000 5.1 260 18:40 04.03.2020
1563 Clouds 5 1010 85 10000 5.1 260 18:22 04.03.2020
1564 Clouds 5 1010 85 10000 4.1 250 17:56 04.03.2020
1565 Clouds 5 1010 85 10000 1 260 17:38 04.03.2020
1566 Clouds 6 1010 67 10000 1 260 17:19 04.03.2020
1567 Clouds 6 1010 75 10000 2.1 330 16:44 04.03.2020
1568 Clouds 6 1010 67 10000 4.1 260 16:26 04.03.2020
1569 Clouds 6 1010 67 10000 5.7 270 15:59 04.03.2020
1570 Clouds 7 1010 67 10000 5.7 270 15:41 04.03.2020
1571 Clouds 7 1010 67 10000 5.1 240 15:23 04.03.2020
1572 Clouds 7 1010 61 10000 5.1 270 14:56 04.03.2020
1573 Clouds 7 1010 52 10000 4.6 250 14:37 04.03.2020
1574 Clouds 7 1010 52 10000 4.6 250 14:19 04.03.2020
1575 Clouds 7 1010 52 10000 5.1 260 13:57 04.03.2020
1576 Clouds 7 1010 52 10000 6.2 240 13:38 04.03.2020
1577 Clouds 8 1010 52 10000 6.2 240 13:20 04.03.2020
1578 Clouds 7 1010 52 10000 5.1 230 12:45 04.03.2020
1579 Clouds 7 1010 60 10000 3.6 250 12:27 04.03.2020
1580 Clouds 7 1010 60 10000 5.1 250 11:59 04.03.2020
1581 Clouds 7 1010 60 10000 5.1 250 11:41 04.03.2020
1582 Clouds 7 1011 60 10000 4.1 240 11:22 04.03.2020
1583 Clear 6 1011 69 10000 5.7 270 10:57 04.03.2020
1584 Clear 5 1011 69 10000 5.7 270 10:38 04.03.2020
1585 Clear 5 1011 69 10000 5.1 230 10:18 04.03.2020
1586 Clear 5 1011 69 10000 4.1 230 09:42 04.03.2020
1587 Clear 3 1011 69 10000 3.6 220 09:21 04.03.2020
1588 Clear 2 1011 74 10000 3.1 220 08:46 04.03.2020
1589 Clear 2 1011 74 10000 3.1 230 08:26 04.03.2020
1590 Clear 1 1010 80 10000 3.1 230 07:56 04.03.2020
1591 Clear 1 1010 80 10000 3.1 230 07:37 04.03.2020
1592 Clouds 0 1010 80 10000 3.1 220 07:18 04.03.2020
1593 Clouds 0 1010 74 10000 3.6 220 06:43 04.03.2020
1594 Clouds 0 1010 74 10000 2.6 230 06:23 04.03.2020
1595 Clear 0 1009 74 10000 3.1 230 05:48 04.03.2020
1596 Clouds 0 1009 80 10000 3.1 220 04:23 04.03.2020
1597 Clouds 0 1008 80 10000 3.1 220 03:42 04.03.2020
1598 Clouds 0 1008 80 10000 3.1 220 03:24 04.03.2020
1599 Clouds 0 1008 74 10000 3.1 230 02:55 04.03.2020
1600 Clouds 0 1008 80 10000 3.6 240 02:20 04.03.2020
1601 Clouds 1 1008 74 10000 4.1 250 01:52 04.03.2020
1602 Clouds 1 1007 74 10000 3.6 250 00:50 04.03.2020
1603 Clouds 1 1007 74 10000 3.1 250 00:25 04.03.2020
1604 Clouds 1 1006 74 10000 3.1 250 23:46 03.03.2020
1605 Clouds 1 1006 74 10000 3.1 250 23:28 03.03.2020
1606 Clouds 2 1006 84 10000 3.1 260 22:59 03.03.2020
1607 Clouds 2 1006 84 10000 3.1 260 22:40 03.03.2020
1608 Clouds 2 1006 84 10000 3.6 260 22:20 03.03.2020
1609 Clouds 2 1005 84 10000 3.6 260 21:57 03.03.2020
1610 Clouds 2 1005 84 10000 3.6 260 21:38 03.03.2020
1611 Clouds 3 1005 84 10000 3.1 250 21:19 03.03.2020
1612 Clouds 3 1004 84 10000 2.6 260 20:55 03.03.2020
1613 Clouds 3 1004 80 10000 2.6 260 20:36 03.03.2020
1614 Clouds 3 1004 80 10000 2.6 260 20:18 03.03.2020
1615 Clouds 3 1004 80 10000 2.6 260 20:18 03.03.2020
1616 Clouds 3 1004 75 10000 2.1 260 19:54 03.03.2020
1617 Clouds 4 1003 75 10000 3.1 260 19:36 03.03.2020
1618 Clouds 4 1003 75 10000 3.1 260 19:18 03.03.2020
1619 Clouds 4 1003 75 10000 3.6 260 18:55 03.03.2020
1620 Clouds 4 1002 80 10000 3.6 260 18:36 03.03.2020
1621 Clouds 4 1002 80 10000 3.6 260 18:18 03.03.2020
1622 Clouds 5 1001 80 10000 3.6 270 17:40 03.03.2020
1623 Clouds 5 1001 80 10000 4.6 270 17:21 03.03.2020
1624 Rain 5 1001 80 10000 4.6 280 16:58 03.03.2020
1625 Clouds 4 1000 86 10000 5.7 290 16:38 03.03.2020
1626 Rain 5 1001 80 10000 4.6 280 16:38 03.03.2020
1627 Clouds 4 1000 86 10000 5.7 290 16:38 03.03.2020
1628 Clouds 4 1000 86 10000 5.7 290 16:20 03.03.2020
1629 Rain 4 1000 86 10000 8.2 290 15:57 03.03.2020
1630 Rain 4 999 93 10000 7.2 290 15:39 03.03.2020
1631 Rain 4 999 93 10000 7.2 290 15:19 03.03.2020
1632 Rain 4 999 86 10000 6.2 290 14:41 03.03.2020
1633 Rain 4 999 86 10000 5.7 290 14:20 03.03.2020
1634 Clouds 4 998 86 10000 5.1 290 13:58 03.03.2020
1635 Clouds 4 998 86 10000 5.1 290 13:40 03.03.2020
1636 Clouds 5 998 93 10000 4.1 280 13:21 03.03.2020
1637 Clouds 5 998 93 10000 4.1 280 13:21 03.03.2020
1638 Rain 5 998 93 10000 4.6 280 12:47 03.03.2020
1639 Rain 5 997 86 10000 3.6 290 12:27 03.03.2020
1640 Rain 5 997 86 10000 4.1 280 11:58 03.03.2020
1641 Rain 5 997 86 10000 4.1 280 11:38 03.03.2020
1642 Rain 5 997 86 10000 3.6 280 11:19 03.03.2020
1643 Rain 5 996 86 10000 4.1 280 10:56 03.03.2020
1644 Rain 5 996 86 10000 4.1 280 10:56 03.03.2020
1645 Rain 5 996 86 10000 4.1 280 10:56 03.03.2020
1646 Rain 5 996 80 10000 4.6 280 10:38 03.03.2020
1647 Rain 5 996 80 10000 4.6 280 10:19 03.03.2020
1648 Clouds 5 996 80 10000 3.6 260 09:44 03.03.2020
1649 Rain 4 995 86 10000 3.1 270 09:23 03.03.2020
1650 Rain 4 995 86 10000 3.6 260 08:58 03.03.2020
1651 Rain 4 995 86 10000 3.6 270 08:39 03.03.2020
1652 Rain 4 995 86 10000 3.6 270 08:21 03.03.2020
1653 Clouds 4 994 86 10000 3.1 290 07:44 03.03.2020
1654 Clouds 4 994 86 10000 2.1 290 07:23 03.03.2020
1655 Clouds 4 993 80 10000 2.1 270 06:51 03.03.2020
1656 Clouds 4 993 80 10000 1 260 06:25 03.03.2020
1657 Clouds 4 993 80 10000 2.1 240 05:48 03.03.2020
1658 Clouds 4 992 86 10000 1 0 05:29 03.03.2020
1659 Clouds 4 992 80 10000 1 40 04:37 03.03.2020
1660 Clouds 5 992 80 10000 3.1 60 01:41 03.03.2020
1661 Clouds 5 992 82 10000 2.1 70 00:59 03.03.2020
1662 Clouds 5 992 82 10000 2.1 70 00:37 03.03.2020
1663 Clouds 5 992 82 10000 2.1 80 00:18 03.03.2020
1664 Clouds 5 992 82 10000 2.6 80 23:42 02.03.2020
1665 Clouds 5 992 82 10000 4.1 80 23:23 02.03.2020
1666 Clouds 6 992 77 10000 2.6 90 22:56 02.03.2020
1667 Clouds 5 992 77 10000 3.6 70 22:37 02.03.2020
1668 Clouds 5 992 77 10000 3.6 70 22:19 02.03.2020
1669 Clouds 5 992 77 10000 3.1 80 21:42 02.03.2020
1670 Clouds 5 992 77 10000 3.6 80 21:24 02.03.2020
1671 Clouds 5 992 77 10000 3.1 90 20:59 02.03.2020
1672 Clouds 5 992 77 10000 3.1 90 20:41 02.03.2020
1673 Clouds 5 992 71 10000 3.1 100 20:22 02.03.2020
1674 Clouds 5 993 71 10000 3.1 90 19:58 02.03.2020
1675 Clouds 5 993 71 10000 2.6 70 19:39 02.03.2020
1676 Clouds 5 993 71 10000 2.6 70 19:20 02.03.2020
1677 Clouds 6 993 71 10000 2.1 80 18:56 02.03.2020
1678 Clouds 6 993 71 10000 2.6 120 18:38 02.03.2020
1679 Clouds 6 993 71 10000 2.6 120 18:18 02.03.2020
1680 Clouds 7 993 71 10000 4.1 120 17:56 02.03.2020
1681 Clouds 7 993 71 10000 4.1 120 17:38 02.03.2020
1682 Clouds 8 993 58 10000 3.6 120 17:19 02.03.2020
1683 Clouds 9 993 58 10000 4.1 150 16:42 02.03.2020
1684 Clouds 10 993 58 10000 4.6 130 16:23 02.03.2020
1685 Clouds 10 993 58 10000 3.1 90 15:56 02.03.2020
1686 Clouds 10 993 58 10000 3.1 90 15:56 02.03.2020
1687 Clouds 10 993 58 10000 3.1 90 15:38 02.03.2020
1688 Clouds 10 993 58 10000 2.1 0 15:18 02.03.2020
1689 Clouds 10 994 58 10000 1.5 0 14:39 02.03.2020
1690 Clouds 9 994 59 10000 1.5 0 14:19 02.03.2020
1691 Clouds 9 995 65 10000 3.1 230 13:55 02.03.2020
1692 Clouds 9 996 65 10000 3.6 240 13:36 02.03.2020
1693 Clouds 8 996 65 10000 3.6 240 13:18 02.03.2020
1694 Clouds 8 996 65 10000 3.6 270 12:41 02.03.2020
1695 Clouds 8 996 70 10000 5.1 270 12:19 02.03.2020
1696 Clouds 7 996 70 10000 5.1 260 11:40 02.03.2020
1697 Clouds 6 996 75 10000 6.2 270 11:21 02.03.2020
1698 Clouds 6 995 80 10000 5.7 270 10:58 02.03.2020
1699 Clouds 6 995 80 10000 5.7 270 10:40 02.03.2020
1700 Clouds 6 995 80 10000 5.7 270 10:40 02.03.2020
1701 Clouds 5 995 80 10000 6.2 270 10:19 02.03.2020
1702 Rain 5 995 86 10000 7.2 260 09:55 02.03.2020
1703 Rain 5 995 86 10000 7.2 260 09:37 02.03.2020
1704 Rain 4 995 86 10000 6.2 250 09:18 02.03.2020
1705 Clouds 4 994 75 10000 6.7 240 08:40 02.03.2020
1706 Clouds 4 994 85 10000 5.7 230 08:19 02.03.2020
1707 Clouds 4 994 86 10000 7.2 220 07:40 02.03.2020
1708 Clouds 5 993 60 10000 6.7 230 06:57 02.03.2020
1709 Clouds 5 993 86 10000 5.1 220 06:35 02.03.2020
1710 Clouds 5 993 75 10000 4.6 210 05:52 02.03.2020
1711 Rain 6 993 70 10000 4.6 170 04:19 02.03.2020
1712 Rain 6 994 75 10000 5.1 170 03:20 02.03.2020
1713 Rain 6 993 70 10000 4.6 160 02:36 02.03.2020
1714 Clouds 6 994 75 10000 5.7 160 01:45 02.03.2020
1715 Clouds 6 994 75 10000 4.6 140 01:26 02.03.2020
1716 Clouds 6 995 75 10000 4.1 150 00:23 02.03.2020
1717 Clouds 5 995 80 10000 4.1 160 23:56 01.03.2020
1718 Clouds 5 995 80 10000 4.1 160 23:38 01.03.2020
1719 Clouds 4 996 80 10000 4.6 150 23:19 01.03.2020
1720 Clouds 4 996 80 10000 4.1 160 22:42 01.03.2020
1721 Clouds 4 997 75 10000 4.6 150 22:19 01.03.2020
1722 Clouds 4 997 75 10000 4.1 150 21:55 01.03.2020
1723 Clouds 5 997 75 10000 4.1 150 21:37 01.03.2020
1724 Clouds 4 997 80 10000 3.6 160 21:18 01.03.2020
1725 Clouds 4 997 80 10000 4.1 170 20:43 01.03.2020
1726 Clouds 5 997 75 10000 5.1 160 20:25 01.03.2020
1727 Clouds 5 998 65 10000 4.6 170 19:54 01.03.2020
1728 Clouds 5 998 65 10000 4.1 200 19:36 01.03.2020
1729 Clouds 5 998 65 10000 4.1 200 19:18 01.03.2020
1730 Clouds 6 998 65 10000 3.6 210 18:40 01.03.2020
1731 Clouds 6 997 61 10000 4.6 220 18:20 01.03.2020
1732 Clouds 7 998 66 0 4.07 181 17:57 01.03.2020
1733 Clouds 8 998 53 10000 4.6 240 17:39 01.03.2020
1734 Clouds 8 998 53 10000 5.1 210 17:20 01.03.2020
1735 Clouds 9 997 57 10000 6.2 210 16:57 01.03.2020
1736 Clouds 9 997 57 10000 6.2 210 16:38 01.03.2020
1737 Clouds 10 998 53 10000 6.7 240 16:18 01.03.2020
1738 Rain 10 998 50 10000 9.8 230 15:57 01.03.2020
1739 Rain 10 997 46 10000 7.2 230 15:38 01.03.2020
1740 Rain 10 997 46 10000 7.2 230 15:20 01.03.2020
1741 Clouds 9 997 50 10000 6.2 230 14:57 01.03.2020
1742 Clouds 10 997 50 10000 6.2 230 14:38 01.03.2020
1743 Clouds 10 997 50 10000 8.2 220 14:20 01.03.2020
1744 Clouds 11 998 53 10000 6.7 200 13:56 01.03.2020
1745 Clouds 10 998 53 10000 5.7 220 13:37 01.03.2020
1746 Clouds 10 998 53 10000 5.7 220 13:37 01.03.2020
1747 Clouds 10 998 53 10000 5.7 220 13:18 01.03.2020
1748 Clouds 10 999 57 10000 7.7 220 12:42 01.03.2020
1749 Clouds 10 999 53 10000 6.7 230 12:21 01.03.2020
1750 Clouds 10 999 50 10000 7.2 220 11:58 01.03.2020
1751 Clouds 10 999 57 10000 6.2 210 11:39 01.03.2020
1752 Clouds 9 999 57 10000 6.2 210 11:18 01.03.2020
1753 Clouds 8 999 65 10000 6.7 210 10:55 01.03.2020
1754 Clouds 9 1000 65 10000 6.2 200 10:36 01.03.2020
1755 Clouds 8 1000 65 10000 6.2 200 10:18 01.03.2020
1756 Rain 8 1000 65 10000 5.7 190 09:41 01.03.2020
1757 Rain 7 1000 65 10000 6.7 190 09:22 01.03.2020
1758 Rain 7 1000 65 10000 6.2 200 08:46 01.03.2020
1759 Rain 6 1000 65 10000 6.2 190 08:27 01.03.2020
1760 Clouds 5 1000 70 10000 5.1 200 07:47 01.03.2020
1761 Clouds 5 999 70 10000 6.2 200 07:27 01.03.2020
1762 Clouds 5 999 70 10000 6.2 190 06:58 01.03.2020
1763 Clouds 5 999 70 10000 6.2 190 06:40 01.03.2020
1764 Clouds 5 999 75 10000 6.2 200 04:47 01.03.2020
1765 Clouds 5 999 75 10000 6.2 220 02:58 01.03.2020
1766 Rain 6 999 70 10000 6.2 220 02:18 01.03.2020
1767 Rain 6 998 65 10000 7.2 230 01:36 01.03.2020
1768 Clouds 6 998 70 10000 7.2 230 00:49 01.03.2020
1769 Clouds 6 998 70 10000 6.7 220 00:25 01.03.2020
1770 Clouds 6 998 81 10000 6.7 220 23:58 29.02.2020
1771 Clouds 7 998 81 10000 6.7 220 23:40 29.02.2020
1772 Rain 7 997 76 10000 7.7 230 23:22 29.02.2020
1773 Rain 7 997 81 10000 6.7 200 22:38 29.02.2020
1774 Rain 7 996 81 10000 7.2 190 22:20 29.02.2020
1775 Rain 7 996 75 10000 8.2 180 21:39 29.02.2020
1776 Rain 8 995 75 10000 8.2 170 21:20 29.02.2020
1777 Rain 8 995 75 10000 9.3 170 20:42 29.02.2020
1778 Clouds 8 995 81 10000 9.3 170 20:21 29.02.2020
1779 Clouds 8 995 81 10000 8.2 170 19:55 29.02.2020
1780 Clouds 9 995 75 10000 8.7 150 19:37 29.02.2020
1781 Clouds 8 995 75 10000 8.7 150 19:18 29.02.2020
1782 Clouds 7 996 75 10000 8.7 160 18:42 29.02.2020
1783 Clouds 7 996 75 10000 9.3 160 18:23 29.02.2020
1784 Clouds 7 995 81 10000 9.3 160 17:56 29.02.2020
1785 Clouds 7 995 81 10000 9.3 160 17:37 29.02.2020
1786 Clouds 8 996 81 10000 9.3 160 17:19 29.02.2020
1787 Clouds 8 996 81 10000 9.3 160 16:44 29.02.2020
1788 Clouds 8 996 75 10000 9.8 160 16:20 29.02.2020
1789 Clouds 8 997 70 10000 9.3 160 15:57 29.02.2020
1790 Clouds 9 997 70 10000 7.2 150 15:37 29.02.2020
1791 Clouds 9 997 70 10000 7.2 150 15:19 29.02.2020
1792 Clouds 10 997 70 10000 6.7 160 14:40 29.02.2020
1793 Clouds 9 998 65 10000 7.2 160 14:22 29.02.2020
1794 Clouds 9 998 70 10000 4.6 150 13:46 29.02.2020
1795 Clouds 9 999 70 10000 4.6 160 13:27 29.02.2020
1796 Clouds 9 999 75 10000 7.7 160 12:58 29.02.2020
1797 Clouds 9 999 75 10000 7.7 160 12:38 29.02.2020
1798 Clouds 8 1000 75 10000 7.2 160 12:20 29.02.2020
1799 Clouds 7 1000 86 10000 6.2 160 11:45 29.02.2020
1800 Clouds 6 1001 86 10000 6.2 170 11:27 29.02.2020
1801 Clouds 6 1001 93 10000 7.7 170 10:55 29.02.2020
1802 Clouds 5 1001 93 10000 7.7 170 10:37 29.02.2020
1803 Clouds 4 1001 93 10000 7.7 160 10:19 29.02.2020
1804 Rain 3 1002 93 10000 6.7 160 09:47 29.02.2020
1805 Rain 3 1002 93 8000 6.2 160 09:23 29.02.2020
1806 Rain 3 1003 93 10000 6.2 150 08:41 29.02.2020
1807 Rain 3 1003 93 10000 5.7 150 08:21 29.02.2020
1808 Rain 3 1003 93 10000 6.7 160 07:56 29.02.2020
1809 Rain 3 1003 93 8000 6.7 170 07:36 29.02.2020
1810 Rain 2 1003 93 8000 6.7 170 07:18 29.02.2020
1811 Rain 2 1004 93 10000 6.7 170 06:41 29.02.2020
1812 Rain 2 1004 89 10000 6.7 170 06:22 29.02.2020
1813 Rain 2 1005 89 10000 6.2 170 05:40 29.02.2020
1814 Rain 1 1005 90 5000 6.7 160 04:44 29.02.2020
1815 Snow 1 1007 80 10000 8.2 220 03:37 29.02.2020
1816 Clouds 1 1008 64 10000 6.7 180 03:18 29.02.2020
1817 Snow 2 1009 64 10000 5.1 170 02:34 29.02.2020
1818 Clouds 2 1011 69 10000 4.1 170 00:58 29.02.2020
1819 Clouds 2 1011 69 10000 4.6 180 00:36 29.02.2020
1820 Clouds 2 1011 69 10000 4.6 180 00:36 29.02.2020
1821 Clouds 2 1012 69 10000 4.6 170 23:43 28.02.2020
1822 Clouds 2 1013 69 10000 4.6 180 23:24 28.02.2020
1823 Clouds 2 1013 69 10000 4.6 180 23:24 28.02.2020
1824 Clouds 2 1013 64 10000 5.1 180 22:54 28.02.2020
1825 Clouds 1 1014 74 10000 5.1 170 22:36 28.02.2020
1826 Clouds 1 1014 74 10000 5.1 170 22:18 28.02.2020
1827 Clouds 1 1014 74 10000 4.6 180 21:41 28.02.2020
1828 Clouds 1 1014 74 10000 5.7 200 21:21 28.02.2020
1829 Clouds 1 1015 69 10000 5.1 200 20:41 28.02.2020
1830 Clouds 1 1015 74 10000 4.6 220 20:22 28.02.2020
1831 Clouds 1 1015 74 10000 4.6 220 19:59 28.02.2020
1832 Clouds 1 1015 74 10000 4.6 220 19:39 28.02.2020
1833 Clouds 1 1015 74 10000 4.6 220 19:39 28.02.2020
1834 Clouds 1 1015 74 10000 4.6 220 19:21 28.02.2020
1835 Clouds 2 1015 69 10000 3.6 230 18:58 28.02.2020
1836 Clouds 2 1015 64 10000 4.6 260 18:39 28.02.2020
1837 Clouds 2 1015 64 10000 4.6 260 18:21 28.02.2020
1838 Clouds 3 1015 69 10000 5.1 260 17:41 28.02.2020
1839 Clouds 3 1015 65 10000 4.6 260 17:22 28.02.2020
1840 Clouds 4 1015 60 10000 6.7 270 16:55 28.02.2020
1841 Clouds 5 1015 60 10000 5.1 280 16:36 28.02.2020
1842 Clouds 5 1015 60 10000 5.1 280 16:18 28.02.2020
1843 Clouds 5 1015 60 10000 6.7 290 15:42 28.02.2020
1844 Clouds 5 1015 78 10000 7.7 280 15:20 28.02.2020
1845 Clouds 5 1015 65 10000 7.2 270 14:58 28.02.2020
1846 Clouds 5 1015 65 10000 7.2 270 14:39 28.02.2020
1847 Clouds 5 1015 84 10000 4.6 280 14:19 28.02.2020
1848 Clouds 4 1015 80 10000 4.1 270 13:57 28.02.2020
1849 Clouds 5 1015 80 10000 4.1 270 13:39 28.02.2020
1850 Rain 4 1015 81 10000 5.7 270 13:19 28.02.2020
1851 Rain 4 1015 80 10000 5.7 280 12:41 28.02.2020
1852 Rain 4 1014 81 10000 7.2 270 12:23 28.02.2020
1853 Rain 3 1014 81 10000 5.1 280 11:43 28.02.2020
1854 Clouds 3 1014 81 10000 6.2 280 11:24 28.02.2020
1855 Clouds 3 1013 93 10000 5.7 290 10:59 28.02.2020
1856 Clouds 3 1013 93 10000 5.7 290 10:41 28.02.2020
1857 Clouds 2 1013 93 10000 6.7 280 10:22 28.02.2020
1858 Snow 2 1012 93 10000 5.7 280 09:47 28.02.2020
1859 Snow 2 1012 93 4100 6.2 280 09:22 28.02.2020
1860 Snow 1 1011 93 9000 5.1 280 08:57 28.02.2020
1861 Rain 1 1011 93 9000 5.1 280 08:39 28.02.2020
1862 Rain 1 1010 98 5000 4.1 270 08:20 28.02.2020
1863 Rain 1 1010 98 6000 4.1 280 07:42 28.02.2020
1864 Rain 1 1010 98 4000 4.6 290 07:24 28.02.2020
1865 Snow 1 1009 98 5000 4.6 280 06:47 28.02.2020
1866 Clouds 1 1008 98 10000 4.1 280 06:26 28.02.2020
1867 Clouds 1 1006 97 10000 4.1 290 04:50 28.02.2020
1868 Rain 1 1006 97 3500 3.1 310 04:20 28.02.2020
1869 Rain 1 1004 97 3500 3.6 320 02:47 28.02.2020
1870 Rain 1 1003 97 3000 3.1 310 02:28 28.02.2020
1871 Clouds 1 1001 100 10000 3.1 330 01:33 28.02.2020
1872 Rain 1 1000 99 10000 2.6 10 00:30 28.02.2020
1873 Rain 1 999 99 10000 2.6 20 23:45 27.02.2020
1874 Rain 1 999 99 10000 2.6 20 23:22 27.02.2020
1875 Rain 2 998 80 10000 3.1 20 22:56 27.02.2020
1876 Rain 2 998 74 10000 3.1 360 22:37 27.02.2020
1877 Rain 2 998 74 10000 3.1 360 22:19 27.02.2020
1878 Rain 2 997 74 10000 2.6 50 21:41 27.02.2020
1879 Rain 3 997 60 10000 1.5 90 21:22 27.02.2020
1880 Rain 3 996 55 10000 3.1 150 20:58 27.02.2020
1881 Rain 3 996 55 10000 3.1 150 20:40 27.02.2020
1882 Clouds 3 996 69 10000 1.5 120 20:21 27.02.2020
1883 Clouds 3 996 69 10000 1.5 120 20:21 27.02.2020
1884 Clouds 3 996 69 10000 2.6 110 19:56 27.02.2020
1885 Clouds 3 996 69 10000 2.6 110 19:38 27.02.2020
1886 Clouds 3 997 74 10000 2.1 110 19:19 27.02.2020
1887 Snow 3 997 64 10000 2.1 140 18:43 27.02.2020
1888 Snow 3 997 64 10000 1.5 140 18:24 27.02.2020
1889 Snow 3 997 76 10000 1.5 100 17:59 27.02.2020
1890 Snow 4 997 76 10000 1.5 100 17:40 27.02.2020
1891 Snow 4 997 76 10000 2.1 100 17:40 27.02.2020
1892 Clouds 4 997 71 10000 2.1 100 17:20 27.02.2020
1893 Clouds 4 998 71 10000 1.5 30 16:59 27.02.2020
1894 Clouds 4 998 71 10000 1.5 30 16:40 27.02.2020
1895 Clouds 5 999 71 10000 3.1 330 16:20 27.02.2020
1896 Clouds 5 999 71 10000 1 0 15:59 27.02.2020
1897 Clouds 5 999 71 10000 1 0 15:37 27.02.2020
1898 Clouds 5 1000 71 10000 1.5 170 15:19 27.02.2020
1899 Clouds 5 1000 71 10000 2.1 190 14:56 27.02.2020
1900 Snow 5 1001 71 10000 1 0 14:37 27.02.2020
1901 Snow 5 1001 74 10000 1 0 14:19 27.02.2020
1902 Snow 5 1001 60 5000 5.1 250 13:42 27.02.2020
1903 Clouds 5 1002 56 10000 4.1 260 13:21 27.02.2020
1904 Clouds 5 1002 60 10000 4.1 240 12:56 27.02.2020
1905 Clouds 5 1002 60 10000 4.1 240 12:38 27.02.2020
1906 Clouds 5 1003 60 10000 4.6 260 12:18 27.02.2020
1907 Clouds 5 1003 64 10000 4.6 260 11:41 27.02.2020
1908 Clouds 4 1004 64 10000 5.1 240 11:21 27.02.2020
1909 Clouds 4 1004 64 10000 5.7 250 10:44 27.02.2020
1910 Clouds 4 1004 64 10000 6.7 250 10:24 27.02.2020
1911 Clouds 4 1004 64 10000 5.7 250 09:49 27.02.2020
1912 Clouds 3 1004 69 10000 5.1 270 09:30 27.02.2020
1913 Clouds 3 1004 69 10000 5.1 270 09:30 27.02.2020
1914 Clouds 2 1004 74 10000 4.1 260 08:59 27.02.2020
1915 Clouds 2 1004 74 10000 4.1 260 08:41 27.02.2020
1916 Rain 2 1004 80 10000 4.6 250 08:22 27.02.2020
1917 Clouds 2 1004 80 10000 4.1 260 07:45 27.02.2020
1918 Clouds 2 1004 80 10000 5.7 260 07:25 27.02.2020
1919 Clouds 2 1003 80 10000 4.6 260 06:48 27.02.2020
1920 Clouds 2 1003 90 10000 6.2 260 05:58 27.02.2020
1921 Rain 2 1003 96 10000 5.7 260 04:21 27.02.2020
1922 Rain 2 1002 96 10000 4.1 260 02:33 27.02.2020
1923 Clouds 2 1001 95 10000 4.6 250 00:47 27.02.2020
1924 Clouds 2 1001 95 10000 6.2 270 00:28 27.02.2020
1925 Rain 2 1001 95 10000 5.7 270 23:40 26.02.2020
1926 Rain 2 1001 86 10000 5.7 260 23:20 26.02.2020
1927 Rain 2 1000 86 10000 5.7 270 22:58 26.02.2020
1928 Rain 2 1000 86 10000 5.7 270 22:58 26.02.2020
1929 Rain 2 1000 86 10000 7.2 270 22:39 26.02.2020
1930 Rain 2 1000 86 10000 7.2 270 22:21 26.02.2020
1931 Clouds 2 1000 86 10000 5.7 270 21:57 26.02.2020
1932 Clouds 2 1000 86 10000 5.1 260 21:38 26.02.2020
1933 Clouds 2 1000 86 10000 5.1 260 21:19 26.02.2020
1934 Clouds 2 999 86 10000 5.1 270 20:55 26.02.2020
1935 Clouds 2 999 86 10000 5.1 270 20:37 26.02.2020
1936 Clouds 2 999 93 10000 4.6 260 20:18 26.02.2020
1937 Clouds 2 999 93 10000 3.6 260 19:47 26.02.2020
1938 Clouds 2 999 93 10000 3.6 270 19:21 26.02.2020
1939 Rain 2 998 93 10000 3.6 280 18:59 26.02.2020
1940 Rain 2 997 100 5000 3.1 280 18:41 26.02.2020
1941 -273 0 0 0 0 0 18:41 26.02.2020
1942 Rain 1 997 100 5000 3.1 280 18:22 26.02.2020
1943 Rain 1 997 85 2000 7.2 300 17:58 26.02.2020
1944 Rain 2 997 85 2000 7.2 300 17:39 26.02.2020
1945 Clouds 2 996 86 10000 3.1 280 17:18 26.02.2020
1946 Rain 3 995 86 6000 4.6 270 16:56 26.02.2020
1947 Rain 3 995 86 6000 4.6 270 16:37 26.02.2020
1948 Rain 2 995 86 6000 4.6 260 16:18 26.02.2020
1949 Clouds 3 995 87 2500 5.7 280 15:42 26.02.2020
1950 Rain 3 994 86 10000 4.1 220 15:23 26.02.2020
1951 Rain 3 994 93 10000 4.6 260 14:43 26.02.2020
1952 Rain 2 994 87 10000 5.7 250 14:23 26.02.2020
1953 Rain 4 994 65 10000 7.2 260 13:44 26.02.2020
1954 Rain 4 994 65 10000 7.2 260 13:44 26.02.2020
1955 Clouds 4 993 60 10000 7.2 250 13:23 26.02.2020
1956 Clouds 4 993 65 10000 8.2 260 12:59 26.02.2020
1957 Clouds 5 993 65 10000 8.2 260 12:38 26.02.2020
1958 Clouds 4 993 65 10000 7.2 260 12:18 26.02.2020
1959 Clouds 4 993 61 10000 4.6 260 11:43 26.02.2020
1960 Clouds 3 993 61 10000 5.7 270 11:23 26.02.2020
1961 Clouds 3 993 80 10000 5.1 250 10:59 26.02.2020
1962 Clouds 3 993 80 10000 5.1 250 10:39 26.02.2020
1963 Rain 2 993 80 10000 4.6 250 10:21 26.02.2020
1964 Rain 2 993 80 400 6.2 260 09:44 26.02.2020
1965 Rain 2 992 80 10000 5.1 200 09:24 26.02.2020
1966 Rain 2 992 86 10000 4.1 160 08:59 26.02.2020
1967 Clouds 2 992 86 10000 4.1 160 08:37 26.02.2020
1968 Clouds 2 992 90 10000 2.6 170 08:18 26.02.2020
1969 Clouds 2 992 90 10000 3.6 190 07:43 26.02.2020
1970 Clouds 2 992 90 10000 1.5 240 07:25 26.02.2020
1971 Clouds 2 992 90 10000 2.1 250 06:52 26.02.2020
1972 Clouds 2 992 90 10000 2.1 250 06:34 26.02.2020
1973 Clouds 3 993 90 10000 2.6 230 05:53 26.02.2020
1974 Clouds 3 993 90 10000 2.6 230 05:53 26.02.2020
1975 Clouds 3 993 90 10000 3.6 230 05:24 26.02.2020
1976 Clouds 3 993 80 10000 5.1 250 04:34 26.02.2020
1977 Clouds 4 993 75 10000 5.7 190 02:28 26.02.2020
1978 Clouds 4 994 75 10000 6.2 190 01:45 26.02.2020
1979 Clouds 4 994 80 10000 5.7 190 00:50 26.02.2020
1980 Clouds 4 994 80 10000 5.1 220 00:25 26.02.2020
1981 Clouds 4 994 80 10000 5.1 220 00:25 26.02.2020
1982 Clouds 3 995 80 10000 4.6 210 23:56 25.02.2020
1983 Clouds 3 995 80 10000 4.6 210 23:37 25.02.2020
1984 Rain 4 995 86 10000 4.6 210 23:19 25.02.2020
1985 Rain 4 995 86 10000 3.6 210 22:42 25.02.2020
1986 Rain 4 996 80 10000 4.6 220 22:19 25.02.2020
1987 Rain 4 996 86 10000 5.7 220 21:58 25.02.2020
1988 Rain 5 996 81 10000 4.6 220 21:37 25.02.2020
1989 Rain 5 996 81 10000 4.6 220 21:18 25.02.2020
1990 Rain 5 996 81 10000 4.1 210 20:55 25.02.2020
1991 Rain 5 996 81 10000 3.1 220 20:36 25.02.2020
1992 Rain 5 996 81 10000 3.1 220 20:18 25.02.2020
1993 Rain 6 997 75 10000 2.6 230 19:42 25.02.2020
1994 Rain 7 997 65 10000 4.1 230 19:20 25.02.2020
1995 Rain 7 997 65 10000 4.1 250 18:58 25.02.2020
1996 Clouds 7 997 70 10000 3.1 240 18:38 25.02.2020
1997 Clouds 7 997 70 10000 3.1 240 18:19 25.02.2020
1998 Clouds 8 997 70 10000 3.6 250 17:54 25.02.2020
1999 Clouds 8 997 70 10000 4.6 260 17:36 25.02.2020
2000 Clouds 8 997 70 10000 4.6 260 17:36 25.02.2020
2001 Clouds 8 997 70 10000 4.6 260 17:18 25.02.2020
2002 Rain 8 997 76 10000 5.1 260 16:42 25.02.2020
2003 Rain 9 997 81 10000 4.6 260 16:22 25.02.2020
2004 Rain 9 997 81 10000 4.6 260 16:22 25.02.2020
2005 Rain 9 997 87 10000 4.6 260 15:59 25.02.2020
2006 Rain 9 997 87 10000 4.6 260 15:59 25.02.2020
2007 Rain 9 997 87 10000 4.6 260 15:41 25.02.2020
2008 Rain 9 997 87 10000 5.7 300 15:20 25.02.2020
2009 Clouds 9 997 66 10000 7.7 240 14:58 25.02.2020
2010 Clouds 10 997 66 10000 7.7 240 14:39 25.02.2020
2011 Clouds 10 997 66 10000 7.7 240 14:18 25.02.2020
2012 Clouds 10 997 71 10000 8.7 240 13:58 25.02.2020
2013 Clouds 10 997 71 10000 8.7 240 13:39 25.02.2020
2014 Clouds 10 998 71 10000 7.7 230 13:20 25.02.2020
2015 Clouds 10 998 71 10000 7.7 230 12:56 25.02.2020
2016 Clouds 10 998 66 10000 7.2 230 12:37 25.02.2020
2017 Clouds 10 998 66 10000 7.2 230 12:19 25.02.2020
2018 -273 0 0 0 0 0 11:55 25.02.2020
2019 Clouds 10 999 71 10000 6.7 240 11:37 25.02.2020
2020 Clouds 10 999 71 10000 6.7 240 11:18 25.02.2020
2021 Clouds 10 999 71 10000 6.7 240 10:41 25.02.2020
2022 Clouds 10 999 71 10000 6.7 240 10:23 25.02.2020
2023 Clouds 10 1000 76 10000 6.7 230 09:42 25.02.2020
2024 Clouds 10 1000 76 10000 6.2 240 09:23 25.02.2020
2025 Clouds 10 1000 71 10000 5.7 230 08:59 25.02.2020
2026 Clouds 9 1000 71 10000 5.7 230 08:41 25.02.2020
2027 Clouds 9 1000 71 10000 5.7 230 08:22 25.02.2020
2028 Clouds 9 1000 71 10000 5.7 230 07:48 25.02.2020
2029 Clouds 9 1000 71 10000 6.2 230 07:23 25.02.2020
2030 Clouds 9 1000 71 10000 5.7 230 06:53 25.02.2020
2031 Clouds 9 1001 71 10000 6.2 230 05:51 25.02.2020
2032 Clouds 9 1002 81 10000 5.7 240 03:56 25.02.2020
2033 Rain 9 1002 81 10000 6.2 240 02:32 25.02.2020
2034 Rain 8 1003 87 10000 7.2 230 00:57 25.02.2020
2035 Rain 9 1003 87 10000 6.7 230 00:31 25.02.2020
2036 Rain 9 1004 87 10000 6.7 230 23:48 24.02.2020
2037 Rain 8 1004 87 10000 4.1 210 23:29 24.02.2020
2038 Rain 7 1004 81 10000 5.7 190 22:56 24.02.2020
2039 Clouds 7 1005 75 10000 8.2 180 22:37 24.02.2020
2040 Clouds 8 1005 75 10000 8.2 180 22:18 24.02.2020
2041 Clouds 8 1005 75 10000 8.7 180 21:54 24.02.2020
2042 Clouds 8 1006 75 10000 7.7 190 21:36 24.02.2020
2043 Clouds 8 1006 75 10000 7.7 190 21:18 24.02.2020
2044 Clouds 7 1006 81 10000 4.6 170 20:41 24.02.2020
2045 Clouds 6 1007 75 10000 5.1 170 20:21 24.02.2020
2046 Clouds 6 1007 80 10000 4.1 150 19:59 24.02.2020
2047 Clouds 6 1007 80 10000 4.1 150 19:41 24.02.2020
2048 Clouds 5 1008 86 10000 4.1 150 19:22 24.02.2020
2049 Clouds 5 1008 86 10000 4.1 150 19:22 24.02.2020
2050 Drizzle 5 1009 80 10000 4.6 160 18:59 24.02.2020
2051 Drizzle 5 1009 80 10000 4.6 160 18:41 24.02.2020
2052 Rain 5 1011 85 10000 5.7 180 18:22 24.02.2020
2053 Rain 5 1011 85 10000 6.7 190 17:54 24.02.2020
2054 Clouds 5 1012 56 10000 4.6 180 17:36 24.02.2020
2055 Clouds 5 1012 56 10000 4.6 180 17:18 24.02.2020
2056 Clouds 5 1013 52 10000 4.1 190 16:54 24.02.2020
2057 Clouds 6 1014 56 10000 3.1 190 16:36 24.02.2020
2058 Clouds 6 1014 56 10000 3.1 190 16:18 24.02.2020
2059 Clouds 7 1015 52 10000 4.1 210 15:55 24.02.2020
2060 Clouds 7 1015 56 10000 4.6 220 15:37 24.02.2020
2061 Clouds 7 1015 56 10000 4.6 220 15:18 24.02.2020
2062 Clouds 7 1016 56 10000 4.1 240 14:40 24.02.2020
2063 Clouds 7 1017 67 10000 5.1 240 14:22 24.02.2020
2064 Clouds 7 1018 60 10000 4.1 250 13:58 24.02.2020
2065 Clouds 7 1018 60 10000 4.1 250 13:40 24.02.2020
2066 Clouds 7 1018 63 10000 4.6 240 13:22 24.02.2020
2067 Clouds 7 1019 66 10000 5.1 260 12:58 24.02.2020
2068 Clouds 6 1019 66 10000 5.1 260 12:39 24.02.2020
2069 Clouds 6 1020 66 10000 5.1 260 12:21 24.02.2020
2070 Clouds 6 1020 65 10000 6.2 250 11:47 24.02.2020
2071 Clouds 6 1020 66 10000 5.1 260 11:29 24.02.2020
2072 Clouds 5 1020 65 10000 6.2 260 10:51 24.02.2020
2073 Clouds 5 1021 77 10000 5.7 270 10:31 24.02.2020
2074 Clouds 5 1021 65 10000 4.6 260 09:56 24.02.2020
2075 Clouds 4 1021 69 10000 5.7 260 09:38 24.02.2020
2076 Clouds 4 1021 69 10000 5.7 260 09:19 24.02.2020
2077 Clouds 4 1021 69 10000 6.2 270 08:48 24.02.2020
2078 Clouds 4 1021 69 10000 5.1 260 08:28 24.02.2020
2079 Clouds 3 1021 69 10000 4.1 270 07:52 24.02.2020
2080 Clouds 3 1021 69 10000 4.1 270 07:52 24.02.2020
2081 Clouds 3 1020 69 10000 5.7 270 07:31 24.02.2020
2082 Clouds 3 1020 69 10000 5.1 270 06:49 24.02.2020
2083 Clouds 3 1020 86 10000 5.7 280 06:22 24.02.2020
2084 Clouds 3 1020 86 10000 5.1 280 05:41 24.02.2020
2085 Clouds 4 1019 69 10000 5.7 280 05:23 24.02.2020
2086 Clouds 3 1017 78 10000 8.7 290 02:57 24.02.2020
2087 Clouds 4 1016 76 10000 7.7 290 01:55 24.02.2020
2088 Clouds 4 1015 80 10000 7.2 290 01:29 24.02.2020
2089 Clouds 4 1015 74 10000 9.3 290 00:44 24.02.2020
2090 Clouds 4 1014 75 10000 9.3 300 00:20 24.02.2020
2091 Clouds 5 1013 75 10000 8.7 300 23:42 23.02.2020
2092 Clouds 5 1012 70 10000 12.3 310 23:23 23.02.2020
2093 Clouds 6 1010 70 10000 11.8 310 22:58 23.02.2020
2094 Clouds 6 1010 70 10000 11.8 310 22:40 23.02.2020
2095 Clouds 7 1009 75 10000 11.3 300 22:21 23.02.2020
2096 Clouds 8 1007 75 10000 12.3 310 21:54 23.02.2020
2097 Rain 8 1006 81 10000 10.8 320 21:36 23.02.2020
2098 Rain 9 1006 81 10000 10.8 320 21:18 23.02.2020
2099 Rain 9 1005 76 10000 11.8 290 20:55 23.02.2020
2100 Rain 9 1004 87 10000 9.8 290 20:36 23.02.2020
2101 Rain 9 1004 87 10000 9.8 290 20:18 23.02.2020
2102 Rain 11 1002 76 10000 12.3 270 19:41 23.02.2020
2103 Rain 12 1002 71 10000 10.8 260 19:20 23.02.2020
2104 Rain 12 1002 71 10000 9.3 260 18:59 23.02.2020
2105 Rain 12 1002 71 10000 9.3 260 18:40 23.02.2020
2106 Rain 12 1002 71 10000 9.3 250 18:20 23.02.2020
2107 Rain 12 1002 76 10000 8.7 250 17:58 23.02.2020
2108 Rain 12 1002 76 10000 8.7 250 17:39 23.02.2020
2109 Rain 12 1002 76 10000 8.7 250 17:21 23.02.2020
2110 Rain 12 1002 76 10000 8.7 250 17:21 23.02.2020
2111 Rain 12 1003 76 10000 9.3 250 16:56 23.02.2020
2112 Rain 12 1003 76 10000 9.8 250 16:36 23.02.2020
2113 Rain 12 1003 76 10000 9.8 250 16:18 23.02.2020
2114 Rain 11 1003 81 10000 8.7 240 15:54 23.02.2020
2115 Rain 11 1004 87 10000 9.8 240 15:36 23.02.2020
2116 Rain 11 1004 87 10000 9.8 240 15:18 23.02.2020
2117 Rain 10 1004 87 10000 8.7 240 14:55 23.02.2020
2118 Rain 10 1004 87 10000 8.7 240 14:37 23.02.2020
2119 Rain 9 1005 93 10000 6.7 200 14:18 23.02.2020
2120 Rain 9 1006 93 10000 6.2 190 13:41 23.02.2020
2121 Rain 9 1008 93 10000 4.6 220 13:22 23.02.2020
2122 Rain 9 1009 87 10000 5.7 240 12:59 23.02.2020
2123 Rain 8 1009 87 10000 5.7 240 12:39 23.02.2020
2124 Rain 8 1010 93 10000 6.7 230 12:20 23.02.2020
2125 Rain 8 1011 93 10000 5.1 230 11:39 23.02.2020
2126 Rain 8 1012 81 10000 6.7 240 11:20 23.02.2020
2127 Rain 9 1013 81 10000 6.2 230 10:58 23.02.2020
2128 Rain 8 1013 81 10000 6.2 230 10:40 23.02.2020
2129 Rain 8 1013 93 10000 5.7 230 10:21 23.02.2020
2130 Rain 8 1014 93 10000 3.1 230 09:56 23.02.2020
2131 Rain 8 1014 93 10000 3.1 230 09:38 23.02.2020
2132 Rain 8 1015 93 10000 2.6 230 09:18 23.02.2020
2133 Rain 8 1015 93 10000 2.6 260 08:45 23.02.2020
2134 Rain 7 1016 93 10000 5.1 290 08:25 23.02.2020
2135 Rain 7 1016 93 10000 6.2 280 07:47 23.02.2020
2136 Rain 7 1015 93 10000 5.7 270 07:28 23.02.2020
2137 Rain 7 1016 87 10000 5.1 260 06:25 23.02.2020
2138 Rain 7 1017 87 10000 4.1 260 05:22 23.02.2020
2139 Rain 7 1017 87 10000 6.2 270 04:23 23.02.2020
2140 Rain 8 1017 93 10000 6.2 290 02:50 23.02.2020
2141 Rain 9 1016 70 10000 5.7 260 01:43 23.02.2020
2142 Rain 9 1016 70 10000 7.2 260 01:21 23.02.2020
2143 Rain 9 1016 70 10000 7.7 240 00:44 23.02.2020
2144 Rain 9 1017 70 10000 7.2 250 00:23 23.02.2020
2145 Clouds 9 1017 70 10000 7.2 250 23:43 22.02.2020
2146 Rain 9 1017 70 10000 7.2 250 23:24 22.02.2020
2147 Rain 9 1017 66 10000 7.7 250 22:46 22.02.2020
2148 Rain 9 1017 66 10000 7.7 250 22:46 22.02.2020
2149 Clouds 9 1017 57 10000 8.2 260 22:22 22.02.2020
2150 Clouds 10 1017 57 10000 8.2 250 21:59 22.02.2020
2151 Clouds 10 1017 57 10000 8.2 250 21:59 22.02.2020
2152 Clouds 10 1017 53 10000 7.2 250 21:39 22.02.2020
2153 Clouds 10 1017 53 10000 7.2 250 21:21 22.02.2020
2154 Clouds 10 1017 53 10000 6.7 250 20:41 22.02.2020
2155 Clouds 10 1017 50 10000 7.7 250 20:23 22.02.2020
2156 Clouds 10 1017 50 10000 8.2 250 19:43 22.02.2020
2157 Clouds 10 1017 61 10000 7.7 260 19:25 22.02.2020
2158 Clouds 11 1016 61 10000 8.7 250 18:59 22.02.2020
2159 Clouds 10 1016 61 10000 8.7 250 18:39 22.02.2020
2160 Clouds 10 1016 43 10000 9.8 240 18:20 22.02.2020
2161 Clouds 10 1016 40 10000 8.7 250 17:57 22.02.2020
2162 Clouds 10 1016 40 10000 8.7 250 17:37 22.02.2020
2163 Clouds 11 1015 37 10000 8.2 240 17:19 22.02.2020
2164 Clouds 10 1016 37 10000 8.2 240 16:56 22.02.2020
2165 Clouds 10 1016 37 10000 8.7 240 16:38 22.02.2020
2166 Clouds 11 1016 37 10000 8.7 240 16:19 22.02.2020
2167 Clouds 11 1016 37 10000 8.2 240 15:43 22.02.2020
2168 Clouds 11 1016 37 10000 7.7 230 15:24 22.02.2020
2169 Clouds 11 1016 34 10000 8.7 230 14:43 22.02.2020
2170 Clouds 11 1016 34 10000 8.7 230 14:43 22.02.2020
2171 Clouds 11 1016 37 10000 7.7 230 14:23 22.02.2020
2172 Clouds 10 1017 40 10000 9.3 230 13:58 22.02.2020
2173 Clouds 10 1017 37 10000 10.3 220 13:40 22.02.2020
2174 Clouds 10 1017 37 10000 10.3 220 13:18 22.02.2020
2175 Clouds 10 1018 32 10000 7.7 230 12:42 22.02.2020
2176 Clouds 10 1019 30 10000 6.7 240 12:23 22.02.2020
2177 Clouds 10 1019 34 10000 7.2 230 11:48 22.02.2020
2178 Clouds 9 1019 39 10000 7.7 230 11:29 22.02.2020
2179 Clouds 9 1020 37 10000 8.7 230 10:58 22.02.2020
2180 Clouds 9 1020 37 10000 8.7 230 10:40 22.02.2020
2181 Clouds 8 1020 37 10000 5.7 230 10:20 22.02.2020
2182 Clouds 8 1020 39 10000 6.2 220 09:58 22.02.2020
2183 Clouds 7 1020 56 10000 5.7 220 09:39 22.02.2020
2184 Clouds 7 1020 56 10000 5.7 220 09:20 22.02.2020
2185 Clouds 6 1020 60 10000 5.7 190 08:48 22.02.2020
2186 Clouds 5 1020 69 10000 6.2 190 08:28 22.02.2020
2187 Clouds 3 1020 74 10000 4.6 190 07:49 22.02.2020
2188 Clouds 3 1021 69 10000 5.7 190 07:20 22.02.2020
2189 Clouds 3 1021 69 10000 4.6 200 06:48 22.02.2020
2190 Clouds 3 1021 69 10000 5.1 210 06:29 22.02.2020
2191 Clouds 4 1023 65 10000 5.1 220 04:33 22.02.2020
2192 Clouds 5 1023 60 10000 6.2 220 03:24 22.02.2020
2193 Clouds 4 1024 65 10000 5.7 220 02:31 22.02.2020
2194 Clouds 4 1025 65 10000 5.7 220 01:46 22.02.2020
2195 Clouds 4 1025 65 10000 5.1 230 01:25 22.02.2020
2196 Rain 4 1026 65 10000 4.6 250 00:45 22.02.2020
2197 Clouds 4 1025 65 10000 4.6 240 00:26 22.02.2020
2198 Clouds 4 1025 65 10000 4.1 250 23:47 21.02.2020
2199 Clouds 4 1025 65 10000 5.7 240 23:23 21.02.2020
2200 Clouds 4 1025 65 10000 5.1 240 22:56 21.02.2020
2201 Clouds 4 1025 65 10000 4.6 230 22:38 21.02.2020
2202 Clouds 4 1025 65 10000 4.6 230 22:18 21.02.2020
2203 Clouds 3 1026 65 10000 4.1 230 21:42 21.02.2020
2204 Clouds 3 1026 64 10000 4.1 230 21:24 21.02.2020
2205 Clouds 3 1026 64 10000 4.1 230 21:24 21.02.2020
2206 Clouds 3 1025 64 10000 4.1 220 20:50 21.02.2020
2207 Clouds 3 1025 69 10000 4.1 220 20:31 21.02.2020
2208 Clouds 3 1025 69 10000 4.1 200 19:59 21.02.2020
2209 Clouds 3 1025 69 10000 4.1 200 19:39 21.02.2020
2210 Clouds 3 1026 69 10000 3.1 220 19:19 21.02.2020
2211 Clouds 4 1025 64 10000 2.1 230 18:40 21.02.2020
2212 Clouds 4 1025 60 10000 3.1 250 18:22 21.02.2020
2213 Clouds 4 1025 56 10000 3.6 270 17:55 21.02.2020
2214 Clouds 5 1025 60 10000 4.1 270 17:36 21.02.2020
2215 Clouds 5 1025 60 10000 4.1 270 17:18 21.02.2020
2216 Clouds 6 1025 56 10000 6.2 270 16:41 21.02.2020
2217 Clouds 6 1024 56 10000 6.2 270 16:21 21.02.2020
2218 Clouds 6 1024 60 10000 5.7 280 15:57 21.02.2020
2219 Clouds 6 1024 60 10000 5.7 280 15:38 21.02.2020
2220 Clouds 6 1024 60 10000 6.7 280 15:18 21.02.2020
2221 Clouds 6 1024 60 10000 6.7 280 15:18 21.02.2020
2222 Clouds 6 1024 60 10000 6.2 270 14:42 21.02.2020
2223 Clouds 6 1024 60 10000 7.2 280 14:21 21.02.2020
2224 Clouds 6 1024 60 10000 6.7 280 13:58 21.02.2020
2225 Clouds 6 1024 60 10000 6.7 280 13:38 21.02.2020
2226 Clouds 6 1023 60 10000 5.7 280 13:20 21.02.2020
2227 Clouds 5 1023 60 10000 7.7 280 12:42 21.02.2020
2228 Clouds 5 1023 60 10000 7.7 270 12:24 21.02.2020
2229 Clouds 5 1023 65 10000 6.2 270 11:55 21.02.2020
2230 Clouds 5 1023 65 10000 6.2 270 11:37 21.02.2020
2231 Clouds 5 1022 65 10000 7.2 270 11:19 21.02.2020
2232 Snow 4 1022 69 10000 8.2 270 10:42 21.02.2020
2233 Snow 4 1021 69 10000 6.2 270 10:20 21.02.2020
2234 Clouds 4 1021 69 10000 7.2 270 09:58 21.02.2020
2235 Clouds 4 1021 69 10000 7.2 270 09:38 21.02.2020
2236 Clouds 3 1020 69 10000 6.2 270 09:20 21.02.2020
2237 Clouds 3 1020 74 10000 7.2 280 08:54 21.02.2020
2238 Clouds 3 1019 75 10000 5.1 270 08:36 21.02.2020
2239 Clouds 3 1019 78 10000 5.1 270 08:18 21.02.2020
2240 Rain 2 1018 76 10000 7.7 290 07:41 21.02.2020
2241 Rain 3 1018 76 10000 7.7 290 07:20 21.02.2020
2242 Clouds 3 1017 80 10000 8.2 290 06:55 21.02.2020
2243 Clouds 3 1016 80 10000 10.3 300 06:32 21.02.2020
2244 Rain 3 1014 86 10000 8.7 300 05:56 21.02.2020
2245 Rain 3 1013 86 10000 10.3 300 05:30 21.02.2020
2246 Rain 3 1013 86 10000 10.3 300 05:30 21.02.2020
2247 Rain 4 1011 86 10000 7.2 270 04:26 21.02.2020
2248 Rain 5 1011 93 10000 7.2 270 03:47 21.02.2020
2249 Rain 5 1010 87 10000 7.2 230 02:59 21.02.2020
2250 Rain 7 1010 61 10000 6.7 230 01:43 21.02.2020
2251 Clouds 7 1010 61 10000 7.2 210 01:22 21.02.2020
2252 Clouds 7 1011 75 10000 5.1 180 00:38 21.02.2020
2253 Clouds 6 1011 75 10000 5.1 180 00:19 21.02.2020
2254 Clouds 6 1012 75 10000 4.6 160 23:41 20.02.2020
2255 Clouds 6 1012 75 10000 5.1 160 23:22 20.02.2020
2256 Clouds 6 1013 75 10000 5.7 160 22:42 20.02.2020
2257 Clouds 6 1014 75 10000 5.7 180 22:24 20.02.2020
2258 Clouds 6 1014 75 10000 6.2 190 21:58 20.02.2020
2259 Clouds 6 1014 70 10000 6.2 190 21:40 20.02.2020
2260 Clouds 6 1014 70 10000 6.2 190 21:20 20.02.2020
2261 Clouds 6 1014 70 10000 6.2 190 21:20 20.02.2020
2262 Clouds 6 1015 70 10000 6.7 190 20:57 20.02.2020
2263 Clouds 6 1015 70 10000 6.7 190 20:39 20.02.2020
2264 Clouds 6 1015 75 10000 5.7 190 20:20 20.02.2020
2265 Clouds 6 1015 75 10000 4.6 180 19:59 20.02.2020
2266 Clouds 6 1015 75 10000 4.6 180 19:41 20.02.2020
2267 Clouds 6 1015 75 10000 5.1 180 19:23 20.02.2020
2268 Clouds 6 1016 75 10000 5.7 210 18:58 20.02.2020
2269 Clouds 6 1016 75 10000 5.1 190 18:37 20.02.2020
2270 Clouds 6 1016 75 10000 5.1 190 18:19 20.02.2020
2271 Clouds 6 1016 81 10000 4.6 180 17:39 20.02.2020
2272 Clouds 6 1016 81 10000 4.6 180 17:20 20.02.2020
2273 Clouds 6 1017 87 10000 4.1 170 16:58 20.02.2020
2274 Rain 6 1017 87 10000 3.6 170 16:39 20.02.2020
2275 Rain 6 1017 87 10000 3.6 170 16:19 20.02.2020
2276 Rain 6 1017 87 10000 4.1 170 15:57 20.02.2020
2277 Rain 6 1017 87 10000 4.1 170 15:39 20.02.2020
2278 Rain 6 1018 87 10000 3.6 180 15:20 20.02.2020
2279 Rain 6 1018 87 10000 4.1 200 14:54 20.02.2020
2280 Rain 6 1019 81 10000 4.6 240 14:36 20.02.2020
2281 Rain 6 1019 81 10000 4.6 240 14:18 20.02.2020
2282 Clouds 6 1019 70 10000 4.6 230 13:42 20.02.2020
2283 Clouds 6 1019 70 10000 5.1 220 13:19 20.02.2020
2284 Clouds 6 1019 75 10000 4.6 220 12:43 20.02.2020
2285 Clouds 6 1020 75 10000 5.1 230 12:22 20.02.2020
2286 Clouds 6 1020 70 0 4.1 230 11:59 20.02.2020
2287 Clouds 6 1020 70 0 4.1 230 11:41 20.02.2020
2288 Clouds 6 1020 70 0 4.1 230 11:41 20.02.2020
2289 Clouds 5 1020 87 10000 4.1 210 11:22 20.02.2020
2290 Clouds 5 1020 69 10000 4.1 190 10:57 20.02.2020
2291 Clouds 5 1020 69 10000 4.1 190 10:38 20.02.2020
2292 Clouds 4 1020 69 10000 4.6 190 10:20 20.02.2020
2293 Clouds 4 1020 69 10000 3.6 200 09:45 20.02.2020
2294 Clouds 3 1020 69 10000 4.1 200 09:24 20.02.2020
2295 Clouds 3 1020 69 10000 4.1 200 08:57 20.02.2020
2296 Clouds 3 1020 69 10000 4.1 200 08:38 20.02.2020
2297 Clear 2 1020 74 10000 4.1 200 08:20 20.02.2020
2298 Clear 1 1020 87 10000 3.6 190 07:45 20.02.2020
2299 Clouds 1 1020 87 10000 4.1 180 07:21 20.02.2020
2300 Clouds 1 1020 87 10000 4.1 200 06:52 20.02.2020
2301 Clouds 1 1020 74 10000 4.1 200 06:26 20.02.2020
2302 Clouds 1 1021 69 10000 4.1 220 05:45 20.02.2020
2303 Clouds 1 1021 69 10000 2.6 230 04:54 20.02.2020
2304 Clouds 2 1021 64 10000 3.1 250 03:58 20.02.2020
2305 Clouds 2 1021 64 10000 3.6 260 03:29 20.02.2020
2306 Clouds 3 1020 64 10000 5.7 270 02:25 20.02.2020
2307 Clouds 4 1020 64 10000 5.1 270 01:18 20.02.2020
2308 Clouds 4 1020 65 10000 5.7 270 00:33 20.02.2020
2309 Clouds 4 1020 65 10000 5.7 270 23:52 19.02.2020
2310 Clouds 4 1019 65 10000 5.1 280 23:23 19.02.2020
2311 Clouds 4 1019 65 10000 5.1 280 23:23 19.02.2020
2312 Rain 4 1019 81 10000 5.7 260 22:55 19.02.2020
2313 Rain 4 1019 65 10000 5.7 260 22:37 19.02.2020
2314 Rain 4 1019 65 10000 5.7 260 22:18 19.02.2020
2315 Clouds 4 1019 65 10000 6.2 270 21:55 19.02.2020
2316 Clouds 4 1019 81 10000 5.7 270 21:36 19.02.2020
2317 Clouds 4 1019 81 10000 5.7 270 21:18 19.02.2020
2318 Clouds 4 1018 81 10000 5.1 270 20:55 19.02.2020
2319 Clouds 4 1018 79 10000 6.2 260 20:36 19.02.2020
2320 Clouds 4 1018 78 10000 6.2 260 20:18 19.02.2020
2321 Clouds 4 1018 78 10000 6.7 260 19:54 19.02.2020
2322 Clouds 4 1017 65 10000 6.2 270 19:36 19.02.2020
2323 Clouds 4 1017 65 10000 6.2 270 19:18 19.02.2020
2324 Clouds 4 1017 78 10000 5.7 260 18:55 19.02.2020
2325 Clouds 4 1016 78 10000 5.1 280 18:37 19.02.2020
2326 Clouds 4 1016 78 10000 5.1 280 18:19 19.02.2020
2327 Clouds 4 1016 78 10000 5.7 280 17:42 19.02.2020
2328 Rain 4 1016 69 10000 7.2 280 17:19 19.02.2020
2329 Clouds 5 1015 69 10000 7.7 270 16:44 19.02.2020
2330 Rain 5 1014 70 10000 6.2 290 16:20 19.02.2020
2331 Rain 5 1014 75 10000 7.2 270 15:58 19.02.2020
2332 Rain 5 1014 75 10000 7.2 270 15:39 19.02.2020
2333 Clouds 4 1014 75 10000 5.1 270 15:20 19.02.2020
2334 Clouds 5 1014 80 10000 5.7 270 14:55 19.02.2020
2335 Rain 4 1013 80 10000 5.1 290 14:36 19.02.2020
2336 Rain 4 1013 80 10000 5.1 290 14:18 19.02.2020
2337 Rain 4 1013 86 10000 5.1 270 13:41 19.02.2020
2338 Rain 3 1013 93 10000 5.1 280 13:20 19.02.2020
2339 Rain 3 1013 86 10000 6.7 300 12:41 19.02.2020
2340 Rain 4 1012 86 10000 7.7 260 12:19 19.02.2020
2341 Rain 5 1012 75 10000 7.7 250 11:58 19.02.2020
2342 Rain 4 1012 75 10000 7.7 250 11:37 19.02.2020
2343 Rain 4 1011 75 10000 7.2 220 11:19 19.02.2020
2344 Rain 5 1011 70 10000 7.7 230 10:57 19.02.2020
2345 Rain 5 1011 70 10000 7.7 230 10:38 19.02.2020
2346 Rain 6 1011 70 10000 6.7 210 10:19 19.02.2020
2347 Rain 5 1012 82 10000 8.2 210 09:57 19.02.2020
2348 Clouds 6 1012 82 10000 8.7 210 09:37 19.02.2020
2349 Clouds 6 1012 82 10000 8.7 210 09:18 19.02.2020
2350 Rain 6 1012 82 10000 7.2 200 08:44 19.02.2020
2351 Rain 5 1013 82 10000 6.7 190 08:24 19.02.2020
2352 Clouds 5 1013 65 10000 7.2 190 07:41 19.02.2020
2353 Clouds 4 1013 60 10000 5.7 200 07:21 19.02.2020
2354 Clouds 4 1014 60 10000 5.7 210 06:53 19.02.2020
2355 Clouds 4 1014 77 10000 6.2 190 06:23 19.02.2020
2356 Clouds 5 1016 75 10000 6.2 200 04:21 19.02.2020
2357 Clouds 4 1017 75 10000 6.2 230 02:56 19.02.2020
2358 Clouds 4 1018 75 10000 5.7 230 02:31 19.02.2020
2359 Clouds 4 1019 76 10000 5.7 230 01:24 19.02.2020
2360 Clouds 4 1019 76 10000 5.7 240 00:50 19.02.2020
2361 Clouds 4 1019 76 10000 5.7 230 00:30 19.02.2020
2362 Clouds 4 1020 76 10000 5.7 230 23:44 18.02.2020
2363 Clouds 4 1020 65 10000 5.7 220 23:21 18.02.2020
2364 Clouds 4 1020 65 10000 4.6 230 22:59 18.02.2020
2365 Clouds 5 1020 65 10000 4.6 230 22:41 18.02.2020
2366 Clouds 4 1020 65 10000 5.7 230 22:19 18.02.2020
2367 Clouds 5 1021 65 10000 5.7 230 21:56 18.02.2020
2368 Clouds 5 1021 65 10000 5.7 230 21:38 18.02.2020
2369 Clouds 5 1021 60 10000 5.7 240 21:19 18.02.2020
2370 Clouds 5 1021 65 10000 5.1 230 20:57 18.02.2020
2371 Clear 5 1021 65 10000 4.6 220 20:38 18.02.2020
2372 Clouds 5 1021 65 10000 4.6 220 20:20 18.02.2020
2373 Clouds 5 1021 65 10000 4.6 230 19:43 18.02.2020
2374 Clouds 5 1021 65 10000 4.6 230 19:43 18.02.2020
2375 Clouds 5 1021 65 10000 4.6 230 19:43 18.02.2020
2376 Clouds 5 1021 65 10000 4.6 230 19:20 18.02.2020
2377 Clouds 5 1021 71 10000 4.1 230 18:59 18.02.2020
2378 Clouds 5 1021 71 10000 4.1 230 18:41 18.02.2020
2379 Rain 5 1021 70 10000 3.6 250 18:20 18.02.2020
2380 Clouds 5 1021 71 10000 5.1 230 17:57 18.02.2020
2381 Clouds 6 1021 71 10000 5.1 240 17:38 18.02.2020
2382 Clouds 6 1021 60 10000 5.1 240 17:19 18.02.2020
2383 Clouds 7 1021 52 10000 5.7 250 16:40 18.02.2020
2384 Clouds 7 1020 52 10000 6.2 270 16:20 18.02.2020
2385 Clouds 7 1020 52 10000 7.2 260 15:42 18.02.2020
2386 Clouds 8 1020 52 10000 6.7 260 15:21 18.02.2020
2387 Clouds 8 1021 52 10000 6.7 270 14:58 18.02.2020
2388 Clouds 8 1021 52 10000 6.7 270 14:39 18.02.2020
2389 Clouds 8 1020 49 10000 8.7 270 14:21 18.02.2020
2390 Clouds 8 1020 49 10000 7.7 270 13:57 18.02.2020
2391 Clouds 8 1020 49 10000 7.7 270 13:38 18.02.2020
2392 Clouds 8 1021 57 10000 7.7 270 13:20 18.02.2020
2393 Clouds 8 1021 65 10000 7.7 270 12:43 18.02.2020
2394 Rain 7 1021 70 10000 6.7 260 12:24 18.02.2020
2395 Rain 7 1020 75 10000 8.2 260 11:56 18.02.2020
2396 Rain 7 1020 75 10000 8.2 260 11:38 18.02.2020
2397 Clouds 7 1020 61 10000 7.2 260 11:19 18.02.2020
2398 Clouds 7 1020 61 10000 8.7 250 10:44 18.02.2020
2399 Clouds 7 1019 65 10000 7.7 240 10:22 18.02.2020
2400 Clouds 7 1019 65 10000 5.7 240 09:56 18.02.2020
2401 Clouds 7 1019 65 10000 5.7 240 09:38 18.02.2020
2402 Clouds 7 1019 70 10000 5.7 240 09:19 18.02.2020
2403 Rain 7 1019 70 10000 6.7 250 08:55 18.02.2020
2404 Rain 7 1019 70 10000 6.7 250 08:37 18.02.2020
2405 Clouds 6 1019 70 10000 7.2 250 08:19 18.02.2020
2406 Clouds 6 1018 70 10000 6.7 260 07:46 18.02.2020
2407 Clouds 6 1018 70 10000 6.7 260 07:25 18.02.2020
2408 Clouds 6 1018 75 10000 6.7 250 06:51 18.02.2020
2409 Clouds 6 1017 70 10000 5.7 240 06:28 18.02.2020
2410 Clouds 6 1017 75 10000 5.7 250 05:48 18.02.2020
2411 Clouds 6 1017 75 10000 5.7 230 05:21 18.02.2020
2412 Rain 6 1017 70 10000 6.7 240 03:52 18.02.2020
2413 Clear 6 1017 70 10000 6.7 220 02:58 18.02.2020
2414 Clouds 6 1017 70 10000 4.6 240 01:27 18.02.2020
2415 Clouds 6 1017 70 10000 6.2 240 00:43 18.02.2020
2416 Clouds 7 1016 70 10000 6.2 240 00:18 18.02.2020
2417 Clouds 7 1016 70 10000 5.1 230 23:39 17.02.2020
2418 Rain 7 1016 75 10000 5.1 230 23:20 17.02.2020
2419 Rain 7 1016 70 10000 5.1 230 22:58 17.02.2020
2420 Rain 7 1016 70 10000 5.1 230 22:40 17.02.2020
2421 Rain 7 1016 70 10000 5.1 230 22:18 17.02.2020
2422 Rain 7 1015 75 10000 5.1 220 21:39 17.02.2020
2423 Rain 7 1016 75 10000 4.1 220 21:19 17.02.2020
2424 Rain 7 1016 75 10000 4.6 230 20:57 17.02.2020
2425 Rain 7 1016 70 10000 5.7 240 20:38 17.02.2020
2426 Rain 7 1016 70 10000 5.7 240 20:19 17.02.2020
2427 Clouds 7 1016 70 10000 4.6 240 19:43 17.02.2020
2428 Rain 7 1015 70 10000 3.6 230 19:22 17.02.2020
2429 -273 0 0 0 0 0 19:22 17.02.2020
2430 Rain 8 1015 66 10000 5.1 230 18:58 17.02.2020
2431 Rain 8 1015 61 10000 5.7 230 18:37 17.02.2020
2432 Rain 8 1015 61 10000 5.7 230 18:18 17.02.2020
2433 Clouds 8 1014 57 10000 4.1 240 17:54 17.02.2020
2434 Clouds 9 1014 57 10000 4.6 220 17:36 17.02.2020
2435 Clouds 9 1014 57 10000 4.6 220 17:18 17.02.2020
2436 Clouds 9 1014 57 10000 3.6 240 16:42 17.02.2020
2437 Rain 9 1014 57 10000 3.6 240 16:22 17.02.2020
2438 Rain 9 1015 57 10000 5.7 240 15:57 17.02.2020
2439 Rain 10 1015 57 10000 5.7 240 15:39 17.02.2020
2440 Rain 10 1015 69 10000 7.2 230 15:21 17.02.2020
2441 Rain 10 1014 69 10000 6.2 220 14:44 17.02.2020
2442 Rain 10 1015 53 10000 5.1 230 14:25 17.02.2020
2443 Clouds 10 1015 57 10000 6.2 230 13:58 17.02.2020
2444 Clouds 10 1015 57 10000 6.2 230 13:39 17.02.2020
2445 Clouds 9 1015 57 10000 4.6 240 13:19 17.02.2020
2446 Clouds 10 1015 57 10000 4.1 230 12:47 17.02.2020
2447 Clouds 9 1015 57 10000 4.1 230 12:47 17.02.2020
2448 Clouds 9 1015 53 10000 3.1 260 12:26 17.02.2020
2449 Clouds 10 1016 56 10000 5.7 270 11:59 17.02.2020
2450 Clouds 10 1016 57 10000 5.1 260 11:41 17.02.2020
2451 Clouds 10 1016 57 10000 5.1 260 11:22 17.02.2020
2452 Clouds 10 1016 61 10000 5.1 250 10:56 17.02.2020
2453 Clouds 10 1016 61 10000 5.1 250 10:37 17.02.2020
2454 Clouds 10 1015 66 10000 4.1 240 10:19 17.02.2020
2455 Clouds 10 1015 61 10000 4.6 250 09:42 17.02.2020
2456 Clouds 10 1014 71 10000 4.1 230 09:23 17.02.2020
2457 Clouds 10 1015 71 10000 4.1 250 08:59 17.02.2020
2458 Clouds 9 1015 71 10000 4.1 250 08:41 17.02.2020
2459 Clouds 9 1014 76 10000 3.6 250 08:21 17.02.2020
2460 Clouds 9 1014 71 10000 6.2 250 07:55 17.02.2020
2461 Clouds 9 1013 76 10000 5.7 250 07:26 17.02.2020
2462 Clouds 9 1013 76 10000 5.1 240 06:56 17.02.2020
2463 Rain 9 1013 81 10000 4.6 230 06:36 17.02.2020
2464 Rain 9 1012 87 10000 6.2 200 05:59 17.02.2020
2465 Rain 9 1012 87 10000 6.2 200 05:38 17.02.2020
2466 Clouds 10 1011 71 10000 5.7 340 03:55 17.02.2020
2467 Clouds 12 1009 38 10000 7.2 190 02:37 17.02.2020
2468 Clouds 13 1008 35 10000 5.7 170 00:59 17.02.2020
2469 Clouds 13 1007 35 10000 6.7 180 00:25 17.02.2020
2470 Clouds 13 1007 35 10000 6.7 180 23:56 16.02.2020
2471 Clouds 13 1007 35 10000 6.7 170 23:36 16.02.2020
2472 Clouds 12 1007 35 10000 6.7 170 23:18 16.02.2020
2473 Clouds 12 1007 30 10000 7.7 170 22:54 16.02.2020
2474 Clouds 12 1007 29 10000 8.2 170 22:36 16.02.2020
2475 Clouds 12 1007 29 10000 8.2 170 22:18 16.02.2020
2476 Clouds 12 1007 35 10000 7.7 180 21:42 16.02.2020
2477 Clouds 12 1008 35 10000 9.3 180 21:24 16.02.2020
2478 Clouds 12 1008 33 10000 10.3 180 20:58 16.02.2020
2479 Clouds 12 1008 33 10000 10.3 180 20:40 16.02.2020
2480 Clouds 12 1008 33 10000 10.3 180 20:40 16.02.2020
2481 Clouds 12 1008 33 10000 10.3 180 20:40 16.02.2020
2482 Clouds 13 1008 33 10000 11.8 180 20:22 16.02.2020
2483 Clouds 13 1009 31 10000 10.3 190 19:59 16.02.2020
2484 Clouds 13 1009 31 10000 10.3 190 19:40 16.02.2020
2485 Clouds 13 1009 50 10000 10.8 190 19:19 16.02.2020
2486 Clouds 12 1009 50 10000 10.8 200 18:59 16.02.2020
2487 Clouds 12 1009 50 10000 10.8 200 18:40 16.02.2020
2488 Clouds 12 1009 50 10000 11.3 190 18:22 16.02.2020
2489 Clouds 12 1009 41 10000 9.8 190 17:44 16.02.2020
2490 Clouds 13 1009 44 10000 11.8 190 17:20 16.02.2020
2491 Clouds 13 1010 50 10000 10.8 180 16:57 16.02.2020
2492 Clouds 13 1010 50 10000 10.8 180 16:39 16.02.2020
2493 Clouds 13 1010 50 10000 9.8 180 16:21 16.02.2020
2494 Clouds 13 1010 50 10000 11.3 180 15:56 16.02.2020
2495 Clouds 13 1010 50 10000 11.3 180 15:37 16.02.2020
2496 Clouds 12 1010 54 10000 10.3 180 15:18 16.02.2020
2497 Clouds 12 1012 53 10000 10.3 180 14:39 16.02.2020
2498 Clouds 11 1012 53 10000 10.3 180 14:21 16.02.2020
2499 Rain 11 1012 61 10000 10.8 180 13:45 16.02.2020
2500 Rain 11 1013 50 10000 9.8 180 13:24 16.02.2020
2501 Rain 11 1013 46 10000 8.7 180 12:55 16.02.2020
2502 Clouds 12 1014 46 10000 9.3 190 12:36 16.02.2020
2503 Clouds 12 1014 46 10000 9.3 190 12:18 16.02.2020
2504 Clouds 11 1013 46 10000 9.3 190 11:39 16.02.2020
2505 Clouds 11 1013 46 10000 9.3 190 11:18 16.02.2020
2506 Clouds 11 1014 46 10000 9.8 190 10:56 16.02.2020
2507 Clouds 11 1014 46 10000 9.8 190 10:38 16.02.2020
2508 Clouds 9 1014 53 10000 4.6 150 10:20 16.02.2020
2509 Clouds 9 1014 57 10000 6.2 150 09:55 16.02.2020
2510 Clouds 9 1014 57 10000 6.7 150 09:36 16.02.2020
2511 Clouds 9 1014 57 10000 6.7 150 09:18 16.02.2020
2512 Clouds 9 1014 61 0 6.7 150 08:45 16.02.2020
2513 Clouds 8 1014 65 10000 7.7 160 08:21 16.02.2020
2514 Clouds 8 1015 65 10000 7.7 160 07:55 16.02.2020
2515 Clouds 8 1015 65 10000 7.2 160 07:34 16.02.2020
2516 Clouds 7 1015 65 10000 5.1 150 06:35 16.02.2020
2517 Clouds 8 1015 61 10000 6.7 160 04:57 16.02.2020
2518 Clouds 8 1016 61 10000 5.1 160 03:34 16.02.2020
2519 Clouds 7 1017 61 10000 5.1 150 02:35 16.02.2020
2520 Clouds 7 1017 61 10000 4.6 140 01:45 16.02.2020
2521 Clouds 7 1017 61 10000 4.1 160 01:26 16.02.2020
2522 Clouds 6 1017 61 10000 7.2 170 00:59 16.02.2020
2523 Clouds 6 1017 61 10000 7.2 170 00:40 16.02.2020
2524 Clouds 6 1017 65 10000 6.7 170 00:19 16.02.2020
2525 Clouds 5 1017 61 10000 6.7 170 23:42 15.02.2020
2526 Clouds 5 1018 70 10000 6.2 170 23:23 15.02.2020
2527 Clouds 5 1018 70 10000 6.2 170 22:56 15.02.2020
2528 Clouds 5 1018 70 10000 6.7 170 22:38 15.02.2020
2529 Clouds 5 1018 70 10000 6.7 170 22:18 15.02.2020
2530 Clouds 5 1018 70 10000 5.1 160 21:43 15.02.2020
2531 Clouds 5 1019 70 10000 4.6 160 21:23 15.02.2020
2532 Clouds 5 1019 75 10000 3.6 150 20:56 15.02.2020
2533 Clouds 5 1019 80 10000 5.1 150 20:37 15.02.2020
2534 Clouds 5 1019 80 10000 5.1 150 20:37 15.02.2020
2535 Clouds 5 1019 80 10000 5.1 150 20:19 15.02.2020
2536 Clouds 5 1020 80 10000 4.1 150 19:41 15.02.2020
2537 Clouds 5 1021 80 10000 2.6 170 19:22 15.02.2020
2538 Clouds 5 1020 75 10000 3.1 160 18:41 15.02.2020
2539 Clouds 6 1020 75 10000 3.1 160 18:21 15.02.2020
2540 Clouds 6 1020 75 10000 4.1 170 17:55 15.02.2020
2541 Clouds 6 1020 70 10000 4.1 180 17:37 15.02.2020
2542 Clouds 7 1020 70 10000 4.1 180 17:19 15.02.2020
2543 Clouds 8 1020 70 10000 4.6 170 16:41 15.02.2020
2544 Clouds 8 1021 70 10000 5.7 170 16:23 15.02.2020
2545 Clouds 8 1021 70 10000 5.7 170 15:56 15.02.2020
2546 Clouds 9 1021 65 10000 5.7 160 15:38 15.02.2020
2547 Clouds 9 1021 65 10000 5.7 160 15:20 15.02.2020
2548 Clouds 9 1021 61 10000 5.7 160 14:43 15.02.2020
2549 Clouds 9 1022 61 10000 5.7 160 14:18 15.02.2020
2550 Clouds 9 1022 61 10000 4.6 160 13:43 15.02.2020
2551 Clouds 9 1023 61 10000 4.1 170 13:25 15.02.2020
2552 Clouds 9 1023 61 10000 4.1 160 12:59 15.02.2020
2553 Clouds 9 1023 61 10000 4.1 160 12:40 15.02.2020
2554 Clouds 8 1023 65 10000 4.1 160 12:21 15.02.2020
2555 Clouds 8 1024 70 10000 5.1 160 11:47 15.02.2020
2556 Clouds 8 1024 70 10000 5.1 160 11:47 15.02.2020
2557 Clouds 7 1024 70 10000 4.6 170 11:27 15.02.2020
2558 Clouds 7 1024 70 10000 6.2 170 10:51 15.02.2020
2559 Clouds 6 1024 75 10000 5.1 170 10:30 15.02.2020
2560 Clouds 5 1024 80 10000 4.6 170 09:58 15.02.2020
2561 Clouds 4 1024 80 10000 4.6 170 09:39 15.02.2020
2562 Rain 3 1024 86 10000 5.1 170 09:21 15.02.2020
2563 Clouds 2 1024 72 10000 4.6 170 08:43 15.02.2020
2564 Clouds 2 1024 72 10000 5.1 180 08:25 15.02.2020
2565 Clouds 1 1024 82 10000 5.7 180 07:56 15.02.2020
2566 Clouds 1 1024 82 10000 5.7 180 07:56 15.02.2020
2567 Clouds 1 1024 82 10000 4.1 170 07:34 15.02.2020
2568 Clouds 2 1024 82 10000 5.1 180 06:54 15.02.2020
2569 Clouds 2 1024 93 10000 3.6 180 06:36 15.02.2020
2570 Clouds 2 1025 93 10000 3.1 180 05:46 15.02.2020
2571 Clouds 2 1025 86 10000 4.1 190 04:46 15.02.2020
2572 Clouds 3 1025 86 10000 3.1 220 03:43 15.02.2020
2573 Clouds 3 1025 86 10000 3.1 220 02:52 15.02.2020
2574 Clouds 3 1025 86 10000 2.1 230 02:23 15.02.2020
2575 Clouds 4 1025 86 10000 2.6 230 01:40 15.02.2020
2576 Clouds 3 986 98 0 0.89 218 00:43 15.02.2020
2577 Clouds 4 1025 86 10000 2.1 250 00:24 15.02.2020
2578 Clouds 4 1025 86 10000 2.1 250 23:42 14.02.2020
2579 Clouds 4 1025 86 10000 2.1 230 23:20 14.02.2020
2580 Clouds 4 1024 86 10000 2.1 230 22:54 14.02.2020
2581 Clouds 4 1024 86 10000 2.1 290 22:36 14.02.2020
2582 Clouds 4 1024 86 10000 2.1 290 22:18 14.02.2020
2583 Clouds 5 1024 86 10000 2.1 270 21:40 14.02.2020
2584 Clouds 5 1024 86 10000 2.1 260 21:20 14.02.2020
2585 Clouds 5 1023 86 10000 2.1 260 20:43 14.02.2020
2586 Clouds 5 1023 86 10000 1.5 250 20:20 14.02.2020
2587 Clouds 5 1023 86 10000 2.1 270 19:57 14.02.2020
2588 Clouds 5 1023 86 10000 2.1 270 19:38 14.02.2020
2589 Clouds 5 1022 86 10000 3.1 280 19:19 14.02.2020
2590 Clouds 5 1021 80 10000 2.6 280 18:56 14.02.2020
2591 Rain 5 1021 80 10000 2.6 280 18:38 14.02.2020
2592 Rain 5 1021 81 10000 2.1 280 18:18 14.02.2020
2593 Rain 5 1021 81 10000 1.5 260 17:42 14.02.2020
2594 Rain 6 1020 75 10000 2.6 290 17:20 14.02.2020
2595 Rain 6 1020 81 10000 4.6 290 16:57 14.02.2020
2596 Rain 6 1020 81 10000 4.6 290 16:39 14.02.2020
2597 Rain 6 1019 75 10000 4.1 290 16:21 14.02.2020
2598 Rain 6 1019 75 10000 5.1 300 15:56 14.02.2020
2599 Rain 6 1019 75 10000 4.1 290 15:37 14.02.2020
2600 Rain 6 1019 75 10000 5.1 300 15:37 14.02.2020
2601 Clouds 6 1019 75 10000 4.1 290 15:19 14.02.2020
2602 Clouds 6 1019 75 10000 4.1 290 15:19 14.02.2020
2603 Clouds 7 1018 75 10000 5.1 290 14:56 14.02.2020
2604 Clouds 6 1018 87 10000 5.1 290 14:38 14.02.2020
2605 Clouds 6 1018 87 10000 5.1 290 14:19 14.02.2020
2606 Clouds 6 1017 87 10000 4.6 290 13:40 14.02.2020
2607 Clouds 6 1017 87 10000 4.6 290 13:40 14.02.2020
2608 Clouds 6 1017 87 10000 4.6 290 13:21 14.02.2020
2609 Clouds 6 1016 87 10000 4.1 270 12:58 14.02.2020
2610 Clouds 6 1016 87 10000 4.1 270 12:40 14.02.2020
2611 Clouds 6 1016 87 10000 4.1 270 12:21 14.02.2020
2612 Clouds 5 1015 93 10000 4.1 260 11:58 14.02.2020
2613 Clouds 5 1015 93 10000 4.1 260 11:40 14.02.2020
2614 Rain 5 1015 93 9000 4.6 270 11:20 14.02.2020
2615 Rain 5 1014 93 9000 4.6 270 10:56 14.02.2020
2616 Drizzle 5 1014 86 9000 3.6 270 10:37 14.02.2020
2617 Drizzle 5 1014 86 9000 3.6 270 10:19 14.02.2020
2618 Drizzle 5 1013 86 10000 4.1 260 09:42 14.02.2020
2619 Rain 4 1013 80 10000 4.1 270 09:21 14.02.2020
2620 Clouds 4 1012 80 10000 3.1 260 08:55 14.02.2020
2621 Clouds 4 1011 86 10000 3.1 260 08:37 14.02.2020
2622 Clouds 4 1011 86 10000 3.1 260 08:18 14.02.2020
2623 Clouds 4 1010 86 10000 2.6 280 07:43 14.02.2020
2624 Clouds 4 1010 86 10000 3.1 260 07:24 14.02.2020
2625 Clouds 3 1009 80 10000 3.6 270 06:32 14.02.2020
2626 Clouds 3 1008 80 10000 2.6 270 05:48 14.02.2020
2627 Clouds 3 1007 86 10000 2.6 250 05:25 14.02.2020
2628 Clouds 3 1006 86 10000 2.6 250 03:30 14.02.2020
2629 Clouds 4 1005 80 10000 3.6 250 02:42 14.02.2020
2630 Clouds 4 1005 80 10000 3.1 230 01:50 14.02.2020
2631 Clouds 4 1004 86 10000 4.1 190 00:44 14.02.2020
2632 Clouds 4 1004 86 10000 4.1 190 00:44 14.02.2020
2633 Clouds 4 1004 86 10000 4.6 190 00:24 14.02.2020
2634 Rain 4 1003 86 10000 4.6 180 23:51 13.02.2020
2635 Rain 4 1003 86 10000 6.2 180 23:23 13.02.2020
2636 Rain 4 1003 86 10000 4.6 190 22:56 13.02.2020
2637 Rain 4 1003 86 10000 4.6 190 22:38 13.02.2020
2638 Clouds 4 1003 80 10000 5.7 160 22:18 13.02.2020
2639 Clouds 4 1002 80 10000 6.7 160 21:42 13.02.2020
2640 Clouds 4 1002 80 10000 7.2 170 21:23 13.02.2020
2641 Clouds 4 1002 80 10000 7.2 170 20:58 13.02.2020
2642 Clouds 4 1002 80 10000 7.2 170 20:40 13.02.2020
2643 Clouds 4 1003 80 10000 6.7 160 20:22 13.02.2020
2644 Rain 4 1003 80 10000 8.2 150 19:57 13.02.2020
2645 Rain 4 1004 82 10000 7.7 160 19:37 13.02.2020
2646 Rain 4 1004 82 10000 7.7 160 19:19 13.02.2020
2647 Rain 3 1005 82 10000 7.2 150 18:55 13.02.2020
2648 Rain 3 1005 82 10000 8.2 170 18:37 13.02.2020
2649 Rain 3 1005 82 10000 8.2 170 18:19 13.02.2020
2650 Rain 4 1007 65 10000 4.1 170 17:54 13.02.2020
2651 Clouds 4 1006 65 10000 4.6 140 17:36 13.02.2020
2652 Clouds 4 1006 65 10000 4.6 140 17:18 13.02.2020
2653 Clouds 5 1006 65 10000 5.7 150 16:40 13.02.2020
2654 Clouds 5 1007 65 10000 6.2 160 16:20 13.02.2020
2655 Rain 5 1007 60 10000 6.7 160 15:57 13.02.2020
2656 Rain 5 1007 60 10000 6.7 160 15:39 13.02.2020
2657 Rain 5 1008 60 10000 6.2 160 15:19 13.02.2020
2658 Rain 5 1009 60 10000 6.2 150 14:58 13.02.2020
2659 Rain 5 1009 60 10000 6.2 150 14:39 13.02.2020
2660 Clouds 5 1010 65 10000 5.7 150 14:21 13.02.2020
2661 Clouds 5 1011 64 10000 6.7 150 13:48 13.02.2020
2662 Clouds 5 1011 64 10000 5.7 160 13:19 13.02.2020
2663 Clouds 5 1012 60 10000 5.1 150 12:57 13.02.2020
2664 Clouds 5 1013 52 10000 3.1 160 12:38 13.02.2020
2665 Clouds 5 1013 52 10000 3.1 160 12:20 13.02.2020
2666 Clouds 5 1014 56 10000 5.1 180 11:55 13.02.2020
2667 Clouds 5 1014 56 10000 5.7 190 11:37 13.02.2020
2668 Clouds 5 1014 56 10000 5.7 190 11:18 13.02.2020
2669 Clouds 4 1015 60 10000 4.6 190 10:41 13.02.2020
2670 Clouds 4 1015 60 10000 4.6 190 10:22 13.02.2020
2671 Clouds 3 1015 64 10000 5.1 180 09:44 13.02.2020
2672 Clouds 2 1016 69 10000 5.1 190 09:23 13.02.2020
2673 Clouds 1 1016 74 10000 5.1 210 08:46 13.02.2020
2674 Clear 1 1016 74 10000 5.1 210 08:20 13.02.2020
2675 Clear 0 1016 74 10000 4.6 220 07:43 13.02.2020
2676 Clear 0 1016 74 10000 4.6 230 07:24 13.02.2020
2677 Clear 0 1016 74 10000 4.6 230 07:24 13.02.2020
2678 Clear 0 1016 81 10000 3.6 200 06:54 13.02.2020
2679 Clear 0 1016 74 10000 3.6 230 06:36 13.02.2020
2680 Clouds 1 1016 69 10000 4.1 250 05:52 13.02.2020
2681 Clear 1 1016 74 10000 4.1 240 04:50 13.02.2020
2682 Clear 2 1016 74 10000 4.6 240 04:24 13.02.2020
2683 Clear 2 1016 74 10000 5.1 240 03:41 13.02.2020
2684 Clear 2 1016 74 10000 4.6 250 02:59 13.02.2020
2685 Clouds 2 1015 74 10000 4.1 250 02:37 13.02.2020
2686 Clouds 2 1015 74 10000 4.1 250 02:18 13.02.2020
2687 Rain 2 1015 69 10000 4.6 250 01:25 13.02.2020
2688 Clear 3 1015 69 10000 4.6 250 00:32 13.02.2020
2689 Clear 3 1015 64 10000 4.1 230 23:58 12.02.2020
2690 Clear 3 1014 64 10000 4.1 230 23:37 12.02.2020
2691 Clear 3 1014 64 10000 4.1 230 23:18 12.02.2020
2692 Clear 3 1014 69 10000 5.7 240 22:43 12.02.2020
2693 Clear 3 1014 69 10000 5.7 240 22:43 12.02.2020
2694 Clear 3 1014 69 10000 4.1 240 22:24 12.02.2020
2695 Clear 3 1014 64 10000 3.6 250 21:56 12.02.2020
2696 Clear 3 1014 64 10000 3.6 250 21:37 12.02.2020
2697 Clear 3 1014 60 10000 5.7 250 21:19 12.02.2020
2698 Clear 3 1013 60 10000 5.7 260 20:55 12.02.2020
2699 Clear 3 1013 60 10000 5.7 250 20:36 12.02.2020
2700 Clouds 3 1013 60 10000 5.7 250 20:18 12.02.2020
2701 Clouds 3 1013 60 10000 4.6 250 19:43 12.02.2020
2702 Snow 3 1013 60 10000 5.1 260 19:23 12.02.2020
2703 Clouds 3 1012 60 10000 4.1 250 18:54 12.02.2020
2704 Clouds 3 1012 69 10000 4.1 260 18:36 12.02.2020
2705 Clouds 3 1012 69 10000 4.1 260 18:18 12.02.2020
2706 Rain 4 1012 69 10000 8.7 260 17:42 12.02.2020
2707 Clouds 4 1011 60 10000 6.2 260 17:20 12.02.2020
2708 Clouds 4 1011 56 10000 5.1 270 16:58 12.02.2020
2709 Clouds 4 1011 56 10000 5.1 270 16:37 12.02.2020
2710 Snow 5 1011 64 10000 7.2 280 16:18 12.02.2020
2711 Rain 5 1010 60 10000 7.7 260 15:40 12.02.2020
2712 Rain 5 1010 60 10000 7.7 260 15:20 12.02.2020
2713 Rain 4 1010 65 10000 5.1 270 14:56 12.02.2020
2714 Rain 4 1010 65 10000 5.1 270 14:38 12.02.2020
2715 Rain 4 1010 74 10000 5.1 280 14:19 12.02.2020
2716 Rain 4 1010 60 10000 6.7 280 13:56 12.02.2020
2717 Snow 4 1010 60 10000 7.2 270 13:37 12.02.2020
2718 Snow 5 1010 60 10000 7.2 270 13:18 12.02.2020
2719 Clouds 5 1010 56 10000 9.3 260 12:55 12.02.2020
2720 Rain 5 1010 64 10000 6.2 260 12:36 12.02.2020
2721 Rain 5 1010 64 10000 6.2 260 12:18 12.02.2020
2722 Rain 5 1010 64 10000 6.2 260 12:18 12.02.2020
2723 Clouds 5 1010 64 10000 7.2 250 11:54 12.02.2020
2724 Clouds 5 1010 64 10000 7.2 250 11:36 12.02.2020
2725 Clouds 4 1010 64 10000 7.2 250 11:18 12.02.2020
2726 Snow 4 1009 64 10000 6.7 250 10:54 12.02.2020
2727 Clouds 4 1009 60 10000 7.2 250 10:36 12.02.2020
2728 Clouds 4 1009 60 10000 7.2 250 10:18 12.02.2020
2729 Snow 3 1009 64 10000 6.7 250 09:40 12.02.2020
2730 Snow 3 1009 64 10000 7.7 240 09:20 12.02.2020
2731 Snow 3 1009 64 10000 7.2 250 08:57 12.02.2020
2732 Snow 3 1009 64 10000 7.2 250 08:37 12.02.2020
2733 Clouds 3 1009 64 10000 6.7 240 08:19 12.02.2020
2734 Clouds 2 1008 64 10000 6.2 240 07:43 12.02.2020
2735 Clouds 2 1008 64 10000 6.2 240 07:23 12.02.2020
2736 Snow 2 1008 74 10000 5.7 240 06:53 12.02.2020
2737 Snow 2 1008 64 10000 6.2 240 06:21 12.02.2020
2738 Clouds 3 1007 64 10000 5.7 240 05:37 12.02.2020
2739 Clouds 3 1007 64 10000 6.7 250 04:58 12.02.2020
2740 Clouds 2 1007 64 10000 6.7 250 04:39 12.02.2020
2741 Clouds 3 1007 64 10000 6.7 250 03:33 12.02.2020
2742 Snow 3 1007 64 10000 6.7 250 02:58 12.02.2020
2743 Clouds 3 1006 69 10000 6.7 260 02:29 12.02.2020
2744 Clouds 3 1006 64 10000 7.7 260 01:51 12.02.2020
2745 Clouds 3 1006 69 10000 5.7 260 00:46 12.02.2020
2746 Clouds 3 1005 64 10000 6.7 260 00:26 12.02.2020
2747 Clouds 3 1005 64 10000 6.7 250 23:57 11.02.2020
2748 Clouds 3 1005 64 10000 6.7 250 23:57 11.02.2020
2749 Clouds 3 1005 64 10000 5.1 250 23:39 11.02.2020
2750 Clouds 3 1005 64 10000 5.1 250 23:20 11.02.2020
2751 Clouds 3 1005 64 10000 5.7 250 22:55 11.02.2020
2752 Clouds 3 1005 69 10000 6.2 240 22:37 11.02.2020
2753 Clouds 3 1005 69 10000 6.2 240 22:19 11.02.2020
2754 Clouds 3 1005 69 10000 5.7 240 21:56 11.02.2020
2755 Clouds 2 1004 74 10000 4.1 240 21:37 11.02.2020
2756 Clouds 2 1004 74 10000 4.1 240 21:18 11.02.2020
2757 Clouds 2 1004 80 10000 4.1 240 20:55 11.02.2020
2758 Rain 2 1004 69 10000 5.7 260 20:37 11.02.2020
2759 Rain 2 1004 66 10000 5.7 260 20:18 11.02.2020
2760 Rain 3 1003 74 10000 3.6 240 19:42 11.02.2020
2761 Clouds 2 1003 80 10000 5.1 240 19:24 11.02.2020
2762 Clouds 3 1003 80 10000 6.7 260 18:57 11.02.2020
2763 Clouds 2 1003 80 10000 6.7 260 18:39 11.02.2020
2764 Clouds 2 1002 66 10000 8.2 260 18:20 11.02.2020
2765 Clouds 2 1001 80 10000 5.1 250 17:55 11.02.2020
2766 Clouds 2 1001 74 10000 7.2 260 17:36 11.02.2020
2767 Clouds 2 1001 74 10000 7.2 260 17:18 11.02.2020
2768 Clouds 3 1002 80 900 15.9 270 16:57 11.02.2020
2769 Clouds 4 1000 60 10000 7.2 280 16:37 11.02.2020
2770 Clouds 4 1000 60 10000 7.2 280 16:19 11.02.2020
2771 Clouds 5 1000 52 10000 10.3 270 15:45 11.02.2020
2772 Clouds 5 1000 52 10000 11.3 260 15:26 11.02.2020
2773 Clouds 6 1000 48 10000 10.8 260 14:58 11.02.2020
2774 Clouds 6 1000 48 10000 10.8 260 14:39 11.02.2020
2775 Clouds 6 999 45 10000 11.3 270 14:18 11.02.2020
2776 Clouds 6 1000 52 10000 11.3 270 13:42 11.02.2020
2777 Clouds 6 1000 52 10000 11.3 270 13:22 11.02.2020
2778 Clouds 5 1000 52 10000 10.3 270 12:59 11.02.2020
2779 Clouds 5 1000 52 10000 10.3 270 12:40 11.02.2020
2780 Clouds 5 1000 56 10000 11.3 270 12:21 11.02.2020
2781 Clouds 5 1000 56 10000 9.8 260 11:55 11.02.2020
2782 Clouds 5 1000 56 10000 9.8 250 11:36 11.02.2020
2783 Clouds 5 1000 56 10000 9.8 250 11:36 11.02.2020
2784 Clouds 5 1000 56 10000 9.8 250 11:18 11.02.2020
2785 Clouds 5 1000 52 10000 8.7 260 10:39 11.02.2020
2786 Clouds 5 999 56 10000 10.3 260 10:20 11.02.2020
2787 Clouds 5 999 60 10000 8.7 250 09:57 11.02.2020
2788 Clouds 4 999 64 10000 6.7 260 09:39 11.02.2020
2789 Clouds 4 999 64 10000 6.7 260 09:21 11.02.2020
2790 Clouds 3 999 74 10000 8.7 260 08:49 11.02.2020
2791 Clouds 3 998 69 10000 8.7 270 08:25 11.02.2020
2792 Clouds 3 998 74 10000 6.7 260 07:54 11.02.2020
2793 Clouds 3 997 80 10000 7.2 280 07:33 11.02.2020
2794 Clouds 2 997 80 10000 8.7 280 06:57 11.02.2020
2795 Thunderstorm 2 995 69 10000 10.3 260 06:38 11.02.2020
2796 Thunderstorm 3 995 69 10000 10.3 260 06:20 11.02.2020
2797 Thunderstorm 3 995 69 10000 10.3 260 06:20 11.02.2020
2798 Clouds 3 995 80 10000 7.7 260 05:41 11.02.2020
2799 Rain 4 995 80 10000 7.2 270 05:20 11.02.2020
2800 Rain 5 992 80 10000 7.7 260 03:32 11.02.2020
2801 Rain 5 992 80 10000 7.7 260 03:32 11.02.2020
2802 Clouds 5 992 75 10000 7.7 250 02:37 11.02.2020
2803 Clouds 6 992 75 10000 7.7 230 01:53 11.02.2020
2804 Rain 5 992 80 10000 5.7 230 01:30 11.02.2020
2805 Rain 5 993 70 10000 7.7 230 00:26 11.02.2020
2806 Clouds 5 994 70 10000 8.2 220 23:48 10.02.2020
2807 Clouds 5 995 70 10000 6.7 220 23:30 10.02.2020
2808 Rain 5 996 75 10000 6.7 210 22:57 10.02.2020
2809 Rain 5 996 75 10000 6.7 210 22:37 10.02.2020
2810 Rain 5 996 75 10000 6.7 210 22:37 10.02.2020
2811 Rain 4 996 80 10000 6.2 190 22:19 10.02.2020
2812 Rain 4 997 80 10000 6.2 200 21:41 10.02.2020
2813 Rain 4 998 86 10000 5.7 200 21:23 10.02.2020
2814 Clouds 3 999 86 10000 4.6 220 20:56 10.02.2020
2815 Clouds 3 999 86 10000 4.6 220 20:38 10.02.2020
2816 Clouds 3 999 86 10000 4.6 220 20:38 10.02.2020
2817 Clouds 3 999 86 10000 4.1 230 20:20 10.02.2020
2818 Snow 3 1000 93 10000 6.2 250 19:58 10.02.2020
2819 Rain 3 1000 66 10000 6.7 270 19:37 10.02.2020
2820 Rain 3 1000 66 10000 6.7 270 19:18 10.02.2020
2821 Rain 3 1000 80 10000 5.7 260 18:58 10.02.2020
2822 Rain 3 1000 80 10000 7.2 260 18:39 10.02.2020
2823 Rain 4 1000 80 10000 7.2 260 18:20 10.02.2020
2824 Rain 4 999 80 10000 9.8 260 17:56 10.02.2020
2825 Rain 5 999 66 10000 9.3 270 17:37 10.02.2020
2826 Clouds 5 999 63 10000 9.3 270 17:19 10.02.2020
2827 Clouds 6 998 63 10000 8.2 260 16:58 10.02.2020
2828 Clouds 6 998 63 10000 8.2 260 16:38 10.02.2020
2829 Rain 6 998 63 10000 9.3 270 16:19 10.02.2020
2830 Clouds 6 997 63 10000 11.3 260 15:55 10.02.2020
2831 Clouds 6 996 70 10000 13.4 260 15:37 10.02.2020
2832 Clouds 6 996 70 10000 13.4 260 15:18 10.02.2020
2833 Rain 5 996 70 10000 8.2 260 14:55 10.02.2020
2834 Clouds 6 996 70 10000 8.7 260 14:36 10.02.2020
2835 Clouds 6 996 70 10000 8.7 260 14:18 10.02.2020
2836 Clouds 7 994 65 10000 11.3 270 13:42 10.02.2020
2837 Clouds 7 994 65 10000 11.3 270 13:23 10.02.2020
2838 Rain 6 993 75 6000 8.2 270 12:48 10.02.2020
2839 Rain 6 993 86 3000 10.8 280 12:26 10.02.2020
2840 Rain 7 992 75 8000 10.3 250 11:56 10.02.2020
2841 Rain 7 992 75 8000 10.3 250 11:38 10.02.2020
2842 Rain 8 992 70 10000 7.7 240 11:19 10.02.2020
2843 Clouds 9 992 70 10000 8.2 240 10:46 10.02.2020
2844 Clouds 9 992 70 10000 7.2 240 10:27 10.02.2020
2845 Clouds 9 992 70 10000 9.3 240 09:48 10.02.2020
2846 Clouds 9 992 75 10000 8.2 230 09:26 10.02.2020
2847 Clouds 8 991 75 10000 8.2 240 08:57 10.02.2020
2848 Rain 8 990 75 10000 6.2 230 08:37 10.02.2020
2849 Rain 8 990 75 10000 6.2 230 08:19 10.02.2020
2850 Rain 7 990 75 10000 7.2 230 07:50 10.02.2020
2851 Clouds 7 990 81 10000 7.7 220 07:27 10.02.2020
2852 Rain 7 991 87 10000 7.2 250 06:22 10.02.2020
2853 Rain 12 988 54 10000 11.8 230 04:46 10.02.2020
2854 Rain 12 990 50 10000 11.3 230 03:45 10.02.2020
2855 Clouds 12 992 54 10000 13.4 220 02:56 10.02.2020
2856 Rain 12 992 50 10000 11.3 220 02:35 10.02.2020
2857 Rain 11 996 57 10000 7.7 170 00:55 10.02.2020
2858 Rain 11 997 57 10000 6.7 170 00:36 10.02.2020
2859 Rain 10 998 57 10000 7.7 180 23:58 09.02.2020
2860 Rain 10 998 57 10000 7.7 180 23:40 09.02.2020
2861 Rain 11 999 57 10000 7.7 180 23:22 09.02.2020
2862 Clouds 11 999 50 10000 9.8 180 22:43 09.02.2020
2863 Clouds 10 999 59 10000 12.3 180 22:21 09.02.2020
2864 Rain 10 1001 59 10000 12.3 190 21:45 09.02.2020
2865 Clouds 11 1002 59 10000 12.3 190 21:25 09.02.2020
2866 Clouds 11 1003 53 10000 11.3 190 20:59 09.02.2020
2867 Clouds 11 1003 53 10000 11.3 190 20:59 09.02.2020
2868 Clouds 11 1003 53 10000 11.3 190 20:41 09.02.2020
2869 Clouds 10 1004 53 10000 12.3 190 20:19 09.02.2020
2870 Clouds 10 1005 61 10000 9.3 180 19:54 09.02.2020
2871 Clouds 10 1006 61 10000 9.3 180 19:36 09.02.2020
2872 Clouds 9 1006 61 10000 9.3 180 19:18 09.02.2020
2873 Clouds 9 1007 61 10000 9.3 180 18:41 09.02.2020
2874 Clouds 9 1007 65 10000 8.7 180 18:23 09.02.2020
2875 Clouds 8 1008 65 10000 8.2 180 17:43 09.02.2020
2876 Clouds 8 1009 70 10000 7.7 170 17:23 09.02.2020
2877 Clouds 8 1009 65 10000 8.2 170 16:57 09.02.2020
2878 Clouds 8 1010 65 10000 8.7 180 16:39 09.02.2020
2879 Clouds 8 1010 65 10000 8.7 180 16:20 09.02.2020
2880 Clouds 9 1011 65 10000 9.3 180 15:57 09.02.2020
2881 Clouds 9 1011 65 10000 9.3 180 15:57 09.02.2020
2882 Clouds 9 1011 65 10000 9.3 180 15:39 09.02.2020
2883 Clouds 9 1012 61 10000 7.7 170 15:20 09.02.2020
2884 Clouds 9 1013 61 10000 7.2 170 14:55 09.02.2020
2885 Clouds 10 1014 61 10000 7.2 180 14:36 09.02.2020
2886 Clouds 9 1014 61 10000 7.2 180 14:18 09.02.2020
2887 Clouds 10 1015 61 10000 8.2 180 13:41 09.02.2020
2888 Clouds 9 1015 57 10000 6.7 160 13:21 09.02.2020
2889 Clouds 9 1016 57 10000 7.2 160 12:54 09.02.2020
2890 Clouds 9 1017 57 10000 5.7 170 12:36 09.02.2020
2891 Clouds 9 1017 57 10000 5.7 170 12:18 09.02.2020
2892 Clouds 8 1017 61 10000 5.7 160 11:39 09.02.2020
2893 Clear 8 1017 61 10000 7.2 160 11:19 09.02.2020
2894 Clear 6 1018 70 10000 5.7 160 10:43 09.02.2020
2895 Clear 6 1019 75 10000 3.6 150 10:23 09.02.2020
2896 Clear 5 1020 69 10000 5.1 150 09:57 09.02.2020
2897 Clear 5 1020 69 10000 5.1 150 09:38 09.02.2020
2898 Clear 4 1020 69 10000 6.2 150 09:20 09.02.2020
2899 Clear 3 1020 69 10000 4.6 160 08:41 09.02.2020
2900 Clear 2 1020 86 10000 4.1 150 08:23 09.02.2020
2901 Clouds 2 1020 82 10000 4.1 150 07:52 09.02.2020
2902 Clouds 2 1020 82 10000 4.6 150 07:26 09.02.2020
2903 Clouds 2 1020 82 10000 6.2 150 06:37 09.02.2020
2904 Clouds 2 1021 82 10000 4.1 150 05:55 09.02.2020
2905 Clouds 2 1021 82 10000 5.1 140 05:34 09.02.2020
2906 Clouds 3 1021 83 10000 3.1 160 04:49 09.02.2020
2907 Clouds 2 1022 86 10000 3.6 150 02:58 09.02.2020
2908 Clouds 2 1022 86 10000 3.6 150 02:38 09.02.2020
2909 Clouds 2 1022 80 10000 3.1 150 01:44 09.02.2020
2910 Clouds 2 1022 80 10000 2.6 160 01:19 09.02.2020
2911 Clouds 2 1022 80 10000 3.1 150 00:38 09.02.2020
2912 Clouds 2 1022 74 10000 2.6 160 00:18 09.02.2020
2913 Clouds 2 1022 80 10000 5.1 150 23:41 08.02.2020
2914 Clouds 2 1022 77 10000 5.1 150 23:19 08.02.2020
2915 Clouds 2 1023 77 10000 6.2 160 22:40 08.02.2020
2916 Clouds 2 1023 77 10000 6.2 160 22:21 08.02.2020
2917 Clouds 2 1023 77 10000 5.7 160 21:54 08.02.2020
2918 Clouds 2 1023 77 10000 5.1 160 21:36 08.02.2020
2919 Clouds 2 1023 77 10000 5.1 160 21:18 08.02.2020
2920 Clouds 2 1023 77 10000 5.1 160 20:54 08.02.2020
2921 Clouds 2 1023 77 10000 4.1 160 20:36 08.02.2020
2922 Clouds 2 1023 79 10000 4.1 160 20:18 08.02.2020
2923 Clouds 2 1023 74 10000 5.1 160 19:40 08.02.2020
2924 Clouds 3 1023 74 10000 5.1 160 19:20 08.02.2020
2925 Clouds 3 1023 74 10000 5.1 160 18:58 08.02.2020
2926 Clouds 3 1023 74 10000 5.1 160 18:39 08.02.2020
2927 Clouds 3 1023 74 10000 5.1 160 18:21 08.02.2020
2928 Clouds 3 1023 74 10000 4.6 160 17:42 08.02.2020
2929 Clear 4 1023 69 10000 5.7 160 17:21 08.02.2020
2930 Clear 5 1022 65 10000 5.1 160 16:57 08.02.2020
2931 Clear 5 1022 60 10000 6.2 160 16:38 08.02.2020
2932 Clear 6 1022 60 10000 6.2 160 16:19 08.02.2020
2933 Clear 7 1023 60 10000 5.7 150 15:41 08.02.2020
2934 Clear 8 1023 73 10000 6.2 150 15:19 08.02.2020
2935 Clear 7 1023 73 10000 5.7 150 14:57 08.02.2020
2936 Clear 7 1023 73 10000 5.7 150 14:39 08.02.2020
2937 Clear 7 1023 67 10000 6.2 160 14:18 08.02.2020
2938 Clear 7 1024 67 10000 6.7 160 13:43 08.02.2020
2939 Clear 6 1024 65 10000 5.7 150 13:23 08.02.2020
2940 Clear 7 1024 65 10000 6.2 150 12:54 08.02.2020
2941 Clear 7 1024 65 10000 4.1 160 12:36 08.02.2020
2942 Clear 6 1024 65 10000 4.1 160 12:18 08.02.2020
2943 Clear 5 1024 65 10000 5.1 150 11:41 08.02.2020
2944 Clear 5 1024 71 10000 5.1 150 11:21 08.02.2020
2945 Clear 4 1025 71 10000 5.1 160 10:43 08.02.2020
2946 Clear 4 1025 71 10000 5.1 180 10:25 08.02.2020
2947 Clear 3 1025 71 10000 2.6 190 09:55 08.02.2020
2948 Clear 2 1025 71 10000 3.6 170 09:30 08.02.2020
2949 Clear 1 1025 80 10000 3.6 170 08:59 08.02.2020
2950 Clear 1 1025 80 10000 3.6 170 08:39 08.02.2020
2951 Clear 0 1024 86 10000 4.1 150 08:21 08.02.2020
2952 Clear -1 1024 86 10000 3.6 150 07:50 08.02.2020
2953 Fog -1 1024 86 10000 3.1 150 07:32 08.02.2020
2954 Fog -1 1024 86 10000 3.1 150 06:41 08.02.2020
2955 Fog -1 1025 86 10000 2.6 150 06:18 08.02.2020
2956 Fog -1 1025 86 10000 0.5 90 05:33 08.02.2020
2957 Fog 0 1025 87 10000 1.5 60 04:53 08.02.2020
2958 Fog 0 1025 87 10000 0.5 0 04:24 08.02.2020
2959 Clear 0 1026 87 10000 1.5 140 03:35 08.02.2020
2960 Clear 1 1026 87 10000 1.5 60 02:28 08.02.2020
2961 Clear 1 1026 88 10000 0.5 0 01:31 08.02.2020
2962 Fog 2 1026 89 10000 1.5 130 00:46 08.02.2020
2963 Fog 1 1027 89 10000 2.1 110 00:25 08.02.2020
2964 Fog 1 1027 89 10000 2.1 110 23:58 07.02.2020
2965 Fog 2 1027 89 10000 2.1 110 23:39 07.02.2020
2966 Fog 2 1027 93 10000 2.1 120 23:20 07.02.2020
2967 Clouds 2 1027 93 10000 2.1 140 22:41 07.02.2020
2968 Clouds 2 1028 100 10000 1.5 130 22:20 07.02.2020
2969 Clouds 2 1028 93 10000 2.1 140 21:58 07.02.2020
2970 Clouds 3 1028 93 10000 2.6 150 21:40 07.02.2020
2971 Clouds 3 1028 93 10000 2.6 150 21:19 07.02.2020
2972 Clouds 4 1028 93 9000 2.1 130 20:39 07.02.2020
2973 Clouds 4 1028 93 9000 1 0 20:20 07.02.2020
2974 Clouds 4 1028 93 8000 2.1 110 19:55 07.02.2020
2975 Clouds 4 1028 93 8000 2.1 110 19:37 07.02.2020
2976 Clouds 4 1028 93 8000 1.5 150 19:18 07.02.2020
2977 Clouds 4 1029 93 9000 1.5 140 18:44 07.02.2020
2978 Clouds 4 1029 93 9000 1.5 140 18:44 07.02.2020
2979 Clouds 4 1029 93 9000 1.5 140 18:44 07.02.2020
2980 Clouds 4 1029 93 9000 1.5 110 18:25 07.02.2020
2981 Clouds 4 1029 93 9000 1 120 17:55 07.02.2020
2982 Clouds 4 1028 93 10000 0.5 0 17:37 07.02.2020
2983 Clouds 4 1028 93 10000 0.5 0 17:19 07.02.2020
2984 Clouds 4 1029 93 10000 0.5 0 16:45 07.02.2020
2985 Clouds 4 1029 93 10000 1 220 16:23 07.02.2020
2986 Clouds 4 1029 93 10000 1 0 15:55 07.02.2020
2987 Clouds 4 1029 93 9000 1.5 260 15:28 07.02.2020
2988 Clouds 4 1029 93 6000 1.5 260 14:56 07.02.2020
2989 Drizzle 4 1029 93 5000 2.1 300 14:38 07.02.2020
2990 Drizzle 4 1029 93 5000 2.1 300 14:19 07.02.2020
2991 Clouds 4 1029 93 7000 1.5 330 13:57 07.02.2020
2992 Clouds 4 1029 93 6000 1 0 13:38 07.02.2020
2993 Clouds 4 1029 93 6000 1 0 13:20 07.02.2020
2994 Clouds 4 1029 93 6000 1 0 12:42 07.02.2020
2995 Clouds 4 1029 93 6000 1.5 350 12:23 07.02.2020
2996 Clouds 4 1029 93 6000 1.5 350 12:23 07.02.2020
2997 Clouds 4 1030 93 6000 2.1 330 11:45 07.02.2020
2998 Mist 3 1029 100 2700 1 0 11:24 07.02.2020
2999 Drizzle 4 1029 100 2000 2.1 300 10:59 07.02.2020
3000 Drizzle 3 1029 100 2000 2.1 300 10:39 07.02.2020
3001 Drizzle 3 1029 100 1600 3.1 300 10:20 07.02.2020
3002 Drizzle 3 1029 93 2300 2.1 300 09:45 07.02.2020
3003 Drizzle 3 1029 93 2300 2.6 290 09:25 07.02.2020
3004 Drizzle 2 1029 100 2200 2.6 290 08:57 07.02.2020
3005 Drizzle 3 1029 100 2400 2.1 290 08:37 07.02.2020
3006 Drizzle 2 1029 100 2400 2.1 290 08:19 07.02.2020
3007 Drizzle 2 1028 100 3200 2.6 280 07:40 07.02.2020
3008 Drizzle 2 1028 100 4700 3.1 280 07:19 07.02.2020
3009 Clouds 2 1028 93 8000 3.1 290 06:43 07.02.2020
3010 Clouds 2 1028 93 8000 3.1 290 06:22 07.02.2020
3011 Clouds 2 1028 86 9000 2.6 280 05:43 07.02.2020
3012 Clouds 3 1028 86 10000 2.6 280 03:58 07.02.2020
3013 Rain 3 1028 86 10000 3.6 280 02:30 07.02.2020
3014 Rain 3 1028 91 10000 3.6 280 01:34 07.02.2020
3015 Rain 3 1028 91 10000 4.1 290 00:38 07.02.2020
3016 Rain 3 1028 91 10000 3.6 270 23:56 06.02.2020
3017 Clouds 3 1028 91 10000 3.6 290 23:36 06.02.2020
3018 Clouds 3 1028 90 10000 3.6 290 23:18 06.02.2020
3019 Rain 3 1028 90 10000 4.1 290 22:42 06.02.2020
3020 Rain 3 1028 86 10000 3.1 280 22:23 06.02.2020
3021 Clouds 3 1028 90 10000 4.1 280 21:37 06.02.2020
3022 Clouds 3 1028 90 10000 4.1 280 21:19 06.02.2020
3023 Clouds 3 1028 90 10000 4.1 270 20:56 06.02.2020
3024 Clouds 3 1028 90 10000 4.1 270 20:37 06.02.2020
3025 Clouds 3 1028 86 10000 3.1 280 20:18 06.02.2020
3026 Clouds 3 1028 87 10000 3.6 270 19:58 06.02.2020
3027 Clouds 3 1028 87 10000 3.6 270 19:39 06.02.2020
3028 Rain 3 1028 87 10000 3.6 280 19:21 06.02.2020
3029 Clouds 3 1028 87 10000 4.1 270 18:57 06.02.2020
3030 Clouds 3 1028 87 10000 3.6 270 18:38 06.02.2020
3031 Clouds 3 1028 87 10000 3.6 270 18:19 06.02.2020
3032 Clouds 3 1027 87 10000 4.6 270 17:42 06.02.2020
3033 Clouds 3 1028 87 10000 4.6 280 17:21 06.02.2020
3034 Clouds 3 1027 87 10000 5.1 290 16:57 06.02.2020
3035 Clouds 4 1027 87 10000 5.1 290 16:39 06.02.2020
3036 Clouds 4 1027 80 10000 5.7 290 16:20 06.02.2020
3037 Clouds 4 1027 80 10000 5.1 280 15:42 06.02.2020
3038 Clouds 4 1027 80 10000 5.7 270 15:21 06.02.2020
3039 Clouds 3 1028 86 10000 5.7 280 14:48 06.02.2020
3040 Rain 3 1028 86 10000 4.6 270 14:27 06.02.2020
3041 Clouds 3 1028 86 10000 4.6 270 13:55 06.02.2020
3042 Clouds 3 1028 85 10000 4.6 270 13:37 06.02.2020
3043 Clouds 3 1028 81 10000 4.6 270 13:19 06.02.2020
3044 Rain 3 1029 81 10000 5.7 280 12:43 06.02.2020
3045 Clouds 3 1028 81 10000 5.1 260 12:19 06.02.2020
3046 Clouds 2 1029 80 10000 4.1 260 11:56 06.02.2020
3047 Clouds 2 1029 80 10000 4.1 260 11:38 06.02.2020
3048 Clouds 2 1029 80 10000 4.6 270 11:18 06.02.2020
3049 Clouds 2 1029 80 10000 4.1 270 10:56 06.02.2020
3050 Clouds 2 1029 80 10000 4.1 280 10:38 06.02.2020
3051 Clouds 2 1029 80 10000 4.1 280 10:18 06.02.2020
3052 Clouds 2 1029 80 10000 4.6 270 09:55 06.02.2020
3053 Clouds 2 1029 80 10000 4.1 280 09:36 06.02.2020
3054 Clouds 1 1029 80 10000 4.1 280 09:18 06.02.2020
3055 Clouds 1 1029 80 10000 4.1 270 08:40 06.02.2020
3056 Clouds 1 1029 74 10000 3.6 270 08:20 06.02.2020
3057 Clouds 1 1028 74 10000 3.1 260 07:46 06.02.2020
3058 Clouds 1 1028 80 10000 4.1 270 07:24 06.02.2020
3059 Clouds 1 1028 80 10000 3.6 260 06:21 06.02.2020
3060 Clouds 1 1028 80 10000 3.6 260 06:21 06.02.2020
3061 Clouds 1 1028 80 10000 3.6 260 06:21 06.02.2020
3062 Clouds 1 1028 80 10000 3.6 260 06:21 06.02.2020
3063 Clouds 1 1028 80 10000 3.6 260 06:21 06.02.2020
3064 Clouds 1 1029 74 10000 3.1 260 05:54 06.02.2020
3065 Clouds 0 1029 74 10000 3.1 250 04:22 06.02.2020
3066 Clouds 0 1030 74 10000 3.1 260 03:20 06.02.2020
3067 Clouds 0 1031 74 10000 3.6 260 02:28 06.02.2020
3068 Clouds 0 1032 74 10000 3.1 260 01:35 06.02.2020
3069 Clouds 0 1032 74 10000 2.6 260 00:58 06.02.2020
3070 Clouds 0 1032 74 10000 3.6 260 00:26 06.02.2020
3071 Clouds 0 1032 80 10000 4.1 250 23:46 05.02.2020
3072 Clouds 0 1032 80 10000 3.1 240 23:28 05.02.2020
3073 Clouds 0 1032 80 10000 3.1 240 22:58 05.02.2020
3074 Clouds 0 1032 80 10000 3.1 240 22:40 05.02.2020
3075 Clouds 0 1032 80 10000 3.6 250 22:21 05.02.2020
3076 Clouds 0 1032 80 10000 3.6 250 22:21 05.02.2020
3077 Clouds 0 1032 81 10000 2.1 230 21:43 05.02.2020
3078 Clouds 0 1032 81 10000 2.6 230 21:24 05.02.2020
3079 Clouds 0 1032 81 10000 2.6 260 20:59 05.02.2020
3080 Clouds -1 1032 81 10000 2.6 260 20:39 05.02.2020
3081 Clouds -1 1032 81 10000 3.1 280 20:39 05.02.2020
3082 Clouds -1 1032 92 10000 3.1 280 20:19 05.02.2020
3083 Clouds 0 1032 80 10000 3.6 280 19:57 05.02.2020
3084 Clouds 0 1032 80 10000 3.6 280 19:38 05.02.2020
3085 Clouds 0 1032 80 10000 4.1 270 19:19 05.02.2020
3086 Clouds 0 1032 80 10000 4.1 270 19:19 05.02.2020
3087 Clouds 0 1032 80 10000 4.1 270 19:19 05.02.2020
3088 Clouds 0 1032 80 10000 3.1 270 18:46 05.02.2020
3089 Clouds 1 1032 74 10000 2.1 290 18:22 05.02.2020
3090 Clouds 1 1032 69 10000 4.1 310 17:59 05.02.2020
3091 Clouds 1 1032 74 10000 3.1 320 17:38 05.02.2020
3092 Clouds 2 1032 74 10000 3.1 320 17:18 05.02.2020
3093 Clouds 2 1031 69 10000 3.1 310 16:56 05.02.2020
3094 Clouds 2 1031 64 10000 5.1 310 16:37 05.02.2020
3095 Clouds 3 1031 64 10000 5.1 310 16:18 05.02.2020
3096 Clouds 3 1031 69 10000 5.1 320 15:42 05.02.2020
3097 Clouds 3 1031 69 10000 4.1 330 15:19 05.02.2020
3098 Clouds 4 1031 64 10000 5.1 340 14:56 05.02.2020
3099 Clouds 4 1031 64 10000 5.1 340 14:37 05.02.2020
3100 Clouds 4 1031 69 10000 5.1 330 14:19 05.02.2020
3101 Clouds 3 1031 74 10000 6.2 340 13:42 05.02.2020
3102 Clouds 3 1030 80 10000 5.7 350 13:22 05.02.2020
3103 Clouds 3 1030 74 10000 5.7 350 12:55 05.02.2020
3104 Rain 3 1030 80 10000 6.7 350 12:36 05.02.2020
3105 Rain 2 1030 80 10000 6.7 350 12:18 05.02.2020
3106 Clouds 2 1030 75 10000 6.7 350 11:41 05.02.2020
3107 Rain 2 1029 80 10000 6.2 350 11:22 05.02.2020
3108 Rain 2 1028 85 10000 5.7 350 10:44 05.02.2020
3109 Rain 2 1028 85 10000 6.2 350 10:26 05.02.2020
3110 Rain 1 1027 85 10000 5.7 350 09:59 05.02.2020
3111 Rain 1 1026 85 10000 5.1 350 09:39 05.02.2020
3112 Rain 1 1026 85 10000 5.1 350 09:39 05.02.2020
3113 Rain 1 1026 85 10000 5.1 350 09:21 05.02.2020
3114 Rain 1 1026 85 6000 4.6 350 08:48 05.02.2020
3115 Clouds 1 1025 85 10000 4.1 350 08:25 05.02.2020
3116 Clouds 1 1024 87 10000 4.6 350 07:58 05.02.2020
3117 Clouds 1 1023 87 10000 6.7 350 07:39 05.02.2020
3118 Rain 1 1023 87 10000 6.7 350 07:18 05.02.2020
3119 Rain 2 1021 93 10000 7.2 340 06:39 05.02.2020
3120 Clouds 2 1021 93 10000 7.2 340 06:20 05.02.2020
3121 Rain 1 1019 98 9000 6.7 330 05:20 05.02.2020
3122 Rain 1 1017 98 9000 7.2 330 04:58 05.02.2020
3123 Rain 2 1017 80 10000 8.2 330 04:25 05.02.2020
3124 Rain 2 1015 80 10000 8.2 320 02:52 05.02.2020
3125 Clouds 2 1014 80 10000 8.7 320 02:21 05.02.2020
3126 Rain 2 1014 89 10000 6.2 320 01:29 05.02.2020
3127 Rain 2 1013 86 10000 7.2 320 00:24 05.02.2020
3128 Rain 3 1012 93 10000 6.7 310 23:40 04.02.2020
3129 Drizzle 3 1012 86 10000 7.2 290 23:21 04.02.2020
3130 Clouds 3 1012 86 10000 6.2 300 22:57 04.02.2020
3131 Rain 3 1012 86 10000 6.2 300 22:39 04.02.2020
3132 Rain 2 1012 93 10000 7.2 290 22:20 04.02.2020
3133 Rain 3 1012 86 10000 7.2 290 21:56 04.02.2020
3134 Rain 3 1012 86 10000 7.2 290 21:38 04.02.2020
3135 Rain 3 1012 86 10000 7.2 290 21:18 04.02.2020
3136 Rain 3 1012 86 10000 7.2 290 21:18 04.02.2020
3137 Rain 3 1011 86 10000 6.7 290 20:55 04.02.2020
3138 Clouds 3 1011 96 10000 6.7 290 20:37 04.02.2020
3139 Clouds 3 1011 80 10000 6.7 290 20:18 04.02.2020
3140 Clouds 3 1011 82 10000 6.7 290 19:43 04.02.2020
3141 Clouds 3 1011 86 10000 6.7 300 19:24 04.02.2020
3142 Clouds 3 1010 86 10000 6.7 290 18:59 04.02.2020
3143 Clouds 3 1010 86 10000 6.7 290 18:39 04.02.2020
3144 Clouds 3 1010 86 10000 4.6 290 18:21 04.02.2020
3145 Rain 3 1009 86 10000 5.7 300 17:56 04.02.2020
3146 Rain 3 1008 80 10000 7.7 310 17:38 04.02.2020
3147 Rain 3 1008 80 10000 7.7 310 17:19 04.02.2020
3148 Clouds 4 1007 75 10000 4.6 290 16:39 04.02.2020
3149 Clouds 4 1007 75 10000 4.6 290 16:20 04.02.2020
3150 Snow 4 1007 80 10000 4.6 290 15:57 04.02.2020
3151 Snow 4 1007 80 10000 4.6 290 15:39 04.02.2020
3152 Clouds 4 1007 74 10000 6.2 300 15:20 04.02.2020
3153 Clouds 4 1006 75 10000 7.7 300 14:55 04.02.2020
3154 Clouds 4 1006 75 10000 6.2 300 14:37 04.02.2020
3155 Rain 4 1006 75 10000 6.2 300 14:18 04.02.2020
3156 Rain 4 1006 80 10000 6.2 290 13:41 04.02.2020
3157 Clouds 4 1006 80 10000 6.2 300 13:23 04.02.2020
3158 Clouds 4 1006 80 10000 5.7 300 12:57 04.02.2020
3159 Clouds 4 1006 80 10000 5.7 300 12:38 04.02.2020
3160 Clouds 4 1006 86 10000 7.2 300 12:19 04.02.2020
3161 Clouds 4 1006 86 10000 6.7 300 11:55 04.02.2020
3162 Clouds 4 1006 86 10000 8.7 300 11:37 04.02.2020
3163 Clouds 4 1006 86 10000 8.7 300 11:18 04.02.2020
3164 Clouds 3 1005 86 10000 7.2 300 10:45 04.02.2020
3165 Clouds 3 1005 93 10000 7.7 300 10:26 04.02.2020
3166 Rain 2 1004 93 10000 4.6 290 09:57 04.02.2020
3167 Drizzle 2 1004 100 4500 4.1 300 09:38 04.02.2020
3168 Drizzle 2 1004 100 4500 4.1 300 09:19 04.02.2020
3169 Rain 2 1003 100 10000 4.6 310 08:45 04.02.2020
3170 Rain 2 1002 93 10000 5.7 320 08:27 04.02.2020
3171 Rain 2 1001 93 10000 5.1 330 07:50 04.02.2020
3172 Rain 2 1000 93 10000 6.7 330 07:24 04.02.2020
3173 Rain 2 1000 93 10000 6.7 330 07:24 04.02.2020
3174 Rain 2 999 93 10000 6.2 350 06:53 04.02.2020
3175 Rain 2 998 93 10000 6.2 360 06:34 04.02.2020
3176 Rain 3 998 93 10000 1.5 290 05:34 04.02.2020
3177 Rain 5 999 93 10000 1.5 280 04:27 04.02.2020
3178 Rain 5 1000 93 10000 3.1 220 03:46 04.02.2020
3179 Rain 5 1000 100 10000 1.5 240 03:27 04.02.2020
3180 Rain 6 1002 93 10000 4.1 190 02:37 04.02.2020
3181 Rain 6 1002 87 10000 3.6 180 01:58 04.02.2020
3182 Rain 6 1002 87 10000 3.6 180 01:39 04.02.2020
3183 Clouds 7 1004 81 10000 3.1 210 00:52 04.02.2020
3184 Clouds 7 1005 81 10000 1.5 240 00:23 04.02.2020
3185 Rain 7 1006 81 10000 3.6 270 23:48 03.02.2020
3186 Rain 7 1007 75 10000 4.6 260 23:28 03.02.2020
3187 Rain 7 1008 75 10000 3.6 250 22:58 03.02.2020
3188 Rain 8 1008 75 10000 3.6 250 22:38 03.02.2020
3189 Clouds 8 1008 75 10000 5.1 260 22:19 03.02.2020
3190 Rain 8 1008 75 10000 5.1 260 21:41 03.02.2020
3191 Clouds 8 1008 75 10000 4.6 260 21:20 03.02.2020
3192 Clouds 8 1009 81 10000 4.1 260 20:55 03.02.2020
3193 Clouds 8 1009 81 10000 4.6 260 20:37 03.02.2020
3194 Clouds 8 1009 81 10000 4.6 260 20:18 03.02.2020
3195 Clouds 8 1009 81 10000 5.1 260 19:41 03.02.2020
3196 Clouds 8 1009 81 10000 4.1 270 19:22 03.02.2020
3197 Clouds 7 1009 81 10000 4.6 260 18:57 03.02.2020
3198 Clouds 7 1009 81 10000 5.1 260 18:39 03.02.2020
3199 Clouds 7 1009 81 10000 5.1 260 18:21 03.02.2020
3200 Clouds 7 1009 81 10000 5.1 260 17:57 03.02.2020
3201 Clouds 7 1009 81 10000 5.1 260 17:57 03.02.2020
3202 Clouds 7 1009 81 10000 5.7 260 17:38 03.02.2020
3203 Rain 7 1009 81 10000 5.7 260 17:19 03.02.2020
3204 Rain 7 1009 81 10000 6.2 260 16:40 03.02.2020
3205 Rain 8 1009 81 10000 3.1 260 16:21 03.02.2020
3206 Rain 8 1009 81 10000 2.1 260 15:57 03.02.2020
3207 Rain 8 1009 81 10000 2.1 260 15:39 03.02.2020
3208 Clouds 9 1009 81 10000 2.6 280 15:20 03.02.2020
3209 Rain 9 1009 81 10000 3.1 270 14:57 03.02.2020
3210 Rain 9 1009 81 10000 3.1 270 14:39 03.02.2020
3211 Rain 9 1009 81 10000 3.6 280 14:21 03.02.2020
3212 Rain 9 1009 81 10000 4.1 260 13:43 03.02.2020
3213 Clouds 8 1009 87 10000 2.6 250 13:21 03.02.2020
3214 Rain 8 1009 93 10000 3.1 260 12:59 03.02.2020
3215 Rain 7 1009 93 10000 3.1 260 12:40 03.02.2020
3216 Rain 7 1010 100 10000 3.1 280 12:21 03.02.2020
3217 Rain 7 1010 93 10000 3.6 290 11:57 03.02.2020
3218 Rain 7 1009 93 8000 4.6 310 11:37 03.02.2020
3219 Rain 7 1009 93 8000 4.6 310 11:18 03.02.2020
3220 Rain 7 1009 93 9000 5.7 310 10:41 03.02.2020
3221 Rain 7 1009 93 10000 3.1 290 10:23 03.02.2020
3222 Rain 7 1009 93 10000 3.1 290 10:23 03.02.2020
3223 Rain 7 1009 87 10000 2.6 290 09:48 03.02.2020
3224 Rain 7 1008 87 10000 3.6 280 09:25 03.02.2020
3225 Rain 7 1008 87 10000 4.6 300 08:58 03.02.2020
3226 Rain 7 1008 87 10000 4.6 300 08:40 03.02.2020
3227 Rain 7 1007 87 10000 4.1 260 08:21 03.02.2020
3228 Rain 7 1007 87 10000 4.1 280 07:41 03.02.2020
3229 Rain 7 1007 93 10000 3.1 290 07:21 03.02.2020
3230 Rain 7 1007 93 8000 2.1 280 06:55 03.02.2020
3231 Rain 7 1007 93 8000 2.1 260 06:30 03.02.2020
3232 Rain 7 1007 93 8000 2.6 270 05:48 03.02.2020
3233 Rain 7 1007 93 10000 3.6 290 05:30 03.02.2020
3234 Rain 7 1007 93 6000 1.5 240 04:35 03.02.2020
3235 Clouds 8 1007 87 10000 4.1 310 02:38 03.02.2020
3236 Clouds 8 1007 87 10000 4.1 310 02:38 03.02.2020
3237 Rain 8 1007 87 10000 3.6 310 02:18 03.02.2020
3238 Drizzle 8 1006 100 5000 4.1 290 00:48 03.02.2020
3239 Rain 8 1006 87 10000 3.6 290 00:25 03.02.2020
3240 Clouds 8 1006 87 10000 4.1 290 23:55 02.02.2020
3241 Clouds 8 1006 87 10000 3.6 280 23:36 02.02.2020
3242 Clouds 8 1006 87 10000 3.6 280 23:18 02.02.2020
3243 Rain 7 1005 93 10000 4.1 270 22:39 02.02.2020
3244 Rain 7 1005 93 10000 4.1 270 22:21 02.02.2020
3245 Clouds 7 1005 93 10000 3.1 250 21:57 02.02.2020
3246 Clouds 7 1005 93 10000 3.1 250 21:38 02.02.2020
3247 Clouds 7 1005 93 10000 3.1 250 21:38 02.02.2020
3248 Clouds 7 1005 100 8000 1.5 240 21:20 02.02.2020
3249 Drizzle 6 1005 100 3200 1 0 20:57 02.02.2020
3250 Drizzle 6 1005 100 3200 1 0 20:39 02.02.2020
3251 Drizzle 6 1005 100 3000 1.5 340 20:20 02.02.2020
3252 Drizzle 6 1005 100 3000 1.5 340 20:20 02.02.2020
3253 Drizzle 6 1004 100 2700 1.5 310 19:57 02.02.2020
3254 Drizzle 6 1004 100 2700 1.5 310 19:38 02.02.2020
3255 Drizzle 6 1004 100 3200 1 0 19:20 02.02.2020
3256 Rain 6 1004 100 5000 2.6 60 18:55 02.02.2020
3257 Rain 6 1004 100 4500 1.5 90 18:37 02.02.2020
3258 Rain 6 1004 100 4500 1.5 90 18:18 02.02.2020
3259 Rain 6 1004 100 3000 1.5 90 17:57 02.02.2020
3260 Rain 6 1004 100 2800 1.5 30 17:37 02.02.2020
3261 Rain 6 1004 100 2800 1.5 30 17:18 02.02.2020
3262 Rain 6 1004 87 4800 1.5 110 16:56 02.02.2020
3263 Rain 6 1004 87 8000 1.5 100 16:37 02.02.2020
3264 Rain 6 1004 87 8000 1.5 100 16:18 02.02.2020
3265 Rain 6 1005 87 10000 0.5 0 15:55 02.02.2020
3266 Rain 7 1006 75 10000 2.1 260 15:36 02.02.2020
3267 Rain 7 1006 75 10000 2.1 260 15:18 02.02.2020
3268 Rain 7 1007 75 10000 3.1 260 14:43 02.02.2020
3269 Rain 7 1007 70 10000 4.1 240 14:19 02.02.2020
3270 Rain 8 1007 70 10000 5.7 250 13:59 02.02.2020
3271 Rain 8 1007 70 10000 5.7 250 13:41 02.02.2020
3272 Clouds 8 1008 65 10000 4.6 250 13:20 02.02.2020
3273 Clouds 8 1008 70 10000 6.7 250 12:56 02.02.2020
3274 Clouds 8 1008 70 10000 6.7 250 12:38 02.02.2020
3275 Clouds 8 1009 70 10000 6.2 250 12:18 02.02.2020
3276 Clouds 8 1009 65 10000 7.2 250 11:42 02.02.2020
3277 Clouds 8 1009 65 10000 6.2 260 11:19 02.02.2020
3278 Clouds 8 1009 65 10000 6.2 250 10:58 02.02.2020
3279 Clouds 8 1009 65 10000 6.2 250 10:39 02.02.2020
3280 Clouds 8 1009 75 10000 6.2 250 10:21 02.02.2020
3281 Clouds 8 1009 75 10000 6.7 250 09:59 02.02.2020
3282 Clouds 7 1009 75 10000 6.7 250 09:39 02.02.2020
3283 Rain 7 1009 75 10000 6.2 250 09:20 02.02.2020
3284 Rain 7 1009 75 10000 6.2 250 09:20 02.02.2020
3285 Clouds 7 1009 75 10000 6.2 240 08:46 02.02.2020
3286 Rain 7 1009 75 10000 6.7 240 08:26 02.02.2020
3287 Clouds 7 1009 70 10000 7.7 250 07:48 02.02.2020
3288 Clouds 7 1009 70 10000 6.7 250 07:30 02.02.2020
3289 Clouds 7 1008 70 10000 6.2 250 06:56 02.02.2020
3290 Clouds 6 1008 70 10000 6.7 250 06:37 02.02.2020
3291 Clouds 6 1008 70 10000 6.7 250 06:18 02.02.2020
3292 Rain 7 1008 70 10000 7.7 260 05:19 02.02.2020
3293 Rain 6 1008 75 10000 4.1 260 03:43 02.02.2020
3294 Rain 7 1008 75 10000 5.7 270 03:22 02.02.2020
3295 Clouds 7 1007 81 10000 5.1 260 02:20 02.02.2020
3296 Rain 7 1006 87 10000 5.1 270 01:50 02.02.2020
3297 Rain 8 1005 87 10000 7.7 290 00:51 02.02.2020
3298 Clouds 9 1005 81 10000 4.6 270 00:25 02.02.2020
3299 Rain 9 1005 93 8000 7.7 290 23:58 01.02.2020
3300 Clouds 9 1004 81 10000 5.1 250 23:39 01.02.2020
3301 Clouds 9 1004 81 10000 5.1 250 23:21 01.02.2020
3302 Clouds 10 1004 81 10000 5.7 250 22:43 01.02.2020
3303 Rain 10 1004 81 10000 5.7 260 22:19 01.02.2020
3304 Clouds 10 1003 87 10000 5.1 250 21:42 01.02.2020
3305 Rain 10 1003 87 10000 5.1 260 21:19 01.02.2020
3306 Clouds 10 1003 81 10000 6.2 260 20:56 01.02.2020
3307 Clouds 10 1003 81 10000 6.2 260 20:38 01.02.2020
3308 Clouds 10 1003 81 10000 5.1 260 20:19 01.02.2020
3309 Clouds 10 1002 87 10000 5.1 260 19:56 01.02.2020
3310 Rain 10 1002 87 10000 4.6 250 19:37 01.02.2020
3311 Rain 10 1002 87 10000 4.6 250 19:18 01.02.2020
3312 Rain 10 1002 87 10000 4.6 240 18:55 01.02.2020
3313 Rain 11 1001 87 10000 5.7 230 18:37 01.02.2020
3314 Rain 11 1001 87 10000 5.7 230 18:19 01.02.2020
3315 Rain 11 1002 93 10000 5.7 230 17:55 01.02.2020
3316 Rain 11 1002 93 10000 6.2 230 17:37 01.02.2020
3317 Rain 11 1002 93 10000 6.2 230 17:18 01.02.2020
3318 Rain 12 1002 71 10000 6.7 230 16:41 01.02.2020
3319 Rain 12 1002 71 10000 6.7 230 16:21 01.02.2020
3320 Rain 12 1002 71 10000 6.7 240 15:47 01.02.2020
3321 Clouds 13 1002 62 10000 7.2 240 15:29 01.02.2020
3322 Clouds 13 1002 62 10000 8.2 240 15:00 01.02.2020
3323 Clouds 13 1002 62 10000 8.2 240 14:40 01.02.2020
3324 Clouds 13 1002 62 10000 7.7 230 14:20 01.02.2020
3325 Clouds 14 1003 62 10000 8.2 240 13:45 01.02.2020
3326 Clouds 14 1003 62 10000 8.2 240 13:24 01.02.2020
3327 Clouds 14 1003 62 10000 8.2 240 13:24 01.02.2020
3328 Clouds 14 1004 62 10000 4.6 240 12:56 01.02.2020
3329 Clouds 14 1004 62 10000 4.6 240 12:38 01.02.2020
3330 Clouds 14 1004 62 10000 6.2 230 12:20 01.02.2020
3331 Clouds 14 1004 62 10000 6.2 230 12:20 01.02.2020
3332 Clouds 13 1004 66 10000 6.7 230 11:39 01.02.2020
3333 Clouds 13 1004 66 10000 7.2 240 11:21 01.02.2020
3334 Clouds 13 1005 66 10000 6.2 240 10:58 01.02.2020
3335 Clouds 13 1005 66 10000 6.2 240 10:39 01.02.2020
3336 Clouds 12 1005 66 10000 6.7 240 10:21 01.02.2020
3337 Clouds 12 1005 71 10000 5.7 230 09:58 01.02.2020
3338 Clouds 12 1005 66 10000 5.1 230 09:40 01.02.2020
3339 Clouds 11 1005 66 10000 5.1 230 09:20 01.02.2020
3340 Clouds 11 1005 66 10000 5.7 220 08:49 01.02.2020
3341 Clouds 11 1005 66 10000 3.6 230 07:51 01.02.2020
3342 Clouds 11 1005 71 10000 7.2 220 07:28 01.02.2020
3343 Clouds 11 1005 71 10000 7.2 220 07:28 01.02.2020
3344 Clouds 11 1006 66 10000 6.2 220 06:59 01.02.2020
3345 Clouds 11 1006 66 10000 6.2 220 06:40 01.02.2020
3346 Clouds 11 1006 71 10000 6.2 220 05:53 01.02.2020
3347 Clouds 11 1007 76 10000 6.2 220 04:22 01.02.2020
3348 Clouds 11 1008 76 10000 4.6 220 03:25 01.02.2020
3349 Clouds 10 1008 76 10000 5.1 220 02:50 01.02.2020
3350 Clouds 10 1008 76 10000 4.6 220 02:30 01.02.2020
3351 Clouds 10 1008 71 10000 4.1 230 01:56 01.02.2020
3352 Clouds 10 1009 76 10000 5.7 240 01:37 01.02.2020
3353 Clouds 10 1009 76 10000 5.1 240 00:46 01.02.2020
3354 Clouds 10 1009 76 10000 5.7 240 00:23 01.02.2020
3355 Clouds 11 1008 76 10000 5.7 230 23:39 31.01.2020
3356 Clouds 11 1008 76 10000 5.7 230 23:18 31.01.2020
3357 Clouds 11 1008 76 10000 5.7 240 22:55 31.01.2020
3358 Clouds 11 1009 76 10000 6.2 240 22:37 31.01.2020
3359 Clouds 11 1009 76 10000 6.2 240 22:19 31.01.2020
3360 Clouds 10 1009 76 10000 4.6 230 21:40 31.01.2020
3361 Clouds 11 1009 76 10000 4.6 230 21:21 31.01.2020
3362 Clouds 11 1008 76 10000 4.1 220 20:57 31.01.2020
3363 Clouds 11 1008 71 10000 4.1 230 20:39 31.01.2020
3364 Clouds 11 1008 71 10000 4.1 230 20:21 31.01.2020
3365 Clouds 10 1008 71 10000 4.1 230 20:00 31.01.2020
3366 Clouds 10 1008 71 10000 4.1 230 19:40 31.01.2020
3367 Clouds 10 1008 71 10000 4.1 230 19:22 31.01.2020
3368 Clouds 10 1008 71 10000 4.1 230 19:22 31.01.2020
3369 Clouds 10 1008 76 10000 3.1 230 18:58 31.01.2020
3370 Clouds 10 1008 76 10000 3.1 230 18:38 31.01.2020
3371 Clouds 10 1008 81 10000 3.1 220 18:19 31.01.2020
3372 Clouds 10 1008 71 10000 2.6 240 17:44 31.01.2020
3373 Clouds 10 1008 71 10000 3.1 240 17:26 31.01.2020
3374 Clouds 11 1008 66 10000 3.1 260 16:57 31.01.2020
3375 Clouds 11 1008 66 10000 3.1 260 16:38 31.01.2020
3376 Clouds 12 1008 66 10000 4.1 270 16:19 31.01.2020
3377 Clouds 12 1008 62 10000 4.6 280 15:58 31.01.2020
3378 Clouds 12 1008 62 10000 4.6 280 15:39 31.01.2020
3379 Clouds 12 1008 62 10000 6.2 270 15:20 31.01.2020
3380 Clouds 12 1007 62 10000 6.7 270 14:43 31.01.2020
3381 Clouds 12 1007 66 10000 5.1 280 14:24 31.01.2020
3382 Clouds 13 1007 66 10000 5.7 280 13:56 31.01.2020
3383 Clouds 12 1007 66 10000 9.3 290 13:37 31.01.2020
3384 Clouds 12 1007 66 10000 9.3 290 13:18 31.01.2020
3385 Clouds 12 1007 62 10000 7.2 290 12:43 31.01.2020
3386 Clouds 12 1006 62 10000 8.2 280 12:23 31.01.2020
3387 Clouds 12 1006 62 10000 7.2 280 11:55 31.01.2020
3388 Clouds 12 1006 62 10000 7.7 280 11:37 31.01.2020
3389 Clouds 12 1006 62 10000 7.7 280 11:18 31.01.2020
3390 Clouds 11 1005 71 10000 6.7 280 10:43 31.01.2020
3391 Clouds 11 1005 71 10000 6.7 280 10:22 31.01.2020
3392 Clouds 11 1005 71 10000 8.2 290 09:57 31.01.2020
3393 Clouds 11 1004 76 10000 6.7 280 09:39 31.01.2020
3394 Clouds 11 1004 76 10000 6.7 280 09:19 31.01.2020
3395 Clouds 10 1004 87 10000 5.7 280 08:52 31.01.2020
3396 Clouds 10 1003 87 10000 6.2 280 08:27 31.01.2020
3397 Clouds 10 1003 87 10000 6.2 270 07:54 31.01.2020
3398 Clouds 10 1002 81 10000 7.2 270 07:26 31.01.2020
3399 Rain 10 1002 81 10000 6.7 270 06:59 31.01.2020
3400 Rain 10 1001 87 10000 5.7 280 06:20 31.01.2020
3401 Clouds 10 1001 87 10000 7.2 250 05:50 31.01.2020
3402 Clouds 10 1000 81 10000 8.7 250 04:56 31.01.2020
3403 Clouds 9 1000 76 10000 8.7 240 03:26 31.01.2020
3404 Clouds 7 1001 70 10000 7.2 220 01:40 31.01.2020
3405 Rain 7 1001 70 10000 6.2 200 00:46 31.01.2020
3406 Clouds 7 1002 70 10000 5.1 210 00:27 31.01.2020
3407 Clouds 6 1003 75 10000 4.1 180 23:57 30.01.2020
3408 Clouds 6 1003 79 10000 4.1 200 23:26 30.01.2020
3409 Clouds 5 1004 60 10000 4.1 180 22:58 30.01.2020
3410 Clouds 5 1004 65 10000 4.6 190 22:38 30.01.2020
3411 Clouds 5 1004 65 10000 4.6 190 22:19 30.01.2020
3412 Clouds 5 1005 64 10000 5.1 200 21:57 30.01.2020
3413 Clouds 5 1005 64 10000 5.1 200 21:39 30.01.2020
3414 Clouds 4 1005 64 10000 4.1 190 21:18 30.01.2020
3415 Clouds 4 1005 64 10000 4.1 190 21:18 30.01.2020
3416 Clouds 5 1006 64 10000 5.1 190 20:55 30.01.2020
3417 Clouds 4 1007 80 10000 4.6 190 20:37 30.01.2020
3418 Clouds 4 1007 80 10000 4.6 190 20:18 30.01.2020
3419 Clouds 4 1007 78 10000 4.1 180 19:42 30.01.2020
3420 Clouds 4 1007 75 10000 3.6 190 19:19 30.01.2020
3421 Clouds 5 1008 75 10000 3.6 210 18:43 30.01.2020
3422 Clouds 5 1007 70 10000 5.1 200 18:24 30.01.2020
3423 Clouds 6 1008 70 10000 5.1 210 17:59 30.01.2020
3424 Clouds 6 1008 70 10000 5.1 210 17:40 30.01.2020
3425 Clouds 6 1008 70 10000 4.6 220 17:19 30.01.2020
3426 Clouds 6 1009 65 10000 5.1 240 16:58 30.01.2020
3427 Clouds 6 1009 65 10000 5.1 240 16:39 30.01.2020
3428 Clouds 7 1009 65 10000 4.6 250 16:21 30.01.2020
3429 Clouds 7 1009 65 10000 5.7 250 15:44 30.01.2020
3430 Clouds 7 1009 65 10000 6.2 260 15:21 30.01.2020
3431 Clouds 7 1009 65 10000 6.2 260 15:21 30.01.2020
3432 Clouds 7 1009 65 10000 7.7 250 14:57 30.01.2020
3433 Clouds 7 1009 65 10000 7.7 250 14:37 30.01.2020
3434 Clouds 7 1009 65 10000 6.7 250 14:19 30.01.2020
3435 Clouds 7 1009 65 10000 8.2 240 13:41 30.01.2020
3436 Clouds 7 1009 65 10000 8.2 240 13:41 30.01.2020
3437 Clouds 7 1009 65 10000 6.7 240 13:23 30.01.2020
3438 Clouds 7 1009 65 10000 6.7 250 12:55 30.01.2020
3439 Clouds 7 1009 65 10000 5.7 250 12:37 30.01.2020
3440 Clouds 7 1009 65 10000 5.7 250 12:37 30.01.2020
3441 Clouds 7 1009 65 10000 5.7 250 12:18 30.01.2020
3442 Clouds 6 1010 70 10000 7.7 250 11:41 30.01.2020
3443 Clouds 6 1010 70 10000 7.2 240 11:22 30.01.2020
3444 Clouds 6 1010 70 10000 6.7 240 10:59 30.01.2020
3445 Clouds 5 1010 70 10000 6.7 240 10:40 30.01.2020
3446 Clouds 5 1010 70 10000 7.2 240 10:20 30.01.2020
3447 Clouds 5 1010 75 10000 6.7 240 09:45 30.01.2020
3448 Clouds 5 1010 75 10000 6.7 240 09:25 30.01.2020
3449 Clouds 4 1010 75 10000 6.2 230 08:43 30.01.2020
3450 Clouds 4 1010 75 10000 6.7 220 08:22 30.01.2020
3451 Clouds 4 1011 84 10000 4.6 220 07:59 30.01.2020
3452 Clouds 4 1011 84 10000 4.6 220 07:41 30.01.2020
3453 Clouds 3 1011 84 10000 5.1 230 07:18 30.01.2020
3454 Clouds 3 1011 84 10000 5.1 240 06:44 30.01.2020
3455 Clouds 3 1011 74 10000 4.6 220 06:26 30.01.2020
3456 Clouds 3 1011 74 10000 4.6 230 05:39 30.01.2020
3457 Clouds 3 1011 74 10000 4.6 230 05:19 30.01.2020
3458 Clouds 3 1012 74 10000 4.1 250 03:48 30.01.2020
3459 Clouds 3 1012 74 10000 5.7 250 03:24 30.01.2020
3460 Clouds 3 1011 74 10000 5.7 270 01:35 30.01.2020
3461 Clouds 3 1011 86 10000 6.2 270 00:37 30.01.2020
3462 Clouds 3 1011 86 10000 6.2 270 00:19 30.01.2020
3463 Clouds 3 1011 86 10000 6.2 270 00:19 30.01.2020
3464 Clouds 3 1010 86 10000 6.2 270 23:44 29.01.2020
3465 Clouds 3 1010 86 10000 5.7 270 23:20 29.01.2020
3466 Clouds 3 1009 86 10000 5.7 270 22:56 29.01.2020
3467 Clouds 3 1009 86 10000 5.1 270 22:38 29.01.2020
3468 Rain 3 1009 86 10000 5.1 270 22:19 29.01.2020
3469 Rain 3 1008 93 10000 5.7 260 21:57 29.01.2020
3470 Rain 3 1008 86 10000 7.2 260 21:37 29.01.2020
3471 Rain 3 1008 86 10000 7.2 260 21:18 29.01.2020
3472 Clouds 3 1008 86 10000 5.7 260 20:57 29.01.2020
3473 Clouds 3 1008 86 10000 5.7 260 20:57 29.01.2020
3474 Clouds 3 1007 86 10000 6.2 260 20:37 29.01.2020
3475 Clouds 3 1007 83 10000 6.2 260 20:18 29.01.2020
3476 Clouds 3 1007 83 10000 6.7 270 19:55 29.01.2020
3477 Clouds 3 1006 69 10000 6.2 270 19:36 29.01.2020
3478 Clouds 4 1006 69 10000 6.2 270 19:18 29.01.2020
3479 Clouds 4 1006 69 10000 5.7 250 18:40 29.01.2020
3480 Clouds 4 1005 69 10000 4.6 250 18:19 29.01.2020
3481 Clouds 4 1005 64 10000 5.7 250 17:55 29.01.2020
3482 Clouds 4 1005 69 10000 4.6 250 17:36 29.01.2020
3483 Snow 4 1005 69 10000 4.6 250 17:18 29.01.2020
3484 Clouds 4 1004 65 10000 6.2 250 16:40 29.01.2020
3485 Clouds 4 1004 65 10000 6.2 250 16:20 29.01.2020
3486 Clouds 4 1004 65 10000 7.7 260 15:40 29.01.2020
3487 Clouds 5 1004 65 10000 7.7 260 15:22 29.01.2020
3488 Clouds 4 1004 65 10000 5.7 260 14:58 29.01.2020
3489 Clouds 5 1004 65 10000 5.7 260 14:40 29.01.2020
3490 Clouds 5 1003 65 10000 7.7 260 14:19 29.01.2020
3491 Clouds 5 1003 65 10000 8.2 260 13:41 29.01.2020
3492 Clouds 5 1003 65 10000 8.7 270 13:22 29.01.2020
3493 Clouds 5 1003 65 10000 8.2 260 12:58 29.01.2020
3494 Clouds 5 1003 65 10000 8.2 260 12:39 29.01.2020
3495 Clouds 4 1003 69 10000 7.2 260 12:21 29.01.2020
3496 Clouds 4 1003 69 10000 7.7 260 11:58 29.01.2020
3497 Clouds 4 1003 69 10000 7.7 260 11:39 29.01.2020
3498 Rain 4 1003 69 10000 7.7 260 11:19 29.01.2020
3499 Clouds 4 1002 69 10000 6.7 260 10:46 29.01.2020
3500 Rain 4 1002 69 10000 8.2 260 10:22 29.01.2020
3501 Clouds 3 1002 74 10000 5.7 240 09:57 29.01.2020
3502 Clouds 3 1002 74 10000 5.7 240 09:39 29.01.2020
3503 Clouds 3 1002 74 10000 5.7 240 09:18 29.01.2020
3504 Clouds 3 1002 69 10000 5.1 250 08:41 29.01.2020
3505 Clouds 2 1001 69 10000 5.1 250 08:22 29.01.2020
3506 Clouds 2 1001 74 10000 5.1 250 07:45 29.01.2020
3507 Clouds 2 1001 69 10000 5.1 250 07:26 29.01.2020
3508 Clouds 2 1000 69 10000 5.1 240 06:56 29.01.2020
3509 Clouds 2 1000 69 10000 4.6 230 06:37 29.01.2020
3510 Clouds 2 1000 69 10000 4.6 230 06:19 29.01.2020
3511 Clouds 2 1000 69 10000 6.2 250 05:50 29.01.2020
3512 Clouds 2 999 69 10000 6.7 250 05:31 29.01.2020
3513 Snow 2 999 69 10000 7.2 250 04:38 29.01.2020
3514 Clouds 2 999 69 10000 6.2 260 03:59 29.01.2020
3515 Clouds 3 998 69 10000 6.7 240 02:34 29.01.2020
3516 Clouds 2 999 69 10000 6.2 240 01:18 29.01.2020
3517 Clouds 2 999 69 10000 6.7 240 00:38 29.01.2020
3518 Clouds 3 999 69 10000 6.7 240 00:20 29.01.2020
3519 Clouds 3 998 69 10000 6.2 240 23:39 28.01.2020
3520 Clouds 3 998 69 10000 5.7 250 23:19 28.01.2020
3521 Clouds 3 998 69 10000 6.7 250 22:49 28.01.2020
3522 Clouds 3 997 69 10000 6.7 250 22:27 28.01.2020
3523 Clouds 3 997 69 10000 6.2 250 21:57 28.01.2020
3524 Clouds 3 997 69 10000 6.2 250 21:38 28.01.2020
3525 Clouds 3 997 74 10000 5.7 240 21:19 28.01.2020
3526 Clouds 3 997 74 10000 6.2 240 20:46 28.01.2020
3527 Clouds 3 997 69 10000 6.7 250 20:26 28.01.2020
3528 Snow 3 996 74 10000 6.7 240 19:56 28.01.2020
3529 Snow 3 996 74 10000 6.7 240 19:37 28.01.2020
3530 Snow 3 996 74 10000 6.7 250 19:19 28.01.2020
3531 Clouds 3 996 74 10000 6.7 250 18:54 28.01.2020
3532 Clouds 3 996 72 10000 5.7 250 18:36 28.01.2020
3533 Clouds 3 996 72 10000 5.7 250 18:18 28.01.2020
3534 Rain 3 995 72 10000 5.1 230 17:54 28.01.2020
3535 Rain 3 995 72 10000 8.2 260 17:36 28.01.2020
3536 Rain 4 995 72 10000 8.2 260 17:18 28.01.2020
3537 Rain 4 995 80 10000 8.2 250 16:44 28.01.2020
3538 Clouds 4 994 75 10000 6.7 260 16:25 28.01.2020
3539 Rain 5 993 70 10000 7.2 250 15:59 28.01.2020
3540 Rain 5 993 70 10000 7.2 250 15:40 28.01.2020
3541 Rain 5 993 75 10000 7.2 240 15:18 28.01.2020
3542 Rain 5 992 80 10000 6.7 240 14:44 28.01.2020
3543 Rain 6 992 70 10000 7.2 190 14:20 28.01.2020
3544 Clouds 6 992 75 10000 6.2 170 13:43 28.01.2020
3545 Clouds 6 993 75 10000 5.7 170 13:25 28.01.2020
3546 Rain 7 993 75 10000 5.7 170 12:56 28.01.2020
3547 Clouds 7 994 75 10000 5.7 170 12:38 28.01.2020
3548 Clouds 7 994 75 10000 5.7 170 12:20 28.01.2020
3549 Clouds 7 994 70 10000 7.2 200 11:41 28.01.2020
3550 Clouds 7 994 70 10000 7.2 200 11:41 28.01.2020
3551 Clouds 7 995 75 10000 8.7 200 11:22 28.01.2020
3552 Clouds 7 995 70 10000 7.7 200 10:55 28.01.2020
3553 Clouds 6 996 81 10000 6.2 200 10:37 28.01.2020
3554 Clouds 7 996 81 10000 6.2 200 10:18 28.01.2020
3555 Clouds 6 996 81 10000 6.2 200 09:42 28.01.2020
3556 Clouds 5 996 81 10000 8.2 190 09:20 28.01.2020
3557 Clouds 5 997 81 10000 7.2 200 08:46 28.01.2020
3558 Rain 5 997 81 10000 7.2 200 08:26 28.01.2020
3559 Rain 6 997 93 10000 5.7 210 07:57 28.01.2020
3560 Rain 6 997 86 10000 7.2 190 07:36 28.01.2020
3561 Rain 6 997 80 10000 7.2 180 06:49 28.01.2020
3562 Rain 6 997 80 10000 8.2 180 06:25 28.01.2020
3563 Clouds 6 997 80 10000 8.7 180 05:53 28.01.2020
3564 Clouds 6 998 75 10000 8.2 180 05:24 28.01.2020
3565 Clouds 5 1000 86 10000 6.7 160 03:57 28.01.2020
3566 Clouds 5 1001 80 10000 5.1 160 02:58 28.01.2020
3567 Clouds 5 1001 80 10000 5.1 170 02:25 28.01.2020
3568 Clouds 5 1002 80 10000 4.1 160 01:57 28.01.2020
3569 Clouds 5 1002 80 10000 3.6 140 01:23 28.01.2020
3570 Clouds 5 1003 80 10000 4.6 160 00:45 28.01.2020
3571 Clouds 5 1004 80 10000 4.6 160 00:24 28.01.2020
3572 Clouds 5 1004 80 10000 5.1 170 23:48 27.01.2020
3573 Clouds 5 1004 80 10000 4.1 150 23:29 27.01.2020
3574 Clouds 5 1005 80 10000 5.7 160 22:55 27.01.2020
3575 Clouds 5 1005 80 10000 6.7 160 22:36 27.01.2020
3576 Clouds 5 1005 80 10000 6.7 160 22:18 27.01.2020
3577 Clouds 5 1006 80 10000 6.7 150 21:54 27.01.2020
3578 Rain 5 1006 80 10000 6.2 160 21:36 27.01.2020
3579 Rain 5 1006 80 10000 6.2 160 21:18 27.01.2020
3580 Rain 5 1007 80 10000 5.7 160 20:42 27.01.2020
3581 Rain 5 1007 80 10000 6.7 170 20:22 27.01.2020
3582 Clouds 5 1008 86 10000 5.7 160 19:59 27.01.2020
3583 Clouds 5 1008 86 10000 5.7 160 19:40 27.01.2020
3584 Clouds 5 1008 86 10000 5.1 150 19:22 27.01.2020
3585 Clouds 4 1008 80 10000 5.7 150 18:56 27.01.2020
3586 Clouds 5 1009 80 10000 5.1 150 18:37 27.01.2020
3587 Clouds 5 1009 80 10000 5.1 150 18:37 27.01.2020
3588 Clouds 5 1009 80 10000 5.1 150 18:19 27.01.2020
3589 Clouds 4 1009 80 10000 5.7 160 17:39 27.01.2020
3590 Clouds 4 1009 80 10000 5.7 160 17:39 27.01.2020
3591 Clouds 5 1010 75 10000 5.1 150 17:20 27.01.2020
3592 Clouds 5 1010 75 10000 5.1 150 16:59 27.01.2020
3593 Clouds 5 1010 75 10000 5.1 150 16:40 27.01.2020
3594 Clouds 5 1010 75 10000 5.7 150 16:22 27.01.2020
3595 Clouds 5 1010 75 10000 4.6 150 15:55 27.01.2020
3596 Clouds 6 1010 70 10000 5.1 150 15:36 27.01.2020
3597 Clouds 6 1010 70 10000 5.1 150 15:36 27.01.2020
3598 Clouds 6 1010 70 10000 5.1 150 15:18 27.01.2020
3599 Clouds 6 1011 70 10000 5.1 150 14:42 27.01.2020
3600 Clouds 7 1011 70 10000 5.1 150 14:22 27.01.2020
3601 Clouds 8 1011 70 10000 5.1 140 13:58 27.01.2020
3602 Clouds 8 1012 70 10000 3.6 150 13:39 27.01.2020
3603 Clouds 8 1012 70 10000 3.6 150 13:19 27.01.2020
3604 Clouds 8 1012 70 10000 3.1 130 12:54 27.01.2020
3605 Clouds 7 1012 75 10000 2.6 180 12:36 27.01.2020
3606 Clouds 7 1012 75 10000 2.6 180 12:18 27.01.2020
3607 Clouds 7 1013 75 10000 3.6 150 11:41 27.01.2020
3608 Clouds 5 1013 80 10000 4.1 160 11:20 27.01.2020
3609 Clouds 5 1013 75 10000 4.1 160 10:43 27.01.2020
3610 Clouds 4 1013 86 10000 4.1 160 10:24 27.01.2020
3611 Clouds 3 1014 77 10000 3.6 160 09:56 27.01.2020
3612 Clouds 3 1014 77 10000 3.1 140 09:38 27.01.2020
3613 Clouds 2 1014 77 10000 3.1 140 09:18 27.01.2020
3614 Clouds 2 1014 77 10000 2.1 190 08:42 27.01.2020
3615 Clouds 2 1014 83 10000 1.5 0 08:20 27.01.2020
3616 Clouds 2 1014 83 10000 1.5 150 07:54 27.01.2020
3617 Clouds 2 1014 83 10000 1.5 150 07:54 27.01.2020
3618 Clouds 2 1015 83 10000 2.6 180 07:33 27.01.2020
3619 Clouds 2 1014 83 10000 3.6 150 06:53 27.01.2020
3620 Rain 2 1014 83 10000 3.1 170 06:25 27.01.2020
3621 Clouds 2 1015 83 10000 2.1 160 05:23 27.01.2020
3622 Clouds 1 1015 87 10000 1.5 180 03:49 27.01.2020
3623 Clouds 1 1015 87 9000 2.6 160 02:38 27.01.2020
3624 Clouds 2 1016 85 9000 1 0 01:29 27.01.2020
3625 Clouds 2 1016 84 9000 2.6 160 00:58 27.01.2020
3626 Drizzle 2 1016 84 9000 2.6 170 00:37 27.01.2020
3627 Drizzle 2 1016 84 9000 2.6 170 00:18 27.01.2020
3628 Drizzle 2 1016 86 9000 3.6 160 23:41 26.01.2020
3629 Drizzle 2 1016 86 9000 3.6 160 23:41 26.01.2020
3630 Clouds 2 1016 86 10000 2.6 180 23:19 26.01.2020
3631 Clouds 2 1017 86 10000 2.6 200 22:55 26.01.2020
3632 Rain 2 1017 86 10000 2.6 160 22:37 26.01.2020
3633 Rain 2 1017 86 10000 2.6 160 22:18 26.01.2020
3634 Clouds 1 1017 86 10000 3.1 160 21:56 26.01.2020
3635 Clouds 2 1017 86 10000 3.1 160 21:38 26.01.2020
3636 Clouds 2 1017 86 10000 3.1 170 21:19 26.01.2020
3637 Clouds 1 1017 86 10000 3.1 180 20:55 26.01.2020
3638 Clouds 2 1017 80 10000 2.6 160 20:36 26.01.2020
3639 Clouds 2 1017 80 10000 2.6 160 20:18 26.01.2020
3640 Clouds 1 1017 79 10000 2.1 190 19:56 26.01.2020
3641 Clouds 1 1017 79 10000 2.1 160 19:37 26.01.2020
3642 Clouds 1 1017 79 10000 2.1 160 19:18 26.01.2020
3643 Clouds 1 1017 79 10000 3.1 170 18:41 26.01.2020
3644 Clouds 2 1017 86 10000 2.6 170 18:22 26.01.2020
3645 Clouds 2 1017 86 10000 2.6 180 17:59 26.01.2020
3646 Clouds 2 1017 86 10000 2.6 180 17:39 26.01.2020
3647 Clouds 2 1017 86 10000 2.1 170 17:20 26.01.2020
3648 Clouds 1 1017 86 10000 2.1 160 16:58 26.01.2020
3649 Clouds 1 1017 86 10000 2.1 160 16:40 26.01.2020
3650 Clouds 2 1017 80 10000 3.1 160 16:21 26.01.2020
3651 Clouds 2 1019 83 0 0.45 202 15:58 26.01.2020
3652 Clouds 2 1019 83 0 0.45 202 15:58 26.01.2020
3653 Clouds 2 979 91 0 0.84 213 15:40 26.01.2020
3654 Clouds 2 979 93 0 0.89 109 15:19 26.01.2020
3655 Clouds 2 1018 90 0 0.89 337 14:41 26.01.2020
3656 Clouds 2 1019 83 0 0.45 186 14:23 26.01.2020
3657 Clouds 2 980 93 0 0.45 111 13:59 26.01.2020
3658 Clouds 2 980 92 0 1.06 215 13:38 26.01.2020
3659 Clouds 2 980 91 0 0.89 107 13:18 26.01.2020
3660 Clouds 2 981 91 0 1.27 218 12:43 26.01.2020
3661 Clouds 2 981 89 0 0.45 214 12:24 26.01.2020
3662 Clouds 2 981 88 0 0.45 188 11:59 26.01.2020
3663 Clouds 2 981 91 0 1.27 218 11:40 26.01.2020
3664 Clouds 1 1019 92 8000 2.6 160 11:19 26.01.2020
3665 Clouds 0 1019 92 8000 2.6 160 10:59 26.01.2020
3666 Clouds 0 1019 92 8000 2.6 160 10:39 26.01.2020
3667 Clouds -1 1019 92 8000 2.6 160 10:21 26.01.2020
3668 Clouds -1 1019 92 7000 1 0 09:59 26.01.2020
3669 Clouds 0 1019 92 7000 1 0 09:41 26.01.2020
3670 Clouds -1 1019 92 7000 2.1 200 09:22 26.01.2020
3671 Clouds -2 1019 100 6000 1.5 220 08:45 26.01.2020
3672 Mist -3 1019 92 5000 1.5 180 08:24 26.01.2020
3673 Clouds -3 1019 92 6000 2.1 190 07:59 26.01.2020
3674 Clouds -3 1019 92 6000 2.1 190 07:41 26.01.2020
3675 Clouds -3 1019 92 8000 2.1 220 07:22 26.01.2020
3676 Clouds -4 1019 100 9000 1 240 06:32 26.01.2020
3677 Clouds -4 1019 92 10000 1.5 170 05:37 26.01.2020
3678 Clouds -4 1019 100 7000 1 0 04:58 26.01.2020
3679 Mist -4 1020 100 4000 2.1 190 02:59 26.01.2020
3680 Mist -4 1020 92 3500 1 0 01:59 26.01.2020
3681 Mist -4 1020 100 3200 1 200 01:39 26.01.2020
3682 Mist -4 1020 100 3200 1 200 01:19 26.01.2020
3683 Mist -4 1020 100 4000 1 0 00:39 26.01.2020
3684 Mist -4 1021 100 4000 1.5 120 00:20 26.01.2020
3685 Clouds -4 1022 87 0 1.4 205 23:38 25.01.2020
3686 Clouds -4 981 99 0 0.89 166 23:20 25.01.2020
3687 Clouds -3 1022 87 0 1.82 218 22:43 25.01.2020
3688 Clouds -3 981 99 0 1.82 218 22:20 25.01.2020
3689 Clouds -3 1022 86 0 1.82 218 21:59 25.01.2020
3690 Clouds -3 1022 86 0 1.82 218 21:41 25.01.2020
3691 Clouds -3 1022 86 0 1.82 218 21:22 25.01.2020
3692 Clouds -3 981 99 0 1.82 218 20:54 25.01.2020
3693 Clouds 0 1023 68 0 1.82 218 20:36 25.01.2020
3694 Clear -3 981 99 0 1.51 198 20:18 25.01.2020
3695 Clear -2 1022 85 0 1.51 198 19:41 25.01.2020
3696 Clear -2 982 99 0 1.51 198 19:20 25.01.2020
3697 Clear -2 982 99 0 1.51 198 18:56 25.01.2020
3698 Clear -2 981 99 0 1.51 198 18:38 25.01.2020
3699 Clear -2 982 99 0 1.51 198 18:20 25.01.2020
3700 Clear -1 1022 83 0 1.54 202 17:40 25.01.2020
3701 Clear -1 1022 82 0 1.43 300 17:19 25.01.2020
3702 Clear -1 1022 81 0 1.54 305 16:57 25.01.2020
3703 Clear -1 1020 93 0 1.43 300 16:38 25.01.2020
3704 Clear 0 981 93 0 1.43 300 16:19 25.01.2020
3705 Clear 0 1022 81 0 1.43 300 15:47 25.01.2020
3706 Clear 0 1022 82 0 1.43 300 15:25 25.01.2020
3707 Clear 0 1022 82 0 1.43 300 14:59 25.01.2020
3708 Clear 0 1022 82 0 1.43 300 14:40 25.01.2020
3709 Clear 0 981 90 0 0.45 132 14:18 25.01.2020
3710 Clear 0 1023 83 0 0.45 87 13:42 25.01.2020
3711 Clear 0 1023 83 0 0.45 87 13:42 25.01.2020
3712 Clear 0 982 91 0 0.45 119 13:23 25.01.2020
3713 Mist -1 1023 92 4500 2.1 200 12:45 25.01.2020
3714 Mist -1 1023 92 4500 2.1 200 12:26 25.01.2020
3715 Mist -2 1023 92 4500 2.1 200 11:45 25.01.2020
3716 Mist -1 1023 92 4500 2.6 190 11:22 25.01.2020
3717 Mist -2 1022 92 4500 3.1 200 10:59 25.01.2020
3718 Mist -2 1022 92 4500 2.6 210 10:40 25.01.2020
3719 Mist -2 1022 92 4500 2.6 210 10:20 25.01.2020
3720 Mist -3 1022 92 4500 1 220 09:54 25.01.2020
3721 Mist -3 1022 92 4500 2.6 190 09:36 25.01.2020
3722 Mist -3 1022 92 4500 2.6 190 09:18 25.01.2020
3723 Mist -3 1021 92 4500 2.6 210 08:42 25.01.2020
3724 Clouds -4 1021 92 6000 1.5 250 07:50 25.01.2020
3725 Clouds -4 1021 92 8000 1.5 220 06:54 25.01.2020
3726 Clouds -4 1021 92 8000 2.1 210 06:29 25.01.2020
3727 Clouds -4 1021 92 9000 2.1 230 05:48 25.01.2020
3728 Clouds -4 1021 92 9000 2.1 240 05:23 25.01.2020
3729 Clouds -4 1021 92 9000 2.6 210 03:54 25.01.2020
3730 Clouds -4 1021 92 10000 3.1 220 03:23 25.01.2020
3731 Clouds -4 1021 92 10000 2.6 240 02:23 25.01.2020
3732 Clouds -4 1021 92 10000 3.1 210 01:53 25.01.2020
3733 Clouds -3 1022 92 10000 2.6 200 00:52 25.01.2020
3734 Clouds -3 1022 92 10000 2.6 220 00:26 25.01.2020
3735 Clouds -3 1022 92 10000 2.6 220 00:26 25.01.2020
3736 Clouds -3 1022 92 10000 3.1 210 23:59 24.01.2020
3737 Clouds -3 1022 92 10000 3.1 210 23:41 24.01.2020
3738 Clouds -3 1022 92 10000 3.1 210 23:41 24.01.2020
3739 Clouds -3 1021 86 10000 3.1 200 23:23 24.01.2020
3740 Clouds -3 1022 86 10000 2.1 180 22:46 24.01.2020
3741 Clouds -3 1022 86 10000 2.1 180 22:46 24.01.2020
3742 Clouds -3 1022 92 10000 0.5 0 22:25 24.01.2020
3743 Clouds -3 1021 92 10000 1.5 190 21:57 24.01.2020
3744 Clouds -2 1021 92 10000 1.5 190 21:39 24.01.2020
3745 Clouds -2 1021 92 10000 2.6 180 21:18 24.01.2020
3746 Clouds -2 1021 86 10000 3.1 180 20:43 24.01.2020
3747 Clouds -2 1021 86 10000 3.1 180 20:21 24.01.2020
3748 Clouds -2 1021 86 10000 3.6 170 19:58 24.01.2020
3749 Clouds -2 1021 86 10000 3.6 170 19:39 24.01.2020
3750 Clouds -1 1021 80 10000 1 0 19:21 24.01.2020
3751 Clouds -1 1021 80 10000 1.5 170 18:44 24.01.2020
3752 Clouds -1 1021 86 10000 2.1 170 18:25 24.01.2020
3753 Clouds -1 1021 80 10000 3.1 180 17:59 24.01.2020
3754 Clouds -1 1021 80 10000 3.1 180 17:41 24.01.2020
3755 Clouds 0 1021 68 10000 2.6 190 17:20 24.01.2020
3756 Clouds 0 1021 74 10000 2.6 180 16:40 24.01.2020
3757 Clouds 1 1021 69 10000 2.6 200 16:21 24.01.2020
3758 Clouds 2 1021 64 10000 2.1 210 15:56 24.01.2020
3759 Clouds 2 1021 64 10000 2.1 210 15:38 24.01.2020
3760 Clouds 3 1021 60 10000 2.6 220 15:19 24.01.2020
3761 Clouds 3 1021 60 10000 2.1 220 14:41 24.01.2020
3762 Clouds 3 1021 60 10000 2.1 220 14:41 24.01.2020
3763 Clouds 3 1022 60 10000 1.5 230 14:23 24.01.2020
3764 Clear 3 1022 60 10000 2.6 200 13:57 24.01.2020
3765 Clear 3 1022 64 10000 3.6 190 13:39 24.01.2020
3766 Clear 3 1022 64 10000 3.6 190 13:19 24.01.2020
3767 Clear 3 1022 64 10000 4.1 190 12:41 24.01.2020
3768 Clear 2 1022 69 10000 3.6 180 12:18 24.01.2020
3769 Clear 2 1023 74 10000 3.6 180 11:43 24.01.2020
3770 Clear 2 1023 74 10000 3.6 170 11:19 24.01.2020
3771 Clear 1 1023 58 10000 3.1 170 10:43 24.01.2020
3772 Clear 0 1023 80 10000 4.1 160 10:23 24.01.2020
3773 Clear -1 1023 86 10000 5.1 160 09:57 24.01.2020
3774 Clear -1 1023 86 10000 5.1 160 09:57 24.01.2020
3775 Clear -2 1023 86 10000 5.1 160 09:39 24.01.2020
3776 Clear -2 1023 86 10000 4.6 160 09:21 24.01.2020
3777 Clear -2 1023 86 10000 4.6 160 08:41 24.01.2020
3778 Clouds -4 1023 92 10000 3.6 160 08:20 24.01.2020
3779 Clear -4 1023 92 10000 3.6 160 07:53 24.01.2020
3780 Clear -4 1023 92 10000 4.6 150 07:34 24.01.2020
3781 Clear -4 1023 86 10000 5.1 160 06:48 24.01.2020
3782 Clear -4 1023 92 10000 4.6 160 06:29 24.01.2020
3783 Clear -4 1023 92 10000 2.6 140 05:59 24.01.2020
3784 Clear -4 1023 92 10000 1.5 160 05:18 24.01.2020
3785 Clear -4 1025 86 10000 2.1 160 02:54 24.01.2020
3786 Clear -4 1025 86 10000 3.1 160 02:26 24.01.2020
3787 Clear -4 1025 92 10000 4.6 160 01:49 24.01.2020
3788 Clear -4 1026 86 10000 2.6 150 01:31 24.01.2020
3789 Clear -3 1026 100 10000 0.5 140 00:26 24.01.2020
3790 Clear -3 1027 92 10000 0.5 0 23:56 23.01.2020
3791 Clear -3 1027 92 10000 0.5 0 23:37 23.01.2020
3792 Clear -3 1027 92 10000 3.6 160 23:18 23.01.2020
3793 Clear -3 1027 86 10000 2.6 140 22:39 23.01.2020
3794 Clear -3 1027 86 10000 2.6 140 22:20 23.01.2020
3795 Clear -3 1027 92 10000 2.1 130 21:58 23.01.2020
3796 Clear -3 1027 92 10000 2.1 130 21:58 23.01.2020
3797 Clear -2 1027 92 10000 2.1 130 21:40 23.01.2020
3798 Clear -2 1027 80 10000 1 0 21:21 23.01.2020
3799 Clear -2 1028 80 10000 1.5 140 20:59 23.01.2020
3800 Clear -2 1028 80 10000 1.5 140 20:39 23.01.2020
3801 Clear -2 1028 86 10000 2.1 150 20:21 23.01.2020
3802 Clear -2 1028 79 10000 3.1 150 19:57 23.01.2020
3803 Clear -2 1028 79 10000 3.1 150 19:38 23.01.2020
3804 Clear -2 1028 79 10000 3.1 150 19:38 23.01.2020
3805 Clear -1 1028 79 10000 3.1 160 19:20 23.01.2020
3806 Clouds -1 1029 79 10000 1 120 18:56 23.01.2020
3807 Clouds -1 1029 79 10000 1 120 18:37 23.01.2020
3808 Clouds 0 1029 74 10000 1 110 18:19 23.01.2020
3809 Clouds 0 1029 74 10000 1 0 17:44 23.01.2020
3810 Clouds 1 1029 74 10000 1 110 17:21 23.01.2020
3811 Clouds 1 1030 74 10000 1 130 16:59 23.01.2020
3812 Clouds 2 1030 69 10000 1.5 150 16:39 23.01.2020
3813 Clouds 2 1030 69 10000 1.5 150 16:19 23.01.2020
3814 Clouds 3 1031 69 10000 2.6 150 15:58 23.01.2020
3815 Clouds 3 1031 69 10000 2.6 150 15:38 23.01.2020
3816 Clouds 3 1031 69 10000 2.1 160 15:38 23.01.2020
3817 Clouds 3 1031 69 10000 2.1 160 15:19 23.01.2020
3818 Clouds 3 1031 69 10000 3.1 160 14:58 23.01.2020
3819 Clouds 3 1031 69 10000 3.1 160 14:40 23.01.2020
3820 Clouds 3 1031 69 10000 3.6 150 14:21 23.01.2020
3821 Clouds 3 1032 74 10000 3.1 160 13:46 23.01.2020
3822 Clouds 3 1033 74 10000 1.5 170 13:21 23.01.2020
3823 Clouds 3 1033 64 10000 2.6 200 12:57 23.01.2020
3824 Clouds 3 1033 64 10000 2.6 200 12:57 23.01.2020
3825 Clouds 3 1033 64 10000 2.6 200 12:39 23.01.2020
3826 Clouds 3 1033 62 10000 2.1 190 12:21 23.01.2020
3827 Clouds 3 1033 86 10000 2.1 190 11:54 23.01.2020
3828 Clouds 3 1034 93 10000 2.1 180 11:36 23.01.2020
3829 Clouds 2 1034 93 10000 2.1 180 11:18 23.01.2020
3830 Clouds 2 1034 93 10000 2.6 200 10:41 23.01.2020
3831 Clouds 2 1034 93 10000 2.6 190 10:19 23.01.2020
3832 Clouds 2 1034 81 10000 2.1 180 09:41 23.01.2020
3833 Clouds 2 1034 93 6000 0.5 0 09:23 23.01.2020
3834 Mist 1 1034 100 4500 1.5 160 08:57 23.01.2020
3835 Mist 1 1034 100 4500 1.5 160 08:38 23.01.2020
3836 Mist 1 1034 100 3500 2.1 200 08:20 23.01.2020
3837 Mist 1 1034 100 4500 1.5 220 07:42 23.01.2020
3838 Mist 1 1034 100 5000 0.5 230 07:24 23.01.2020
3839 Clouds 1 1034 100 6000 1 210 06:46 23.01.2020
3840 Clouds 1 1034 93 6000 1 0 06:19 23.01.2020
3841 Clouds 1 1034 93 6000 1.5 240 04:58 23.01.2020
3842 Clouds 1 1034 93 6000 1 0 04:22 23.01.2020
3843 Clouds 1 1035 93 7000 1.5 240 02:31 23.01.2020
3844 Clouds 1 1035 93 6000 1.5 260 00:58 23.01.2020
3845 Clouds 1 1034 93 6000 1 0 00:27 23.01.2020
3846 Mist 2 1034 93 5000 1.5 280 23:47 22.01.2020
3847 Mist 2 1034 93 5000 2.1 280 23:29 22.01.2020
3848 Clouds 2 1034 93 6000 2.1 260 22:59 22.01.2020
3849 Clouds 2 1034 93 6000 2.1 260 22:40 22.01.2020
3850 Clouds 2 1034 93 6000 2.1 260 22:22 22.01.2020
3851 Clouds 1 1034 93 6000 1.5 260 21:40 22.01.2020
3852 Clouds 1 1034 93 6000 3.1 270 21:22 22.01.2020
3853 Drizzle 2 1034 93 5000 2.6 250 20:57 22.01.2020
3854 Drizzle 2 1034 93 5000 2.6 250 20:37 22.01.2020
3855 Drizzle 1 1033 93 5000 3.1 260 20:19 22.01.2020
3856 Mist 1 1033 93 5000 3.1 260 19:56 22.01.2020
3857 Mist 1 1033 93 5000 3.1 260 19:37 22.01.2020
3858 Mist 1 1033 93 5000 3.1 260 19:18 22.01.2020
3859 Mist 1 1033 100 5000 3.1 280 18:56 22.01.2020
3860 Mist 1 1033 100 5000 3.1 280 18:38 22.01.2020
3861 Mist 1 1032 100 5000 3.1 280 18:19 22.01.2020
3862 Mist 1 1032 100 5000 3.1 270 17:54 22.01.2020
3863 Mist 1 1032 100 5000 3.1 270 17:54 22.01.2020
3864 Mist 1 1032 100 4300 3.6 280 17:36 22.01.2020
3865 Mist 1 1032 100 4300 3.6 280 17:18 22.01.2020
3866 Mist 1 1031 100 4000 2.6 270 16:42 22.01.2020
3867 Mist 1 1031 100 3700 3.6 270 16:22 22.01.2020
3868 Drizzle 1 1031 100 2000 3.6 270 15:58 22.01.2020
3869 Drizzle 1 1031 100 2000 3.6 270 15:39 22.01.2020
3870 Drizzle 1 1031 81 2200 4.1 280 15:21 22.01.2020
3871 Mist 1 1031 81 2500 4.1 290 14:54 22.01.2020
3872 Drizzle 1 1031 81 2000 4.1 280 14:36 22.01.2020
3873 Drizzle 1 1031 81 2000 4.1 280 14:36 22.01.2020
3874 Drizzle 1 1031 70 2000 4.1 280 14:18 22.01.2020
3875 Mist 1 1031 70 2300 3.6 270 13:54 22.01.2020
3876 Mist 1 1031 70 2500 3.6 250 13:36 22.01.2020
3877 Mist 1 1031 76 2500 3.6 250 13:18 22.01.2020
3878 Mist 1 1032 76 2200 4.1 250 12:54 22.01.2020
3879 Mist 1 1032 76 3200 2.6 260 12:36 22.01.2020
3880 Mist 1 1032 76 3200 2.6 260 12:18 22.01.2020
3881 Mist 1 1032 76 4200 3.1 260 11:54 22.01.2020
3882 Clouds 0 1032 76 7000 3.1 260 11:36 22.01.2020
3883 Clouds 1 1032 61 7000 3.1 260 11:18 22.01.2020
3884 Clouds 0 1032 61 9000 2.6 230 10:41 22.01.2020
3885 Clouds 0 1032 86 10000 5.1 220 10:19 22.01.2020
3886 Clouds -1 1032 80 10000 4.1 220 09:43 22.01.2020
3887 Clouds -2 1033 86 10000 4.1 250 09:24 22.01.2020
3888 Clouds -2 1033 79 10000 2.6 320 08:57 22.01.2020
3889 Clouds -2 1033 79 10000 2.6 320 08:57 22.01.2020
3890 Clouds -2 1033 79 10000 2.6 320 08:39 22.01.2020
3891 Clear -3 1032 79 10000 2.6 290 08:20 22.01.2020
3892 Clear -3 1031 86 10000 3.1 220 07:48 22.01.2020
3893 Clear -4 1032 86 10000 2.6 230 07:30 22.01.2020
3894 Clear -3 1032 92 10000 3.6 220 06:50 22.01.2020
3895 Clear -4 1032 85 10000 3.6 220 06:26 22.01.2020
3896 Clear -4 1033 92 10000 4.1 220 05:33 22.01.2020
3897 Clear -4 1034 92 10000 3.6 200 04:18 22.01.2020
3898 Clear -3 1034 92 10000 4.1 210 03:21 22.01.2020
3899 Clear -3 1035 92 10000 3.6 210 01:44 22.01.2020
3900 Clear -3 1035 92 10000 1.5 200 00:44 22.01.2020
3901 Clear -3 1035 92 10000 3.1 210 00:26 22.01.2020
3902 Clear -2 1036 86 10000 2.6 220 23:38 21.01.2020
3903 Clear -2 1036 86 10000 3.1 210 23:38 21.01.2020
3904 Clear -2 1036 86 10000 3.1 210 23:20 21.01.2020
3905 Clear -2 1036 86 10000 4.1 210 22:59 21.01.2020
3906 Clear -2 1036 86 10000 4.1 210 22:39 21.01.2020
3907 Clear -2 1036 86 10000 3.1 210 22:20 21.01.2020
3908 Clear -2 1036 92 10000 3.6 200 21:56 21.01.2020
3909 Clear -2 1037 92 10000 3.6 200 21:37 21.01.2020
3910 Clear -2 1037 92 10000 3.6 200 21:19 21.01.2020
3911 Clear -2 1037 92 10000 3.6 200 21:19 21.01.2020
3912 Clear -2 1037 86 10000 4.6 200 20:55 21.01.2020
3913 Clear -2 1037 86 10000 4.6 200 20:37 21.01.2020
3914 Clouds -2 1037 86 10000 4.6 200 20:18 21.01.2020
3915 Clouds -1 1038 68 10000 2.6 200 19:55 21.01.2020
3916 Clouds -1 1038 68 10000 2.6 200 19:37 21.01.2020
3917 Clouds -1 1038 68 10000 2.6 200 19:18 21.01.2020
3918 Clouds -1 1038 74 10000 1.5 250 18:55 21.01.2020
3919 Clouds 0 1038 69 0 2.1 240 18:36 21.01.2020
3920 Clouds 0 1038 69 0 2.1 240 18:18 21.01.2020
3921 Clouds 1 1038 69 10000 1.5 250 17:42 21.01.2020
3922 Clouds 1 1038 69 10000 1.5 270 17:20 21.01.2020
3923 Clouds 1 998 77 0 2.97 237 16:58 21.01.2020
3924 Clouds 2 1039 64 10000 2.1 280 16:37 21.01.2020
3925 Clouds 3 1039 64 10000 2.1 280 16:18 21.01.2020
3926 Clouds 4 1039 60 10000 2.6 260 15:42 21.01.2020
3927 Clouds 4 1039 60 10000 3.1 230 15:21 21.01.2020
3928 Clouds 5 1039 56 10000 4.1 240 14:59 21.01.2020
3929 Clouds 5 1039 64 10000 4.6 220 14:37 21.01.2020
3930 Clouds 5 1039 64 10000 4.6 220 14:19 21.01.2020
3931 Clouds 4 1040 64 10000 3.6 250 13:40 21.01.2020
3932 Clouds 4 1040 64 10000 3.6 240 13:19 21.01.2020
3933 Clouds 4 1041 64 10000 3.1 260 12:43 21.01.2020
3934 Clouds 3 1041 69 10000 2.6 270 12:25 21.01.2020
3935 Clouds 3 1041 69 10000 2.6 250 11:57 21.01.2020
3936 Clouds 3 1041 69 10000 2.6 250 11:39 21.01.2020
3937 Clouds 2 1041 74 10000 3.1 210 11:21 21.01.2020
3938 Clouds 1 1042 60 10000 3.1 210 10:55 21.01.2020
3939 Clouds 0 1041 86 10000 3.6 200 10:37 21.01.2020
3940 Clouds 0 1041 86 10000 3.6 200 10:18 21.01.2020
3941 Clouds -2 1041 86 10000 4.1 200 09:41 21.01.2020
3942 Clouds -2 1041 92 10000 5.1 200 09:22 21.01.2020
3943 Clouds -3 1041 92 10000 4.1 200 08:49 21.01.2020
3944 Clear -3 1041 92 10000 3.6 200 08:29 21.01.2020
3945 Clouds -4 1042 92 10000 4.1 200 07:59 21.01.2020
3946 Clouds -4 1042 92 10000 4.1 200 07:40 21.01.2020
3947 Clouds -4 1042 92 10000 3.1 210 07:21 21.01.2020
3948 Clouds -4 1042 92 10000 3.1 200 06:49 21.01.2020
3949 Clouds -4 1042 100 10000 3.1 200 06:26 21.01.2020
3950 Clouds -4 1042 92 10000 3.6 210 05:42 21.01.2020
3951 Clear -4 1042 92 10000 2.6 190 04:40 21.01.2020
3952 Clear -3 1044 92 10000 3.1 190 02:56 21.01.2020
3953 Clear -3 1044 92 10000 3.1 190 01:53 21.01.2020
3954 Clear -3 1044 92 10000 3.1 190 01:18 21.01.2020
3955 Clear -3 1045 86 10000 2.6 180 00:37 21.01.2020
3956 Clear -2 1045 86 10000 2.6 180 23:59 20.01.2020
3957 Clear -2 1045 86 10000 2.6 180 23:39 20.01.2020
3958 Clear -2 1045 86 10000 2.6 180 23:39 20.01.2020
3959 Clear -2 1045 92 10000 3.6 190 23:19 20.01.2020
3960 Clouds -2 1045 92 10000 4.1 190 22:56 20.01.2020
3961 Clouds -2 1045 92 10000 2.1 190 22:38 20.01.2020
3962 Clouds -1 1045 92 10000 2.1 190 22:20 20.01.2020
3963 Clouds -1 1045 89 10000 2.1 190 21:57 20.01.2020
3964 Clouds -1 1045 86 10000 1.5 220 21:37 20.01.2020
3965 Clouds -1 1045 86 10000 1.5 220 21:19 20.01.2020
3966 Clouds -1 1045 89 10000 1.5 230 20:56 20.01.2020
3967 Clouds 0 1045 89 10000 1.5 230 20:56 20.01.2020
3968 Clouds 0 1045 89 10000 1 0 20:38 20.01.2020
3969 Clouds 0 1045 91 10000 1 0 20:18 20.01.2020
3970 Clouds 0 1046 91 10000 1 0 19:56 20.01.2020
3971 Clouds 0 1046 91 10000 1 0 19:56 20.01.2020
3972 Clouds 0 1046 91 10000 1 0 19:38 20.01.2020
3973 Clouds 0 1046 86 10000 1.5 300 19:18 20.01.2020
3974 Clouds 0 1046 86 10000 1.5 300 19:18 20.01.2020
3975 Clouds 0 1045 80 10000 1 280 18:44 20.01.2020
3976 Clouds 0 1005 93 0 0.45 199 18:22 20.01.2020
3977 Clouds 1 1045 80 10000 1.5 270 17:42 20.01.2020
3978 Clouds 2 1045 74 10000 1.5 290 17:20 20.01.2020
3979 Clouds 2 1045 69 10000 2.1 290 16:59 20.01.2020
3980 Clouds 2 1045 69 10000 2.1 290 16:39 20.01.2020
3981 Clouds 3 1045 83 10000 2.1 280 16:19 20.01.2020
3982 Clouds 3 1045 83 10000 2.1 280 16:19 20.01.2020
3983 Clouds 3 1045 83 10000 2.1 280 16:19 20.01.2020
3984 Clouds 4 1045 69 10000 3.1 260 15:57 20.01.2020
3985 Clouds 4 1045 69 10000 3.1 260 15:39 20.01.2020
3986 Clouds 4 1046 83 10000 3.1 260 15:20 20.01.2020
3987 Clouds 4 1046 69 10000 3.1 230 14:41 20.01.2020
3988 Clouds 4 1046 69 10000 2.6 270 14:23 20.01.2020
3989 Clouds 4 1046 69 10000 2.6 250 13:58 20.01.2020
3990 Clouds 4 1046 75 10000 2.1 250 13:40 20.01.2020
3991 Clouds 4 1046 75 10000 2.1 250 13:22 20.01.2020
3992 Clouds 4 1046 80 10000 2.1 270 12:47 20.01.2020
3993 Clouds 4 1046 80 10000 1.5 280 12:28 20.01.2020
3994 Clouds 3 1046 86 10000 2.1 230 11:59 20.01.2020
3995 Clouds 3 1046 86 10000 2.1 230 11:39 20.01.2020
3996 Clouds 3 1046 93 10000 1.5 260 11:21 20.01.2020
3997 Clouds 3 1046 93 9000 1.5 290 10:55 20.01.2020
3998 Clouds 2 1045 100 9000 2.1 280 10:37 20.01.2020
3999 Clouds 2 1045 100 9000 2.1 280 10:18 20.01.2020
4000 Clouds 2 1045 93 9000 1.5 300 09:40 20.01.2020
4001 Clouds 2 1045 93 9000 1.5 300 09:40 20.01.2020
4002 Clouds 2 1045 93 9000 1.5 290 09:20 20.01.2020
4003 Clouds 2 1044 93 9000 1.5 280 08:46 20.01.2020
4004 Clouds 2 1044 93 10000 1.5 280 08:28 20.01.2020
4005 Clouds 2 1044 93 10000 1.5 260 07:46 20.01.2020
4006 Clouds 2 1044 93 10000 1.5 260 07:26 20.01.2020
4007 Clouds 2 1044 93 10000 1.5 290 06:59 20.01.2020
4008 Clouds 2 1044 93 10000 1 0 06:28 20.01.2020
4009 Clouds 2 1043 93 10000 1.5 280 05:44 20.01.2020
4010 Clouds 2 1043 93 10000 1 0 05:23 20.01.2020
4011 Clouds 2 1043 93 8000 1.5 290 04:49 20.01.2020
4012 Mist 2 1042 100 4500 1.5 300 02:59 20.01.2020
4013 Mist 2 1042 100 4500 1.5 300 02:59 20.01.2020
4014 Mist 2 1042 93 5000 1.5 280 01:57 20.01.2020
4015 Clouds 2 1042 93 6000 1 300 01:37 20.01.2020
4016 Clouds 2 1041 93 6000 1.5 310 00:45 20.01.2020
4017 Clouds 2 1041 93 7000 2.1 300 00:25 20.01.2020
4018 Clouds 2 1041 100 7000 1.5 290 23:54 19.01.2020
4019 Clouds 2 1040 100 8000 1.5 300 23:36 19.01.2020
4020 Clouds 2 1040 100 8000 1.5 300 23:18 19.01.2020
4021 Clouds 2 1040 93 9000 2.1 290 22:54 19.01.2020
4022 Clouds 2 1040 100 9000 1 290 22:36 19.01.2020
4023 Clouds 2 1040 100 9000 1 290 22:18 19.01.2020
4024 Clouds 2 1040 100 8000 1 310 21:54 19.01.2020
4025 Clouds 2 1039 100 8000 1.5 300 21:36 19.01.2020
4026 Clouds 2 1039 100 8000 1.5 300 21:18 19.01.2020
4027 Clouds 2 1039 100 9000 2.1 290 20:54 19.01.2020
4028 Clouds 3 1038 93 10000 1.5 290 20:36 19.01.2020
4029 Clouds 3 1038 93 10000 1.5 290 20:18 19.01.2020
4030 Clouds 3 1038 100 10000 1.5 300 19:54 19.01.2020
4031 Clouds 3 1038 100 10000 1.5 320 19:36 19.01.2020
4032 Clouds 3 1038 100 10000 1.5 320 19:18 19.01.2020
4033 Clouds 3 1037 93 10000 1.5 320 18:54 19.01.2020
4034 Clouds 3 1037 100 10000 2.1 290 18:36 19.01.2020
4035 Clouds 3 1037 100 10000 2.1 290 18:18 19.01.2020
4036 Clouds 3 1037 93 10000 1.5 300 17:56 19.01.2020
4037 Clouds 3 1036 93 10000 1 0 17:38 19.01.2020
4038 Clouds 3 1036 93 10000 1 0 17:18 19.01.2020
4039 Clouds 3 1035 93 10000 1 0 16:54 19.01.2020
4040 Clouds 3 1035 93 10000 2.1 290 16:36 19.01.2020
4041 Rain 3 1035 93 10000 2.1 290 16:18 19.01.2020
4042 Rain 3 1035 93 10000 2.6 290 15:41 19.01.2020
4043 Rain 3 1034 93 10000 3.6 300 15:22 19.01.2020
4044 Rain 3 1034 86 10000 3.1 310 14:59 19.01.2020
4045 Rain 3 1034 86 10000 3.1 310 14:40 19.01.2020
4046 Rain 3 1033 93 10000 3.6 300 14:20 19.01.2020
4047 Clouds 3 1033 86 10000 2.6 290 13:59 19.01.2020
4048 Clouds 3 1033 93 10000 3.1 300 13:40 19.01.2020
4049 Clouds 3 1033 93 10000 3.1 300 13:21 19.01.2020
4050 Clouds 3 1033 93 10000 4.1 300 12:59 19.01.2020
4051 Clouds 3 1033 93 10000 4.1 300 12:41 19.01.2020
4052 Clouds 3 1033 93 10000 3.6 300 12:21 19.01.2020
4053 Clouds 3 1032 86 10000 3.1 290 11:57 19.01.2020
4054 Clouds 3 1032 86 10000 3.1 290 11:38 19.01.2020
4055 Clouds 3 1032 86 10000 3.1 300 11:18 19.01.2020
4056 Clouds 2 1032 93 10000 3.1 290 10:41 19.01.2020
4057 Clouds 2 1031 93 10000 2.6 290 10:21 19.01.2020
4058 Clouds 2 1031 93 10000 3.1 290 09:57 19.01.2020
4059 Clouds 2 1031 93 10000 3.1 290 09:38 19.01.2020
4060 Clouds 2 1030 93 10000 2.6 280 09:20 19.01.2020
4061 Clouds 2 1030 93 10000 2.6 280 08:56 19.01.2020
4062 Clouds 2 1030 93 10000 2.6 290 08:38 19.01.2020
4063 Clouds 2 1030 93 10000 2.6 290 08:19 19.01.2020
4064 Clouds 2 1029 96 10000 2.1 270 07:30 19.01.2020
4065 Clouds 2 1028 96 10000 2.1 270 06:56 19.01.2020
4066 Rain 2 1028 96 10000 2.6 280 06:23 19.01.2020
4067 Clouds 2 1027 96 10000 2.6 280 04:39 19.01.2020
4068 Clouds 2 1026 96 10000 2.6 280 02:36 19.01.2020
4069 Clouds 3 1026 95 10000 2.1 260 01:58 19.01.2020
4070 Clouds 3 1026 95 10000 1.5 240 01:24 19.01.2020
4071 Clouds 3 1026 96 10000 1.5 250 00:45 19.01.2020
4072 Clouds 3 1025 96 10000 2.1 260 00:27 19.01.2020
4073 Clouds 3 1025 96 10000 2.1 260 23:55 18.01.2020
4074 Clouds 3 1025 96 10000 2.1 250 23:37 18.01.2020
4075 Clouds 3 1025 88 10000 2.1 250 23:18 18.01.2020
4076 Clouds 3 1025 88 10000 2.1 250 22:54 18.01.2020
4077 Clouds 4 1025 88 10000 1.5 240 22:36 18.01.2020
4078 Clouds 3 1025 88 10000 1.5 240 22:18 18.01.2020
4079 Clouds 4 1025 88 10000 3.1 250 21:56 18.01.2020
4080 Clouds 3 1025 88 10000 2.6 210 21:36 18.01.2020
4081 Clouds 3 1025 88 10000 2.6 210 21:18 18.01.2020
4082 Clouds 3 1024 86 10000 2.6 220 20:42 18.01.2020
4083 Clouds 3 1025 82 10000 3.1 210 20:20 18.01.2020
4084 Clouds 3 1024 86 10000 3.1 200 19:55 18.01.2020
4085 Clouds 3 1024 86 10000 3.6 190 19:37 18.01.2020
4086 Clouds 3 1024 86 10000 3.6 190 19:37 18.01.2020
4087 Clouds 3 1024 86 10000 3.6 190 19:18 18.01.2020
4088 Clouds 4 1024 82 10000 2.6 230 18:41 18.01.2020
4089 Clouds 4 1024 82 10000 2.6 230 18:21 18.01.2020
4090 Clouds 4 1024 82 10000 2.1 230 17:54 18.01.2020
4091 Clouds 4 1024 82 10000 1.5 230 17:36 18.01.2020
4092 Rain 5 1024 74 10000 1.5 230 17:18 18.01.2020
4093 Rain 5 1023 74 10000 2.1 240 16:41 18.01.2020
4094 Clouds 5 1023 74 10000 2.6 250 16:23 18.01.2020
4095 Clouds 5 1023 70 10000 3.1 260 15:59 18.01.2020
4096 Clouds 6 1023 70 10000 3.1 260 15:40 18.01.2020
4097 Clouds 6 1023 74 10000 2.6 260 15:22 18.01.2020
4098 Clouds 6 1023 70 10000 3.1 260 14:54 18.01.2020
4099 Clouds 6 1023 74 10000 3.1 270 14:36 18.01.2020
4100 Clouds 6 1023 73 10000 3.1 270 14:18 18.01.2020
4101 Clouds 6 1023 70 10000 3.1 260 13:43 18.01.2020
4102 Clouds 6 1023 70 10000 2.6 260 13:24 18.01.2020
4103 Clouds 6 1023 70 10000 3.1 260 12:56 18.01.2020
4104 Clouds 6 1024 70 10000 3.6 260 12:38 18.01.2020
4105 Clouds 6 1024 70 10000 3.6 260 12:19 18.01.2020
4106 Clouds 5 1024 75 10000 4.1 260 11:44 18.01.2020
4107 Clouds 5 1024 75 10000 3.1 260 11:21 18.01.2020
4108 Clouds 5 1024 75 10000 3.6 250 10:56 18.01.2020
4109 Clouds 5 1024 75 10000 3.1 260 10:38 18.01.2020
4110 Clouds 4 1024 75 10000 3.1 260 10:19 18.01.2020
4111 Clouds 4 1023 76 10000 3.6 250 09:42 18.01.2020
4112 Clouds 4 1023 75 10000 3.1 260 09:24 18.01.2020
4113 Clouds 4 1023 75 10000 3.6 260 08:55 18.01.2020
4114 Clouds 4 1022 75 10000 3.1 250 08:37 18.01.2020
4115 Clouds 3 1022 75 10000 3.1 250 08:18 18.01.2020
4116 Clouds 3 1022 86 10000 2.1 230 07:44 18.01.2020
4117 Clouds 3 1022 80 10000 2.6 230 07:25 18.01.2020
4118 Clouds 4 1021 86 10000 3.6 210 06:47 18.01.2020
4119 Clouds 4 1021 93 10000 3.6 200 05:58 18.01.2020
4120 Clouds 5 1020 93 10000 4.1 200 05:19 18.01.2020
4121 Rain 4 1019 93 10000 3.6 200 02:53 18.01.2020
4122 Rain 4 1019 93 10000 3.6 200 02:53 18.01.2020
4123 Rain 5 1018 86 10000 3.1 190 01:52 18.01.2020
4124 Clouds 5 1018 80 10000 3.1 190 01:29 18.01.2020
4125 Clouds 5 1018 80 10000 2.6 190 00:36 18.01.2020
4126 Clouds 5 1018 80 10000 2.6 190 00:18 18.01.2020
4127 Clouds 5 1018 80 10000 4.1 170 23:41 17.01.2020
4128 Clouds 5 1018 80 10000 3.1 180 23:20 17.01.2020
4129 Clouds 5 1017 80 10000 2.1 170 22:44 17.01.2020
4130 Clouds 4 1017 86 10000 2.1 170 22:22 17.01.2020
4131 Clouds 4 1017 83 10000 2.1 160 21:59 17.01.2020
4132 Clouds 4 1017 83 10000 2.1 160 21:41 17.01.2020
4133 Clouds 4 1017 83 10000 2.1 160 21:22 17.01.2020
4134 Clouds 3 1017 83 10000 3.6 160 20:57 17.01.2020
4135 Clouds 3 1017 83 10000 3.6 160 20:38 17.01.2020
4136 Clear 3 1017 80 10000 4.1 160 20:20 17.01.2020
4137 Clear 3 1016 80 10000 5.1 160 19:55 17.01.2020
4138 Clear 3 1016 80 10000 5.1 160 19:55 17.01.2020
4139 Clear 3 1016 80 10000 5.7 170 19:37 17.01.2020
4140 Clear 3 1016 80 10000 5.7 170 19:37 17.01.2020
4141 Clear 2 1016 80 10000 5.7 170 19:18 17.01.2020
4142 Clear 3 1017 80 10000 5.7 160 18:47 17.01.2020
4143 Clear 3 1016 80 10000 5.7 160 18:29 17.01.2020
4144 Clear 3 1017 80 10000 6.2 160 17:58 17.01.2020
4145 Clear 3 1017 80 10000 6.2 160 17:39 17.01.2020
4146 Clear 3 1016 74 10000 7.2 160 17:20 17.01.2020
4147 Clear 4 1016 74 10000 6.7 160 16:43 17.01.2020
4148 Clear 5 1017 74 10000 8.2 160 16:21 17.01.2020
4149 Clear 5 1017 75 10000 7.7 160 15:58 17.01.2020
4150 Clear 6 1017 75 10000 7.7 160 15:39 17.01.2020
4151 Clear 6 1017 75 10000 7.7 160 15:20 17.01.2020
4152 Clear 6 1017 75 10000 9.3 170 14:43 17.01.2020
4153 Clear 7 1018 75 10000 10.3 170 14:24 17.01.2020
4154 Clouds 6 1018 75 10000 10.8 170 13:43 17.01.2020
4155 Clouds 6 1019 70 10000 10.3 170 13:23 17.01.2020
4156 Clouds 6 1019 70 10000 9.3 170 12:47 17.01.2020
4157 Clouds 6 1019 70 10000 8.7 160 12:23 17.01.2020
4158 Clouds 6 1020 70 10000 7.2 160 11:43 17.01.2020
4159 Clear 6 1021 70 10000 5.7 160 11:20 17.01.2020
4160 Clear 6 1021 70 10000 5.7 160 11:20 17.01.2020
4161 Clear 6 1021 70 10000 5.7 160 11:20 17.01.2020
4162 Clear 6 1021 75 10000 5.1 140 10:58 17.01.2020
4163 Clear 5 1021 75 10000 6.7 140 10:40 17.01.2020
4164 Clear 4 1021 75 10000 6.7 140 10:21 17.01.2020
4165 Clear 4 1021 80 0 5.7 140 09:56 17.01.2020
4166 Clear 4 1022 80 10000 6.2 150 09:37 17.01.2020
4167 Clear 2 1022 80 10000 6.2 150 09:18 17.01.2020
4168 Clear 3 1022 86 10000 7.2 150 08:42 17.01.2020
4169 Clear 2 1022 86 10000 6.7 150 08:23 17.01.2020
4170 Clear 2 1023 86 10000 6.2 140 07:51 17.01.2020
4171 Clear 2 1023 86 10000 4.6 140 07:31 17.01.2020
4172 Clear 2 1023 86 10000 5.1 150 06:57 17.01.2020
4173 Clear 2 1023 86 10000 5.7 150 06:37 17.01.2020
4174 Clear 2 1024 86 10000 5.1 150 05:28 17.01.2020
4175 Clear 2 1025 85 0 4.49 163 03:39 17.01.2020
4176 Clear 2 986 92 0 3.58 103 02:44 17.01.2020
4177 Clear 2 1027 83 0 4.72 167 01:46 17.01.2020
4178 Clear 2 1027 83 0 0.45 179 01:27 17.01.2020
4179 Clear 3 987 90 0 1.79 107 00:46 17.01.2020
4180 Clear 3 1027 80 10000 4.6 150 00:21 17.01.2020
4181 Clear 3 1027 80 10000 4.6 150 23:43 16.01.2020
4182 Clear 3 1027 80 10000 4.6 150 23:25 16.01.2020
4183 Clear 3 1027 80 10000 5.7 160 22:55 16.01.2020
4184 Clear 3 1028 80 10000 5.7 150 22:37 16.01.2020
4185 Clear 3 1028 80 10000 5.7 150 22:18 16.01.2020
4186 Clear 3 1028 80 10000 5.7 150 21:54 16.01.2020
4187 Clear 3 1028 86 10000 5.7 150 21:36 16.01.2020
4188 Clear 3 1028 86 10000 5.7 150 21:18 16.01.2020
4189 Clear 3 1028 80 10000 5.1 150 20:40 16.01.2020
4190 Clouds 3 1028 86 10000 4.6 150 20:21 16.01.2020
4191 Clouds 3 1028 86 10000 5.1 150 19:58 16.01.2020
4192 Clouds 3 1028 86 10000 5.1 150 19:40 16.01.2020
4193 Clouds 3 1028 86 10000 5.1 150 19:22 16.01.2020
4194 Clouds 3 1028 86 10000 4.6 150 18:57 16.01.2020
4195 Clouds 3 1028 86 10000 4.6 150 18:38 16.01.2020
4196 Clouds 4 1028 80 10000 4.1 150 18:19 16.01.2020
4197 Clouds 4 1028 75 10000 2.6 140 17:58 16.01.2020
4198 Clouds 5 1028 75 10000 2.6 140 17:39 16.01.2020
4199 Clouds 5 1028 75 10000 3.1 140 17:20 16.01.2020
4200 Clouds 6 1028 70 10000 3.6 140 16:42 16.01.2020
4201 Clouds 7 1028 70 10000 2.6 150 16:24 16.01.2020
4202 Clouds 7 1028 70 10000 3.1 150 15:59 16.01.2020
4203 Clouds 7 1028 70 10000 3.1 150 15:39 16.01.2020
4204 Clouds 9 1028 65 10000 2.1 170 15:20 16.01.2020
4205 Clouds 9 1028 65 10000 2.1 180 14:45 16.01.2020
4206 Clouds 9 1029 65 10000 2.1 150 14:24 16.01.2020
4207 Clouds 9 1029 61 10000 2.1 190 13:56 16.01.2020
4208 Clouds 9 1029 65 10000 2.1 180 13:37 16.01.2020
4209 Clouds 9 1029 65 10000 2.1 180 13:19 16.01.2020
4210 Clouds 9 1029 70 10000 3.6 180 12:43 16.01.2020
4211 Clouds 9 1029 70 10000 2.6 160 12:25 16.01.2020
4212 Clouds 8 1029 76 10000 2.6 150 11:54 16.01.2020
4213 Clouds 9 1029 76 10000 3.1 180 11:36 16.01.2020
4214 Clouds 6 1029 87 10000 3.1 180 11:18 16.01.2020
4215 Clouds 5 1029 74 10000 3.6 180 10:38 16.01.2020
4216 Clouds 4 1029 74 10000 3.6 180 10:20 16.01.2020
4217 Clouds 4 1029 80 10000 2.6 190 09:56 16.01.2020
4218 Clouds 5 1029 80 10000 3.1 190 09:38 16.01.2020
4219 Clouds 4 1029 80 10000 3.1 190 09:19 16.01.2020
4220 Clouds 4 1028 80 10000 2.6 170 08:51 16.01.2020
4221 Clouds 4 1028 80 10000 3.6 190 08:30 16.01.2020
4222 Clouds 4 1028 80 10000 4.6 150 07:58 16.01.2020
4223 Clouds 4 1028 80 10000 4.6 150 07:38 16.01.2020
4224 Clouds 4 1027 86 10000 3.1 140 07:19 16.01.2020
4225 Clouds 5 1027 80 10000 1.5 40 06:42 16.01.2020
4226 Clouds 6 1026 80 10000 3.1 180 05:59 16.01.2020
4227 Clouds 6 1025 74 10000 3.1 170 05:40 16.01.2020
4228 Clouds 6 1024 82 10000 3.1 180 04:37 16.01.2020
4229 Clouds 6 1024 82 10000 3.1 180 04:37 16.01.2020
4230 Clouds 6 1024 82 10000 4.1 170 03:28 16.01.2020
4231 Clouds 6 1024 82 10000 3.6 170 02:43 16.01.2020
4232 Clouds 7 1022 78 10000 5.7 150 00:54 16.01.2020
4233 Clouds 6 1021 78 10000 5.7 160 00:24 16.01.2020
4234 Clouds 6 1021 74 10000 4.6 160 23:50 15.01.2020
4235 Clouds 4 1021 74 10000 5.7 180 23:23 15.01.2020
4236 Clouds 4 1020 69 10000 4.6 160 22:59 15.01.2020
4237 Clouds 4 1020 69 10000 4.6 160 22:41 15.01.2020
4238 Clouds 4 1021 69 10000 5.7 160 22:20 15.01.2020
4239 Clouds 4 1021 69 10000 5.7 160 22:20 15.01.2020
4240 Clouds 4 1020 69 10000 7.2 160 21:59 15.01.2020
4241 Clouds 4 1020 69 10000 7.2 160 21:40 15.01.2020
4242 Clouds 4 1020 69 10000 7.7 160 21:22 15.01.2020
4243 Clouds 3 1020 69 10000 7.7 160 20:58 15.01.2020
4244 Clouds 3 1020 69 10000 7.7 160 20:40 15.01.2020
4245 Clear 3 1020 69 10000 7.2 160 20:22 15.01.2020
4246 Clouds 3 1020 69 10000 6.7 150 19:56 15.01.2020
4247 Clouds 3 1020 69 10000 6.7 150 19:38 15.01.2020
4248 Clouds 3 1019 69 10000 7.2 160 19:20 15.01.2020
4249 Clouds 4 1019 64 10000 7.2 170 18:57 15.01.2020
4250 Clouds 4 1019 64 10000 7.2 170 18:38 15.01.2020
4251 Clouds 4 1018 64 10000 8.7 160 18:20 15.01.2020
4252 Clouds 4 1017 64 10000 9.3 160 17:58 15.01.2020
4253 Clouds 4 1017 64 10000 9.3 160 17:40 15.01.2020
4254 Clouds 4 1017 60 10000 8.2 160 17:21 15.01.2020
4255 Clouds 4 1017 60 10000 7.7 160 16:56 15.01.2020
4256 Clouds 5 1017 60 10000 7.7 160 16:38 15.01.2020
4257 Clouds 6 1017 60 10000 5.7 150 16:20 15.01.2020
4258 Clouds 6 1017 60 10000 5.7 150 16:20 15.01.2020
4259 Clouds 6 1017 56 10000 3.6 140 15:43 15.01.2020
4260 Clouds 7 1016 56 10000 3.6 140 15:21 15.01.2020
4261 Clouds 5 1016 56 10000 4.6 140 14:56 15.01.2020
4262 Clouds 4 1016 60 10000 6.2 130 14:37 15.01.2020
4263 Clouds 8 1016 60 10000 6.2 130 14:18 15.01.2020
4264 Clouds 8 1017 60 10000 5.1 140 13:44 15.01.2020
4265 Clouds 8 1017 60 10000 6.2 150 13:23 15.01.2020
4266 Clouds 8 1017 64 10000 7.2 150 12:55 15.01.2020
4267 Clouds 8 1018 60 10000 7.7 150 12:37 15.01.2020
4268 Clouds 8 1018 60 10000 7.7 150 12:37 15.01.2020
4269 Clouds 8 1018 60 10000 7.7 150 12:18 15.01.2020
4270 Clouds 8 1018 64 10000 6.7 150 11:54 15.01.2020
4271 Clouds 8 1018 56 10000 6.7 150 11:36 15.01.2020
4272 Clouds 7 1018 56 10000 6.7 150 11:18 15.01.2020
4273 Clouds 6 1018 56 10000 7.2 150 10:41 15.01.2020
4274 Rain 6 1018 60 10000 5.1 140 10:21 15.01.2020
4275 Clouds 7 1018 65 10000 5.1 150 09:41 15.01.2020
4276 Rain 6 1017 65 10000 5.7 150 09:22 15.01.2020
4277 Clouds 6 1017 65 10000 5.7 150 08:45 15.01.2020
4278 Rain 6 1017 65 10000 5.7 140 08:27 15.01.2020
4279 Clouds 6 1017 60 10000 4.6 150 07:59 15.01.2020
4280 Clouds 6 1017 60 10000 4.6 150 07:40 15.01.2020
4281 Clouds 6 1017 60 10000 5.1 140 07:21 15.01.2020
4282 Clouds 5 1016 60 10000 7.2 150 06:43 15.01.2020
4283 Clouds 6 1016 50 10000 5.7 160 05:52 15.01.2020
4284 Clouds 4 1016 70 10000 5.7 150 03:44 15.01.2020
4285 Clouds 4 1015 53 10000 5.1 160 02:28 15.01.2020
4286 Clouds 7 1015 48 10000 5.7 150 01:22 15.01.2020
4287 Clouds 6 1015 48 10000 5.7 150 00:45 15.01.2020
4288 Clouds 7 1015 48 10000 6.2 140 00:26 15.01.2020
4289 Clouds 7 1015 48 10000 5.1 150 23:47 14.01.2020
4290 Clouds 7 1014 48 10000 6.7 160 23:29 14.01.2020
4291 Clouds 7 1014 52 10000 7.2 160 22:59 14.01.2020
4292 Clouds 7 1014 70 10000 6.7 150 22:40 14.01.2020
4293 Clouds 6 1014 70 10000 6.7 150 22:19 14.01.2020
4294 Clouds 7 1014 70 10000 6.7 150 21:58 14.01.2020
4295 Clouds 7 1015 52 10000 7.2 160 21:39 14.01.2020
4296 Clouds 7 1015 52 10000 7.2 160 21:20 14.01.2020
4297 Clouds 7 1015 70 10000 7.7 160 20:56 14.01.2020
4298 Clouds 7 1015 70 10000 9.3 170 20:38 14.01.2020
4299 Clouds 7 1015 70 10000 9.3 170 20:19 14.01.2020
4300 Clouds 7 1015 70 10000 9.3 170 19:55 14.01.2020
4301 Clouds 7 1015 70 10000 8.7 170 19:37 14.01.2020
4302 Clouds 7 1015 70 10000 8.7 170 19:18 14.01.2020
4303 Clouds 7 1015 70 10000 8.2 160 18:41 14.01.2020
4304 Clouds 7 1014 75 10000 8.7 170 18:20 14.01.2020
4305 Clouds 7 1014 75 10000 8.7 170 17:59 14.01.2020
4306 Clouds 6 1014 57 10000 9.3 170 17:37 14.01.2020
4307 Clouds 6 1014 57 10000 9.3 170 17:18 14.01.2020
4308 Clouds 6 1014 57 10000 9.3 170 17:18 14.01.2020
4309 Clouds 7 1014 70 10000 8.7 170 16:55 14.01.2020
4310 Clouds 7 1014 65 10000 7.7 160 16:37 14.01.2020
4311 Clouds 7 1014 65 10000 7.7 160 16:18 14.01.2020
4312 Clouds 7 1014 57 10000 7.7 170 15:42 14.01.2020
4313 Clouds 7 1014 57 10000 8.2 180 15:19 14.01.2020
4314 Clouds 7 1013 57 10000 8.2 180 14:47 14.01.2020
4315 Clouds 8 1013 57 10000 8.7 170 14:23 14.01.2020
4316 Clouds 8 1013 54 10000 7.7 170 13:59 14.01.2020
4317 Clouds 8 1013 54 10000 7.7 170 13:40 14.01.2020
4318 Clouds 8 1013 61 10000 7.2 170 13:19 14.01.2020
4319 Clouds 9 1014 57 10000 6.2 150 12:42 14.01.2020
4320 Clouds 9 1014 61 10000 5.7 160 12:23 14.01.2020
4321 Clouds 8 1014 61 10000 8.2 160 11:57 14.01.2020
4322 Clouds 8 1014 61 10000 8.2 160 11:39 14.01.2020
4323 Clouds 8 1014 65 10000 6.2 150 11:20 14.01.2020
4324 Clouds 7 1014 70 10000 6.7 160 10:56 14.01.2020
4325 Clouds 7 1014 70 10000 7.7 170 10:37 14.01.2020
4326 Clouds 6 1014 70 10000 7.7 170 10:19 14.01.2020
4327 Clouds 5 1014 75 10000 8.2 170 09:43 14.01.2020
4328 Clouds 5 1014 75 10000 8.2 160 09:24 14.01.2020
4329 Clouds 5 1014 80 10000 6.7 160 08:58 14.01.2020
4330 Clouds 4 1014 80 10000 6.7 160 08:39 14.01.2020
4331 Clouds 4 1014 80 10000 6.7 160 08:20 14.01.2020
4332 Clouds 4 1014 80 10000 6.2 160 07:46 14.01.2020
4333 Clouds 3 1014 80 10000 6.2 150 07:18 14.01.2020
4334 Clouds 3 1013 80 10000 5.7 150 06:42 14.01.2020
4335 Clouds 3 1014 80 10000 4.1 140 05:58 14.01.2020
4336 Clouds 3 1014 80 10000 5.1 160 04:50 14.01.2020
4337 Clouds 3 1014 80 10000 5.7 150 03:46 14.01.2020
4338 Clouds 3 1016 86 10000 4.6 170 02:33 14.01.2020
4339 Clouds 3 1016 80 10000 5.1 170 01:19 14.01.2020
4340 Clouds 3 1016 86 10000 5.7 170 00:47 14.01.2020
4341 Clouds 3 1016 80 10000 5.7 180 00:21 14.01.2020
4342 Clouds 3 1016 80 10000 5.1 170 23:44 13.01.2020
4343 Clouds 3 1017 80 10000 5.1 170 23:19 13.01.2020
4344 Clear 4 1017 75 10000 5.7 170 22:57 13.01.2020
4345 Clear 3 1017 75 10000 5.7 170 22:39 13.01.2020
4346 Clear 4 1017 75 10000 5.1 170 22:19 13.01.2020
4347 Clear 4 1017 75 10000 3.6 160 21:55 13.01.2020
4348 Clear 4 1018 75 10000 4.1 170 21:37 13.01.2020
4349 Clear 4 1018 75 10000 4.1 170 21:18 13.01.2020
4350 Clear 4 1018 80 10000 3.1 160 20:56 13.01.2020
4351 Clear 4 1018 80 10000 3.1 160 20:38 13.01.2020
4352 Clouds 4 1018 80 10000 3.1 180 20:19 13.01.2020
4353 Clouds 3 1018 80 10000 5.7 170 19:41 13.01.2020
4354 Clouds 4 1018 80 10000 6.2 160 19:21 13.01.2020
4355 Clouds 4 1018 75 10000 5.7 160 18:59 13.01.2020
4356 Clouds 4 1018 75 10000 5.7 150 18:40 13.01.2020
4357 Clouds 4 1018 75 10000 5.7 150 18:20 13.01.2020
4358 Clouds 4 1018 75 10000 4.6 150 17:59 13.01.2020
4359 Clouds 4 1019 80 10000 3.1 140 17:40 13.01.2020
4360 Clouds 5 1019 80 10000 3.1 140 17:21 13.01.2020
4361 Clouds 5 1019 80 10000 3.6 150 16:56 13.01.2020
4362 Clouds 5 980 88 0 1.79 118 16:37 13.01.2020
4363 Clouds 5 980 91 0 2.68 126 16:18 13.01.2020
4364 Clouds 5 1020 78 0 0.45 168 15:43 13.01.2020
4365 Clouds 5 981 90 0 1.79 107 15:22 13.01.2020
4366 Clouds 5 981 90 0 1.79 107 15:22 13.01.2020
4367 Clouds 6 1021 78 0 2.94 201 14:57 13.01.2020
4368 Clouds 6 981 88 0 2.94 201 14:37 13.01.2020
4369 Clouds 6 981 86 0 4.39 248 14:18 13.01.2020
4370 Clouds 6 1021 77 0 4.39 248 13:41 13.01.2020
4371 Clouds 6 982 79 0 4.42 242 13:23 13.01.2020
4372 Clouds 6 1022 78 0 0.45 178 12:58 13.01.2020
4373 Clouds 6 1022 75 10000 3.1 200 12:40 13.01.2020
4374 Clouds 6 1022 75 10000 3.1 200 12:22 13.01.2020
4375 Clouds 6 1022 75 10000 3.1 200 11:57 13.01.2020
4376 Clouds 5 1022 75 10000 4.1 210 11:37 13.01.2020
4377 Clouds 5 1022 75 10000 4.1 210 11:19 13.01.2020
4378 Clouds 5 1022 75 10000 3.1 190 10:55 13.01.2020
4379 Clouds 5 1022 75 10000 4.1 220 10:37 13.01.2020
4380 Clouds 5 1022 75 10000 4.1 220 10:19 13.01.2020
4381 Clouds 4 1022 80 10000 3.1 220 09:43 13.01.2020
4382 Clouds 4 1022 80 10000 4.1 220 09:23 13.01.2020
4383 Clouds 4 1022 80 10000 4.1 230 08:56 13.01.2020
4384 Clouds 4 1022 80 10000 4.1 240 08:36 13.01.2020
4385 Clouds 4 1022 80 10000 4.1 240 08:18 13.01.2020
4386 Clouds 4 1022 80 10000 4.1 240 07:42 13.01.2020
4387 Clouds 4 1022 80 10000 4.6 250 07:21 13.01.2020
4388 Clouds 4 1022 80 10000 5.7 240 06:37 13.01.2020
4389 Clouds 4 1022 80 10000 5.7 240 06:37 13.01.2020
4390 Clouds 4 1022 75 10000 4.6 250 05:37 13.01.2020
4391 Clouds 4 1022 75 10000 5.1 240 04:56 13.01.2020
4392 Clouds 4 1023 75 10000 5.7 260 03:41 13.01.2020
4393 Clouds 4 1022 80 10000 5.7 240 02:50 13.01.2020
4394 Clouds 4 1022 80 10000 5.7 240 02:30 13.01.2020
4395 Clouds 3 1022 80 10000 6.7 240 01:33 13.01.2020
4396 Clouds 3 1022 84 10000 6.7 230 00:46 13.01.2020
4397 Clouds 3 1022 84 10000 5.7 230 00:26 13.01.2020
4398 Clouds 3 1022 84 10000 5.7 230 23:59 12.01.2020
4399 Clouds 3 1022 84 10000 7.2 220 23:40 12.01.2020
4400 Clouds 3 1022 83 10000 7.2 220 23:21 12.01.2020
4401 Clouds 3 1022 83 10000 7.2 220 23:21 12.01.2020
4402 Clouds 4 1022 83 10000 5.1 230 22:56 12.01.2020
4403 Clouds 3 1022 83 10000 5.1 240 22:37 12.01.2020
4404 Rain 4 1022 83 10000 5.1 240 22:19 12.01.2020
4405 Rain 4 1022 83 10000 5.7 250 21:54 12.01.2020
4406 Rain 4 1022 83 10000 5.7 240 21:36 12.01.2020
4407 Rain 3 1022 83 10000 5.7 240 21:18 12.01.2020
4408 Clouds 3 1021 83 10000 4.1 250 20:54 12.01.2020
4409 Clouds 3 1021 69 10000 3.6 230 20:36 12.01.2020
4410 Clouds 3 1021 69 10000 3.6 230 20:18 12.01.2020
4411 Clouds 3 1021 69 10000 4.1 230 19:54 12.01.2020
4412 Clouds 3 1021 64 10000 3.1 220 19:36 12.01.2020
4413 Clouds 3 1021 64 10000 3.1 220 19:18 12.01.2020
4414 Clouds 3 1021 69 10000 3.1 230 18:54 12.01.2020
4415 Clouds 2 1021 69 10000 4.1 240 18:36 12.01.2020
4416 Clouds 2 1021 69 10000 4.1 240 18:18 12.01.2020
4417 Clouds 2 1021 74 10000 1.5 260 17:42 12.01.2020
4418 Clouds 2 1021 74 10000 1.5 180 17:21 12.01.2020
4419 Clouds 3 1020 74 10000 1 0 16:57 12.01.2020
4420 Clouds 3 1020 74 10000 1 0 16:38 12.01.2020
4421 Clouds 4 1020 74 10000 1 0 16:20 12.01.2020
4422 Clouds 4 1020 74 10000 2.1 0 15:55 12.01.2020
4423 Clouds 4 1020 74 10000 2.1 0 15:55 12.01.2020
4424 Clouds 5 1020 69 10000 2.6 180 15:36 12.01.2020
4425 Clouds 5 1020 69 10000 2.6 180 15:18 12.01.2020
4426 Clouds 5 1020 69 10000 2.6 160 14:42 12.01.2020
4427 Clouds 6 1020 65 10000 3.1 160 14:22 12.01.2020
4428 Clouds 6 1021 56 10000 3.6 160 13:56 12.01.2020
4429 Clouds 6 1021 56 10000 3.6 160 13:38 12.01.2020
4430 Clouds 6 1021 55 10000 3.6 160 13:20 12.01.2020
4431 Clouds 6 1022 55 10000 2.6 160 12:55 12.01.2020
4432 Clouds 5 1022 55 10000 1 0 12:37 12.01.2020
4433 Clouds 5 1022 55 10000 1 0 12:18 12.01.2020
4434 Clouds 4 1023 80 10000 1.5 120 11:41 12.01.2020
4435 Clouds 4 1023 86 10000 1.5 160 11:22 12.01.2020
4436 Clouds 3 1024 61 10000 2.1 190 10:56 12.01.2020
4437 Clouds 2 1024 61 10000 2.1 200 10:37 12.01.2020
4438 Clouds 2 1024 61 10000 2.1 200 10:19 12.01.2020
4439 Clouds 0 1024 92 10000 2.6 160 09:42 12.01.2020
4440 Clouds 0 1024 92 10000 3.1 170 09:23 12.01.2020
4441 Clouds 0 1024 92 10000 4.6 150 08:48 12.01.2020
4442 Clouds 0 1024 92 10000 4.6 150 08:24 12.01.2020
4443 Clouds -1 1025 92 10000 3.6 160 07:56 12.01.2020
4444 Clouds -1 1025 92 10000 2.1 190 07:37 12.01.2020
4445 Clouds 0 1025 92 10000 2.1 190 07:19 12.01.2020
4446 Clouds 0 1025 92 10000 1 0 06:40 12.01.2020
4447 Clouds -1 1025 92 10000 1.5 190 05:58 12.01.2020
4448 Clouds -1 1025 92 10000 1.5 180 05:18 12.01.2020
4449 Clouds 0 1026 100 10000 2.6 180 03:44 12.01.2020
4450 Clouds 0 1027 92 10000 3.1 170 02:55 12.01.2020
4451 Clouds 0 1027 92 10000 3.6 170 02:30 12.01.2020
4452 Clouds 0 1027 92 10000 2.1 200 01:40 12.01.2020
4453 Clouds -1 1027 79 10000 2.1 190 01:21 12.01.2020
4454 Clouds 0 1028 79 10000 1.5 170 00:40 12.01.2020
4455 Clouds 0 1028 79 10000 2.1 170 00:18 12.01.2020
4456 Clouds 0 1028 79 10000 2.1 170 23:41 11.01.2020
4457 Clouds 0 1029 80 10000 2.6 190 23:19 11.01.2020
4458 Clouds 0 1029 86 10000 3.1 210 22:57 11.01.2020
4459 Clouds 0 1029 86 10000 3.1 210 22:38 11.01.2020
4460 Clouds 0 1029 86 10000 3.1 220 22:20 11.01.2020
4461 Clouds 0 1029 86 10000 3.1 210 21:54 11.01.2020
4462 Clouds 0 1030 86 10000 2.6 200 21:36 11.01.2020
4463 Clouds 0 1030 86 10000 2.6 200 21:18 11.01.2020
4464 Clouds 0 1030 80 10000 3.1 200 20:39 11.01.2020
4465 Clouds 1 1030 82 10000 2.6 210 20:20 11.01.2020
4466 Clouds 1 1030 86 10000 3.1 210 19:58 11.01.2020
4467 Clouds 1 1030 86 10000 3.1 210 19:38 11.01.2020
4468 Clouds 1 1030 80 10000 3.6 190 19:20 11.01.2020
4469 Clouds 1 1030 80 10000 3.6 200 18:57 11.01.2020
4470 Clouds 2 1030 80 10000 3.6 180 18:37 11.01.2020
4471 Clouds 2 1030 80 10000 3.6 180 18:19 11.01.2020
4472 Clouds 2 1031 80 10000 3.1 200 17:57 11.01.2020
4473 Clouds 3 1031 74 10000 3.1 220 17:39 11.01.2020
4474 Clouds 3 1031 74 10000 3.1 220 17:19 11.01.2020
4475 Clouds 4 1031 76 10000 2.6 240 16:44 11.01.2020
4476 Clouds 4 1031 76 10000 3.1 250 16:26 11.01.2020
4477 Clouds 4 1031 76 10000 2.1 260 15:58 11.01.2020
4478 Clouds 5 1031 76 10000 3.1 270 15:40 11.01.2020
4479 Clouds 5 1031 76 10000 3.1 270 15:20 11.01.2020
4480 Clouds 5 1031 76 10000 2.1 270 14:56 11.01.2020
4481 Clouds 5 1031 76 10000 2.1 270 14:38 11.01.2020
4482 Clouds 5 1031 75 10000 2.6 260 14:19 11.01.2020
4483 Clouds 5 1031 75 10000 2.6 260 13:39 11.01.2020
4484 Clouds 5 1031 80 10000 2.1 290 13:20 11.01.2020
4485 Clouds 5 1032 86 10000 3.1 280 12:58 11.01.2020
4486 Clouds 5 1032 86 10000 3.1 280 12:39 11.01.2020
4487 Drizzle 5 1032 86 10000 3.1 290 12:21 11.01.2020
4488 Drizzle 4 1032 93 10000 3.1 280 11:47 11.01.2020
4489 Rain 4 1032 93 8000 2.6 270 11:26 11.01.2020
4490 Drizzle 4 1031 93 9000 3.6 280 10:50 11.01.2020
4491 Drizzle 4 1031 93 9000 3.1 270 10:30 11.01.2020
4492 Drizzle 4 1030 93 8000 2.6 280 09:57 11.01.2020
4493 Drizzle 3 1030 93 8000 3.1 280 09:37 11.01.2020
4494 Drizzle 3 1030 93 8000 3.1 280 09:37 11.01.2020
4495 Drizzle 3 1030 93 8000 3.1 280 09:19 11.01.2020
4496 Drizzle 3 1030 93 8000 3.6 290 08:42 11.01.2020
4497 Drizzle 3 1030 93 6000 3.6 300 08:21 11.01.2020
4498 Rain 3 1030 93 10000 4.6 300 07:44 11.01.2020
4499 Clouds 3 1030 93 10000 3.1 290 07:25 11.01.2020
4500 Rain 3 1029 93 10000 5.1 310 06:50 11.01.2020
4501 Rain 3 1028 86 10000 5.1 290 05:48 11.01.2020
4502 Clouds 3 1027 86 10000 4.6 290 04:47 11.01.2020
4503 Rain 3 1027 93 10000 4.1 310 04:28 11.01.2020
4504 Rain 3 1026 86 10000 6.2 300 02:58 11.01.2020
4505 Rain 4 1026 86 10000 6.2 300 02:38 11.01.2020
4506 Rain 4 1025 80 10000 7.7 300 01:43 11.01.2020
4507 Clouds 4 1025 80 10000 6.2 290 01:20 11.01.2020
4508 Clouds 4 1024 80 10000 5.7 280 00:40 11.01.2020
4509 Clouds 4 1024 80 10000 6.2 300 00:18 11.01.2020
4510 Clouds 5 1023 80 10000 6.2 290 23:40 10.01.2020
4511 Clouds 5 1023 80 10000 6.2 290 23:40 10.01.2020
4512 Clouds 5 1022 80 10000 7.7 300 23:22 10.01.2020
4513 Clouds 5 1022 81 10000 8.7 300 22:59 10.01.2020
4514 Clouds 5 1022 81 10000 8.7 300 22:40 10.01.2020
4515 Rain 6 1021 87 10000 5.1 260 22:20 10.01.2020
4516 Clouds 6 1021 87 10000 4.6 270 21:57 10.01.2020
4517 Rain 7 1020 93 10000 5.7 270 21:37 10.01.2020
4518 Rain 7 1020 93 10000 5.7 270 21:19 10.01.2020
4519 Rain 7 1020 93 10000 5.1 280 20:43 10.01.2020
4520 Rain 7 1019 87 10000 7.7 260 20:24 10.01.2020
4521 Rain 7 1019 87 10000 7.7 260 20:24 10.01.2020
4522 Rain 8 1018 76 10000 5.7 250 19:59 10.01.2020
4523 Clouds 8 1018 76 10000 5.7 250 19:38 10.01.2020
4524 Clouds 8 1018 70 10000 5.7 240 19:19 10.01.2020
4525 Clouds 8 1018 81 10000 5.7 240 18:43 10.01.2020
4526 Rain 8 1018 76 10000 7.2 240 18:19 10.01.2020
4527 Clouds 8 1017 70 10000 6.7 240 17:58 10.01.2020
4528 Clouds 9 1017 66 10000 5.1 240 17:39 10.01.2020
4529 Clouds 9 1017 66 10000 5.1 240 17:21 10.01.2020
4530 Clouds 9 1017 71 10000 5.1 240 16:59 10.01.2020
4531 Clouds 9 1017 66 10000 4.6 240 16:40 10.01.2020
4532 Clouds 9 1017 66 10000 4.6 240 16:21 10.01.2020
4533 Clouds 10 1017 66 10000 5.7 240 15:56 10.01.2020
4534 Clouds 9 1016 66 10000 4.6 240 15:37 10.01.2020
4535 Clouds 10 1016 66 10000 4.6 240 15:19 10.01.2020
4536 Clouds 10 1016 71 10000 5.7 250 14:56 10.01.2020
4537 Clouds 10 1016 71 10000 4.1 230 14:38 10.01.2020
4538 Clouds 10 1016 71 10000 4.1 230 14:19 10.01.2020
4539 Clouds 10 1016 71 10000 6.7 240 13:45 10.01.2020
4540 Clouds 10 1016 71 10000 4.6 250 13:26 10.01.2020
4541 Clouds 10 1016 71 10000 5.7 240 12:59 10.01.2020
4542 Clouds 10 1016 71 10000 6.2 240 12:40 10.01.2020
4543 Clouds 10 1016 71 10000 6.2 240 12:21 10.01.2020
4544 Clouds 10 1016 76 10000 5.1 240 11:58 10.01.2020
4545 Clouds 9 1016 76 10000 5.1 240 11:40 10.01.2020
4546 Clouds 9 1016 81 10000 5.1 240 11:19 10.01.2020
4547 Clouds 9 1016 81 10000 5.1 240 10:59 10.01.2020
4548 Clouds 9 1015 81 10000 6.2 240 10:38 10.01.2020
4549 Clouds 8 1015 81 10000 6.2 240 10:19 10.01.2020
4550 Rain 8 1015 81 10000 5.1 230 09:46 10.01.2020
4551 Rain 8 1015 81 10000 5.7 230 09:26 10.01.2020
4552 Clouds 8 1014 81 10000 5.7 230 08:58 10.01.2020
4553 Clouds 8 1014 81 10000 5.7 230 08:38 10.01.2020
4554 Clouds 8 1014 81 10000 5.7 230 08:20 10.01.2020
4555 Rain 8 1014 76 10000 4.1 230 07:41 10.01.2020
4556 Rain 8 1014 87 10000 5.1 230 07:22 10.01.2020
4557 Rain 9 1013 76 10000 6.2 220 06:42 10.01.2020
4558 Rain 8 1013 81 10000 6.2 210 06:24 10.01.2020
4559 Rain 9 1013 87 10000 4.6 190 05:33 10.01.2020
4560 Clouds 9 1013 87 10000 3.6 170 03:32 10.01.2020
4561 Rain 9 1013 93 10000 4.1 170 02:54 10.01.2020
4562 Rain 9 1013 93 10000 4.1 170 02:33 10.01.2020
4563 Rain 9 1013 87 10000 4.1 180 01:34 10.01.2020
4564 Rain 9 1013 87 10000 2.1 180 00:57 10.01.2020
4565 Rain 9 1013 87 10000 2.1 180 00:38 10.01.2020
4566 Rain 10 1013 81 10000 1 0 23:57 09.01.2020
4567 Rain 10 1013 81 10000 3.6 180 23:38 09.01.2020
4568 Rain 10 1013 81 10000 3.6 180 23:38 09.01.2020
4569 Rain 10 1013 81 10000 3.6 180 23:19 09.01.2020
4570 Rain 9 1013 87 10000 5.7 190 22:57 09.01.2020
4571 Clouds 9 1013 87 10000 4.1 180 22:37 09.01.2020
4572 Clouds 9 1013 87 10000 4.1 180 22:37 09.01.2020
4573 Clouds 9 1013 87 10000 4.1 180 22:18 09.01.2020
4574 Clouds 9 1014 87 10000 3.6 170 21:56 09.01.2020
4575 Clouds 9 1014 87 10000 3.6 170 21:37 09.01.2020
4576 Clouds 9 1014 87 10000 3.6 170 21:37 09.01.2020
4577 Clouds 9 1014 87 10000 3.6 170 21:37 09.01.2020
4578 Clouds 9 1014 87 10000 3.6 170 21:37 09.01.2020
4579 Clouds 9 1014 87 10000 3.6 170 21:18 09.01.2020
4580 Rain 9 1014 87 10000 3.6 170 20:56 09.01.2020
4581 Rain 9 1014 87 10000 3.6 170 20:38 09.01.2020
4582 Rain 9 1014 87 10000 3.6 180 20:19 09.01.2020
4583 Rain 9 1014 87 10000 3.6 180 19:55 09.01.2020
4584 Rain 9 1014 93 10000 4.1 180 19:36 09.01.2020
4585 Rain 9 1014 93 10000 4.1 180 19:18 09.01.2020
4586 Rain 9 1014 93 10000 1 0 18:54 09.01.2020
4587 Rain 9 1014 93 10000 1 0 18:36 09.01.2020
4588 Rain 9 1015 87 10000 1 0 18:18 09.01.2020
4589 Clouds 9 1015 87 10000 3.1 170 17:41 09.01.2020
4590 Rain 9 1015 87 10000 2.1 180 17:18 09.01.2020
4591 Rain 9 1015 87 10000 2.1 180 17:18 09.01.2020
4592 Rain 8 1015 93 10000 2.6 180 16:47 09.01.2020
4593 Rain 8 1015 93 10000 2.6 180 16:23 09.01.2020
4594 Rain 8 1015 93 10000 2.6 180 16:23 09.01.2020
4595 Rain 8 1015 93 10000 2.6 180 16:23 09.01.2020
4596 Rain 8 1015 87 10000 3.6 150 15:57 09.01.2020
4597 Rain 8 1015 93 10000 5.1 150 15:39 09.01.2020
4598 Drizzle 8 1016 93 10000 3.1 150 15:18 09.01.2020
4599 Drizzle 8 1016 93 10000 2.6 150 14:42 09.01.2020
4600 Drizzle 8 1016 93 10000 2.6 150 14:22 09.01.2020
4601 Drizzle 8 1016 93 10000 2.6 150 13:57 09.01.2020
4602 Drizzle 8 1017 100 10000 3.6 150 13:39 09.01.2020
4603 Drizzle 8 1017 100 9000 4.1 150 13:20 09.01.2020
4604 Drizzle 8 1017 100 9000 4.1 150 12:58 09.01.2020
4605 Drizzle 8 1018 100 10000 3.1 150 12:39 09.01.2020
4606 Drizzle 8 1018 93 10000 3.6 160 12:19 09.01.2020
4607 Drizzle 8 1018 93 10000 3.6 160 11:57 09.01.2020
4608 Rain 7 1019 93 10000 4.6 150 11:38 09.01.2020
4609 Rain 7 1019 100 10000 4.1 150 11:20 09.01.2020
4610 Rain 7 1019 100 10000 5.7 150 10:43 09.01.2020
4611 Rain 7 1019 100 10000 5.7 150 10:22 09.01.2020
4612 Rain 6 1020 100 10000 5.7 150 09:58 09.01.2020
4613 Clouds 6 1020 100 10000 4.6 140 09:38 09.01.2020
4614 Rain 6 1020 100 10000 4.1 150 09:19 09.01.2020
4615 Rain 6 1020 100 10000 4.1 150 08:55 09.01.2020
4616 Rain 6 1020 100 4500 4.1 150 08:37 09.01.2020
4617 Rain 6 1020 100 2500 5.7 150 08:19 09.01.2020
4618 Drizzle 6 1021 100 1500 1.5 170 07:42 09.01.2020
4619 Drizzle 6 1021 100 1500 1.5 170 07:23 09.01.2020
4620 Rain 6 1022 100 1200 2.6 170 06:38 09.01.2020
4621 Rain 6 1022 100 2000 3.1 170 06:20 09.01.2020
4622 Rain 6 1022 100 1400 3.6 180 05:48 09.01.2020
4623 Rain 6 1023 100 2000 2.6 190 04:44 09.01.2020
4624 Rain 6 1023 100 3500 2.1 210 03:38 09.01.2020
4625 Rain 6 1024 93 3500 3.6 190 02:53 09.01.2020
4626 Rain 6 1024 93 3500 3.6 190 02:24 09.01.2020
4627 Drizzle 6 1024 93 4500 2.6 190 01:39 09.01.2020
4628 Drizzle 6 1024 93 4500 2.6 190 01:39 09.01.2020
4629 Rain 6 1024 93 10000 2.1 210 00:43 09.01.2020
4630 Clouds 6 1024 93 10000 2.6 220 00:21 09.01.2020
4631 Clouds 6 1024 87 10000 3.1 220 23:44 08.01.2020
4632 Clouds 6 1024 87 10000 3.1 220 23:25 08.01.2020
4633 Clouds 6 1024 87 10000 2.6 220 22:59 08.01.2020
4634 Rain 6 1024 87 10000 3.6 200 22:39 08.01.2020
4635 Clouds 6 1024 87 10000 3.1 220 22:21 08.01.2020
4636 Clouds 6 1024 87 10000 3.1 220 21:57 08.01.2020
4637 Clouds 7 1024 81 10000 3.1 230 21:38 08.01.2020
4638 Rain 7 1024 81 10000 3.6 240 21:20 08.01.2020
4639 Rain 6 1024 81 10000 3.6 240 20:58 08.01.2020
4640 Rain 7 1024 81 10000 3.1 240 20:39 08.01.2020
4641 Clouds 7 1024 81 10000 3.6 250 20:20 08.01.2020
4642 Clouds 7 1024 81 10000 3.6 250 19:56 08.01.2020
4643 Clouds 7 1024 81 10000 3.6 250 19:56 08.01.2020
4644 Clouds 6 1024 87 10000 3.1 220 19:37 08.01.2020
4645 Clouds 7 1024 87 10000 4.1 220 19:19 08.01.2020
4646 Clouds 7 1024 87 10000 4.1 220 18:56 08.01.2020
4647 Clouds 7 1024 87 10000 2.6 210 18:37 08.01.2020
4648 Clouds 7 1024 87 10000 3.1 200 18:18 08.01.2020
4649 Clouds 7 1024 87 10000 3.1 200 17:55 08.01.2020
4650 Clouds 6 1024 87 10000 3.6 220 17:36 08.01.2020
4651 Clouds 7 1024 81 10000 3.1 220 17:18 08.01.2020
4652 Clouds 7 1024 81 10000 3.1 220 16:54 08.01.2020
4653 Clouds 7 1024 81 10000 3.6 200 16:36 08.01.2020
4654 Drizzle 7 1023 81 10000 4.1 210 16:18 08.01.2020
4655 Drizzle 6 1023 81 10000 3.6 220 15:40 08.01.2020
4656 Rain 6 1024 81 10000 3.1 210 15:20 08.01.2020
4657 Rain 6 1024 81 10000 3.1 210 14:56 08.01.2020
4658 Clouds 6 1023 75 10000 4.1 220 14:38 08.01.2020
4659 Drizzle 6 1023 75 10000 3.1 210 14:19 08.01.2020
4660 Rain 6 1024 81 10000 2.6 210 13:40 08.01.2020
4661 Rain 6 1024 81 10000 3.6 210 13:19 08.01.2020
4662 Rain 5 1023 81 10000 5.7 190 12:42 08.01.2020
4663 Rain 5 1024 80 10000 6.2 180 12:19 08.01.2020
4664 Rain 5 1024 80 10000 6.2 180 11:55 08.01.2020
4665 Rain 5 1024 80 10000 5.1 180 11:37 08.01.2020
4666 Rain 5 1024 80 10000 4.6 170 11:19 08.01.2020
4667 Rain 5 1024 80 10000 4.6 170 11:19 08.01.2020
4668 Rain 5 1024 80 10000 4.6 170 10:55 08.01.2020
4669 Rain 5 1025 75 10000 4.6 190 10:37 08.01.2020
4670 Rain 5 1025 75 10000 4.6 190 10:37 08.01.2020
4671 Clouds 5 1025 80 10000 4.6 180 10:19 08.01.2020
4672 Rain 4 1025 68 10000 3.6 200 09:42 08.01.2020
4673 Clouds 4 1025 80 10000 3.6 190 09:20 08.01.2020
4674 Clouds 4 1025 80 10000 3.6 190 08:57 08.01.2020
4675 Rain 4 1025 68 10000 3.1 190 08:37 08.01.2020
4676 Clouds 4 1025 70 10000 3.1 180 08:19 08.01.2020
4677 Rain 4 1024 70 10000 3.6 180 07:49 08.01.2020
4678 Rain 4 1024 70 10000 3.6 180 07:30 08.01.2020
4679 Rain 4 1024 74 10000 3.6 180 06:49 08.01.2020
4680 Rain 3 1024 74 10000 3.6 180 06:25 08.01.2020
4681 Clouds 3 1024 74 10000 4.1 170 05:53 08.01.2020
4682 Clouds 2 1025 80 10000 3.6 160 04:59 08.01.2020
4683 Clouds 2 1026 80 10000 2.6 180 04:26 08.01.2020
4684 Clouds 2 1027 80 10000 5.1 170 02:45 08.01.2020
4685 Clouds 2 1027 80 10000 5.1 170 02:45 08.01.2020
4686 Clouds 2 1027 80 10000 5.1 170 02:23 08.01.2020
4687 Clouds 2 1027 83 10000 5.7 180 01:50 08.01.2020
4688 Clouds 2 1027 83 10000 5.7 180 01:25 08.01.2020
4689 Clouds 2 1028 86 10000 5.1 190 00:42 08.01.2020
4690 Clouds 2 1028 93 10000 5.1 180 00:21 08.01.2020
4691 Clouds 2 1028 86 10000 4.1 190 23:44 07.01.2020
4692 Clouds 2 1028 93 10000 4.1 200 23:20 07.01.2020
4693 Clouds 2 1028 86 10000 3.6 200 22:41 07.01.2020
4694 Clouds 3 1028 80 10000 3.1 220 22:21 07.01.2020
4695 Clouds 3 1028 80 10000 3.1 220 21:58 07.01.2020
4696 Clouds 3 1028 86 10000 3.1 210 21:40 07.01.2020
4697 Clouds 3 1028 86 10000 2.6 220 21:21 07.01.2020
4698 Clouds 3 1028 86 10000 2.6 220 21:21 07.01.2020
4699 Clouds 3 1028 86 10000 2.6 220 20:57 07.01.2020
4700 Clouds 3 1028 86 10000 3.1 220 20:38 07.01.2020
4701 Clouds 3 1028 86 10000 2.6 230 20:20 07.01.2020
4702 Clouds 3 1028 86 10000 2.6 230 19:56 07.01.2020
4703 Clouds 3 1028 86 10000 3.6 230 19:37 07.01.2020
4704 Clouds 3 1029 86 10000 3.6 240 19:18 07.01.2020
4705 Clouds 3 1029 86 10000 3.6 240 19:18 07.01.2020
4706 Clouds 3 1029 86 10000 3.6 240 18:55 07.01.2020
4707 Clouds 3 1028 86 10000 2.1 230 18:37 07.01.2020
4708 Clouds 3 1028 93 10000 2.6 220 18:18 07.01.2020
4709 Clouds 3 1028 93 10000 2.6 220 18:18 07.01.2020
4710 Clouds 3 1028 93 10000 2.6 220 18:18 07.01.2020
4711 Clouds 3 1028 93 10000 3.1 220 17:41 07.01.2020
4712 Clouds 3 1027 93 10000 2.1 230 17:22 07.01.2020
4713 Clouds 3 1027 93 10000 2.1 230 16:58 07.01.2020
4714 Clouds 3 1027 93 10000 2.6 230 16:38 07.01.2020
4715 Drizzle 3 1027 93 9000 3.1 250 16:19 07.01.2020
4716 Drizzle 3 1027 93 9000 3.1 250 15:59 07.01.2020
4717 Clouds 3 1027 93 8000 2.6 250 15:41 07.01.2020
4718 Clouds 3 1027 93 8000 2.6 250 15:23 07.01.2020
4719 Clouds 3 1027 93 8000 2.6 250 14:57 07.01.2020
4720 Drizzle 3 1026 93 5000 3.1 240 14:37 07.01.2020
4721 Drizzle 3 1026 100 2800 3.1 250 14:19 07.01.2020
4722 Drizzle 3 1026 100 2800 3.1 250 14:19 07.01.2020
4723 Drizzle 3 1026 100 2400 3.6 250 13:40 07.01.2020
4724 Drizzle 3 1026 100 2600 3.6 260 13:20 07.01.2020
4725 Drizzle 2 1026 100 2600 3.6 260 12:55 07.01.2020
4726 Drizzle 2 1026 93 3000 4.1 250 12:36 07.01.2020
4727 Clouds 2 1026 87 10000 4.1 250 12:18 07.01.2020
4728 Clouds 2 1026 87 10000 3.6 260 11:41 07.01.2020
4729 Clouds 2 1025 79 10000 3.6 250 11:22 07.01.2020
4730 Clouds 2 1025 79 10000 3.6 250 10:56 07.01.2020
4731 Clouds 2 1025 80 10000 3.6 250 10:37 07.01.2020
4732 Clouds 2 1025 80 10000 3.6 250 10:37 07.01.2020
4733 Clouds 2 1025 80 10000 4.1 250 10:19 07.01.2020
4734 Clouds 2 1024 80 10000 4.1 250 09:39 07.01.2020
4735 Clouds 1 1023 79 10000 3.1 210 09:21 07.01.2020
4736 Clouds 0 1023 79 10000 3.1 210 08:57 07.01.2020
4737 Clouds 1 1023 79 10000 3.1 230 08:38 07.01.2020
4738 Clouds 0 1023 86 10000 3.6 220 08:18 07.01.2020
4739 Clouds 0 1022 92 10000 3.6 210 07:42 07.01.2020
4740 Clouds 0 1022 92 10000 4.1 210 07:18 07.01.2020
4741 Clouds 0 1021 92 10000 4.1 220 06:49 07.01.2020
4742 Clouds 0 1021 92 10000 4.1 220 06:29 07.01.2020
4743 Clouds 0 1021 86 10000 3.6 210 05:41 07.01.2020
4744 Clouds 0 1020 86 10000 2.1 180 03:47 07.01.2020
4745 Clouds 0 1020 86 10000 2.1 180 03:25 07.01.2020
4746 Clear 0 1021 73 10000 2.1 180 02:20 07.01.2020
4747 Clear 0 1021 73 10000 2.6 160 01:40 07.01.2020
4748 Clear 0 1021 73 10000 2.6 160 01:40 07.01.2020
4749 Clear 0 1021 72 10000 2.1 160 00:59 07.01.2020
4750 Clear 0 1021 72 10000 3.1 170 00:21 07.01.2020
4751 Clear -1 1021 72 10000 3.1 170 23:57 06.01.2020
4752 Clear -1 1022 72 10000 4.1 150 23:38 06.01.2020
4753 Clear -1 1022 83 10000 5.1 150 23:20 06.01.2020
4754 Clear -1 1023 83 10000 4.1 150 22:55 06.01.2020
4755 Clear -1 1023 83 10000 4.1 150 22:37 06.01.2020
4756 Clear -1 1023 83 10000 4.1 150 22:18 06.01.2020
4757 Clear 0 1023 83 10000 4.1 150 21:54 06.01.2020
4758 Clouds 0 1023 86 10000 4.1 150 21:36 06.01.2020
4759 Clouds 0 1023 86 10000 3.6 160 21:18 06.01.2020
4760 Clouds 0 1023 86 10000 3.6 160 20:54 06.01.2020
4761 Clouds 0 1024 80 10000 4.1 170 20:36 06.01.2020
4762 Clouds 1 1024 74 10000 3.6 170 20:18 06.01.2020
4763 Clouds 1 1024 74 10000 3.6 170 20:18 06.01.2020
4764 Clouds 1 1024 74 10000 3.6 170 19:54 06.01.2020
4765 Clouds 1 1024 74 10000 3.1 170 19:36 06.01.2020
4766 Clouds 1 1025 87 10000 2.6 200 19:18 06.01.2020
4767 Clouds 2 1025 87 10000 2.1 210 18:41 06.01.2020
4768 Clouds 2 1025 87 10000 3.1 220 18:19 06.01.2020
4769 Clouds 3 1026 87 10000 2.6 200 17:39 06.01.2020
4770 Clouds 3 1026 80 10000 3.1 210 17:20 06.01.2020
4771 Clouds 4 1026 80 10000 3.1 210 16:57 06.01.2020
4772 Clouds 4 1026 85 10000 2.1 210 16:38 06.01.2020
4773 Clouds 4 1026 80 10000 2.1 210 16:19 06.01.2020
4774 Clouds 3 1026 80 10000 1.5 220 15:43 06.01.2020
4775 Clouds 4 1026 80 10000 1.5 230 15:22 06.01.2020
4776 Clouds 4 1026 80 10000 1.5 230 14:59 06.01.2020
4777 Clouds 4 1027 80 10000 2.1 230 14:41 06.01.2020
4778 Clouds 4 1027 80 10000 2.1 230 14:22 06.01.2020
4779 Clouds 4 1027 80 10000 2.6 220 13:59 06.01.2020
4780 Clouds 4 1027 80 10000 2.1 230 13:39 06.01.2020
4781 Clouds 4 1027 80 10000 2.6 250 13:20 06.01.2020
4782 Clouds 4 1027 80 10000 2.6 250 12:55 06.01.2020
4783 Clouds 4 1028 80 10000 2.6 250 12:37 06.01.2020
4784 Clouds 3 1028 80 10000 2.1 230 12:18 06.01.2020
4785 Clouds 4 1029 80 10000 2.1 230 11:42 06.01.2020
4786 Clouds 4 1029 80 10000 2.1 220 11:24 06.01.2020
4787 Clouds 4 1029 80 10000 2.1 220 10:59 06.01.2020
4788 Clouds 3 1029 86 10000 3.1 200 10:40 06.01.2020
4789 Clouds 3 1029 86 10000 3.6 200 10:20 06.01.2020
4790 Clouds 3 1029 86 10000 3.6 200 10:20 06.01.2020
4791 Clouds 3 1029 86 10000 3.1 220 09:39 06.01.2020
4792 Clouds 3 1030 86 10000 2.6 220 09:21 06.01.2020
4793 Clouds 3 1030 86 10000 2.6 220 08:52 06.01.2020
4794 Rain 3 1030 86 10000 2.6 220 08:34 06.01.2020
4795 Rain 3 1030 86 10000 3.1 210 07:57 06.01.2020
4796 Clouds 3 1030 93 10000 3.1 210 07:38 06.01.2020
4797 Rain 2 1030 84 10000 3.6 200 06:51 06.01.2020
4798 Rain 2 1030 84 10000 3.6 200 06:32 06.01.2020
4799 Rain 2 1030 84 10000 4.1 210 05:48 06.01.2020
4800 Clouds 2 1030 85 10000 3.6 210 04:58 06.01.2020
4801 Clouds 2 1030 85 10000 3.1 200 04:22 06.01.2020
4802 Clouds 2 1031 85 10000 3.6 200 03:30 06.01.2020
4803 Clouds 2 1031 85 10000 2.6 210 02:27 06.01.2020
4804 Clouds 2 1031 84 10000 2.6 210 01:53 06.01.2020
4805 Clouds 2 1031 84 10000 2.6 210 01:30 06.01.2020
4806 Clouds 2 1032 80 10000 3.6 210 00:46 06.01.2020
4807 Clouds 2 1032 80 10000 3.6 210 00:27 06.01.2020
4808 Clouds 2 1032 80 10000 3.6 200 23:57 05.01.2020
4809 Clouds 2 1032 74 10000 3.1 210 23:38 05.01.2020
4810 Clouds 2 1033 80 10000 3.6 220 23:19 05.01.2020
4811 Clouds 2 1033 74 10000 3.1 200 22:40 05.01.2020
4812 Clouds 2 1033 74 10000 3.1 210 22:20 05.01.2020
4813 Clouds 2 1033 74 10000 3.1 210 22:20 05.01.2020
4814 Clouds 2 1033 74 10000 3.1 210 21:57 05.01.2020
4815 Clouds 1 1033 74 10000 3.6 210 21:39 05.01.2020
4816 Clouds 1 1033 74 10000 3.1 200 21:20 05.01.2020
4817 Clouds 1 1033 74 10000 3.1 200 20:56 05.01.2020
4818 Clouds 1 1033 74 10000 3.1 210 20:38 05.01.2020
4819 Clouds 1 1033 74 10000 3.1 210 20:19 05.01.2020
4820 Clouds 1 1033 74 10000 3.1 210 19:58 05.01.2020
4821 Clouds 1 1033 74 10000 3.1 200 19:39 05.01.2020
4822 Clouds 1 1034 74 10000 3.6 210 19:20 05.01.2020
4823 Clouds 1 1034 74 10000 3.6 210 18:56 05.01.2020
4824 Clouds 1 1034 83 10000 3.1 220 18:37 05.01.2020
4825 Clouds 1 1034 83 10000 2.6 220 18:19 05.01.2020
4826 Clouds 1 1034 83 10000 2.6 220 17:58 05.01.2020
4827 Clouds 1 1034 74 10000 1.5 230 17:39 05.01.2020
4828 Clouds 1 1034 69 10000 1.5 240 17:20 05.01.2020
4829 Clouds 2 1034 69 10000 1.5 240 16:57 05.01.2020
4830 Clouds 2 1034 74 10000 2.6 260 16:38 05.01.2020
4831 Clouds 2 1033 69 10000 2.1 260 16:19 05.01.2020
4832 Clouds 2 1033 69 10000 2.1 260 16:19 05.01.2020
4833 Clouds 2 1034 69 10000 2.1 260 15:39 05.01.2020
4834 Clouds 2 1034 69 10000 2.1 260 15:39 05.01.2020
4835 Clouds 3 1034 69 10000 2.1 270 15:20 05.01.2020
4836 Clouds 3 1034 69 10000 2.1 270 14:56 05.01.2020
4837 Clouds 3 1034 69 10000 2.1 290 14:38 05.01.2020
4838 Clouds 3 1034 64 10000 3.1 310 14:20 05.01.2020
4839 Clouds 3 1034 64 10000 3.1 310 13:56 05.01.2020
4840 Clouds 3 1034 64 10000 3.1 300 13:38 05.01.2020
4841 Clouds 3 1034 69 10000 2.1 290 13:19 05.01.2020
4842 Clouds 3 1034 69 10000 2.1 290 13:19 05.01.2020
4843 Clouds 3 1034 69 10000 2.1 290 12:56 05.01.2020
4844 Clouds 3 1034 69 10000 2.1 280 12:37 05.01.2020
4845 Clouds 3 1034 74 10000 2.1 270 12:19 05.01.2020
4846 Clouds 2 1034 74 10000 1.5 260 11:44 05.01.2020
4847 Clouds 2 1034 74 10000 2.6 270 11:20 05.01.2020
4848 Clouds 2 1034 74 10000 2.6 270 10:59 05.01.2020
4849 Clouds 1 1034 80 10000 2.6 260 10:40 05.01.2020
4850 Clouds 1 1034 80 10000 2.1 270 10:19 05.01.2020
4851 Clouds 1 1033 85 10000 3.1 260 09:42 05.01.2020
4852 Clouds 0 1033 92 10000 2.1 270 09:22 05.01.2020
4853 Clouds 0 1033 92 10000 2.1 260 08:52 05.01.2020
4854 Clouds 0 1033 92 10000 2.1 260 08:32 05.01.2020
4855 Clouds -1 1032 92 10000 2.1 290 07:59 05.01.2020
4856 Clouds 0 1032 94 10000 3.6 290 07:39 05.01.2020
4857 Clouds 0 1032 92 10000 3.6 290 07:20 05.01.2020
4858 Clouds 0 1032 94 10000 3.1 290 06:44 05.01.2020
4859 Clouds 0 1031 94 10000 4.1 290 05:39 05.01.2020
4860 Snow 0 1031 92 10000 3.1 290 04:56 05.01.2020
4861 Clouds 1 1030 92 10000 4.1 290 04:18 05.01.2020
4862 Clouds 1 1030 86 10000 3.6 280 03:31 05.01.2020
4863 Clouds 1 1029 86 10000 5.7 290 02:33 05.01.2020
4864 Clouds 1 1028 86 10000 5.7 300 01:49 05.01.2020
4865 Clouds 2 1027 86 10000 6.7 280 01:20 05.01.2020
4866 Clouds 2 1027 86 10000 6.7 280 00:57 05.01.2020
4867 Clouds 2 1027 86 10000 5.1 290 00:39 05.01.2020
4868 Clouds 2 1026 86 10000 6.2 290 00:19 05.01.2020
4869 Clouds 2 1026 86 10000 5.1 300 23:41 04.01.2020
4870 Clouds 2 1026 85 10000 5.7 300 23:21 04.01.2020
4871 Clouds 2 1026 85 10000 5.7 300 22:59 04.01.2020
4872 Clouds 2 1025 85 10000 5.7 290 22:38 04.01.2020
4873 Clouds 2 1025 85 10000 5.7 290 22:20 04.01.2020
4874 Clouds 2 1025 85 10000 5.7 290 21:56 04.01.2020
4875 Clouds 2 1024 85 10000 6.2 300 21:37 04.01.2020
4876 Clouds 2 1024 93 10000 6.7 300 21:19 04.01.2020
4877 Clouds 2 1024 93 10000 6.7 300 20:55 04.01.2020
4878 Clouds 2 1023 86 10000 7.2 300 20:36 04.01.2020
4879 Clouds 2 1023 86 10000 7.2 300 20:36 04.01.2020
4880 Clouds 3 1022 86 10000 7.2 310 20:18 04.01.2020
4881 Clouds 3 1021 86 10000 6.7 310 19:41 04.01.2020
4882 Rain 3 1021 86 10000 6.7 310 19:23 04.01.2020
4883 Rain 3 1021 86 10000 7.2 310 18:58 04.01.2020
4884 Rain 3 1020 93 10000 8.7 300 18:39 04.01.2020
4885 Rain 4 1019 86 10000 7.7 290 18:20 04.01.2020
4886 Rain 4 1019 86 10000 7.7 290 17:57 04.01.2020
4887 Rain 4 1019 93 10000 9.3 280 17:39 04.01.2020
4888 Rain 4 1018 86 10000 7.7 270 17:21 04.01.2020
4889 Rain 4 1018 86 10000 7.2 270 16:42 04.01.2020
4890 Rain 4 1018 86 10000 7.2 270 16:24 04.01.2020
4891 Rain 4 1018 86 10000 6.2 260 15:57 04.01.2020
4892 Rain 3 1018 93 9000 7.2 260 15:39 04.01.2020
4893 Rain 3 1018 93 10000 8.2 260 15:19 04.01.2020
4894 Rain 3 1018 93 10000 8.2 260 14:57 04.01.2020
4895 Rain 3 1018 86 10000 6.7 250 14:39 04.01.2020
4896 Rain 4 1019 80 10000 7.2 260 14:19 04.01.2020
4897 Rain 4 1019 80 10000 7.2 260 13:56 04.01.2020
4898 Clouds 4 1019 80 10000 7.2 260 13:37 04.01.2020
4899 Clouds 4 1019 80 10000 7.2 260 13:37 04.01.2020
4900 Rain 4 1019 80 10000 7.7 260 13:18 04.01.2020
4901 Rain 4 1019 80 10000 7.7 260 13:18 04.01.2020
4902 Rain 4 1020 80 10000 7.7 260 12:42 04.01.2020
4903 Rain 4 1021 89 10000 6.2 260 12:20 04.01.2020
4904 Rain 4 1021 89 10000 6.2 260 12:20 04.01.2020
4905 Rain 4 1021 89 10000 6.2 260 12:20 04.01.2020
4906 Rain 4 1021 89 10000 6.2 260 11:59 04.01.2020
4907 Rain 4 1021 89 10000 8.7 260 11:40 04.01.2020
4908 Clouds 4 1022 78 10000 8.2 270 11:19 04.01.2020
4909 Clouds 4 1022 78 10000 8.2 270 10:55 04.01.2020
4910 Clouds 4 1022 78 10000 7.2 270 10:37 04.01.2020
4911 Clouds 4 1022 78 10000 7.2 270 10:19 04.01.2020
4912 Clouds 3 1022 78 10000 5.7 260 09:42 04.01.2020
4913 Clouds 3 1022 78 10000 5.7 260 09:23 04.01.2020
4914 Clouds 3 1023 80 10000 5.1 260 08:44 04.01.2020
4915 Clouds 3 1023 80 10000 4.6 260 08:25 04.01.2020
4916 Clouds 4 1023 80 10000 4.1 260 07:51 04.01.2020
4917 Clouds 4 1023 80 10000 4.1 260 07:32 04.01.2020
4918 Clouds 4 1022 80 10000 4.6 280 06:39 04.01.2020
4919 Clouds 4 1022 86 10000 5.1 280 05:52 04.01.2020
4920 Clouds 4 1022 86 10000 3.6 280 04:48 04.01.2020
4921 Clouds 4 1022 86 10000 3.6 280 04:28 04.01.2020
4922 Clouds 4 1022 86 10000 5.7 300 03:20 04.01.2020
4923 Clouds 5 1021 93 10000 6.2 310 02:46 04.01.2020
4924 Rain 5 1021 86 10000 6.2 320 02:18 04.01.2020
4925 Drizzle 5 1020 93 8000 9.8 310 01:37 04.01.2020
4926 Drizzle 6 1018 93 4000 5.7 290 01:19 04.01.2020
4927 Drizzle 7 1018 93 6000 7.2 290 00:29 04.01.2020
4928 Rain 7 1017 93 10000 6.7 270 23:57 03.01.2020
4929 Rain 7 1017 93 9000 7.2 270 23:29 03.01.2020
4930 Rain 7 1016 81 10000 7.7 250 22:57 03.01.2020
4931 Rain 7 1016 81 10000 7.7 250 22:57 03.01.2020
4932 Rain 7 1016 81 10000 7.7 250 22:39 03.01.2020
4933 Rain 7 1016 87 10000 7.2 250 22:19 03.01.2020
4934 Rain 7 1016 87 10000 7.2 250 21:57 03.01.2020
4935 Rain 7 1016 87 10000 7.2 250 21:38 03.01.2020
4936 Rain 7 1016 81 10000 6.2 240 21:19 03.01.2020
4937 Rain 6 1016 81 10000 6.2 240 20:55 03.01.2020
4938 Clouds 6 1017 81 10000 6.7 240 20:55 03.01.2020
4939 Clouds 6 1017 81 10000 6.7 240 20:36 03.01.2020
4940 Clouds 6 1017 75 10000 7.2 240 20:18 03.01.2020
4941 Clouds 6 1017 75 10000 7.2 240 19:54 03.01.2020
4942 Clouds 6 1017 75 10000 7.2 240 19:36 03.01.2020
4943 Clouds 6 1017 75 10000 7.2 240 19:18 03.01.2020
4944 Clouds 6 1017 75 10000 7.2 230 18:39 03.01.2020
4945 Clouds 6 1017 75 10000 7.2 230 18:39 03.01.2020
4946 Clouds 6 1017 75 10000 6.7 240 18:20 03.01.2020
4947 Clouds 6 1017 75 10000 6.2 240 17:54 03.01.2020
4948 Clouds 6 1017 75 10000 6.2 240 17:36 03.01.2020
4949 Clouds 6 1017 75 10000 5.7 240 17:18 03.01.2020
4950 Clouds 6 1017 70 10000 5.7 230 16:42 03.01.2020
4951 Clouds 6 1017 70 10000 4.6 220 16:22 03.01.2020
4952 Clouds 6 1017 70 10000 4.6 230 15:43 03.01.2020
4953 Clouds 6 1017 70 10000 5.1 220 15:19 03.01.2020
4954 Clouds 6 1017 70 10000 5.1 220 15:19 03.01.2020
4955 Clouds 6 1017 70 10000 5.1 220 14:57 03.01.2020
4956 Clouds 6 1018 70 10000 6.2 220 14:37 03.01.2020
4957 Clouds 6 1018 70 10000 6.2 230 14:19 03.01.2020
4958 Clouds 6 1018 75 10000 7.2 230 13:43 03.01.2020
4959 Clouds 5 1019 75 10000 7.2 230 13:23 03.01.2020
4960 Clouds 5 1019 75 10000 7.2 230 12:57 03.01.2020
4961 Clouds 5 1019 75 10000 6.2 230 12:38 03.01.2020
4962 Clouds 5 1020 75 10000 5.7 230 12:20 03.01.2020
4963 Clouds 5 1020 75 10000 5.7 230 11:44 03.01.2020
4964 Clouds 5 1020 75 10000 4.1 230 11:20 03.01.2020
4965 Rain 4 1020 80 10000 5.1 200 10:44 03.01.2020
4966 Rain 4 1020 80 10000 5.1 200 10:25 03.01.2020
4967 Rain 4 1020 80 10000 5.1 200 10:25 03.01.2020
4968 Rain 4 1020 74 10000 6.7 190 09:58 03.01.2020
4969 Rain 4 1020 74 10000 6.2 190 09:39 03.01.2020
4970 Rain 3 1021 74 10000 6.2 190 09:21 03.01.2020
4971 Rain 3 1021 74 10000 6.2 190 08:56 03.01.2020
4972 Clouds 3 1021 86 10000 6.2 170 08:38 03.01.2020
4973 Clouds 2 1021 86 10000 1.5 0 08:19 03.01.2020
4974 Clouds 2 1021 92 10000 6.2 170 07:40 03.01.2020
4975 Clouds 1 1021 92 10000 4.1 170 07:18 03.01.2020
4976 Clear 1 1021 92 10000 6.2 190 06:49 03.01.2020
4977 Clear 1 1021 92 10000 6.2 190 06:30 03.01.2020
4978 Clear 1 1022 86 10000 1.5 220 05:45 03.01.2020
4979 Clear 0 1022 92 10000 6.2 170 04:22 03.01.2020
4980 Clouds -1 1023 86 10000 4.1 170 02:56 03.01.2020
4981 Clouds -1 1024 92 10000 4.6 180 02:33 03.01.2020
4982 Clouds 0 1024 92 10000 5.1 190 01:44 03.01.2020
4983 Clouds -1 1025 92 10000 3.6 210 00:50 03.01.2020
4984 Clouds 0 1025 92 10000 3.6 210 00:31 03.01.2020
4985 Clouds -1 1025 86 10000 3.6 210 23:56 02.01.2020
4986 Clear 0 1025 86 10000 3.6 230 23:38 02.01.2020
4987 Clear 0 1025 86 10000 3.1 230 23:19 02.01.2020
4988 Clear -1 1025 86 10000 3.1 230 22:57 02.01.2020
4989 Clear 0 1025 80 10000 2.6 260 22:38 02.01.2020
4990 Clear 0 1025 74 10000 2.6 250 22:18 02.01.2020
4991 Clear 0 1025 81 10000 3.6 230 21:41 02.01.2020
4992 Clear 0 1025 81 10000 3.6 230 21:23 02.01.2020
4993 Clear 1 1025 74 10000 2.6 240 20:59 02.01.2020
4994 Clear 1 1025 74 10000 2.6 240 20:59 02.01.2020
4995 Clear 1 1025 74 10000 2.6 240 20:59 02.01.2020
4996 Clear 1 1025 74 10000 2.6 240 20:59 02.01.2020
4997 Clear 1 1025 74 10000 2.6 240 20:59 02.01.2020
4998 Clear 1 1025 81 10000 1.5 310 20:39 02.01.2020
4999 Clear 1 1025 74 10000 3.1 210 20:21 02.01.2020
5000 Clear 1 1025 74 10000 3.1 210 20:21 02.01.2020
5001 Clear 1 1025 74 10000 3.1 210 19:56 02.01.2020
5002 Clear 2 1025 59 10000 2.6 170 19:38 02.01.2020
5003 Clear 2 1025 59 10000 2.1 170 19:19 02.01.2020
5004 Clear 2 1025 59 10000 2.1 170 18:58 02.01.2020
5005 Clear 2 1025 64 10000 3.1 200 18:40 02.01.2020
5006 Clear 1 1025 64 10000 2.1 190 18:22 02.01.2020
5007 Clear 2 1025 64 10000 2.6 210 17:57 02.01.2020
5008 Clear 2 1025 64 10000 2.6 210 17:37 02.01.2020
5009 Clear 2 1025 64 10000 3.6 200 17:19 02.01.2020
5010 Clear 3 1025 64 10000 3.6 200 16:57 02.01.2020
5011 Clear 3 1024 59 10000 1.5 210 16:38 02.01.2020
5012 Clear 4 1024 60 10000 3.1 160 16:20 02.01.2020
5013 Clear 4 1024 60 10000 3.1 160 15:56 02.01.2020
5014 Clear 5 1024 60 10000 4.6 150 15:37 02.01.2020
5015 Clear 5 1025 60 10000 4.6 160 15:19 02.01.2020
5016 Clear 5 1025 56 10000 5.1 150 14:54 02.01.2020
5017 Clear 5 1025 56 10000 5.1 150 14:54 02.01.2020
5018 Clear 5 1025 56 10000 5.1 150 14:36 02.01.2020
5019 Clear 6 1025 52 10000 4.6 140 14:18 02.01.2020
5020 Clear 6 1026 56 10000 2.6 140 13:47 02.01.2020
5021 Clear 7 1026 56 10000 2.6 140 13:29 02.01.2020
5022 Clear 6 1027 64 10000 2.1 210 12:44 02.01.2020
5023 Clear 6 1027 64 10000 2.1 210 12:25 02.01.2020
5024 Clear 4 1028 69 10000 2.1 210 11:44 02.01.2020
5025 Clear 3 1028 69 10000 2.1 210 11:26 02.01.2020
5026 Clear 2 1028 74 10000 2.6 200 10:58 02.01.2020
5027 Clear 2 1028 45 10000 1.5 160 10:39 02.01.2020
5028 Clear 0 1028 86 10000 2.1 140 10:19 02.01.2020
5029 Clear -1 1028 92 10000 2.6 170 09:42 02.01.2020
5030 Clear -2 1028 86 10000 2.6 170 09:24 02.01.2020
5031 Clear -1 1028 92 10000 2.6 150 08:45 02.01.2020
5032 Clear -3 1028 92 10000 3.6 150 08:27 02.01.2020
5033 Clear -4 1028 92 10000 2.6 160 07:50 02.01.2020
5034 Clear -3 1028 92 10000 2.6 160 07:30 02.01.2020
5035 Clear -4 1029 92 10000 2.1 180 06:45 02.01.2020
5036 Clear -4 1029 92 10000 2.1 180 06:26 02.01.2020
5037 Clear -4 1029 92 10000 1.5 180 04:53 02.01.2020
5038 Clear -4 1029 92 10000 3.1 170 04:30 02.01.2020
5039 Clear -4 1030 86 10000 1 0 02:32 02.01.2020
5040 Clear -3 1030 86 10000 1 0 01:58 02.01.2020
5041 Clear -3 1029 86 10000 1.5 170 01:33 02.01.2020
5042 Clear -3 1030 86 10000 1 170 00:57 02.01.2020
5043 Clear -4 1030 92 10000 1 0 00:33 02.01.2020
5044 Clear -3 1030 92 10000 1.5 230 23:52 01.01.2020
5045 Clear -3 1030 92 10000 1.5 170 23:28 01.01.2020
5046 Clear -3 1030 92 10000 0.5 0 22:56 01.01.2020
5047 Clear -3 1030 92 10000 0.5 0 22:38 01.01.2020
5048 Clear -3 1030 92 10000 1.5 170 22:19 01.01.2020
5049 Clear -2 1030 92 10000 1.5 170 21:56 01.01.2020
5050 Clear -2 1031 92 10000 1.5 140 21:37 01.01.2020
5051 Clear -2 1031 100 10000 2.1 180 21:19 01.01.2020
5052 Clear -2 1031 100 10000 2.1 180 20:55 01.01.2020
5053 Clear -1 1031 92 10000 2.6 190 20:36 01.01.2020
5054 Clear -2 1031 92 10000 1.5 160 20:18 01.01.2020
5055 Clear -1 1031 92 10000 1.5 160 19:54 01.01.2020
5056 Clear -1 1032 49 10000 2.1 170 19:36 01.01.2020
5057 Clear -1 1032 86 10000 3.1 150 19:18 01.01.2020
5058 Clear -1 1032 86 10000 3.1 150 18:55 01.01.2020
5059 Clear 0 1032 86 10000 2.6 150 18:36 01.01.2020
5060 Clear -1 992 91 0 0.89 107 18:18 01.01.2020
5061 Clear 0 1033 81 0 2.31 208 17:55 01.01.2020
5062 Clear 0 1032 49 10000 2.1 160 17:37 01.01.2020
5063 Clear 1 1032 73 10000 1 0 17:18 01.01.2020
5064 Clear 2 1032 73 10000 0.5 0 16:39 01.01.2020
5065 Clear 2 1032 73 10000 0.5 0 16:39 01.01.2020
5066 Clear 3 1032 73 10000 1 270 16:20 01.01.2020
5067 Clear 3 1032 73 10000 1 270 15:57 01.01.2020
5068 Clear 4 1032 73 10000 1.5 260 15:39 01.01.2020
5069 Clear 5 1032 73 10000 1.5 260 15:20 01.01.2020
5070 Clear 5 1032 73 10000 1.5 260 14:58 01.01.2020
5071 Clear 5 1032 73 10000 1.5 260 14:58 01.01.2020
5072 Clear 5 1033 75 10000 2.1 270 14:40 01.01.2020
5073 Clouds 5 1033 75 10000 2.1 280 14:21 01.01.2020
5074 Clouds 5 1033 71 10000 2.1 270 13:56 01.01.2020
5075 Clouds 5 1033 71 10000 2.1 270 13:37 01.01.2020
5076 Clouds 5 1033 71 10000 2.1 270 13:37 01.01.2020
5077 Clouds 5 1033 71 10000 2.1 270 13:37 01.01.2020
5078 Clouds 5 1034 71 10000 3.1 260 13:18 01.01.2020
5079 Clouds 5 1034 67 10000 3.1 260 12:55 01.01.2020
5080 Clouds 5 1034 67 10000 3.6 270 12:37 01.01.2020
5081 Clouds 5 1034 67 10000 2.6 280 12:18 01.01.2020
5082 Clouds 4 1034 67 10000 2.6 290 11:43 01.01.2020
5083 Clouds 4 1034 82 10000 1.5 290 11:22 01.01.2020
5084 Clouds 4 1034 82 10000 1.5 290 10:59 01.01.2020
5085 Clouds 3 1034 82 10000 2.1 270 10:40 01.01.2020
5086 Clouds 3 1034 82 10000 2.6 260 10:20 01.01.2020
5087 Clouds 3 1034 82 10000 2.6 260 10:20 01.01.2020
5088 Clouds 3 1034 82 10000 2.6 260 09:57 01.01.2020
5089 Clouds 2 1034 82 10000 2.6 270 09:37 01.01.2020
5090 Clouds 2 1034 82 10000 2.1 260 09:18 01.01.2020
5091 Clouds 2 1034 82 10000 2.1 260 08:55 01.01.2020
5092 Clouds 1 1034 82 10000 2.1 270 08:36 01.01.2020
5093 Clouds 1 1034 82 10000 2.1 270 08:36 01.01.2020
5094 Clouds 1 1034 93 10000 2.6 290 08:18 01.01.2020
5095 Clouds 1 1034 93 10000 2.6 290 07:51 01.01.2020
5096 Clouds 1 1034 93 10000 2.6 290 07:32 01.01.2020
5097 Clouds 1 1033 93 10000 3.6 300 06:44 01.01.2020
5098 Clouds 2 1033 93 10000 2.6 290 06:20 01.01.2020
5099 Clouds 3 1033 92 10000 3.6 290 05:21 01.01.2020
5100 Clouds 3 1033 92 10000 2.6 290 03:43 01.01.2020
5101 Clouds 3 1033 92 10000 2.6 290 03:23 01.01.2020
5102 Clouds 3 1033 80 10000 3.1 280 02:57 01.01.2020
5103 Clouds 3 1034 80 10000 3.1 290 02:35 01.01.2020
5104 Clouds 4 1033 80 10000 3.1 280 01:56 01.01.2020
5105 Clouds 4 1033 80 10000 2.6 280 01:38 01.01.2020
5106 Clouds 4 1034 80 10000 3.1 290 01:20 01.01.2020
5107 Clouds 4 1034 80 10000 3.1 290 00:44 01.01.2020
5108 Clouds 4 1034 80 10000 3.6 290 00:25 01.01.2020
5109 Clouds 4 1034 80 10000 3.1 280 23:41 31.12.2019
5110 Clouds 4 1034 80 10000 3.6 280 23:21 31.12.2019
5111 Clouds 4 1034 80 10000 3.6 280 22:57 31.12.2019
5112 Clouds 4 1033 86 10000 3.6 290 22:39 31.12.2019
5113 Clouds 4 1033 80 10000 4.1 290 22:20 31.12.2019
5114 Clouds 4 1033 80 10000 4.1 290 21:57 31.12.2019
5115 Clouds 4 1033 80 10000 4.6 290 21:39 31.12.2019
5116 Clouds 4 1033 80 10000 3.1 300 21:20 31.12.2019
5117 Clouds 4 1033 80 10000 3.1 300 20:55 31.12.2019
5118 Clouds 5 1032 80 10000 5.1 290 20:37 31.12.2019
5119 Clouds 5 1032 80 10000 4.1 290 20:19 31.12.2019
5120 Clouds 5 1032 80 10000 4.1 290 19:54 31.12.2019
5121 Clouds 5 1032 80 10000 4.1 280 19:36 31.12.2019
5122 Clouds 4 1032 75 10000 5.1 290 19:18 31.12.2019
5123 Clouds 4 1032 75 10000 5.1 290 18:54 31.12.2019
5124 Clouds 4 1031 80 10000 4.1 290 18:36 31.12.2019
5125 Clouds 5 1032 80 10000 3.6 290 18:18 31.12.2019
5126 Clouds 5 1032 80 10000 3.6 290 18:18 31.12.2019
5127 Clouds 5 1032 80 10000 3.6 290 17:54 31.12.2019
5128 Clouds 5 1031 80 10000 3.1 280 17:36 31.12.2019
5129 Clouds 5 1031 80 10000 3.6 280 17:18 31.12.2019
5130 Clouds 5 1031 80 10000 3.6 280 17:18 31.12.2019
5131 Clouds 5 1031 80 10000 3.6 280 16:55 31.12.2019
5132 Clouds 5 1031 80 10000 4.1 300 16:36 31.12.2019
5133 Clouds 5 1030 80 10000 4.6 290 16:18 31.12.2019
5134 Clouds 5 1030 80 10000 4.6 290 15:55 31.12.2019
5135 Clouds 5 1030 80 10000 5.1 290 15:37 31.12.2019
5136 Clouds 5 1029 80 10000 5.7 290 15:18 31.12.2019
5137 Clouds 5 1029 80 10000 5.7 290 14:55 31.12.2019
5138 Clouds 5 1029 80 10000 6.2 290 14:36 31.12.2019
5139 Clouds 5 1029 80 10000 6.2 290 14:18 31.12.2019
5140 Clouds 5 1029 80 10000 6.2 290 13:54 31.12.2019
5141 Clouds 5 1029 80 10000 6.7 300 13:36 31.12.2019
5142 Clouds 5 1029 80 10000 6.7 300 13:18 31.12.2019
5143 Clouds 5 1029 80 10000 6.7 300 12:54 31.12.2019
5144 Clouds 5 1029 80 10000 6.7 300 12:36 31.12.2019
5145 Clouds 5 1029 80 10000 6.7 300 12:36 31.12.2019
5146 Clouds 5 1029 80 10000 6.2 300 12:18 31.12.2019
5147 Clouds 5 1029 75 10000 5.7 300 11:54 31.12.2019
5148 Clouds 4 1029 75 10000 5.7 300 11:36 31.12.2019
5149 Clouds 4 1028 75 10000 5.1 290 11:18 31.12.2019
5150 Clouds 4 1028 75 10000 5.7 270 10:54 31.12.2019
5151 Clouds 4 1028 75 10000 5.7 270 10:36 31.12.2019
5152 Clouds 4 1028 75 10000 5.7 270 10:36 31.12.2019
5153 Clouds 3 1027 71 10000 5.1 270 10:18 31.12.2019
5154 Clouds 3 1027 71 10000 5.1 270 10:18 31.12.2019
5155 Clouds 3 1027 71 10000 5.1 270 09:54 31.12.2019
5156 Clouds 3 1027 71 10000 4.6 260 09:36 31.12.2019
5157 Drizzle 4 1027 86 9000 5.1 270 09:18 31.12.2019
5158 Clouds 4 1027 69 10000 6.2 290 08:42 31.12.2019
5159 Clouds 4 1027 69 10000 6.2 290 08:42 31.12.2019
5160 Clouds 4 1026 52 10000 6.2 290 08:22 31.12.2019
5161 Clouds 4 1026 44 10000 4.6 280 07:45 31.12.2019
5162 Clouds 5 1025 38 10000 5.1 250 07:22 31.12.2019
5163 Clouds 3 1024 38 10000 5.7 270 06:51 31.12.2019
5164 Clouds 4 1024 38 10000 5.7 270 06:27 31.12.2019
5165 Clear 3 1024 26 10000 4.1 250 04:55 31.12.2019
5166 Clear 4 1024 26 10000 4.1 250 04:25 31.12.2019
5167 Clear 3 1023 31 10000 4.1 240 02:58 31.12.2019
5168 Clouds 3 1023 39 10000 4.1 230 02:21 31.12.2019
5169 Clouds 3 1023 42 10000 4.1 230 01:51 31.12.2019
5170 Clouds 3 1023 42 10000 4.1 230 01:32 31.12.2019
5171 Clouds 4 1024 42 10000 4.6 230 00:54 31.12.2019
5172 Clouds 3 1024 42 10000 5.7 220 00:36 31.12.2019
5173 Clouds 3 1024 48 10000 4.1 230 00:18 31.12.2019
5174 Clouds 4 1024 48 10000 4.1 230 23:54 30.12.2019
5175 Clouds 4 1025 45 10000 6.2 220 23:36 30.12.2019
5176 Clouds 4 1025 55 10000 5.7 210 23:18 30.12.2019
5177 Clouds 4 1025 55 10000 5.7 210 22:54 30.12.2019
5178 Clouds 4 1025 64 10000 3.6 210 22:36 30.12.2019
5179 Clouds 4 1026 64 10000 4.6 210 22:18 30.12.2019
5180 Clouds 4 1026 64 10000 4.6 210 21:55 30.12.2019
5181 Clouds 3 1026 64 10000 3.6 210 21:36 30.12.2019
5182 Clouds 4 1026 64 10000 4.1 220 21:18 30.12.2019
5183 Clouds 4 1027 60 10000 4.6 220 20:41 30.12.2019
5184 Clouds 4 1027 56 10000 4.1 210 20:21 30.12.2019
5185 Clouds 4 1027 56 10000 4.1 210 19:59 30.12.2019
5186 Clouds 4 1027 56 10000 4.1 210 19:59 30.12.2019
5187 Clouds 4 1027 60 10000 1 0 19:40 30.12.2019
5188 Clouds 4 1027 60 10000 2.6 210 19:20 30.12.2019
5189 Clouds 4 1027 60 10000 2.6 210 19:20 30.12.2019
5190 Clouds 4 1027 60 10000 2.6 210 18:59 30.12.2019
5191 Clouds 2 1027 64 10000 4.1 190 18:41 30.12.2019
5192 Clouds 2 1028 64 10000 3.1 210 18:21 30.12.2019
5193 Clouds 3 1028 64 10000 3.1 210 17:59 30.12.2019
5194 Clouds 4 1028 64 10000 4.1 210 17:41 30.12.2019
5195 Clouds 4 1028 60 10000 4.1 210 17:20 30.12.2019
5196 Clouds 2 1028 60 10000 4.1 210 16:59 30.12.2019
5197 Clouds 3 1028 60 10000 4.1 200 16:40 30.12.2019
5198 Clouds 4 1029 60 10000 3.6 200 16:20 30.12.2019
5199 Clouds 4 1029 60 10000 3.6 200 15:57 30.12.2019
5200 Clouds 3 1029 60 10000 3.6 200 15:38 30.12.2019
5201 Clouds 5 1029 56 10000 3.1 190 15:19 30.12.2019
5202 Clouds 5 1029 56 10000 3.1 190 14:55 30.12.2019
5203 Clouds 5 1029 56 10000 2.6 190 14:37 30.12.2019
5204 Clouds 5 1029 56 10000 3.1 190 14:18 30.12.2019
5205 Rain 5 1030 56 10000 3.1 180 13:42 30.12.2019
5206 Rain 5 1030 56 10000 3.1 180 13:24 30.12.2019
5207 Rain 5 1030 56 10000 3.1 180 13:24 30.12.2019
5208 Clouds 5 1030 56 10000 3.1 180 12:59 30.12.2019
5209 Clouds 6 1031 55 10000 3.1 190 12:41 30.12.2019
5210 Clouds 6 1031 55 10000 2.6 180 12:19 30.12.2019
5211 Clouds 5 1031 55 10000 2.6 180 11:56 30.12.2019
5212 Clouds 5 1031 55 10000 3.1 190 11:38 30.12.2019
5213 Clouds 4 1032 55 10000 2.6 200 11:18 30.12.2019
5214 Clouds 3 1032 59 10000 3.1 170 10:43 30.12.2019
5215 Clouds 1 1032 59 10000 4.6 170 10:20 30.12.2019
5216 Clouds 1 1032 59 10000 4.6 170 09:55 30.12.2019
5217 Clouds 1 1032 64 10000 3.6 180 09:37 30.12.2019
5218 Clouds 1 1032 64 10000 4.1 180 09:18 30.12.2019
5219 Clouds 1 1032 50 10000 4.6 180 08:46 30.12.2019
5220 Clouds 1 1032 46 10000 4.6 180 08:23 30.12.2019
5221 Clouds 1 1032 64 10000 3.6 200 07:53 30.12.2019
5222 Clouds 1 1032 64 10000 3.1 190 07:33 30.12.2019
5223 Clouds 0 1032 39 10000 2.6 190 06:50 30.12.2019
5224 Clouds 1 1033 33 10000 5.1 180 04:50 30.12.2019
5225 Clouds 0 1034 33 10000 3.6 200 03:52 30.12.2019
5226 Clouds 0 1035 74 10000 2.6 170 02:50 30.12.2019
5227 Clouds -1 1035 74 10000 2.6 170 02:32 30.12.2019
5228 Clouds -1 1034 74 10000 5.1 170 01:50 30.12.2019
5229 Clouds -1 1035 74 10000 2.1 180 01:20 30.12.2019
5230 Clouds -1 1035 74 10000 3.1 170 00:43 30.12.2019
5231 Clouds -1 1035 74 10000 4.1 180 00:18 30.12.2019
5232 Clouds -1 1035 74 10000 2.6 180 23:39 29.12.2019
5233 Clouds -1 1036 74 10000 3.1 190 23:21 29.12.2019
5234 Clouds -1 1036 74 10000 3.1 180 22:43 29.12.2019
5235 Clouds -1 1036 74 10000 3.1 180 22:24 29.12.2019
5236 Clouds -1 1036 74 10000 2.6 180 21:59 29.12.2019
5237 Clouds -1 1036 74 10000 1.5 160 21:41 29.12.2019
5238 Clouds -1 1036 74 10000 1.5 140 21:21 29.12.2019
5239 Clouds -1 1036 74 10000 1.5 140 20:57 29.12.2019
5240 Clouds -1 1036 79 10000 1.5 150 20:39 29.12.2019
5241 Clouds -1 1036 74 10000 1.5 160 20:20 29.12.2019
5242 Clouds -1 1036 74 10000 1.5 160 20:20 29.12.2019
5243 Clouds -1 1036 74 10000 1.5 160 20:20 29.12.2019
5244 Clouds -1 1036 74 10000 1.5 160 19:59 29.12.2019
5245 Clouds -1 1036 74 10000 2.1 160 19:40 29.12.2019
5246 Clouds -1 1036 74 10000 3.1 160 19:21 29.12.2019
5247 Clouds -1 1036 74 10000 3.1 160 18:58 29.12.2019
5248 Clouds -1 1037 74 10000 2.1 150 18:38 29.12.2019
5249 Clouds -1 1037 74 10000 2.1 160 18:20 29.12.2019
5250 Clouds -1 1037 74 10000 2.1 160 17:58 29.12.2019
5251 Clouds -1 1037 48 10000 1 150 17:39 29.12.2019
5252 Clouds -1 1037 60 10000 2.1 150 17:20 29.12.2019
5253 Clouds 0 1037 60 10000 2.1 150 16:57 29.12.2019
5254 Clouds 0 1037 60 10000 2.1 170 16:38 29.12.2019
5255 Clouds 0 1037 60 10000 2.1 170 16:38 29.12.2019
5256 Clouds 0 1037 60 10000 2.1 170 16:20 29.12.2019
5257 Clouds 1 1037 60 10000 2.1 170 15:58 29.12.2019
5258 Clouds 1 1037 60 10000 2.1 170 15:58 29.12.2019
5259 Clouds 1 1038 64 10000 1.5 180 15:39 29.12.2019
5260 Clouds 1 1038 59 10000 1.5 200 15:20 29.12.2019
5261 Clouds 2 1038 59 10000 1.5 200 14:58 29.12.2019
5262 Clouds 2 1038 55 10000 1.5 190 14:39 29.12.2019
5263 Clouds 2 1038 59 10000 1.5 230 14:18 29.12.2019
5264 Clouds 2 1038 59 10000 1.5 230 13:58 29.12.2019
5265 Clouds 2 1038 55 10000 1.5 190 13:39 29.12.2019
5266 Clouds 2 1038 59 10000 2.1 200 13:21 29.12.2019
5267 Clouds 2 1038 59 10000 2.1 200 12:56 29.12.2019
5268 Clouds 1 1039 55 10000 2.1 200 12:38 29.12.2019
5269 Clouds 1 1039 59 10000 2.1 170 12:20 29.12.2019
5270 Clouds 1 1039 64 10000 3.1 150 11:41 29.12.2019
5271 Clear 0 1039 70 10000 3.1 140 11:21 29.12.2019
5272 Clear 0 1039 70 10000 3.1 140 10:57 29.12.2019
5273 Clear -1 1039 74 10000 2.1 170 10:38 29.12.2019
5274 Clear -1 1039 80 10000 2.6 210 10:18 29.12.2019
5275 Clear -1 1039 80 10000 2.6 210 10:18 29.12.2019
5276 Clear -2 1039 86 10000 2.1 220 09:45 29.12.2019
5277 Clear -3 1039 86 10000 2.1 220 09:27 29.12.2019
5278 Clear -3 1039 86 10000 2.6 180 08:55 29.12.2019
5279 Clear -3 1039 86 10000 2.1 220 08:37 29.12.2019
5280 Clouds -3 1040 92 10000 1.5 190 08:18 29.12.2019
5281 Clouds -3 1039 86 10000 2.1 160 07:43 29.12.2019
5282 Clouds -3 1040 86 10000 1.5 150 07:25 29.12.2019
5283 Clouds -3 1040 86 10000 1 0 06:28 29.12.2019
5284 Clouds -3 1040 86 10000 0.5 260 05:55 29.12.2019
5285 Clouds -3 1040 80 10000 0.5 0 04:59 29.12.2019
5286 Clouds -2 1040 80 10000 1 360 04:30 29.12.2019
5287 Clouds -2 1040 74 10000 0.5 0 03:35 29.12.2019
5288 Clouds -2 1040 74 10000 1 210 02:27 29.12.2019
5289 Clouds -2 1040 80 10000 1.5 280 01:52 29.12.2019
5290 Clouds -2 1040 80 10000 1.5 280 01:29 29.12.2019
5291 Clouds -2 1040 80 10000 1.5 280 01:29 29.12.2019
5292 Clouds -1 1041 88 10000 1.5 0 00:45 29.12.2019
5293 Clouds -1 1041 88 10000 1.5 0 00:45 29.12.2019
5294 Clouds -1 1041 88 10000 1.5 0 00:25 29.12.2019
5295 Clouds -1 1041 88 10000 1.5 0 00:25 29.12.2019
5296 Clouds -1 1041 88 10000 2.1 280 23:55 28.12.2019
5297 Clouds -1 1042 88 10000 1 0 23:37 28.12.2019
5298 Clouds -1 1041 91 10000 1 0 23:18 28.12.2019
5299 Clouds -1 1042 91 10000 2.1 280 22:37 28.12.2019
5300 Clouds -1 1042 91 10000 2.1 300 22:18 28.12.2019
5301 Clouds -1 1042 91 10000 2.1 300 21:56 28.12.2019
5302 Clouds -1 1041 91 10000 1.5 310 21:37 28.12.2019
5303 Clouds -1 1041 91 10000 1.5 310 21:19 28.12.2019
5304 Clouds -1 1041 91 10000 1.5 330 20:54 28.12.2019
5305 Clouds -1 1041 91 10000 1.5 310 20:54 28.12.2019
5306 Clouds -1 1041 91 10000 1.5 330 20:36 28.12.2019
5307 Clouds 0 1041 90 10000 1.5 310 20:18 28.12.2019
5308 Clouds 0 1041 90 10000 2.1 310 19:43 28.12.2019
5309 Clouds 0 1041 90 10000 2.1 310 19:24 28.12.2019
5310 Clouds 0 1041 90 10000 2.1 310 18:59 28.12.2019
5311 Clouds 0 1041 90 10000 2.6 320 18:41 28.12.2019
5312 Clouds 0 1041 90 10000 2.1 330 18:20 28.12.2019
5313 Clouds 0 1041 90 10000 2.1 330 17:59 28.12.2019
5314 Clouds 0 1041 90 10000 3.1 330 17:40 28.12.2019
5315 Clouds 0 1041 81 10000 3.1 330 17:21 28.12.2019
5316 Clouds 0 1041 81 10000 2.6 330 16:51 28.12.2019
5317 Clouds 1 1041 81 10000 2.6 330 16:27 28.12.2019
5318 Clouds 1 1040 74 10000 3.1 330 15:59 28.12.2019
5319 Clouds 1 1040 74 10000 3.1 330 15:41 28.12.2019
5320 Clouds 1 1040 74 10000 2.6 340 15:21 28.12.2019
5321 Clouds 1 1040 74 10000 2.6 340 15:21 28.12.2019
5322 Clouds 1 1040 74 10000 3.1 340 14:48 28.12.2019
5323 Clouds 1 1040 74 10000 3.1 340 14:26 28.12.2019
5324 Clouds 1 1039 74 10000 3.1 340 13:58 28.12.2019
5325 Clouds 1 1040 74 10000 3.1 340 13:39 28.12.2019
5326 Rain 1 1040 74 10000 3.6 340 13:20 28.12.2019
5327 Rain 1 1040 74 10000 3.6 340 12:57 28.12.2019
5328 Clouds 1 1040 74 10000 4.1 350 12:39 28.12.2019
5329 Clouds 1 1040 74 10000 4.1 350 12:20 28.12.2019
5330 Clouds 1 1040 74 10000 3.6 340 11:40 28.12.2019
5331 Clouds 1 1040 83 10000 3.1 340 11:21 28.12.2019
5332 Clouds 1 1040 83 10000 3.1 340 10:56 28.12.2019
5333 Clouds 0 1040 83 10000 3.1 330 10:37 28.12.2019
5334 Clouds 1 1039 83 10000 3.1 330 10:19 28.12.2019
5335 Clouds 0 1039 83 10000 2.6 350 09:54 28.12.2019
5336 Clouds 0 1039 83 10000 2.6 350 09:36 28.12.2019
5337 Clouds 0 1039 83 10000 3.1 360 09:18 28.12.2019
5338 Snow 0 1038 100 2400 3.6 360 08:42 28.12.2019
5339 Clouds 0 1038 88 10000 3.1 340 08:23 28.12.2019
5340 Clouds 0 1038 90 10000 3.1 340 07:47 28.12.2019
5341 Clouds 0 1038 90 10000 3.1 340 07:22 28.12.2019
5342 Clouds 1 1037 90 10000 4.1 340 05:46 28.12.2019
5343 Clouds 1 1036 96 10000 3.6 340 03:48 28.12.2019
5344 Clouds 1 1036 96 10000 3.1 340 02:51 28.12.2019
5345 Clouds 1 1036 96 10000 3.1 350 02:20 28.12.2019
5346 Clouds 1 1036 96 10000 3.1 350 01:56 28.12.2019
5347 Clouds 1 1035 96 10000 4.6 350 01:23 28.12.2019
5348 Clouds 1 1035 96 10000 4.1 350 00:50 28.12.2019
5349 Clouds 1 1035 96 10000 4.1 350 00:30 28.12.2019
5350 Clouds 1 1035 100 10000 4.6 350 23:58 27.12.2019
5351 Clouds 1 1035 100 10000 4.6 350 23:58 27.12.2019
5352 Clouds 1 1035 100 10000 3.1 330 23:39 27.12.2019
5353 Clouds 1 1035 100 10000 4.1 340 23:19 27.12.2019
5354 Clouds 2 1035 100 10000 4.1 340 22:57 27.12.2019
5355 Clouds 2 1034 93 10000 4.1 330 22:38 27.12.2019
5356 Rain 2 1034 93 10000 3.6 330 22:19 27.12.2019
5357 Drizzle 2 1033 93 9000 4.1 330 21:43 27.12.2019
5358 Drizzle 2 1033 93 9000 4.1 330 21:43 27.12.2019
5359 Drizzle 2 1033 93 9000 4.1 330 21:25 27.12.2019
5360 Drizzle 2 1033 93 10000 4.1 320 20:58 27.12.2019
5361 Drizzle 2 1032 93 10000 3.6 320 20:40 27.12.2019
5362 Clouds 2 1032 93 10000 4.1 310 20:21 27.12.2019
5363 Rain 2 1032 92 10000 3.1 320 19:41 27.12.2019
5364 Clouds 2 1031 92 10000 3.1 320 19:20 27.12.2019
5365 Clouds 2 1031 92 10000 3.1 320 19:20 27.12.2019
5366 Clouds 2 1031 92 10000 3.1 320 18:58 27.12.2019
5367 Clouds 2 1031 92 10000 3.1 330 18:37 27.12.2019
5368 Clouds 2 1031 92 10000 3.1 330 18:19 27.12.2019
5369 Clouds 2 1030 92 10000 2.6 320 17:56 27.12.2019
5370 Clouds 2 1030 92 10000 2.6 320 17:38 27.12.2019
5371 Clouds 2 1030 90 10000 2.6 310 17:18 27.12.2019
5372 Clouds 2 1030 90 10000 3.1 340 16:56 27.12.2019
5373 Clouds 2 1030 90 10000 3.1 340 16:37 27.12.2019
5374 Clouds 2 1029 90 10000 2.6 300 16:19 27.12.2019
5375 Clouds 3 1029 90 10000 2.6 360 15:43 27.12.2019
5376 Clouds 3 1029 90 10000 3.1 360 15:20 27.12.2019
5377 Clouds 3 1029 90 10000 3.1 360 14:57 27.12.2019
5378 Rain 3 1028 90 10000 3.6 10 14:39 27.12.2019
5379 Rain 3 1028 85 10000 3.6 10 14:20 27.12.2019
5380 Rain 3 1027 85 10000 4.1 360 13:48 27.12.2019
5381 Rain 3 1027 85 10000 4.1 360 13:25 27.12.2019
5382 Rain 3 1027 85 10000 4.1 360 13:25 27.12.2019
5383 Rain 3 1027 86 10000 4.6 360 12:58 27.12.2019
5384 Clouds 3 1027 85 10000 3.6 360 12:40 27.12.2019
5385 Clouds 3 1026 86 10000 4.1 360 12:21 27.12.2019
5386 Clouds 3 1026 93 10000 3.1 350 11:45 27.12.2019
5387 Clouds 3 1026 93 10000 3.1 350 11:26 27.12.2019
5388 Clouds 3 1026 93 10000 3.1 340 10:58 27.12.2019
5389 Clouds 3 1026 93 10000 2.6 340 10:39 27.12.2019
5390 Clouds 3 1025 86 10000 2.6 340 10:21 27.12.2019
5391 Clouds 2 1025 93 10000 1.5 330 09:44 27.12.2019
5392 Clouds 2 1024 93 10000 1.5 320 09:22 27.12.2019
5393 Clouds 2 1024 93 10000 1.5 320 09:22 27.12.2019
5394 Clouds 2 1024 93 10000 1.5 320 08:59 27.12.2019
5395 Clouds 2 1024 79 10000 1.5 340 08:36 27.12.2019
5396 Clouds 2 1023 84 10000 1 330 07:53 27.12.2019
5397 Clouds 2 1023 84 10000 1 330 07:34 27.12.2019
5398 Clouds 2 1023 84 10000 0.5 250 06:39 27.12.2019
5399 Clouds 2 1023 84 10000 0.5 290 05:52 27.12.2019
5400 Clouds 2 1023 84 10000 1.69 225 04:20 27.12.2019
5401 Clouds 2 1023 84 10000 1 0 02:25 27.12.2019
5402 Clouds 3 1023 82 10000 1.5 260 01:42 27.12.2019
5403 Clouds 3 1023 86 10000 1 0 01:20 27.12.2019
5404 Clouds 3 1023 80 0 1.5 270 00:46 27.12.2019
5405 Clouds 3 1023 80 0 1.5 270 00:25 27.12.2019
5406 Clouds 3 1023 80 0 1.5 270 00:25 27.12.2019
5407 Clouds 3 1023 80 10000 1.5 280 23:44 26.12.2019
5408 Clouds 3 1023 80 10000 1.5 270 23:24 26.12.2019
5409 Clouds 3 1023 80 10000 1.5 270 22:58 26.12.2019
5410 Clouds 3 1023 86 10000 2.1 270 22:38 26.12.2019
5411 Clouds 3 1023 86 10000 1.5 250 22:18 26.12.2019
5412 Clouds 3 1023 86 10000 1.5 270 21:39 26.12.2019
5413 Clouds 3 1023 80 10000 2.1 280 21:21 26.12.2019
5414 Clouds 3 1023 80 10000 2.1 280 20:57 26.12.2019
5415 Rain 3 1023 80 10000 2.1 280 20:38 26.12.2019
5416 Rain 3 1023 80 10000 1.5 260 20:19 26.12.2019
5417 Rain 4 1023 80 10000 1.5 260 19:55 26.12.2019
5418 Rain 4 1023 86 10000 2.1 250 19:37 26.12.2019
5419 Rain 4 1023 86 10000 2.1 250 19:19 26.12.2019
5420 Rain 4 1023 86 10000 2.1 250 19:19 26.12.2019
5421 Rain 4 1023 86 10000 2.1 250 18:55 26.12.2019
5422 Rain 4 1023 86 10000 2.6 250 18:36 26.12.2019
5423 Clouds 4 1023 86 10000 2.1 250 18:18 26.12.2019
5424 Clouds 4 1023 86 10000 2.6 270 17:41 26.12.2019
5425 Rain 4 1023 86 10000 3.6 280 17:21 26.12.2019
5426 Clouds 4 1022 86 10000 2.6 280 16:50 26.12.2019
5427 Clouds 4 1022 86 10000 2.6 280 16:27 26.12.2019
5428 Clouds 4 1023 80 10000 2.6 280 15:57 26.12.2019
5429 Clouds 5 1022 80 10000 2.1 280 15:39 26.12.2019
5430 Rain 5 1022 80 10000 3.1 290 15:19 26.12.2019
5431 Clouds 5 1022 80 10000 3.6 290 14:42 26.12.2019
5432 Clouds 5 1023 80 10000 4.1 280 14:23 26.12.2019
5433 Clouds 5 1023 80 10000 4.1 280 13:57 26.12.2019
5434 Clouds 5 1023 80 10000 4.1 280 13:39 26.12.2019
5435 Clouds 5 1023 80 10000 4.1 280 13:39 26.12.2019
5436 Clouds 5 1023 86 10000 4.6 270 13:18 26.12.2019
5437 Clouds 5 1023 86 10000 4.6 270 12:56 26.12.2019
5438 Clouds 5 1023 80 10000 3.6 280 12:36 26.12.2019
5439 Clouds 5 1023 80 10000 3.1 270 12:18 26.12.2019
5440 Clouds 4 1023 86 10000 3.6 270 11:42 26.12.2019
5441 Clouds 4 1023 86 10000 3.6 270 11:42 26.12.2019
5442 Clouds 4 1023 93 10000 4.1 270 11:23 26.12.2019
5443 Clouds 4 1023 93 10000 4.1 270 10:57 26.12.2019
5444 Rain 4 1023 93 10000 4.1 270 10:39 26.12.2019
5445 Clouds 4 1023 86 10000 3.1 260 10:18 26.12.2019
5446 Clouds 3 1023 86 10000 2.6 260 09:42 26.12.2019
5447 Clouds 3 1023 86 10000 2.6 260 09:24 26.12.2019
5448 Rain 3 1023 93 10000 3.1 270 08:40 26.12.2019
5449 Rain 3 1023 93 10000 3.1 270 08:40 26.12.2019
5450 Rain 3 1023 93 10000 3.1 270 08:40 26.12.2019
5451 Rain 3 1023 93 10000 3.1 270 08:22 26.12.2019
5452 Rain 3 1023 93 10000 2.6 270 07:50 26.12.2019
5453 Rain 3 1023 93 10000 2.6 270 07:26 26.12.2019
5454 Rain 3 1023 93 10000 2.1 270 06:48 26.12.2019
5455 Rain 3 1023 93 10000 2.1 270 06:30 26.12.2019
5456 Clouds 3 1022 100 10000 2.6 290 05:45 26.12.2019
5457 Rain 3 1022 93 10000 4.1 300 04:48 26.12.2019
5458 Rain 4 1022 93 10000 4.1 300 04:29 26.12.2019
5459 Drizzle 4 1022 93 10000 4.1 300 02:54 26.12.2019
5460 Drizzle 4 1022 93 10000 4.1 300 02:34 26.12.2019
5461 Rain 4 1021 93 10000 3.1 290 01:46 26.12.2019
5462 Rain 4 1021 93 10000 3.1 290 01:28 26.12.2019
5463 Clouds 4 1021 93 10000 3.1 300 00:49 26.12.2019
5464 Clouds 4 1021 93 10000 3.1 300 00:27 26.12.2019
5465 Rain 4 1021 93 10000 5.1 310 23:58 25.12.2019
5466 Rain 4 1021 93 10000 4.6 300 23:39 25.12.2019
5467 Rain 4 1021 100 10000 2.1 290 23:21 25.12.2019
5468 Clouds 4 1021 100 10000 2.1 290 22:59 25.12.2019
5469 Clouds 4 1020 93 10000 2.6 310 22:39 25.12.2019
5470 Clouds 4 1020 93 10000 3.6 310 22:20 25.12.2019
5471 Clouds 4 1020 93 10000 3.6 310 21:58 25.12.2019
5472 Clouds 4 1020 93 10000 4.1 320 21:39 25.12.2019
5473 Clouds 4 1019 93 10000 3.6 310 21:20 25.12.2019
5474 Clouds 4 1019 93 10000 3.6 310 20:56 25.12.2019
5475 Clouds 4 1019 93 10000 3.6 300 20:38 25.12.2019
5476 Clouds 4 1019 93 10000 4.6 310 20:18 25.12.2019
5477 Clouds 4 1019 93 10000 4.6 310 20:18 25.12.2019
5478 Rain 4 1019 93 10000 4.6 310 19:43 25.12.2019
5479 Rain 4 1018 93 9000 4.6 310 19:24 25.12.2019
5480 Rain 4 1018 93 9000 4.6 310 18:58 25.12.2019
5481 Rain 4 1018 100 8000 5.1 310 18:37 25.12.2019
5482 Drizzle 4 1018 100 7000 3.6 310 18:18 25.12.2019
5483 Rain 4 1017 100 8000 4.1 310 17:42 25.12.2019
5484 Drizzle 4 1017 100 8000 3.6 320 17:20 25.12.2019
5485 Drizzle 4 1017 100 8000 3.6 320 16:58 25.12.2019
5486 Drizzle 4 1016 100 4000 3.6 320 16:38 25.12.2019
5487 Rain 4 1016 93 8000 3.6 320 16:19 25.12.2019
5488 Rain 4 1016 93 8000 3.6 320 15:57 25.12.2019
5489 Rain 5 1015 86 10000 3.6 320 15:39 25.12.2019
5490 Clouds 5 1015 86 10000 4.1 320 15:20 25.12.2019
5491 Clouds 5 1015 86 10000 4.1 320 14:58 25.12.2019
5492 Clouds 5 1014 86 10000 3.6 330 14:39 25.12.2019
5493 Clouds 5 1014 86 10000 3.6 330 14:39 25.12.2019
5494 Clouds 5 1014 86 10000 3.6 330 14:39 25.12.2019
5495 Clouds 5 1013 86 10000 4.1 320 14:20 25.12.2019
5496 Clouds 5 1013 86 10000 4.1 320 13:55 25.12.2019
5497 Clouds 5 1013 86 10000 4.1 320 13:36 25.12.2019
5498 Clouds 5 1012 86 10000 4.1 330 13:18 25.12.2019
5499 Clouds 5 1012 86 10000 3.1 330 12:39 25.12.2019
5500 Clouds 5 1012 86 10000 4.1 340 12:20 25.12.2019
5501 Clouds 6 1012 93 10000 3.6 330 11:55 25.12.2019
5502 Clouds 6 1012 93 10000 3.6 330 11:37 25.12.2019
5503 Clouds 6 1011 93 10000 4.1 320 11:18 25.12.2019
5504 Rain 6 1011 100 9000 4.1 330 10:38 25.12.2019
5505 Rain 6 1011 100 9000 4.1 330 10:38 25.12.2019
5506 Drizzle 6 1011 100 6000 4.6 320 10:19 25.12.2019
5507 Drizzle 6 1011 100 6000 4.6 320 10:19 25.12.2019
5508 Rain 6 1010 93 5000 4.6 290 09:50 25.12.2019
5509 Rain 6 1010 93 5000 4.6 290 09:32 25.12.2019
5510 Drizzle 6 1010 93 10000 4.1 270 08:51 25.12.2019
5511 Drizzle 6 1010 93 10000 4.1 270 08:30 25.12.2019
5512 Clouds 6 1009 93 10000 5.1 260 07:50 25.12.2019
5513 Clouds 6 1009 93 10000 5.1 260 07:32 25.12.2019
5514 Clouds 6 1009 87 10000 4.1 270 06:52 25.12.2019
5515 Clouds 6 1009 87 10000 4.6 260 06:23 25.12.2019
5516 Clouds 6 1008 87 10000 4.1 260 05:18 25.12.2019
5517 Rain 6 1008 81 10000 5.7 260 04:39 25.12.2019
5518 Clouds 7 1008 81 10000 5.7 260 04:20 25.12.2019
5519 Rain 6 1008 81 10000 4.1 270 03:42 25.12.2019
5520 Rain 6 1008 81 10000 5.1 270 02:54 25.12.2019
5521 Rain 6 1008 87 10000 5.7 260 02:27 25.12.2019
5522 Clouds 7 1007 81 10000 5.7 260 01:26 25.12.2019
5523 Clouds 7 1007 81 10000 5.7 250 00:56 25.12.2019
5524 Clouds 7 1007 81 10000 5.1 260 00:33 25.12.2019
5525 Clouds 7 1007 81 10000 5.1 250 23:58 24.12.2019
5526 Clouds 6 1007 81 10000 5.1 260 23:39 24.12.2019
5527 Rain 6 1007 81 10000 5.7 250 23:20 24.12.2019
5528 Clouds 6 1007 81 10000 5.1 260 22:41 24.12.2019
5529 Clouds 6 1007 81 10000 5.1 260 22:23 24.12.2019
5530 Rain 6 1007 81 10000 6.7 260 21:55 24.12.2019
5531 Clouds 6 1006 87 10000 5.7 250 21:36 24.12.2019
5532 Drizzle 6 1007 87 8000 4.1 240 21:18 24.12.2019
5533 Rain 5 1007 93 10000 5.1 220 20:41 24.12.2019
5534 Rain 5 1007 86 10000 4.1 190 20:20 24.12.2019
5535 Drizzle 5 1007 93 10000 5.1 190 19:47 24.12.2019
5536 Drizzle 5 1007 93 10000 4.1 200 19:22 24.12.2019
5537 Drizzle 5 1007 93 10000 4.1 200 19:22 24.12.2019
5538 Drizzle 5 1007 93 10000 4.1 200 18:59 24.12.2019
5539 Drizzle 5 1007 93 9000 4.6 190 18:40 24.12.2019
5540 Rain 5 1007 86 10000 4.1 220 18:18 24.12.2019
5541 Rain 5 1008 81 10000 6.2 210 17:43 24.12.2019
5542 Rain 5 1007 75 10000 5.1 180 17:22 24.12.2019
5543 Clouds 5 1007 75 10000 5.1 180 16:58 24.12.2019
5544 Rain 5 1007 75 10000 3.6 160 16:39 24.12.2019
5545 Rain 6 1008 70 10000 4.1 170 16:20 24.12.2019
5546 Rain 6 1008 70 10000 4.1 170 15:57 24.12.2019
5547 Rain 6 1008 65 10000 4.1 180 15:37 24.12.2019
5548 Clouds 7 1009 65 10000 4.6 190 15:19 24.12.2019
5549 Clouds 7 1009 65 10000 4.6 190 14:58 24.12.2019
5550 Clouds 7 1009 65 10000 4.1 190 14:39 24.12.2019
5551 Clouds 7 1009 65 10000 3.1 220 14:21 24.12.2019
5552 Clouds 8 1009 65 10000 3.1 220 13:56 24.12.2019
5553 Clouds 8 1010 65 10000 4.1 220 13:38 24.12.2019
5554 Clouds 8 1011 61 10000 3.6 230 13:19 24.12.2019
5555 Clouds 8 1011 61 10000 3.6 230 12:56 24.12.2019
5556 Clouds 8 1011 61 10000 3.6 230 12:56 24.12.2019
5557 Clouds 8 1011 70 10000 3.6 240 12:37 24.12.2019
5558 Clouds 7 1012 70 10000 4.1 240 12:19 24.12.2019
5559 Clouds 7 1012 70 10000 4.1 240 11:56 24.12.2019
5560 Clouds 7 1012 70 10000 4.1 230 11:37 24.12.2019
5561 Clouds 7 1012 70 10000 4.1 230 11:37 24.12.2019
5562 Clouds 7 1012 70 10000 4.1 230 11:37 24.12.2019
5563 Clouds 7 1013 75 10000 4.1 230 11:19 24.12.2019
5564 Clouds 6 1013 75 10000 4.1 230 10:56 24.12.2019
5565 Clouds 6 1013 75 10000 4.1 230 10:56 24.12.2019
5566 Clouds 6 1013 75 10000 4.1 230 10:56 24.12.2019
5567 Clouds 6 1013 75 10000 4.1 240 10:38 24.12.2019
5568 Clouds 6 1014 75 10000 3.1 240 10:19 24.12.2019
5569 Clouds 6 1014 75 10000 3.1 240 09:55 24.12.2019
5570 Clouds 5 1014 75 10000 3.6 250 09:37 24.12.2019
5571 Clouds 5 1014 75 10000 4.1 260 09:19 24.12.2019
5572 Clouds 5 1014 75 10000 3.6 250 08:46 24.12.2019
5573 Rain 5 1014 75 10000 3.6 250 08:24 24.12.2019
5574 Clouds 5 1014 75 10000 4.6 260 07:54 24.12.2019
5575 Clouds 5 1014 81 10000 4.1 260 07:36 24.12.2019
5576 Clouds 5 1014 81 10000 3.6 260 07:18 24.12.2019
5577 Clouds 5 1014 81 10000 3.1 260 06:39 24.12.2019
5578 Clouds 5 1014 81 10000 4.1 260 06:19 24.12.2019
5579 Clouds 6 1014 81 10000 4.1 260 05:50 24.12.2019
5580 Clouds 6 1014 81 10000 5.1 260 05:19 24.12.2019
5581 Clouds 6 1013 81 10000 5.1 270 04:21 24.12.2019
5582 Clouds 6 1013 81 10000 4.6 280 03:45 24.12.2019
5583 Rain 6 1013 81 10000 4.1 260 02:28 24.12.2019
5584 Rain 6 1012 81 10000 4.6 270 01:54 24.12.2019
5585 Rain 6 1012 81 10000 4.6 270 01:54 24.12.2019
5586 Rain 6 1012 81 10000 4.1 270 01:25 24.12.2019
5587 Clouds 6 1012 81 10000 4.6 260 00:58 24.12.2019
5588 Clouds 6 1012 81 10000 4.6 270 00:39 24.12.2019
5589 Clouds 6 1011 81 10000 5.1 270 00:19 24.12.2019
5590 Rain 6 1011 81 10000 4.1 270 23:42 23.12.2019
5591 Rain 6 1011 81 10000 4.1 270 23:24 23.12.2019
5592 Clouds 6 1011 81 10000 5.1 270 22:57 23.12.2019
5593 Clouds 6 1011 81 10000 4.6 270 22:38 23.12.2019
5594 Clouds 6 1011 81 10000 4.6 270 22:38 23.12.2019
5595 Clouds 6 1011 81 10000 4.6 270 22:38 23.12.2019
5596 Clouds 6 1010 81 10000 4.6 260 22:20 23.12.2019
5597 Clouds 6 1010 81 10000 4.6 260 22:20 23.12.2019
5598 Clouds 6 1010 81 10000 4.6 260 21:56 23.12.2019
5599 Clouds 6 1010 81 10000 4.1 260 21:37 23.12.2019
5600 Clouds 6 1010 81 10000 3.6 270 21:19 23.12.2019
5601 Clouds 6 1010 81 10000 3.6 270 20:59 23.12.2019
5602 Clouds 6 1009 81 10000 4.1 280 20:40 23.12.2019
5603 Clouds 6 1009 81 10000 4.1 290 20:19 23.12.2019
5604 Clouds 6 1009 81 10000 4.1 290 20:19 23.12.2019
5605 Clouds 6 1009 81 10000 4.1 290 19:59 23.12.2019
5606 Clouds 6 1009 81 10000 4.6 290 19:40 23.12.2019
5607 Clouds 6 1009 81 10000 4.6 290 19:40 23.12.2019
5608 Clouds 6 1009 87 10000 4.6 270 19:21 23.12.2019
5609 Clouds 6 1009 87 10000 4.6 270 18:58 23.12.2019
5610 Rain 6 1008 87 10000 4.6 280 18:39 23.12.2019
5611 Clouds 6 1007 81 10000 4.1 280 18:21 23.12.2019
5612 Clouds 6 1007 81 10000 4.1 280 17:59 23.12.2019
5613 Rain 6 1007 93 10000 3.6 280 17:40 23.12.2019
5614 Rain 6 1006 81 10000 4.1 290 17:20 23.12.2019
5615 Rain 6 1006 81 10000 4.1 290 17:20 23.12.2019
5616 Rain 6 1006 81 10000 4.1 290 16:59 23.12.2019
5617 Rain 6 1006 87 10000 2.6 300 16:40 23.12.2019
5618 Rain 7 1006 93 10000 3.6 310 16:19 23.12.2019
5619 Rain 7 1006 93 10000 3.6 310 15:58 23.12.2019
5620 Rain 7 1005 87 10000 3.6 310 15:37 23.12.2019
5621 Rain 7 1005 81 10000 4.1 300 15:19 23.12.2019
5622 Rain 7 1005 81 10000 4.1 300 14:57 23.12.2019
5623 Rain 7 1004 81 10000 6.2 280 14:39 23.12.2019
5624 Clouds 7 1004 81 10000 4.6 280 14:20 23.12.2019
5625 Clouds 7 1004 81 10000 4.6 280 13:57 23.12.2019
5626 Clouds 7 1003 81 10000 5.1 280 13:39 23.12.2019
5627 Clouds 7 1003 75 10000 5.1 280 13:21 23.12.2019
5628 Clouds 7 1003 75 10000 5.1 280 12:55 23.12.2019
5629 Clouds 7 1003 75 10000 4.6 280 12:37 23.12.2019
5630 Clouds 7 1002 75 10000 6.2 280 12:18 23.12.2019
5631 Clouds 7 1002 75 10000 6.2 280 11:43 23.12.2019
5632 Clouds 7 1002 75 10000 6.2 280 11:25 23.12.2019
5633 Clouds 7 1001 75 10000 6.2 280 10:56 23.12.2019
5634 Clouds 6 1001 75 10000 6.2 280 10:38 23.12.2019
5635 Clouds 6 1001 87 10000 4.6 280 10:20 23.12.2019
5636 Clouds 6 1001 87 10000 4.6 280 09:59 23.12.2019
5637 Clouds 6 1000 87 10000 5.7 280 09:39 23.12.2019
5638 Clouds 6 1000 87 10000 4.6 280 09:20 23.12.2019
5639 Clouds 6 1000 87 10000 4.6 280 08:55 23.12.2019
5640 Clouds 6 999 87 10000 6.7 270 08:37 23.12.2019
5641 Rain 6 999 81 10000 5.1 270 08:19 23.12.2019
5642 Rain 6 998 81 10000 5.1 270 07:43 23.12.2019
5643 Rain 6 997 81 10000 4.6 270 07:20 23.12.2019
5644 Clouds 6 997 81 10000 4.6 270 06:52 23.12.2019
5645 Clouds 6 997 81 10000 4.6 270 06:25 23.12.2019
5646 Clouds 6 996 81 10000 5.7 270 05:50 23.12.2019
5647 Clouds 6 996 81 10000 5.7 270 05:26 23.12.2019
5648 Rain 6 995 93 10000 5.7 260 04:27 23.12.2019
5649 Clouds 6 994 81 10000 4.1 260 02:58 23.12.2019
5650 Clouds 5 993 93 10000 3.1 220 02:40 23.12.2019
5651 Clouds 5 993 93 10000 3.1 220 02:18 23.12.2019
5652 Clouds 5 992 93 10000 2.1 190 01:41 23.12.2019
5653 Rain 6 992 93 10000 2.6 200 01:19 23.12.2019
5654 Clouds 5 992 86 10000 2.6 190 00:43 23.12.2019
5655 Clouds 5 991 86 10000 2.6 180 00:21 23.12.2019
5656 Clouds 5 991 86 10000 1.5 170 23:39 22.12.2019
5657 Clouds 5 991 93 10000 1.5 180 23:21 22.12.2019
5658 Clouds 5 991 93 10000 1.5 180 22:58 22.12.2019
5659 Clouds 5 991 93 10000 2.1 170 22:40 22.12.2019
5660 Rain 5 991 86 10000 3.6 150 22:20 22.12.2019
5661 Rain 4 991 86 10000 3.6 150 21:58 22.12.2019
5662 Rain 4 991 86 10000 3.6 150 21:58 22.12.2019
5663 Clouds 4 991 93 10000 3.1 140 21:40 22.12.2019
5664 Clouds 4 990 93 10000 3.1 150 21:21 22.12.2019
5665 Clouds 5 990 93 10000 3.1 150 20:58 22.12.2019
5666 Clouds 4 990 93 10000 3.6 150 20:39 22.12.2019
5667 Clouds 5 990 86 10000 2.6 140 20:19 22.12.2019
5668 Clouds 5 990 86 10000 2.6 140 19:57 22.12.2019
5669 Rain 5 990 86 10000 2.6 160 19:38 22.12.2019
5670 Clouds 5 990 80 10000 4.6 150 19:19 22.12.2019
5671 Clouds 5 990 80 10000 4.1 150 18:42 22.12.2019
5672 Clouds 5 990 80 10000 3.1 140 18:23 22.12.2019
5673 Clouds 5 990 80 10000 3.1 140 17:56 22.12.2019
5674 Clouds 5 989 80 10000 3.6 140 17:38 22.12.2019
5675 Clouds 5 989 86 10000 3.6 150 17:19 22.12.2019
5676 Clouds 5 989 86 10000 3.1 170 16:57 22.12.2019
5677 Clouds 5 989 86 10000 3.1 170 16:38 22.12.2019
5678 Clouds 5 989 86 10000 3.6 150 16:20 22.12.2019
5679 Clouds 5 989 86 10000 3.6 150 15:56 22.12.2019
5680 Clouds 6 988 86 10000 4.1 140 15:38 22.12.2019
5681 Clouds 6 988 81 10000 3.1 140 15:19 22.12.2019
5682 Clouds 6 988 81 10000 3.1 140 14:55 22.12.2019
5683 Clouds 6 988 81 10000 3.1 140 14:55 22.12.2019
5684 Clouds 6 988 81 10000 4.1 150 14:37 22.12.2019
5685 Clouds 6 989 75 10000 5.7 170 14:18 22.12.2019
5686 Rain 6 989 75 10000 5.7 160 13:55 22.12.2019
5687 Rain 6 989 75 10000 5.7 160 13:37 22.12.2019
5688 Rain 6 989 75 10000 4.6 170 13:18 22.12.2019
5689 Rain 6 989 75 10000 4.6 170 12:56 22.12.2019
5690 Clouds 6 989 75 10000 6.2 170 12:37 22.12.2019
5691 Clouds 6 989 81 10000 4.6 160 12:18 22.12.2019
5692 Clouds 6 989 81 10000 4.6 160 11:56 22.12.2019
5693 Clouds 6 989 81 10000 4.6 150 11:38 22.12.2019
5694 Clouds 5 989 86 10000 4.6 150 11:18 22.12.2019
5695 Clouds 4 989 86 10000 3.1 150 10:55 22.12.2019
5696 Clouds 4 989 86 10000 3.1 150 10:36 22.12.2019
5697 Clouds 3 989 93 10000 2.1 140 10:18 22.12.2019
5698 Clouds 3 989 93 10000 2.1 140 09:56 22.12.2019
5699 Clouds 2 989 93 10000 1.5 100 09:37 22.12.2019
5700 Clouds 2 989 93 10000 2.1 130 09:19 22.12.2019
5701 Clouds 2 989 93 10000 2.6 160 08:42 22.12.2019
5702 Clouds 1 989 93 10000 1 0 08:21 22.12.2019
5703 Clouds 1 989 93 10000 2.6 170 07:42 22.12.2019
5704 Clouds 1 988 93 10000 4.6 170 07:21 22.12.2019
5705 Clouds 1 988 93 10000 4.6 170 06:52 22.12.2019
5706 Clouds 1 988 93 10000 3.6 140 06:22 22.12.2019
5707 Clouds 1 988 93 10000 2.6 120 05:29 22.12.2019
5708 Clouds 1 988 93 10000 3.1 110 04:46 22.12.2019
5709 Clouds 1 988 93 10000 3.1 110 04:46 22.12.2019
5710 Clouds 1 989 100 10000 2.6 160 04:24 22.12.2019
5711 Clouds 1 990 100 10000 2.1 150 02:43 22.12.2019
5712 Clouds 1 990 100 10000 3.6 170 02:20 22.12.2019
5713 Clouds 1 990 100 10000 3.6 160 01:31 22.12.2019
5714 Clouds 1 990 93 10000 4.1 150 00:54 22.12.2019
5715 Clouds 1 990 93 10000 3.6 140 00:36 22.12.2019
5716 Clouds 2 991 100 10000 2.6 150 00:18 22.12.2019
5717 Clouds 2 991 100 10000 3.6 150 23:40 21.12.2019
5718 Clouds 2 991 93 10000 3.6 150 23:21 21.12.2019
5719 Clouds 2 991 93 10000 3.6 150 22:56 21.12.2019
5720 Clouds 2 991 100 10000 1.5 130 22:37 21.12.2019
5721 Clouds 2 992 100 10000 1.5 150 22:18 21.12.2019
5722 Clouds 2 992 100 10000 1.5 150 21:54 21.12.2019
5723 Clouds 2 992 93 10000 3.1 150 21:36 21.12.2019
5724 Clouds 2 992 93 10000 2.6 160 21:18 21.12.2019
5725 Clouds 3 992 93 10000 2.6 160 20:55 21.12.2019
5726 Clouds 3 992 93 10000 2.6 150 20:37 21.12.2019
5727 Clouds 3 993 93 10000 2.1 140 20:18 21.12.2019
5728 Clouds 3 993 93 10000 2.1 140 19:55 21.12.2019
5729 Clouds 3 992 86 10000 2.1 160 19:36 21.12.2019
5730 Clouds 4 993 86 10000 1.5 110 19:18 21.12.2019
5731 Clouds 4 993 86 10000 2.1 140 18:41 21.12.2019
5732 Clouds 4 993 86 10000 1.5 150 18:23 21.12.2019
5733 Clouds 4 993 86 10000 1.5 150 17:56 21.12.2019
5734 Clouds 5 993 81 10000 2.1 150 17:38 21.12.2019
5735 Clouds 5 994 81 10000 3.1 150 17:19 21.12.2019
5736 Clouds 5 994 81 10000 3.1 150 16:57 21.12.2019
5737 Clouds 5 994 87 10000 3.6 160 16:38 21.12.2019
5738 Clouds 5 994 87 10000 2.6 140 16:18 21.12.2019
5739 Clouds 6 994 87 10000 2.6 140 15:55 21.12.2019
5740 Clouds 6 995 81 10000 2.6 130 15:37 21.12.2019
5741 Clouds 7 995 81 10000 1.5 140 15:18 21.12.2019
5742 Clouds 8 995 75 10000 1.5 170 14:42 21.12.2019
5743 Clouds 8 995 75 10000 1.5 170 14:23 21.12.2019
5744 Clouds 8 995 75 10000 1.5 200 13:58 21.12.2019
5745 Clouds 8 995 75 10000 2.6 210 13:39 21.12.2019
5746 Clouds 8 995 75 10000 4.1 210 13:19 21.12.2019
5747 Clouds 8 995 75 10000 4.1 210 12:57 21.12.2019
5748 Clouds 8 995 70 10000 3.1 220 12:38 21.12.2019
5749 Clouds 8 995 70 10000 3.1 250 12:20 21.12.2019
5750 Clouds 8 995 70 10000 3.1 250 11:55 21.12.2019
5751 Clouds 8 995 70 10000 2.6 270 11:37 21.12.2019
5752 Clouds 8 996 75 10000 2.6 260 11:19 21.12.2019
5753 Clouds 7 996 75 10000 4.1 220 10:41 21.12.2019
5754 Clouds 7 996 75 10000 4.1 220 10:23 21.12.2019
5755 Clouds 6 996 81 10000 3.6 220 09:58 21.12.2019
5756 Clouds 6 996 81 10000 3.6 220 09:40 21.12.2019
5757 Clouds 5 995 81 10000 2.6 220 09:20 21.12.2019
5758 Clouds 5 995 87 10000 3.6 220 08:52 21.12.2019
5759 Clouds 5 995 87 10000 3.6 220 08:27 21.12.2019
5760 Rain 6 995 87 10000 3.1 220 07:59 21.12.2019
5761 Rain 6 995 87 10000 3.1 230 07:41 21.12.2019
5762 Rain 6 995 87 10000 3.1 230 07:21 21.12.2019
5763 Rain 7 995 93 10000 3.6 230 06:42 21.12.2019
5764 Rain 7 995 93 10000 2.6 210 06:24 21.12.2019
5765 Rain 7 995 93 10000 3.1 210 05:43 21.12.2019
5766 Rain 7 995 93 10000 3.1 230 04:56 21.12.2019
5767 Rain 8 994 87 10000 4.1 240 03:56 21.12.2019
5768 Rain 8 993 93 10000 3.6 210 02:39 21.12.2019
5769 Rain 8 993 93 10000 4.6 180 01:53 21.12.2019
5770 Rain 8 993 93 10000 3.1 180 01:27 21.12.2019
5771 Rain 8 992 93 10000 1 0 00:50 21.12.2019
5772 Rain 8 992 93 10000 1 0 00:28 21.12.2019
5773 Rain 8 992 87 10000 4.6 170 23:55 20.12.2019
5774 Rain 8 992 87 10000 4.1 160 23:36 20.12.2019
5775 Rain 8 992 81 10000 4.1 170 23:18 20.12.2019
5776 Clouds 8 992 81 10000 6.2 160 22:40 20.12.2019
5777 Clouds 8 992 81 10000 6.7 160 22:21 20.12.2019
5778 Clouds 8 992 81 10000 6.7 160 21:57 20.12.2019
5779 Clouds 8 991 81 10000 7.2 160 21:39 20.12.2019
5780 Clouds 9 992 76 10000 6.7 160 21:18 20.12.2019
5781 Clouds 9 991 76 10000 6.2 160 20:39 20.12.2019
5782 Clouds 9 991 76 10000 7.2 160 20:19 20.12.2019
5783 Clouds 9 991 76 10000 7.2 160 19:58 20.12.2019
5784 Clouds 9 991 81 10000 7.7 160 19:40 20.12.2019
5785 Clouds 9 991 81 10000 8.7 160 19:19 20.12.2019
5786 Clouds 9 991 81 10000 8.7 160 18:54 20.12.2019
5787 Clouds 9 991 81 10000 8.7 160 18:36 20.12.2019
5788 Clouds 9 992 76 10000 9.8 160 18:18 20.12.2019
5789 Clouds 9 992 81 10000 8.7 160 17:42 20.12.2019
5790 Clouds 8 992 81 10000 8.7 160 17:21 20.12.2019
5791 Clouds 8 992 81 10000 8.2 150 16:59 20.12.2019
5792 Clouds 9 992 81 10000 8.2 150 16:39 20.12.2019
5793 Clouds 9 993 76 10000 8.2 160 16:20 20.12.2019
5794 Clouds 9 994 71 10000 8.7 170 15:57 20.12.2019
5795 Clouds 9 994 71 10000 8.7 170 15:38 20.12.2019
5796 Clouds 10 993 71 10000 8.7 160 15:19 20.12.2019
5797 Clouds 10 994 71 10000 8.2 150 14:57 20.12.2019
5798 Clouds 10 994 71 10000 8.2 150 14:39 20.12.2019
5799 Clear 11 994 66 10000 8.2 160 14:20 20.12.2019
5800 Clear 11 995 71 10000 8.7 160 13:42 20.12.2019
5801 Clear 11 995 71 10000 9.8 160 13:21 20.12.2019
5802 Clear 11 996 71 10000 10.8 170 12:59 20.12.2019
5803 Clear 10 996 71 10000 10.8 170 12:41 20.12.2019
5804 Clear 10 997 71 10000 9.3 170 12:19 20.12.2019
5805 Clear 10 997 71 10000 9.3 170 11:59 20.12.2019
5806 Clear 10 997 71 10000 9.3 170 11:40 20.12.2019
5807 Clear 10 997 71 10000 8.2 150 11:21 20.12.2019
5808 Clear 10 998 71 10000 8.2 150 10:59 20.12.2019
5809 Clear 10 998 71 10000 8.2 150 10:41 20.12.2019
5810 Clear 9 998 76 10000 7.7 150 10:20 20.12.2019
5811 Clear 9 998 76 10000 7.7 150 09:56 20.12.2019
5812 Clear 8 1000 81 10000 8.7 160 09:38 20.12.2019
5813 Clear 8 1000 81 10000 8.7 160 09:19 20.12.2019
5814 Clear 8 1000 76 10000 8.7 160 08:43 20.12.2019
5815 Clear 8 1000 76 10000 8.7 150 08:25 20.12.2019
5816 Clear 8 1000 76 10000 8.2 160 07:59 20.12.2019
5817 Clear 8 1000 76 10000 8.2 160 07:40 20.12.2019
5818 Clear 7 1001 76 10000 8.7 160 07:19 20.12.2019
5819 Clear 8 1001 76 10000 7.7 160 06:52 20.12.2019
5820 Clear 8 1002 81 10000 7.7 160 06:33 20.12.2019
5821 Clear 8 1002 81 10000 7.7 150 05:55 20.12.2019
5822 Clear 8 1003 81 10000 8.2 150 05:36 20.12.2019
5823 Clear 8 1004 81 10000 7.7 150 04:33 20.12.2019
5824 Clear 7 1005 87 10000 8.7 160 03:30 20.12.2019
5825 Clear 8 1005 81 10000 8.2 160 02:44 20.12.2019
5826 Clouds 7 1006 87 10000 8.7 160 01:54 20.12.2019
5827 Clouds 7 1006 81 10000 8.2 160 01:33 20.12.2019
5828 Clouds 7 1007 87 10000 8.7 160 00:48 20.12.2019
5829 Clouds 7 1007 87 10000 8.7 150 00:29 20.12.2019
5830 Clouds 7 1008 87 10000 9.8 150 23:56 19.12.2019
5831 Clouds 8 1008 81 10000 8.2 160 23:38 19.12.2019
5832 Clouds 7 1008 81 10000 8.2 160 23:18 19.12.2019
5833 Clouds 7 1009 81 10000 9.8 160 22:38 19.12.2019
5834 Clouds 7 1009 81 10000 9.8 160 22:20 19.12.2019
5835 Clouds 8 1009 81 10000 9.8 160 21:56 19.12.2019
5836 Clouds 7 1010 81 10000 8.7 160 21:38 19.12.2019
5837 Clouds 7 1010 81 10000 8.7 160 21:19 19.12.2019
5838 Clouds 7 1010 81 10000 8.2 160 20:56 19.12.2019
5839 Clouds 7 1011 81 10000 9.3 160 20:37 19.12.2019
5840 Clouds 7 1011 81 10000 9.3 160 20:19 19.12.2019
5841 Clouds 7 1011 81 10000 8.2 160 19:58 19.12.2019
5842 Clouds 7 1011 81 10000 6.2 140 19:39 19.12.2019
5843 Clouds 7 1011 81 10000 6.2 140 19:19 19.12.2019
5844 Clouds 7 1011 81 10000 6.2 140 19:19 19.12.2019
5845 Clouds 7 1011 81 10000 6.2 140 19:19 19.12.2019
5846 Clouds 7 1011 81 10000 5.1 150 18:56 19.12.2019
5847 Clouds 7 1011 81 10000 5.1 150 18:38 19.12.2019
5848 Clouds 8 1012 87 10000 6.2 160 18:19 19.12.2019
5849 Clouds 8 1012 81 10000 6.7 170 17:55 19.12.2019
5850 Clouds 8 1012 81 10000 8.2 160 17:37 19.12.2019
5851 Clouds 8 1012 81 10000 8.2 160 17:18 19.12.2019
5852 Clouds 8 1012 87 10000 8.2 160 16:55 19.12.2019
5853 Clouds 8 1012 87 10000 8.2 160 16:55 19.12.2019
5854 Clouds 8 1013 87 10000 7.2 150 16:37 19.12.2019
5855 Clouds 9 1013 87 10000 7.2 150 16:19 19.12.2019
5856 Clouds 8 1013 87 10000 8.2 150 15:55 19.12.2019
5857 Clouds 9 1014 87 10000 8.7 150 15:37 19.12.2019
5858 Clouds 9 1014 87 10000 8.7 150 15:18 19.12.2019
5859 Clouds 9 1014 87 10000 8.7 150 15:18 19.12.2019
5860 Clouds 9 1014 87 0 8.7 150 14:42 19.12.2019
5861 Clouds 9 1015 87 10000 8.7 160 14:20 19.12.2019
5862 Clouds 9 1015 87 10000 6.7 150 13:59 19.12.2019
5863 Clouds 9 1015 87 10000 6.7 150 13:38 19.12.2019
5864 Clouds 9 1015 87 10000 6.7 150 13:38 19.12.2019
5865 Clouds 9 1015 87 10000 7.2 150 13:19 19.12.2019
5866 Clouds 9 1016 81 10000 6.7 140 12:57 19.12.2019
5867 Clouds 9 1017 81 10000 7.2 150 12:39 19.12.2019
5868 Clouds 9 1017 81 10000 7.2 150 12:19 19.12.2019
5869 Clouds 9 1017 81 10000 6.2 140 11:58 19.12.2019
5870 Clouds 9 1018 81 10000 6.2 150 11:40 19.12.2019
5871 Clouds 9 1018 81 10000 6.2 150 11:18 19.12.2019
5872 Clouds 9 1018 81 10000 6.7 150 10:58 19.12.2019
5873 Clouds 8 1018 76 10000 6.2 150 10:38 19.12.2019
5874 Clouds 7 1018 76 10000 6.2 150 10:20 19.12.2019
5875 Clouds 7 1018 76 10000 5.7 150 09:55 19.12.2019
5876 Clouds 7 1018 81 10000 6.2 150 09:37 19.12.2019
5877 Clouds 6 1018 81 10000 6.2 150 09:18 19.12.2019
5878 Clouds 5 1018 81 10000 5.7 140 08:42 19.12.2019
5879 Clear 4 1018 87 10000 4.6 150 08:20 19.12.2019
5880 Clear 4 1018 87 10000 4.6 150 08:20 19.12.2019
5881 Clear 4 1018 87 10000 4.6 150 08:20 19.12.2019
5882 Rain 4 1019 87 10000 5.1 140 07:59 19.12.2019
5883 Clear 4 1019 87 10000 5.1 140 07:40 19.12.2019
5884 Clear 4 1019 87 10000 4.6 140 07:22 19.12.2019
5885 Clear 3 1019 93 10000 2.6 130 06:54 19.12.2019
5886 Clear 4 1019 93 10000 2.1 130 06:36 19.12.2019
5887 Clear 4 1019 93 10000 2.1 130 06:18 19.12.2019
5888 Clear 3 1019 100 9000 2.6 140 05:42 19.12.2019
5889 Clear 2 1019 93 10000 3.1 150 05:18 19.12.2019
5890 Clear 3 1020 100 10000 1.5 120 03:51 19.12.2019
5891 Clear 3 1020 93 10000 3.1 150 02:25 19.12.2019
5892 Clouds 3 1021 100 8000 2.1 90 01:24 19.12.2019
5893 Clouds 2 1021 100 10000 1 120 00:57 19.12.2019
5894 Clouds 2 1021 93 10000 1 0 00:38 19.12.2019
5895 Clouds 2 1021 93 10000 1 0 00:19 19.12.2019
5896 Clouds 2 1021 93 10000 1 0 00:19 19.12.2019
5897 Clouds 3 1021 100 10000 1 0 23:44 18.12.2019
5898 Clouds 4 1021 100 10000 1 0 23:19 18.12.2019
5899 Clouds 4 1021 93 10000 2.1 130 22:56 18.12.2019
5900 Clouds 4 1021 93 10000 3.1 150 22:38 18.12.2019
5901 Clouds 4 1021 93 10000 3.1 150 22:20 18.12.2019
5902 Clouds 4 1021 100 10000 2.6 140 21:58 18.12.2019
5903 Clouds 4 1021 93 10000 1 0 21:39 18.12.2019
5904 Clouds 4 1021 93 10000 1 0 21:39 18.12.2019
5905 Clouds 5 1021 93 10000 1 0 21:20 18.12.2019
5906 Clouds 5 1021 93 10000 1.5 150 20:57 18.12.2019
5907 Clouds 5 1021 93 10000 2.6 160 20:38 18.12.2019
5908 Clouds 6 1021 93 10000 2.6 160 20:20 18.12.2019
5909 Clouds 6 1021 100 10000 3.6 180 19:56 18.12.2019
5910 Clouds 6 1021 100 10000 3.6 180 19:56 18.12.2019
5911 Clouds 7 1021 93 10000 2.6 180 19:38 18.12.2019
5912 Clouds 7 1021 93 10000 2.6 180 19:19 18.12.2019
5913 Clouds 7 1021 93 10000 2.1 160 18:55 18.12.2019
5914 Clouds 7 1020 87 10000 2.1 170 18:37 18.12.2019
5915 Clouds 7 1020 87 10000 2.1 170 18:18 18.12.2019
5916 Clouds 8 1020 87 10000 1.5 240 17:55 18.12.2019
5917 Clouds 8 1020 87 10000 1.5 220 17:37 18.12.2019
5918 Clouds 8 1020 87 10000 1.5 220 17:18 18.12.2019
5919 Clouds 8 1020 81 10000 1 230 16:42 18.12.2019
5920 Clouds 8 1019 81 10000 0.5 140 16:24 18.12.2019
5921 Clouds 9 1019 81 10000 0.5 140 15:57 18.12.2019
5922 Rain 9 1019 81 10000 0.5 0 15:39 18.12.2019
5923 Clouds 9 1019 87 10000 2.1 330 15:21 18.12.2019
5924 Clouds 9 1019 87 10000 2.1 330 14:57 18.12.2019
5925 Clouds 9 1018 76 10000 2.1 340 14:39 18.12.2019
5926 Clouds 9 1018 76 10000 3.6 310 14:19 18.12.2019
5927 Clouds 10 1018 76 10000 3.6 310 13:55 18.12.2019
5928 Clouds 10 1018 76 10000 3.1 310 13:37 18.12.2019
5929 Clouds 10 1017 76 10000 4.1 300 13:19 18.12.2019
5930 Clouds 10 1017 76 10000 4.1 300 12:54 18.12.2019
5931 Clouds 10 1017 71 10000 3.6 290 12:36 18.12.2019
5932 Clouds 10 1017 71 10000 3.1 260 12:18 18.12.2019
5933 Clouds 10 1017 71 10000 3.1 260 11:54 18.12.2019
5934 Rain 10 1017 71 10000 1.5 250 11:36 18.12.2019
5935 Rain 10 1017 76 10000 2.6 220 11:18 18.12.2019
5936 Clouds 10 1016 71 10000 3.6 220 10:54 18.12.2019
5937 Clouds 10 1016 71 10000 3.6 220 10:36 18.12.2019
5938 Clouds 10 1016 66 10000 3.6 230 10:18 18.12.2019
5939 Clouds 10 1015 66 10000 3.6 240 09:21 18.12.2019
5940 Clouds 10 1015 66 10000 3.6 240 08:57 18.12.2019
5941 Clouds 10 1014 66 10000 4.6 240 08:39 18.12.2019
5942 Clouds 9 1014 62 10000 4.1 220 08:21 18.12.2019
5943 Clouds 8 1013 66 10000 5.1 220 07:43 18.12.2019
5944 Clouds 8 1012 70 10000 4.1 220 07:22 18.12.2019
5945 Clouds 8 1012 70 10000 4.1 220 06:53 18.12.2019
5946 Clouds 8 1011 70 10000 4.6 220 06:26 18.12.2019
5947 Clouds 8 1011 66 10000 6.2 210 05:43 18.12.2019
5948 Clouds 9 1011 66 10000 4.6 210 04:46 18.12.2019
5949 Clouds 8 1009 75 10000 4.1 140 02:51 18.12.2019
5950 Clouds 8 1009 75 10000 4.1 140 02:31 18.12.2019
5951 Clouds 8 1009 75 10000 6.2 150 01:57 18.12.2019
5952 Clouds 7 1008 70 10000 5.7 150 01:37 18.12.2019
5953 Clouds 7 1008 70 10000 6.7 150 01:19 18.12.2019
5954 Clouds 8 1008 61 10000 8.2 150 00:40 18.12.2019
5955 Clouds 7 1009 70 10000 8.7 150 00:21 18.12.2019
5956 Clouds 7 1009 70 10000 8.7 150 23:54 17.12.2019
5957 Clouds 7 1009 70 10000 7.2 150 23:36 17.12.2019
5958 Clouds 7 1009 70 10000 8.2 150 23:18 17.12.2019
5959 Clouds 7 1009 70 10000 7.7 150 22:54 17.12.2019
5960 Clouds 7 1009 70 10000 7.7 150 22:36 17.12.2019
5961 Clouds 7 1009 81 10000 5.7 150 22:18 17.12.2019
5962 Clouds 7 1009 81 10000 5.7 150 22:18 17.12.2019
5963 Clouds 7 1009 81 10000 5.7 150 21:55 17.12.2019
5964 Clouds 7 1009 81 10000 5.7 150 21:55 17.12.2019
5965 Clouds 7 1009 81 10000 5.7 150 21:37 17.12.2019
5966 Clouds 7 1009 75 10000 4.1 160 21:18 17.12.2019
5967 Clouds 7 1009 75 10000 3.6 150 20:55 17.12.2019
5968 Clouds 7 1009 75 10000 3.6 150 20:37 17.12.2019
5969 Clouds 7 1009 75 10000 2.6 150 20:18 17.12.2019
5970 Clouds 7 1009 75 10000 2.6 150 19:54 17.12.2019
5971 Clouds 7 1009 75 10000 3.6 140 19:36 17.12.2019
5972 Clouds 7 1009 75 10000 2.6 0 19:18 17.12.2019
5973 Clouds 7 1009 81 10000 5.1 160 18:41 17.12.2019
5974 Clouds 7 1009 75 10000 6.2 150 18:21 17.12.2019
5975 Clouds 7 1009 75 10000 5.1 160 17:58 17.12.2019
5976 Clouds 7 1009 75 10000 5.1 160 17:40 17.12.2019
5977 Clouds 7 1009 75 10000 6.2 150 17:19 17.12.2019
5978 Clouds 7 1009 75 10000 6.2 150 16:56 17.12.2019
5979 Clouds 8 1009 75 10000 8.2 150 16:37 17.12.2019
5980 Clouds 8 1008 75 10000 8.7 150 16:19 17.12.2019
5981 Clouds 8 1008 75 10000 7.2 150 15:56 17.12.2019
5982 Clouds 9 1008 75 10000 7.2 150 15:37 17.12.2019
5983 Clouds 9 1008 70 10000 7.2 140 15:18 17.12.2019
5984 Clouds 10 1008 70 10000 7.2 140 14:55 17.12.2019
5985 Clouds 9 1008 66 10000 6.7 150 14:36 17.12.2019
5986 Clouds 9 1007 66 10000 5.1 150 14:18 17.12.2019
5987 Clouds 10 1008 66 10000 7.2 150 13:55 17.12.2019
5988 Clouds 10 1007 66 10000 5.1 150 13:55 17.12.2019
5989 Clouds 9 1008 66 10000 7.2 150 13:37 17.12.2019
5990 Clouds 10 1008 70 10000 7.2 150 13:18 17.12.2019
5991 Clouds 9 1008 75 10000 7.2 150 12:41 17.12.2019
5992 Clouds 9 1008 75 10000 7.2 150 12:19 17.12.2019
5993 Clouds 8 1008 75 10000 7.2 150 12:19 17.12.2019
5994 Clouds 9 1008 75 10000 7.2 150 12:19 17.12.2019
5995 Clouds 9 1008 75 10000 7.2 150 11:59 17.12.2019
5996 Clouds 9 1008 70 10000 5.7 140 11:37 17.12.2019
5997 Clouds 9 1008 75 10000 5.7 150 11:19 17.12.2019
5998 Clouds 8 1008 75 10000 7.2 150 10:59 17.12.2019
5999 Clouds 8 1008 75 10000 7.2 150 10:41 17.12.2019
6000 Clouds 9 1008 70 10000 6.7 150 10:23 17.12.2019
6001 Clouds 8 1008 70 10000 6.7 150 09:59 17.12.2019
6002 Clouds 8 1008 70 10000 6.7 150 09:59 17.12.2019
6003 Clouds 7 1008 75 10000 8.2 140 09:41 17.12.2019
6004 Clouds 7 1007 75 10000 6.7 140 09:20 17.12.2019
6005 Clouds 6 1007 75 10000 6.7 140 08:56 17.12.2019
6006 Clouds 6 1008 75 10000 5.1 150 08:38 17.12.2019
6007 Clouds 6 1008 75 10000 5.1 150 08:38 17.12.2019
6008 Clouds 6 1008 75 10000 5.1 150 08:38 17.12.2019
6009 Clouds 6 1006 75 10000 7.7 150 08:20 17.12.2019
6010 Clouds 6 1006 75 10000 7.7 150 07:55 17.12.2019
6011 Clouds 7 1006 75 10000 6.2 140 07:36 17.12.2019
6012 Clouds 7 1006 75 10000 5.7 150 07:18 17.12.2019
6013 Clouds 7 1006 75 10000 7.2 150 06:35 17.12.2019
6014 Clouds 7 1006 75 10000 6.7 150 05:57 17.12.2019
6015 Clouds 6 1006 75 10000 6.7 150 05:38 17.12.2019
6016 Clouds 6 1007 81 10000 4.1 140 04:45 17.12.2019
6017 Clouds 5 1007 81 10000 7.7 150 02:47 17.12.2019
6018 Clouds 5 1007 81 10000 8.2 150 01:56 17.12.2019
6019 Clouds 5 1008 86 10000 4.6 140 01:20 17.12.2019
6020 Clouds 5 1008 86 10000 5.7 140 00:38 17.12.2019
6021 Clouds 5 1008 86 10000 6.2 150 00:20 17.12.2019
6022 Clouds 5 1008 86 10000 7.2 150 23:43 16.12.2019
6023 Clouds 5 1008 81 10000 6.7 150 23:19 16.12.2019
6024 Clouds 5 1008 81 10000 6.7 150 22:58 16.12.2019
6025 Clouds 5 1008 81 10000 7.2 160 22:38 16.12.2019
6026 Clouds 5 1008 81 10000 7.2 150 22:20 16.12.2019
6027 Clouds 5 1008 81 10000 7.2 150 21:57 16.12.2019
6028 Clouds 5 1008 87 10000 6.2 160 21:38 16.12.2019
6029 Clouds 5 1009 81 10000 6.2 160 21:20 16.12.2019
6030 Clouds 6 1009 81 10000 6.2 160 20:58 16.12.2019
6031 Clouds 6 1009 81 10000 5.7 160 20:39 16.12.2019
6032 Clouds 6 1009 81 10000 5.7 160 20:39 16.12.2019
6033 Clouds 6 1009 81 10000 6.2 170 20:19 16.12.2019
6034 Clouds 6 1009 81 10000 6.2 170 20:19 16.12.2019
6035 Clouds 6 1009 81 10000 6.2 170 19:57 16.12.2019
6036 Clouds 6 1009 75 10000 7.2 160 19:37 16.12.2019
6037 Clouds 6 1009 81 10000 7.2 160 19:19 16.12.2019
6038 Clouds 6 1009 81 10000 7.2 160 18:59 16.12.2019
6039 Clouds 7 1009 81 10000 6.7 160 18:41 16.12.2019
6040 Clouds 7 1009 81 10000 6.7 160 18:20 16.12.2019
6041 Clouds 7 1009 81 10000 6.7 160 17:59 16.12.2019
6042 Clouds 7 1009 81 10000 3.6 160 17:40 16.12.2019
6043 Clouds 7 1008 81 10000 5.1 150 17:21 16.12.2019
6044 Clouds 7 1008 81 10000 5.1 150 16:57 16.12.2019
6045 Clouds 8 1009 76 10000 5.1 150 16:39 16.12.2019
6046 Clouds 8 1009 81 10000 4.6 140 16:20 16.12.2019
6047 Clouds 8 1009 81 10000 4.6 140 15:59 16.12.2019
6048 Clouds 9 1009 76 10000 4.6 150 15:39 16.12.2019
6049 Clouds 9 1009 71 10000 5.1 150 15:21 16.12.2019
6050 Clouds 10 1009 71 10000 5.1 150 14:57 16.12.2019
6051 Clouds 10 1009 71 10000 4.6 150 14:37 16.12.2019
6052 Clouds 10 1009 71 10000 4.1 150 14:19 16.12.2019
6053 Clouds 10 1009 66 10000 4.6 160 13:57 16.12.2019
6054 Clouds 10 1009 66 10000 4.6 160 13:38 16.12.2019
6055 Clouds 11 1009 66 10000 5.7 160 13:20 16.12.2019
6056 Clouds 10 1009 66 10000 5.7 160 12:58 16.12.2019
6057 Rain 10 1010 71 10000 5.7 150 12:39 16.12.2019
6058 Clouds 10 1010 76 10000 5.1 160 12:20 16.12.2019
6059 Clouds 9 1010 76 10000 5.1 160 11:59 16.12.2019
6060 Clouds 9 1010 76 10000 4.6 160 11:41 16.12.2019
6061 Clouds 8 1011 87 10000 5.7 150 11:21 16.12.2019
6062 Clouds 8 1011 87 10000 5.7 150 10:58 16.12.2019
6063 Rain 7 1011 81 10000 4.1 160 10:40 16.12.2019
6064 Rain 7 1011 81 10000 4.1 160 10:40 16.12.2019
6065 Rain 7 1011 87 10000 5.1 160 10:20 16.12.2019
6066 Clouds 6 1011 81 10000 4.6 160 09:46 16.12.2019
6067 Rain 6 1011 81 10000 5.1 150 09:28 16.12.2019
6068 Rain 6 1011 81 10000 5.1 150 08:58 16.12.2019
6069 Rain 6 1011 81 10000 3.1 150 08:38 16.12.2019
6070 Clouds 5 1011 81 10000 4.1 150 08:19 16.12.2019
6071 Clouds 5 1011 75 10000 4.6 150 07:49 16.12.2019
6072 Clouds 5 1011 75 10000 4.6 150 07:30 16.12.2019
6073 Clouds 5 1011 81 10000 4.6 150 06:46 16.12.2019
6074 Clouds 5 1011 81 10000 4.1 160 06:26 16.12.2019
6075 Clouds 4 1011 70 10000 4.1 160 05:58 16.12.2019
6076 Clouds 4 1011 70 10000 4.1 160 05:39 16.12.2019
6077 Clouds 4 1011 75 10000 3.1 170 05:21 16.12.2019
6078 Clouds 4 1012 80 10000 4.1 180 02:50 16.12.2019
6079 Clouds 4 1011 80 10000 3.1 170 01:45 16.12.2019
6080 Clouds 4 1011 75 10000 1 0 00:56 16.12.2019
6081 Clouds 4 1011 75 10000 1 0 00:37 16.12.2019
6082 Clouds 5 1010 81 10000 3.1 210 00:18 16.12.2019
6083 Clouds 4 1010 81 10000 5.1 210 23:40 15.12.2019
6084 Clouds 4 1010 81 10000 5.1 210 23:40 15.12.2019
6085 Clouds 5 1010 75 10000 5.1 230 23:22 15.12.2019
6086 Clouds 5 1009 75 10000 4.6 230 22:57 15.12.2019
6087 Clouds 5 1009 75 10000 4.6 230 22:38 15.12.2019
6088 Clouds 5 1009 75 10000 4.6 230 22:19 15.12.2019
6089 Clouds 6 1009 75 10000 4.6 230 21:58 15.12.2019
6090 Clouds 5 1009 81 10000 5.1 210 21:38 15.12.2019
6091 Clouds 6 1009 81 10000 4.1 210 21:20 15.12.2019
6092 Clouds 5 1009 81 10000 4.1 210 20:58 15.12.2019
6093 Clouds 6 1008 81 10000 3.6 210 20:39 15.12.2019
6094 Clouds 6 1008 81 10000 3.6 210 20:39 15.12.2019
6095 Clouds 6 1008 81 10000 4.1 220 20:21 15.12.2019
6096 Clouds 6 1008 81 10000 4.1 220 19:58 15.12.2019
6097 Clouds 6 1007 75 10000 3.6 230 19:40 15.12.2019
6098 Clouds 7 1007 75 10000 4.1 240 19:20 15.12.2019
6099 Clouds 7 1007 75 10000 4.1 240 18:58 15.12.2019
6100 Clouds 7 1007 70 10000 4.1 260 18:39 15.12.2019
6101 Clouds 7 1006 70 10000 5.1 250 18:19 15.12.2019
6102 Clouds 7 1006 70 10000 4.6 260 17:57 15.12.2019
6103 Clouds 8 1006 70 10000 4.6 260 17:38 15.12.2019
6104 Rain 8 1005 70 10000 5.1 240 17:19 15.12.2019
6105 Rain 8 1005 70 10000 5.1 240 16:58 15.12.2019
6106 Rain 8 1005 70 10000 5.1 240 16:39 15.12.2019
6107 Clouds 8 1004 76 10000 5.7 230 16:21 15.12.2019
6108 Clouds 8 1004 76 10000 5.7 230 15:56 15.12.2019
6109 Rain 8 1003 76 10000 5.1 230 15:38 15.12.2019
6110 Rain 9 1003 76 10000 4.6 240 15:19 15.12.2019
6111 Rain 8 1002 81 10000 5.7 250 14:56 15.12.2019
6112 Rain 8 1002 81 10000 5.7 250 14:37 15.12.2019
6113 Rain 8 1002 76 10000 8.2 250 14:18 15.12.2019
6114 Rain 8 1002 76 10000 8.2 250 13:58 15.12.2019
6115 Clouds 9 1001 71 10000 5.7 240 13:38 15.12.2019
6116 Clouds 10 1001 71 10000 7.2 230 13:19 15.12.2019
6117 Clouds 10 1001 76 10000 7.2 220 12:57 15.12.2019
6118 Clouds 10 1001 76 10000 7.2 220 12:39 15.12.2019
6119 Clouds 10 1001 76 10000 7.2 220 12:39 15.12.2019
6120 Clouds 9 1001 76 10000 7.7 200 12:20 15.12.2019
6121 Clouds 8 1001 81 10000 8.2 190 11:56 15.12.2019
6122 Clouds 8 1001 81 10000 8.2 190 11:37 15.12.2019
6123 Clouds 7 1000 87 10000 6.7 170 11:18 15.12.2019
6124 Rain 7 1000 87 10000 7.7 170 10:55 15.12.2019
6125 Rain 6 1000 87 10000 7.7 170 10:37 15.12.2019
6126 Rain 6 1000 93 10000 7.2 170 10:18 15.12.2019
6127 Rain 6 1000 86 10000 6.7 160 09:41 15.12.2019
6128 Rain 5 1000 86 10000 7.2 160 09:20 15.12.2019
6129 Rain 5 1000 86 10000 7.2 160 08:59 15.12.2019
6130 Rain 5 1000 86 10000 7.7 160 08:41 15.12.2019
6131 Rain 5 1001 86 10000 7.2 160 08:22 15.12.2019
6132 Rain 5 1001 80 10000 6.2 170 07:56 15.12.2019
6133 Rain 5 1001 80 10000 6.2 170 07:35 15.12.2019
6134 Rain 4 1001 75 10000 6.7 170 06:56 15.12.2019
6135 Rain 4 1001 84 10000 4.6 140 06:21 15.12.2019
6136 Rain 4 1002 84 10000 4.6 160 05:37 15.12.2019
6137 Clouds 4 1002 77 10000 4.6 180 05:18 15.12.2019
6138 Clouds 3 1003 74 10000 4.6 180 03:54 15.12.2019
6139 Clouds 3 1003 69 10000 3.6 250 02:34 15.12.2019
6140 Rain 4 1003 75 10000 4.1 260 01:55 15.12.2019
6141 Rain 4 1002 72 10000 6.2 270 01:37 15.12.2019
6142 Rain 4 1002 75 10000 6.2 270 01:18 15.12.2019
6143 Rain 4 1002 72 10000 7.2 270 00:42 15.12.2019
6144 Clouds 5 1001 72 10000 8.7 270 00:23 15.12.2019
6145 Rain 5 1000 75 10000 8.7 260 23:40 14.12.2019
6146 Thunderstorm 5 999 86 10000 6.2 250 23:22 14.12.2019
6147 Thunderstorm 5 999 86 10000 6.2 250 22:59 14.12.2019
6148 Rain 5 998 70 10000 6.2 260 22:41 14.12.2019
6149 Clouds 5 998 86 10000 5.7 200 22:22 14.12.2019
6150 Clouds 5 998 86 10000 5.7 180 21:56 14.12.2019
6151 Clouds 5 998 86 10000 5.7 180 21:38 14.12.2019
6152 Rain 5 998 86 10000 4.6 210 21:19 14.12.2019
6153 Rain 5 998 86 10000 4.6 210 20:57 14.12.2019
6154 Rain 5 998 80 10000 8.2 240 20:39 14.12.2019
6155 Rain 5 997 70 10000 6.7 230 20:19 14.12.2019
6156 Rain 5 997 70 10000 6.7 230 19:57 14.12.2019
6157 Rain 5 997 70 10000 5.7 230 19:37 14.12.2019
6158 Rain 6 997 70 10000 5.1 240 19:19 14.12.2019
6159 Clouds 5 997 70 10000 5.1 240 18:56 14.12.2019
6160 Clouds 5 997 70 10000 7.2 250 18:37 14.12.2019
6161 Clouds 5 996 75 10000 5.1 260 18:19 14.12.2019
6162 Rain 5 996 80 10000 5.1 250 17:44 14.12.2019
6163 Clouds 5 995 75 10000 5.7 260 17:24 14.12.2019
6164 Clouds 6 995 75 10000 5.7 260 16:58 14.12.2019
6165 Clouds 6 994 70 10000 6.2 250 16:39 14.12.2019
6166 Clouds 6 993 75 10000 5.1 260 16:18 14.12.2019
6167 Clouds 5 993 70 10000 6.7 270 15:43 14.12.2019
6168 Clouds 6 992 70 10000 8.2 280 15:22 14.12.2019
6169 Clouds 6 992 70 10000 8.2 280 14:59 14.12.2019
6170 Clouds 6 991 75 10000 8.2 270 14:39 14.12.2019
6171 Rain 6 990 80 10000 8.7 280 14:20 14.12.2019
6172 Rain 5 990 80 10000 8.7 280 13:57 14.12.2019
6173 Rain 5 989 86 10000 9.8 270 13:39 14.12.2019
6174 Rain 5 987 81 10000 8.7 250 13:19 14.12.2019
6175 Rain 4 987 86 10000 7.2 190 12:55 14.12.2019
6176 Rain 4 987 86 10000 7.2 190 12:37 14.12.2019
6177 Rain 4 986 86 10000 5.7 170 12:18 14.12.2019
6178 Rain 4 986 86 10000 8.2 190 11:55 14.12.2019
6179 Rain 4 986 86 10000 8.2 190 11:37 14.12.2019
6180 Rain 4 986 80 10000 7.7 180 11:18 14.12.2019
6181 Rain 4 986 75 10000 7.2 160 10:55 14.12.2019
6182 Clouds 4 986 75 10000 7.2 160 10:37 14.12.2019
6183 Clouds 4 986 77 10000 6.2 170 10:18 14.12.2019
6184 Clouds 4 987 73 10000 5.7 170 09:40 14.12.2019
6185 Clouds 4 987 73 10000 4.1 160 09:21 14.12.2019
6186 Clouds 4 987 73 10000 3.6 160 08:45 14.12.2019
6187 Clouds 4 988 81 10000 5.7 190 08:21 14.12.2019
6188 Clouds 4 988 81 10000 5.7 190 07:58 14.12.2019
6189 Clouds 4 988 80 10000 4.6 200 07:38 14.12.2019
6190 Clouds 4 988 80 10000 7.2 210 07:19 14.12.2019
6191 Clouds 3 988 80 10000 6.2 210 06:42 14.12.2019
6192 Clouds 3 988 80 10000 4.6 210 06:22 14.12.2019
6193 Clouds 4 987 80 10000 5.7 220 05:35 14.12.2019
6194 Rain 4 987 86 10000 5.1 230 03:34 14.12.2019
6195 Clouds 4 986 86 10000 6.2 220 02:23 14.12.2019
6196 Rain 4 986 86 10000 5.7 220 01:44 14.12.2019
6197 Rain 4 986 80 10000 5.1 200 00:59 14.12.2019
6198 Rain 4 985 80 10000 5.1 190 00:40 14.12.2019
6199 Rain 4 985 86 10000 5.1 180 00:20 14.12.2019
6200 Rain 3 985 86 10000 4.6 170 23:41 13.12.2019
6201 Rain 3 985 86 10000 5.1 180 23:19 13.12.2019
6202 Rain 3 985 86 10000 5.1 180 22:57 13.12.2019
6203 Snow 3 984 81 10000 3.6 170 22:38 13.12.2019
6204 Snow 3 984 81 10000 2.6 160 22:18 13.12.2019
6205 Snow 3 984 81 10000 4.6 170 21:44 13.12.2019
6206 Snow 3 984 81 10000 4.6 170 21:22 13.12.2019
6207 Snow 3 984 81 10000 4.6 170 20:59 13.12.2019
6208 Clouds 2 984 80 10000 6.2 170 20:40 13.12.2019
6209 Clouds 2 983 80 10000 6.7 170 20:20 13.12.2019
6210 Clouds 2 983 80 10000 6.7 170 19:57 13.12.2019
6211 Clouds 2 983 80 10000 7.2 170 19:39 13.12.2019
6212 Clouds 2 983 80 10000 7.2 170 19:20 13.12.2019
6213 Clouds 2 982 80 10000 7.7 160 18:56 13.12.2019
6214 Clouds 2 982 86 10000 6.2 160 18:38 13.12.2019
6215 Clouds 2 982 86 10000 6.2 160 18:38 13.12.2019
6216 Clouds 2 982 86 10000 6.2 160 18:18 13.12.2019
6217 Clouds 2 982 86 10000 6.2 160 18:18 13.12.2019
6218 Clouds 2 982 86 10000 6.7 150 17:41 13.12.2019
6219 Clouds 2 982 86 10000 6.7 150 17:19 13.12.2019
6220 Clouds 2 982 86 10000 6.7 150 17:19 13.12.2019
6221 Clouds 2 982 86 10000 5.7 150 16:58 13.12.2019
6222 Snow 2 982 86 5000 6.2 150 16:39 13.12.2019
6223 Snow 2 982 86 5000 6.2 150 16:39 13.12.2019
6224 Snow 1 982 86 5000 6.2 150 16:20 13.12.2019
6225 Snow 2 982 80 4800 8.7 160 15:43 13.12.2019
6226 Clouds 2 982 74 10000 7.2 170 15:23 13.12.2019
6227 Snow 2 981 74 8000 7.2 160 14:58 13.12.2019
6228 Snow 2 981 74 8000 7.2 160 14:39 13.12.2019
6229 Snow 2 981 74 10000 7.7 150 14:20 13.12.2019
6230 Snow 2 981 74 10000 7.7 150 14:20 13.12.2019
6231 Snow 2 981 74 10000 7.7 150 14:20 13.12.2019
6232 Clouds 2 981 74 10000 7.7 150 13:56 13.12.2019
6233 Clouds 3 981 74 10000 8.2 150 13:37 13.12.2019
6234 Clouds 2 981 74 10000 8.2 150 13:19 13.12.2019
6235 Clouds 2 982 74 10000 6.2 160 12:42 13.12.2019
6236 Clouds 2 982 74 10000 6.2 160 12:20 13.12.2019
6237 Clouds 2 982 74 10000 6.7 150 11:57 13.12.2019
6238 Clouds 2 983 74 10000 6.7 150 11:39 13.12.2019
6239 Clouds 2 983 74 10000 6.7 150 11:19 13.12.2019
6240 Clouds 1 983 80 10000 6.7 150 10:42 13.12.2019
6241 Clouds 1 984 80 10000 7.7 160 10:22 13.12.2019
6242 Clouds 1 984 76 10000 8.2 160 09:55 13.12.2019
6243 Clouds 1 984 76 10000 7.7 160 09:36 13.12.2019
6244 Clouds 0 984 76 10000 7.7 160 09:18 13.12.2019
6245 Clouds 0 985 76 10000 5.7 140 08:41 13.12.2019
6246 Clouds 0 985 75 10000 5.7 140 08:23 13.12.2019
6247 Clear 0 986 82 10000 5.7 150 07:44 13.12.2019
6248 Clear 0 986 82 10000 6.2 150 07:21 13.12.2019
6249 Clear 0 987 82 10000 4.6 140 06:51 13.12.2019
6250 Clear 0 987 82 10000 6.7 150 06:28 13.12.2019
6251 Clear 0 988 82 10000 6.2 150 05:45 13.12.2019
6252 Clear 0 989 82 10000 5.1 150 05:24 13.12.2019
6253 Clouds 0 991 86 10000 5.7 150 04:35 13.12.2019
6254 Clouds 0 991 86 10000 4.6 140 03:39 13.12.2019
6255 Clouds 0 993 86 10000 4.6 140 02:33 13.12.2019
6256 Clouds 0 994 89 9000 3.6 140 01:44 13.12.2019
6257 Clouds 0 996 86 10000 3.1 140 00:56 13.12.2019
6258 Clouds 1 997 86 10000 4.1 140 00:37 13.12.2019
6259 Clouds 1 997 86 10000 3.6 140 23:57 12.12.2019
6260 Clouds 1 998 86 10000 2.6 140 23:39 12.12.2019
6261 Clouds 0 998 86 10000 2.6 140 23:20 12.12.2019
6262 Clouds 0 998 86 10000 3.1 140 22:55 12.12.2019
6263 Clouds 1 999 86 10000 4.6 150 22:37 12.12.2019
6264 Clouds 1 999 86 10000 4.6 150 22:18 12.12.2019
6265 Clouds 1 999 86 10000 5.7 160 21:54 12.12.2019
6266 Clouds 1 999 86 10000 5.7 150 21:36 12.12.2019
6267 Clouds 1 999 86 10000 5.7 150 21:18 12.12.2019
6268 Clouds 1 1000 86 10000 5.7 160 20:55 12.12.2019
6269 Clouds 1 1000 86 10000 6.2 160 20:37 12.12.2019
6270 Clouds 1 1000 86 10000 6.2 160 20:19 12.12.2019
6271 Clouds 1 1001 80 10000 6.2 150 19:42 12.12.2019
6272 Clouds 1 1001 80 10000 4.6 150 19:22 12.12.2019
6273 Clouds 1 1001 80 10000 4.6 150 18:58 12.12.2019
6274 Clouds 2 1001 74 10000 4.1 150 18:40 12.12.2019
6275 Clouds 2 1001 74 10000 4.1 150 18:20 12.12.2019
6276 Clouds 2 1002 74 10000 5.1 150 17:58 12.12.2019
6277 Clouds 2 1002 74 10000 5.1 150 17:40 12.12.2019
6278 Clouds 2 1002 74 10000 5.1 150 17:21 12.12.2019
6279 Clouds 2 1002 80 10000 3.6 150 16:58 12.12.2019
6280 Clouds 2 1002 80 10000 3.6 150 16:40 12.12.2019
6281 Clouds 2 1002 80 10000 3.6 140 16:21 12.12.2019
6282 Clouds 3 1002 80 10000 2.6 150 15:57 12.12.2019
6283 Clouds 3 1002 80 10000 2.6 150 15:39 12.12.2019
6284 Clouds 3 1003 74 10000 3.6 150 15:18 12.12.2019
6285 Clouds 4 1003 86 10000 2.6 180 14:56 12.12.2019
6286 Clouds 3 1003 74 10000 3.1 180 14:36 12.12.2019
6287 Clouds 3 1003 74 10000 3.1 180 14:18 12.12.2019
6288 Clouds 3 1003 74 10000 3.6 180 13:54 12.12.2019
6289 Clouds 3 1004 74 10000 3.1 190 13:36 12.12.2019
6290 Clouds 3 1004 74 10000 3.1 190 13:18 12.12.2019
6291 Clouds 3 1004 74 10000 4.1 180 12:41 12.12.2019
6292 Clouds 3 1004 74 10000 3.6 180 12:41 12.12.2019
6293 Clouds 3 1004 74 10000 3.6 180 12:22 12.12.2019
6294 Clouds 3 1004 80 10000 3.6 190 11:59 12.12.2019
6295 Clouds 2 1004 80 10000 3.6 190 11:40 12.12.2019
6296 Clouds 2 1004 80 10000 3.6 190 11:21 12.12.2019
6297 Clouds 3 1004 80 10000 3.1 180 10:58 12.12.2019
6298 Clouds 2 1004 80 10000 3.1 180 10:40 12.12.2019
6299 Rain 2 1004 86 10000 2.6 170 10:21 12.12.2019
6300 Snow 2 1004 86 10000 3.1 190 09:56 12.12.2019
6301 Snow 2 1004 86 10000 3.6 170 09:38 12.12.2019
6302 Snow 2 1004 86 10000 3.6 170 09:19 12.12.2019
6303 Snow 1 1004 86 10000 4.1 170 08:47 12.12.2019
6304 Snow 1 1004 96 9000 4.1 170 08:28 12.12.2019
6305 Snow 1 1004 80 9000 4.1 180 07:55 12.12.2019
6306 Snow 1 1004 74 10000 4.6 190 07:36 12.12.2019
6307 Snow 1 1004 74 10000 4.6 190 07:18 12.12.2019
6308 Snow 1 1004 74 10000 4.1 180 06:41 12.12.2019
6309 Snow 1 1004 74 10000 4.1 180 06:21 12.12.2019
6310 Clouds 1 1004 69 10000 2.1 180 05:28 12.12.2019
6311 Clouds 1 1004 69 10000 4.1 170 04:47 12.12.2019
6312 Clouds 2 1004 64 10000 3.6 140 02:43 12.12.2019
6313 Clouds 2 1005 64 10000 4.6 150 02:24 12.12.2019
6314 Clouds 1 1005 64 10000 6.7 160 01:59 12.12.2019
6315 Clouds 1 1005 64 10000 6.2 160 01:36 12.12.2019
6316 Clouds 1 1005 69 10000 6.2 160 00:50 12.12.2019
6317 Clouds 1 1005 64 10000 6.7 160 00:22 12.12.2019
6318 Clouds 1 1006 64 10000 6.7 160 23:58 11.12.2019
6319 Clouds 1 1006 64 10000 6.2 160 23:38 11.12.2019
6320 Clouds 1 1006 64 10000 6.2 160 23:18 11.12.2019
6321 Clouds 1 1006 64 10000 6.2 160 22:56 11.12.2019
6322 Clouds 1 1006 64 10000 6.7 150 22:38 11.12.2019
6323 Clouds 1 1006 64 10000 6.7 150 22:19 11.12.2019
6324 Clouds 1 1006 69 10000 7.2 160 21:55 11.12.2019
6325 Clouds 1 1006 64 10000 6.2 160 21:36 11.12.2019
6326 Clouds 1 1006 64 10000 6.2 160 21:18 11.12.2019
6327 Clouds 1 1006 74 10000 6.2 160 20:55 11.12.2019
6328 Clouds 1 1007 74 10000 5.7 170 20:37 11.12.2019
6329 Clouds 1 1007 74 10000 5.7 170 20:18 11.12.2019
6330 Clouds 1 1007 74 10000 4.1 160 19:43 11.12.2019
6331 Clouds 1 1007 74 10000 5.7 150 19:23 11.12.2019
6332 Clouds 1 1008 74 10000 5.7 150 19:00 11.12.2019
6333 Clouds 1 1008 74 10000 5.7 150 18:40 11.12.2019
6334 Clouds 1 1008 74 10000 5.7 150 18:40 11.12.2019
6335 Clouds 1 1008 69 10000 6.7 150 18:21 11.12.2019
6336 Clouds 1 1009 64 10000 6.2 150 17:57 11.12.2019
6337 Clouds 1 1009 64 10000 4.6 160 17:38 11.12.2019
6338 Clouds 2 1009 64 10000 4.6 160 17:18 11.12.2019
6339 Clouds 2 1009 59 10000 5.1 160 16:56 11.12.2019
6340 Clouds 2 1009 59 10000 5.1 160 16:56 11.12.2019
6341 Clouds 2 1009 51 10000 4.1 150 16:38 11.12.2019
6342 Clouds 2 1009 51 10000 4.1 150 16:19 11.12.2019
6343 Clouds 3 1009 55 10000 4.6 150 15:57 11.12.2019
6344 Clouds 3 1009 55 10000 4.6 150 15:38 11.12.2019
6345 Clouds 3 1009 55 10000 4.6 150 15:20 11.12.2019
6346 Clouds 4 1010 51 10000 6.2 150 14:55 11.12.2019
6347 Clouds 4 1010 51 10000 7.2 150 14:37 11.12.2019
6348 Clouds 4 1010 51 10000 7.2 150 14:19 11.12.2019
6349 Clouds 4 1010 51 10000 6.2 150 13:54 11.12.2019
6350 Clouds 4 1011 51 10000 5.1 150 13:36 11.12.2019
6351 Clouds 4 1011 51 10000 5.1 150 13:18 11.12.2019
6352 Clouds 4 1012 55 10000 6.2 150 12:54 11.12.2019
6353 Clouds 4 1012 51 10000 4.1 140 12:36 11.12.2019
6354 Clouds 4 1012 51 10000 4.1 140 12:18 11.12.2019
6355 Clouds 4 1013 51 10000 3.6 150 11:55 11.12.2019
6356 Clouds 3 1014 51 10000 5.1 150 11:37 11.12.2019
6357 Clouds 3 1014 51 10000 5.1 150 11:18 11.12.2019
6358 Clouds 3 1014 51 10000 5.7 150 10:44 11.12.2019
6359 Clouds 3 1015 55 10000 4.6 150 10:25 11.12.2019
6360 Clouds 2 1015 59 10000 3.6 150 09:58 11.12.2019
6361 Clouds 1 1015 59 10000 3.1 150 09:38 11.12.2019
6362 Clouds 1 1015 59 10000 3.1 150 09:20 11.12.2019
6363 Clouds 0 1015 59 10000 3.6 150 08:57 11.12.2019
6364 Clouds 0 1014 69 10000 6.2 160 08:37 11.12.2019
6365 Clouds 0 1014 69 10000 6.2 160 08:18 11.12.2019
6366 Clear 0 1014 69 10000 6.2 160 07:45 11.12.2019
6367 Clear -1 1015 69 10000 4.6 150 07:25 11.12.2019
6368 Clear -1 1015 69 10000 4.6 140 06:57 11.12.2019
6369 Clear -1 1015 69 10000 3.6 150 06:37 11.12.2019
6370 Clear -1 1015 69 10000 3.6 150 06:18 11.12.2019
6371 Clear -1 1016 67 10000 1.5 120 05:37 11.12.2019
6372 Clear -1 1017 80 10000 1.5 120 04:57 11.12.2019
6373 Clear -1 1018 73 10000 3.6 150 03:50 11.12.2019
6374 Clear -1 1019 73 10000 3.6 160 02:49 11.12.2019
6375 Clear -1 1021 80 10000 4.1 160 01:23 11.12.2019
6376 Clear -1 1021 78 10000 4.1 160 00:46 11.12.2019
6377 Clear -1 1022 78 10000 4.1 170 00:21 11.12.2019
6378 Clear -1 1022 86 10000 3.6 180 23:47 10.12.2019
6379 Clear -1 1023 78 10000 3.6 170 23:28 10.12.2019
6380 Clear -1 1023 76 10000 4.1 190 22:58 10.12.2019
6381 Clear -1 1023 76 10000 4.1 190 22:40 10.12.2019
6382 Clear -1 1023 76 10000 4.1 190 22:40 10.12.2019
6383 Clear -1 1023 76 10000 4.1 180 22:22 10.12.2019
6384 Clear -1 1023 76 10000 4.1 190 21:56 10.12.2019
6385 Clear 0 1024 76 10000 4.1 200 21:38 10.12.2019
6386 Clear 0 1024 76 10000 4.1 200 21:19 10.12.2019
6387 Clear 0 1024 86 10000 3.6 210 20:57 10.12.2019
6388 Clear 0 1024 86 10000 3.6 210 20:37 10.12.2019
6389 Clear 0 1024 86 10000 3.6 210 20:37 10.12.2019
6390 Clear 0 1024 86 10000 3.6 210 20:19 10.12.2019
6391 Clear 0 1024 86 10000 3.1 210 19:55 10.12.2019
6392 Clouds 0 1024 86 10000 3.6 210 19:37 10.12.2019
6393 Clouds 1 1024 86 10000 3.6 210 19:18 10.12.2019
6394 Clouds 1 1024 86 10000 2.1 230 18:40 10.12.2019
6395 Clouds 1 1024 86 10000 2.6 220 18:20 10.12.2019
6396 Clouds 2 1024 86 10000 1 220 17:58 10.12.2019
6397 Clouds 1 1024 86 10000 1 220 17:40 10.12.2019
6398 Clouds 2 1024 80 10000 1 0 17:20 10.12.2019
6399 Clouds 2 1024 80 10000 3.1 260 16:54 10.12.2019
6400 Clouds 3 1024 80 10000 2.6 280 16:36 10.12.2019
6401 Clouds 3 1024 80 10000 2.6 280 16:18 10.12.2019
6402 Clouds 4 1024 80 10000 4.1 260 15:38 10.12.2019
6403 Clouds 4 1024 80 10000 4.1 260 15:18 10.12.2019
6404 Clouds 4 1024 80 10000 4.6 280 14:56 10.12.2019
6405 Clouds 5 1024 75 10000 4.1 290 14:37 10.12.2019
6406 Clouds 4 1024 75 10000 4.1 290 14:19 10.12.2019
6407 Clouds 5 1023 80 10000 4.6 290 13:57 10.12.2019
6408 Clouds 5 1023 80 10000 4.6 290 13:57 10.12.2019
6409 Clouds 5 1023 75 10000 3.1 270 13:38 10.12.2019
6410 Clouds 5 1023 75 10000 3.1 270 13:19 10.12.2019
6411 Clouds 5 1023 75 10000 3.6 290 12:47 10.12.2019
6412 Clouds 4 1023 80 10000 4.1 290 12:28 10.12.2019
6413 Clouds 4 1023 80 10000 4.6 290 11:56 10.12.2019
6414 Clouds 4 1023 86 10000 5.7 290 11:38 10.12.2019
6415 Clouds 4 1023 86 10000 5.7 290 11:19 10.12.2019
6416 Clouds 4 1023 86 10000 5.7 290 11:19 10.12.2019
6417 Clouds 3 1023 86 10000 5.1 290 10:43 10.12.2019
6418 Clouds 3 1022 87 10000 5.7 300 10:24 10.12.2019
6419 Clouds 3 1021 87 10000 4.6 290 09:57 10.12.2019
6420 Clouds 3 1021 87 10000 4.6 290 09:57 10.12.2019
6421 Clouds 3 1021 87 10000 4.6 290 09:57 10.12.2019
6422 Clouds 3 1021 87 10000 4.6 290 09:39 10.12.2019
6423 Clouds 3 1021 87 10000 4.1 290 09:20 10.12.2019
6424 Clouds 3 1020 87 10000 4.6 290 08:58 10.12.2019
6425 Clouds 3 1020 87 10000 4.6 290 08:39 10.12.2019
6426 Clouds 2 1020 88 10000 5.1 290 08:20 10.12.2019
6427 Clouds 3 1019 88 10000 5.7 300 07:45 10.12.2019
6428 Clouds 3 1018 88 10000 6.2 300 07:27 10.12.2019
6429 Clouds 3 1018 88 10000 6.2 300 06:56 10.12.2019
6430 Clouds 3 1017 88 10000 6.2 300 06:38 10.12.2019
6431 Clouds 3 1017 88 10000 6.2 300 06:19 10.12.2019
6432 Clouds 3 1017 86 10000 6.2 300 05:51 10.12.2019
6433 Clouds 4 1015 80 10000 6.2 290 04:23 10.12.2019
6434 Clouds 4 1014 86 10000 5.1 290 03:27 10.12.2019
6435 Clouds 4 1012 93 10000 5.1 290 02:36 10.12.2019
6436 Clouds 4 1011 93 10000 6.2 310 01:40 10.12.2019
6437 Clouds 4 1011 93 10000 6.2 310 01:19 10.12.2019
6438 Rain 5 1009 86 10000 3.6 290 00:31 10.12.2019
6439 Rain 5 1008 81 10000 3.6 280 23:59 09.12.2019
6440 Rain 5 1007 81 10000 4.1 280 23:39 09.12.2019
6441 Clouds 5 1007 81 10000 4.1 280 23:21 09.12.2019
6442 Clouds 6 1007 81 10000 5.1 290 22:57 09.12.2019
6443 Clouds 6 1006 81 10000 5.1 280 22:39 09.12.2019
6444 Clouds 6 1006 81 10000 5.1 280 22:18 09.12.2019
6445 Clouds 6 1006 87 10000 5.1 270 21:56 09.12.2019
6446 Clouds 6 1005 81 10000 5.1 270 21:38 09.12.2019
6447 Clouds 6 1005 81 10000 5.1 270 21:18 09.12.2019
6448 Clouds 6 1004 81 10000 5.1 260 20:56 09.12.2019
6449 Rain 6 1004 81 10000 6.7 260 20:38 09.12.2019
6450 Rain 6 1004 81 10000 6.7 260 20:19 09.12.2019
6451 Clouds 6 1003 65 10000 5.1 230 19:55 09.12.2019
6452 Clouds 6 1003 70 10000 5.1 230 19:37 09.12.2019
6453 Clouds 6 1003 70 10000 5.1 230 19:19 09.12.2019
6454 Clouds 6 1002 65 10000 5.1 230 18:56 09.12.2019
6455 Clouds 7 1002 70 10000 4.6 190 18:37 09.12.2019
6456 Clouds 7 1002 70 10000 4.6 190 18:19 09.12.2019
6457 Clouds 6 1002 75 10000 4.1 180 17:57 09.12.2019
6458 Clouds 7 1002 75 10000 3.1 190 17:38 09.12.2019
6459 Clouds 7 1002 75 10000 3.1 190 17:20 09.12.2019
6460 Clouds 7 1001 70 10000 3.6 170 16:56 09.12.2019
6461 Clouds 7 1001 65 10000 4.1 190 16:37 09.12.2019
6462 Clouds 7 1001 65 10000 4.1 190 16:18 09.12.2019
6463 Clouds 8 1001 65 10000 5.7 200 15:55 09.12.2019
6464 Clouds 8 1001 61 10000 6.2 210 15:37 09.12.2019
6465 Clouds 8 1001 61 10000 6.7 220 15:19 09.12.2019
6466 Clouds 8 1001 61 10000 6.7 220 14:42 09.12.2019
6467 Clouds 8 1001 57 10000 5.1 220 14:19 09.12.2019
6468 Clouds 8 1001 61 10000 8.2 220 13:58 09.12.2019
6469 Clouds 9 1001 61 10000 8.2 220 13:38 09.12.2019
6470 Rain 9 1001 61 10000 6.7 220 13:19 09.12.2019
6471 Rain 9 1001 61 10000 6.7 220 12:57 09.12.2019
6472 Rain 9 1001 65 10000 6.7 230 12:38 09.12.2019
6473 -273 0 0 0 0 0 12:20 09.12.2019
6474 Clouds 8 1001 65 10000 5.1 240 11:58 09.12.2019
6475 Clouds 8 1001 65 10000 5.1 240 11:39 09.12.2019
6476 Clouds 8 1002 65 10000 6.7 220 11:21 09.12.2019
6477 Clouds 8 1002 65 10000 7.2 220 10:55 09.12.2019
6478 Clouds 8 1001 70 10000 6.2 220 10:37 09.12.2019
6479 Clouds 7 1001 70 10000 6.2 220 10:18 09.12.2019
6480 Clouds 7 1001 70 10000 3.6 210 09:41 09.12.2019
6481 Clouds 7 1001 75 10000 6.7 200 09:22 09.12.2019
6482 Clouds 6 1001 75 10000 6.2 190 08:55 09.12.2019
6483 Clouds 6 1001 81 10000 6.7 190 08:37 09.12.2019
6484 Clouds 6 1001 81 10000 6.7 190 08:19 09.12.2019
6485 Clouds 6 1001 81 10000 4.6 220 07:42 09.12.2019
6486 Clouds 6 1000 75 10000 2.6 240 07:24 09.12.2019
6487 Clouds 6 1001 81 10000 2.6 240 06:54 09.12.2019
6488 Clouds 6 1001 87 10000 3.1 240 06:27 09.12.2019
6489 Rain 6 1001 93 10000 5.1 290 05:30 09.12.2019
6490 Clouds 7 1001 81 10000 5.7 220 04:51 09.12.2019
6491 Clouds 7 1001 81 10000 5.7 220 04:23 09.12.2019
6492 Rain 7 1001 75 10000 5.1 230 02:27 09.12.2019
6493 Clouds 7 1000 81 10000 6.2 210 01:45 09.12.2019
6494 Rain 8 1000 70 10000 3.1 220 00:55 09.12.2019
6495 Rain 8 1000 76 10000 3.6 210 00:32 09.12.2019
6496 Rain 8 1000 76 10000 4.1 250 23:54 08.12.2019
6497 Rain 8 1000 87 10000 4.1 240 23:36 08.12.2019
6498 Rain 8 1000 87 10000 4.1 240 23:18 08.12.2019
6499 Rain 9 1000 76 10000 6.2 250 22:56 08.12.2019
6500 Clouds 9 1000 71 10000 5.1 240 22:37 08.12.2019
6501 Clouds 9 1000 71 10000 5.1 240 22:18 08.12.2019
6502 Clouds 9 1000 71 10000 6.2 220 21:55 08.12.2019
6503 Clouds 10 1001 71 10000 7.2 210 21:36 08.12.2019
6504 Clouds 10 1001 71 10000 7.2 210 21:18 08.12.2019
6505 Clouds 9 1001 71 10000 6.2 220 20:54 08.12.2019
6506 Clouds 9 1001 71 10000 7.7 220 20:36 08.12.2019
6507 Clouds 10 1001 71 10000 7.7 220 20:18 08.12.2019
6508 Clouds 10 1001 66 10000 7.7 220 19:54 08.12.2019
6509 Rain 10 1001 71 10000 8.2 220 19:36 08.12.2019
6510 Rain 9 1001 71 10000 8.2 220 19:18 08.12.2019
6511 Rain 9 1001 66 10000 9.3 220 18:54 08.12.2019
6512 Clouds 9 1002 71 10000 8.7 220 18:36 08.12.2019
6513 Clouds 9 1002 71 10000 8.7 220 18:18 08.12.2019
6514 Clouds 9 1002 71 10000 7.2 220 17:54 08.12.2019
6515 Clouds 9 1002 71 10000 8.2 230 17:36 08.12.2019
6516 Clouds 9 1002 71 10000 8.2 230 17:18 08.12.2019
6517 Clouds 9 1003 76 10000 6.7 220 16:42 08.12.2019
6518 Clouds 9 1003 76 10000 6.7 220 16:24 08.12.2019
6519 Rain 9 1003 76 10000 5.7 220 15:59 08.12.2019
6520 Rain 9 1003 66 10000 4.6 230 15:37 08.12.2019
6521 Rain 9 1003 66 10000 4.6 230 15:18 08.12.2019
6522 Clouds 9 1003 61 10000 2.6 220 14:57 08.12.2019
6523 Clouds 9 1003 61 10000 2.6 220 14:57 08.12.2019
6524 Clouds 9 1003 61 10000 6.2 180 14:37 08.12.2019
6525 Clouds 9 1003 61 10000 6.2 180 14:19 08.12.2019
6526 Clouds 9 1003 61 10000 6.2 180 14:19 08.12.2019
6527 Clouds 9 1003 61 10000 6.2 200 13:41 08.12.2019
6528 Clouds 9 1003 61 10000 6.2 200 13:41 08.12.2019
6529 Clouds 9 1004 61 10000 7.2 210 13:22 08.12.2019
6530 Clouds 10 1005 61 10000 7.7 220 12:59 08.12.2019
6531 Clouds 9 1005 61 10000 7.7 220 12:41 08.12.2019
6532 Clouds 9 1005 61 10000 7.2 220 12:22 08.12.2019
6533 Clouds 9 1006 66 10000 7.7 210 11:59 08.12.2019
6534 Clouds 9 1006 66 10000 6.2 210 11:38 08.12.2019
6535 Clouds 9 1006 66 10000 6.2 210 11:19 08.12.2019
6536 Clouds 9 1007 66 10000 5.1 220 10:57 08.12.2019
6537 Clouds 8 1007 66 10000 6.2 230 10:38 08.12.2019
6538 Clouds 8 1007 66 10000 6.2 230 10:38 08.12.2019
6539 Clouds 8 1007 66 10000 6.2 230 10:19 08.12.2019
6540 Clouds 8 1008 65 10000 6.2 220 09:55 08.12.2019
6541 Clouds 8 1008 70 10000 6.2 220 09:37 08.12.2019
6542 Clouds 7 1008 70 10000 6.2 220 09:19 08.12.2019
6543 Clouds 7 1008 70 10000 6.2 220 09:19 08.12.2019
6544 Clouds 7 1008 70 10000 5.1 230 08:57 08.12.2019
6545 Clouds 7 1009 65 10000 6.2 230 08:36 08.12.2019
6546 Clouds 7 1009 65 10000 6.2 230 08:18 08.12.2019
6547 Clouds 7 1010 65 10000 5.1 220 07:41 08.12.2019
6548 Clouds 7 1010 65 10000 5.1 220 07:19 08.12.2019
6549 Clouds 7 1010 70 10000 5.7 220 06:43 08.12.2019
6550 Clouds 7 1010 70 10000 5.1 230 06:21 08.12.2019
6551 Clouds 7 1011 70 10000 5.7 220 05:35 08.12.2019
6552 Clouds 7 1011 75 10000 5.7 220 04:59 08.12.2019
6553 Clouds 7 1012 75 10000 4.6 230 03:47 08.12.2019
6554 Clouds 7 1013 75 10000 4.1 230 03:20 08.12.2019
6555 Clouds 7 1013 70 10000 3.6 230 02:34 08.12.2019
6556 Clouds 7 1013 70 10000 3.6 230 01:54 08.12.2019
6557 Clouds 7 1014 70 10000 4.1 240 01:19 08.12.2019
6558 Clouds 7 1013 70 10000 4.6 240 00:40 08.12.2019
6559 Clouds 7 1014 75 10000 4.6 240 00:20 08.12.2019
6560 Clouds 7 1014 75 10000 4.6 250 23:41 07.12.2019
6561 Clouds 7 1014 75 10000 5.1 250 23:21 07.12.2019
6562 Clouds 7 1013 75 10000 5.1 250 22:57 07.12.2019
6563 Clouds 7 1013 75 10000 5.1 250 22:39 07.12.2019
6564 Clouds 7 1013 75 10000 5.1 250 22:21 07.12.2019
6565 Clouds 7 1014 81 10000 4.6 260 21:56 07.12.2019
6566 Clouds 7 1014 75 10000 5.7 270 21:38 07.12.2019
6567 Clouds 7 1014 75 10000 5.7 270 21:19 07.12.2019
6568 Rain 7 1013 75 10000 5.1 260 20:59 07.12.2019
6569 Clouds 7 1013 75 10000 5.7 260 20:37 07.12.2019
6570 Clouds 7 1013 75 10000 5.7 260 20:18 07.12.2019
6571 Clouds 7 1013 75 10000 6.2 260 19:56 07.12.2019
6572 Clouds 7 1012 75 10000 5.1 250 19:38 07.12.2019
6573 Clouds 7 1012 75 10000 5.1 250 19:20 07.12.2019
6574 Clouds 7 1012 75 10000 5.1 260 18:44 07.12.2019
6575 Rain 7 1012 75 10000 5.1 250 18:20 07.12.2019
6576 Clouds 7 1012 75 10000 5.1 250 17:58 07.12.2019
6577 Clouds 7 1012 75 10000 5.1 250 17:40 07.12.2019
6578 Rain 8 1012 75 10000 5.1 250 17:22 07.12.2019
6579 Rain 8 1011 75 10000 5.7 250 16:57 07.12.2019
6580 Rain 8 1011 75 10000 5.7 250 16:39 07.12.2019
6581 Rain 8 1011 70 10000 6.2 260 16:20 07.12.2019
6582 Clouds 8 1011 70 10000 6.7 260 15:57 07.12.2019
6583 Clouds 8 1011 70 10000 6.7 260 15:38 07.12.2019
6584 Clouds 8 1010 70 10000 6.2 260 15:20 07.12.2019
6585 Clouds 9 1010 70 10000 6.2 260 14:42 07.12.2019
6586 Clouds 9 1010 70 10000 6.7 270 14:19 07.12.2019
6587 Clouds 9 1010 70 10000 5.7 260 13:58 07.12.2019
6588 Clouds 9 1010 70 10000 5.7 260 13:58 07.12.2019
6589 Clouds 9 1010 70 10000 6.2 250 13:39 07.12.2019
6590 Clouds 9 1010 70 10000 6.2 250 13:19 07.12.2019
6591 Clouds 9 1010 70 10000 6.2 260 12:41 07.12.2019
6592 Clouds 9 1009 76 10000 6.2 260 12:23 07.12.2019
6593 Rain 9 1009 70 10000 7.2 260 11:59 07.12.2019
6594 Rain 9 1009 70 10000 7.2 260 11:41 07.12.2019
6595 Rain 9 1009 70 10000 7.7 260 11:22 07.12.2019
6596 Clouds 8 1009 70 10000 7.2 260 10:54 07.12.2019
6597 Clouds 8 1008 70 10000 6.7 250 10:36 07.12.2019
6598 Clouds 9 1008 70 10000 6.7 250 10:18 07.12.2019
6599 Clouds 8 1008 75 10000 8.2 260 09:39 07.12.2019
6600 Clouds 8 1008 75 10000 8.2 260 09:20 07.12.2019
6601 Clouds 8 1007 75 10000 7.2 260 08:45 07.12.2019
6602 Rain 8 1007 75 10000 8.7 260 08:24 07.12.2019
6603 Rain 8 1007 75 10000 8.7 260 08:24 07.12.2019
6604 Clouds 8 1007 75 10000 8.7 240 07:49 07.12.2019
6605 Clouds 7 1006 75 10000 9.3 240 07:28 07.12.2019
6606 Clouds 7 1006 75 10000 7.7 240 06:52 07.12.2019
6607 Clouds 6 1006 75 10000 10.3 230 06:26 07.12.2019
6608 Clouds 6 1006 75 10000 9.8 240 05:47 07.12.2019
6609 Clouds 5 1006 81 10000 7.7 240 04:44 07.12.2019
6610 Rain 4 1006 81 10000 7.2 240 03:50 07.12.2019
6611 Rain 4 1006 81 10000 6.2 240 02:23 07.12.2019
6612 Rain 4 1006 81 10000 6.2 240 02:23 07.12.2019
6613 Rain 4 1006 81 10000 5.7 210 01:42 07.12.2019
6614 Rain 4 1007 81 10000 5.7 220 01:24 07.12.2019
6615 Rain 4 1007 75 10000 6.2 200 00:36 07.12.2019
6616 Rain 4 1007 75 10000 6.2 200 00:18 07.12.2019
6617 Rain 4 1007 75 10000 6.2 200 00:18 07.12.2019
6618 Rain 4 1008 75 10000 7.7 200 23:42 06.12.2019
6619 Rain 5 1008 70 10000 5.7 190 23:20 06.12.2019
6620 Rain 5 1008 73 10000 4.1 180 22:57 06.12.2019
6621 Rain 5 1009 73 10000 4.6 190 22:36 06.12.2019
6622 Rain 5 1009 73 10000 4.6 190 22:18 06.12.2019
6623 Rain 5 1009 65 10000 5.1 190 21:41 06.12.2019
6624 Clouds 4 1009 65 10000 5.7 190 21:21 06.12.2019
6625 Clouds 4 1009 65 10000 5.7 190 21:21 06.12.2019
6626 Rain 4 1010 64 10000 5.1 180 20:59 06.12.2019
6627 Rain 4 1010 64 10000 5.1 180 20:41 06.12.2019
6628 Rain 4 1010 64 10000 5.1 180 20:41 06.12.2019
6629 Clouds 4 1010 64 10000 4.6 180 20:20 06.12.2019
6630 Clouds 4 1010 64 10000 2.6 160 19:54 06.12.2019
6631 Clouds 4 1011 64 10000 3.6 170 19:36 06.12.2019
6632 Clouds 4 1011 64 10000 3.6 170 19:18 06.12.2019
6633 Clouds 3 1011 64 10000 5.1 180 18:44 06.12.2019
6634 Clouds 3 1010 60 10000 5.1 180 18:22 06.12.2019
6635 Clouds 3 1011 60 10000 5.1 180 17:58 06.12.2019
6636 Clouds 3 1011 60 10000 5.1 180 17:40 06.12.2019
6637 Clouds 3 1011 60 10000 5.1 180 17:40 06.12.2019
6638 Clouds 3 1011 64 10000 5.7 190 17:22 06.12.2019
6639 Clouds 3 1011 60 10000 6.2 180 16:58 06.12.2019
6640 Clouds 3 1011 60 10000 6.2 180 16:40 06.12.2019
6641 Clouds 3 1011 60 10000 4.1 190 16:21 06.12.2019
6642 Clouds 4 1012 56 10000 3.1 170 15:42 06.12.2019
6643 Clouds 4 1012 52 10000 4.1 180 15:24 06.12.2019
6644 Clouds 5 1012 52 10000 4.1 170 14:59 06.12.2019
6645 Clouds 5 1012 52 10000 4.1 170 14:41 06.12.2019
6646 Clouds 6 1012 48 10000 4.1 190 14:20 06.12.2019
6647 Clouds 6 1013 48 10000 2.1 140 13:58 06.12.2019
6648 Clouds 6 1013 48 10000 2.1 140 13:40 06.12.2019
6649 Clouds 5 1013 52 10000 3.6 170 13:21 06.12.2019
6650 Clouds 5 1013 52 10000 3.6 190 12:39 06.12.2019
6651 Clouds 6 1013 52 10000 3.6 190 12:21 06.12.2019
6652 Clouds 5 1014 52 10000 4.6 160 11:43 06.12.2019
6653 Clouds 5 1015 55 10000 5.7 170 11:23 06.12.2019
6654 Clear 4 1015 59 10000 6.7 160 10:58 06.12.2019
6655 Clear 4 1015 59 10000 6.7 160 10:40 06.12.2019
6656 Clear 4 1015 64 10000 5.1 160 10:20 06.12.2019
6657 Clear 3 1015 69 10000 2.1 160 09:56 06.12.2019
6658 Clear 2 1014 39 10000 2.1 160 09:37 06.12.2019
6659 Clear 2 1014 39 10000 2.1 160 09:19 06.12.2019
6660 Clear 1 1015 68 10000 4.6 150 08:44 06.12.2019
6661 Clear 1 1015 68 10000 4.6 150 08:44 06.12.2019
6662 Clear 2 1014 74 10000 4.1 150 08:25 06.12.2019
6663 Clear 2 1014 68 10000 2.1 170 07:44 06.12.2019
6664 Clear 1 1014 68 10000 3.6 140 07:23 06.12.2019
6665 Clear 1 1014 68 10000 3.6 140 07:23 06.12.2019
6666 Clear 1 1014 68 10000 3.6 140 07:23 06.12.2019
6667 Clear 1 1014 68 10000 3.6 140 07:23 06.12.2019
6668 Clear 1 1014 68 10000 3.6 140 07:23 06.12.2019
6669 Clear 1 1014 68 10000 2.1 140 06:55 06.12.2019
6670 Clear 2 1014 37 10000 4.1 150 06:26 06.12.2019
6671 Clear 1 1015 68 10000 2.1 130 05:52 06.12.2019
6672 Clear -1 1016 80 10000 4.1 160 03:57 06.12.2019
6673 Clear -1 1017 80 10000 5.7 150 01:48 06.12.2019
6674 Clear -1 1018 80 10000 4.6 160 00:57 06.12.2019
6675 Clear -1 1018 80 10000 5.7 160 00:37 06.12.2019
6676 Clear -1 1018 80 10000 5.7 160 00:19 06.12.2019
6677 Clear -1 1018 80 10000 6.7 160 23:37 05.12.2019
6678 Clear -1 1018 80 10000 6.7 160 23:18 05.12.2019
6679 Clear -1 1018 80 10000 6.2 160 22:55 05.12.2019
6680 Clear -1 1019 80 10000 5.7 160 22:36 05.12.2019
6681 Clear -1 1019 80 10000 5.7 160 22:18 05.12.2019
6682 Clear -1 1019 80 10000 5.7 160 21:42 05.12.2019
6683 Clear -1 1019 80 10000 5.7 160 21:23 05.12.2019
6684 Clear -1 1019 80 10000 5.1 160 20:58 05.12.2019
6685 Clear -1 1019 80 10000 5.1 160 20:40 05.12.2019
6686 Clear -1 1019 80 10000 5.7 160 20:20 05.12.2019
6687 Clear -1 1020 80 10000 4.6 160 19:55 05.12.2019
6688 Clear -1 1020 80 10000 4.6 160 19:36 05.12.2019
6689 Clear -1 1019 80 10000 5.7 160 19:18 05.12.2019
6690 Clear -1 1019 80 10000 6.2 160 18:39 05.12.2019
6691 Clear -1 1019 80 10000 6.2 160 18:39 05.12.2019
6692 Clear -1 1020 80 10000 6.2 160 18:21 05.12.2019
6693 Clear -1 1020 80 10000 6.2 160 18:21 05.12.2019
6694 Clear -1 1020 80 10000 6.2 160 17:59 05.12.2019
6695 Clear -1 1020 80 10000 6.2 160 17:39 05.12.2019
6696 Clear 0 1020 80 9000 5.7 160 17:19 05.12.2019
6697 Clear 0 1020 80 9000 5.7 160 16:57 05.12.2019
6698 Clear 0 1020 72 10000 5.7 160 16:38 05.12.2019
6699 Clear 0 1020 72 10000 5.7 160 16:20 05.12.2019
6700 Clear 1 1020 72 10000 5.7 160 15:56 05.12.2019
6701 Clear 1 1020 74 10000 6.2 150 15:37 05.12.2019
6702 Clear 1 1020 74 10000 4.6 150 15:19 05.12.2019
6703 Clear 2 1020 74 10000 4.6 150 14:55 05.12.2019
6704 Clear 2 1020 69 10000 4.6 160 14:36 05.12.2019
6705 Clear 2 1021 69 10000 4.1 160 14:18 05.12.2019
6706 Clear 3 1021 69 10000 4.1